<?xml version="1.0" encoding="UTF-8" standalone="no" ?>
<gpx xmlns="http://www.topografix.com/GPX/1/1" xmlns:xsi="http://www.w3.org/2001/XMLSchema-instance" xsi:schemaLocation="http://www.topografix.com/GPX/1/1 http://www.topografix.com/GPX/1/1/gpx.xsd" version="1.1" creator="VisuGPX - https://www.visugpx.com">
  <metadata>
    <name>Tête de la Sallaz 2026</name>
    <desc><![CDATA[AlpineQuest Track 3/15/26 09:32:34]]></desc>
  </metadata>
  <trk>
    <name><![CDATA[Tête de la Sallaz 2026_1]]></name>
    <trkseg>
      <trkpt lat="46.03082" lon="6.57594">
        <ele>1294.283</ele>
        <time>2026-03-15T08:53:45Z</time>
      </trkpt>
      <trkpt lat="46.03077" lon="6.57596">
        <ele>1294.16</ele>
        <time>2026-03-15T08:53:50Z</time>
      </trkpt>
      <trkpt lat="46.03075" lon="6.57599">
        <ele>1293.376</ele>
        <time>2026-03-15T08:53:55Z</time>
      </trkpt>
      <trkpt lat="46.03071" lon="6.57601">
        <ele>1292.546</ele>
        <time>2026-03-15T08:54:00Z</time>
      </trkpt>
      <trkpt lat="46.03071" lon="6.57602">
        <ele>1292.534</ele>
        <time>2026-03-15T08:54:05Z</time>
      </trkpt>
      <trkpt lat="46.0307" lon="6.57602">
        <ele>1291.66</ele>
        <time>2026-03-15T08:54:10Z</time>
      </trkpt>
      <trkpt lat="46.0307" lon="6.57602">
        <ele>1291.592</ele>
        <time>2026-03-15T08:54:15Z</time>
      </trkpt>
      <trkpt lat="46.0307" lon="6.57602">
        <ele>1291.768</ele>
        <time>2026-03-15T08:54:20Z</time>
      </trkpt>
      <trkpt lat="46.0307" lon="6.57602">
        <ele>1291.752</ele>
        <time>2026-03-15T08:54:25Z</time>
      </trkpt>
      <trkpt lat="46.0307" lon="6.57602">
        <ele>1291.745</ele>
        <time>2026-03-15T08:54:30Z</time>
      </trkpt>
      <trkpt lat="46.0307" lon="6.57602">
        <ele>1291.74</ele>
        <time>2026-03-15T08:54:35Z</time>
      </trkpt>
      <trkpt lat="46.0307" lon="6.57602">
        <ele>1291.74</ele>
        <time>2026-03-15T08:54:40Z</time>
      </trkpt>
      <trkpt lat="46.0307" lon="6.57602">
        <ele>1291.542</ele>
        <time>2026-03-15T08:54:45Z</time>
      </trkpt>
      <trkpt lat="46.0307" lon="6.57602">
        <ele>1291.034</ele>
        <time>2026-03-15T08:54:50Z</time>
      </trkpt>
      <trkpt lat="46.0307" lon="6.57602">
        <ele>1291.003</ele>
        <time>2026-03-15T08:54:55Z</time>
      </trkpt>
      <trkpt lat="46.0307" lon="6.57602">
        <ele>1291.016</ele>
        <time>2026-03-15T08:55:00Z</time>
      </trkpt>
      <trkpt lat="46.0307" lon="6.57602">
        <ele>1291.021</ele>
        <time>2026-03-15T08:55:05Z</time>
      </trkpt>
      <trkpt lat="46.0307" lon="6.57602">
        <ele>1291.022</ele>
        <time>2026-03-15T08:55:10Z</time>
      </trkpt>
      <trkpt lat="46.0307" lon="6.57602">
        <ele>1291.023</ele>
        <time>2026-03-15T08:55:15Z</time>
      </trkpt>
      <trkpt lat="46.0307" lon="6.57602">
        <ele>1291.024</ele>
        <time>2026-03-15T08:55:20Z</time>
      </trkpt>
      <trkpt lat="46.0307" lon="6.57602">
        <ele>1291.02</ele>
        <time>2026-03-15T08:55:25Z</time>
      </trkpt>
      <trkpt lat="46.0307" lon="6.57602">
        <ele>1291.029</ele>
        <time>2026-03-15T08:55:30Z</time>
      </trkpt>
      <trkpt lat="46.0307" lon="6.57602">
        <ele>1291.032</ele>
        <time>2026-03-15T08:55:35Z</time>
      </trkpt>
      <trkpt lat="46.0307" lon="6.57602">
        <ele>1291.03</ele>
        <time>2026-03-15T08:55:40Z</time>
      </trkpt>
      <trkpt lat="46.0307" lon="6.57602">
        <ele>1291.026</ele>
        <time>2026-03-15T08:55:45Z</time>
      </trkpt>
      <trkpt lat="46.0307" lon="6.57602">
        <ele>1291.028</ele>
        <time>2026-03-15T08:55:50Z</time>
      </trkpt>
      <trkpt lat="46.0307" lon="6.57602">
        <ele>1291.054</ele>
        <time>2026-03-15T08:55:55Z</time>
      </trkpt>
      <trkpt lat="46.0307" lon="6.57602">
        <ele>1290.822</ele>
        <time>2026-03-15T08:56:00Z</time>
      </trkpt>
      <trkpt lat="46.0307" lon="6.57602">
        <ele>1290.801</ele>
        <time>2026-03-15T08:56:05Z</time>
      </trkpt>
      <trkpt lat="46.0307" lon="6.57602">
        <ele>1290.072</ele>
        <time>2026-03-15T08:56:10Z</time>
      </trkpt>
      <trkpt lat="46.0307" lon="6.57602">
        <ele>1289.778</ele>
        <time>2026-03-15T08:56:15Z</time>
      </trkpt>
      <trkpt lat="46.0307" lon="6.57602">
        <ele>1289.78</ele>
        <time>2026-03-15T08:56:20Z</time>
      </trkpt>
      <trkpt lat="46.0307" lon="6.57602">
        <ele>1289.773</ele>
        <time>2026-03-15T08:56:25Z</time>
      </trkpt>
      <trkpt lat="46.0307" lon="6.57602">
        <ele>1290.163</ele>
        <time>2026-03-15T08:56:30Z</time>
      </trkpt>
      <trkpt lat="46.0307" lon="6.57602">
        <ele>1290.17</ele>
        <time>2026-03-15T08:56:35Z</time>
      </trkpt>
      <trkpt lat="46.0307" lon="6.57602">
        <ele>1290.172</ele>
        <time>2026-03-15T08:56:40Z</time>
      </trkpt>
      <trkpt lat="46.0307" lon="6.57602">
        <ele>1290.168</ele>
        <time>2026-03-15T08:56:45Z</time>
      </trkpt>
      <trkpt lat="46.0307" lon="6.57602">
        <ele>1290.172</ele>
        <time>2026-03-15T08:56:50Z</time>
      </trkpt>
      <trkpt lat="46.0307" lon="6.57602">
        <ele>1289.988</ele>
        <time>2026-03-15T08:56:55Z</time>
      </trkpt>
      <trkpt lat="46.0307" lon="6.57602">
        <ele>1289.689</ele>
        <time>2026-03-15T08:57:00Z</time>
      </trkpt>
      <trkpt lat="46.0307" lon="6.57602">
        <ele>1289.693</ele>
        <time>2026-03-15T08:57:05Z</time>
      </trkpt>
      <trkpt lat="46.0307" lon="6.57604">
        <ele>1289.849</ele>
        <time>2026-03-15T08:57:10Z</time>
      </trkpt>
      <trkpt lat="46.03067" lon="6.57604">
        <ele>1289.54</ele>
        <time>2026-03-15T08:57:15Z</time>
      </trkpt>
      <trkpt lat="46.03064" lon="6.57605">
        <ele>1290.168</ele>
        <time>2026-03-15T08:57:20Z</time>
      </trkpt>
      <trkpt lat="46.0306" lon="6.57606">
        <ele>1290.174</ele>
        <time>2026-03-15T08:57:25Z</time>
      </trkpt>
      <trkpt lat="46.03056" lon="6.57608">
        <ele>1290.027</ele>
        <time>2026-03-15T08:57:30Z</time>
      </trkpt>
      <trkpt lat="46.03052" lon="6.57609">
        <ele>1289.652</ele>
        <time>2026-03-15T08:57:35Z</time>
      </trkpt>
      <trkpt lat="46.03048" lon="6.57611">
        <ele>1289.757</ele>
        <time>2026-03-15T08:57:40Z</time>
      </trkpt>
      <trkpt lat="46.03044" lon="6.57612">
        <ele>1289.947</ele>
        <time>2026-03-15T08:57:45Z</time>
      </trkpt>
      <trkpt lat="46.03039" lon="6.57613">
        <ele>1290.185</ele>
        <time>2026-03-15T08:57:50Z</time>
      </trkpt>
      <trkpt lat="46.03034" lon="6.57614">
        <ele>1290.415</ele>
        <time>2026-03-15T08:57:55Z</time>
      </trkpt>
      <trkpt lat="46.0303" lon="6.57614">
        <ele>1291.427</ele>
        <time>2026-03-15T08:58:00Z</time>
      </trkpt>
      <trkpt lat="46.03026" lon="6.57615">
        <ele>1292.042</ele>
        <time>2026-03-15T08:58:05Z</time>
      </trkpt>
      <trkpt lat="46.03021" lon="6.57614">
        <ele>1293.133</ele>
        <time>2026-03-15T08:58:10Z</time>
      </trkpt>
      <trkpt lat="46.03016" lon="6.57615">
        <ele>1291.982</ele>
        <time>2026-03-15T08:58:15Z</time>
      </trkpt>
      <trkpt lat="46.03012" lon="6.57614">
        <ele>1292.684</ele>
        <time>2026-03-15T08:58:20Z</time>
      </trkpt>
      <trkpt lat="46.03007" lon="6.57614">
        <ele>1292.628</ele>
        <time>2026-03-15T08:58:25Z</time>
      </trkpt>
      <trkpt lat="46.03003" lon="6.57614">
        <ele>1293.039</ele>
        <time>2026-03-15T08:58:30Z</time>
      </trkpt>
      <trkpt lat="46.02998" lon="6.57613">
        <ele>1292.868</ele>
        <time>2026-03-15T08:58:35Z</time>
      </trkpt>
      <trkpt lat="46.02994" lon="6.57612">
        <ele>1292.302</ele>
        <time>2026-03-15T08:58:40Z</time>
      </trkpt>
      <trkpt lat="46.02989" lon="6.57611">
        <ele>1292.958</ele>
        <time>2026-03-15T08:58:45Z</time>
      </trkpt>
      <trkpt lat="46.02984" lon="6.5761">
        <ele>1293.448</ele>
        <time>2026-03-15T08:58:50Z</time>
      </trkpt>
      <trkpt lat="46.0298" lon="6.57609">
        <ele>1293.649</ele>
        <time>2026-03-15T08:58:55Z</time>
      </trkpt>
      <trkpt lat="46.02976" lon="6.57608">
        <ele>1294.027</ele>
        <time>2026-03-15T08:59:00Z</time>
      </trkpt>
      <trkpt lat="46.02972" lon="6.57607">
        <ele>1294.384</ele>
        <time>2026-03-15T08:59:05Z</time>
      </trkpt>
      <trkpt lat="46.02969" lon="6.57606">
        <ele>1295.175</ele>
        <time>2026-03-15T08:59:10Z</time>
      </trkpt>
      <trkpt lat="46.02965" lon="6.57606">
        <ele>1295.323</ele>
        <time>2026-03-15T08:59:15Z</time>
      </trkpt>
      <trkpt lat="46.02963" lon="6.57604">
        <ele>1298.389</ele>
        <time>2026-03-15T08:59:20Z</time>
      </trkpt>
      <trkpt lat="46.0296" lon="6.57604">
        <ele>1298.1</ele>
        <time>2026-03-15T08:59:25Z</time>
      </trkpt>
      <trkpt lat="46.02955" lon="6.57603">
        <ele>1300.572</ele>
        <time>2026-03-15T08:59:30Z</time>
      </trkpt>
      <trkpt lat="46.02952" lon="6.57603">
        <ele>1300.409</ele>
        <time>2026-03-15T08:59:35Z</time>
      </trkpt>
      <trkpt lat="46.02948" lon="6.57602">
        <ele>1302.298</ele>
        <time>2026-03-15T08:59:40Z</time>
      </trkpt>
      <trkpt lat="46.02944" lon="6.57601">
        <ele>1302.803</ele>
        <time>2026-03-15T08:59:45Z</time>
      </trkpt>
      <trkpt lat="46.0294" lon="6.57602">
        <ele>1301.095</ele>
        <time>2026-03-15T08:59:50Z</time>
      </trkpt>
      <trkpt lat="46.02937" lon="6.57602">
        <ele>1301.492</ele>
        <time>2026-03-15T08:59:55Z</time>
      </trkpt>
      <trkpt lat="46.02933" lon="6.57602">
        <ele>1301.445</ele>
        <time>2026-03-15T09:00:00Z</time>
      </trkpt>
      <trkpt lat="46.0293" lon="6.57603">
        <ele>1301.225</ele>
        <time>2026-03-15T09:00:05Z</time>
      </trkpt>
      <trkpt lat="46.02926" lon="6.57602">
        <ele>1302.086</ele>
        <time>2026-03-15T09:00:10Z</time>
      </trkpt>
      <trkpt lat="46.02923" lon="6.57602">
        <ele>1302.607</ele>
        <time>2026-03-15T09:00:15Z</time>
      </trkpt>
      <trkpt lat="46.02919" lon="6.576">
        <ele>1303.358</ele>
        <time>2026-03-15T09:00:20Z</time>
      </trkpt>
      <trkpt lat="46.02916" lon="6.57599">
        <ele>1303.8</ele>
        <time>2026-03-15T09:00:25Z</time>
      </trkpt>
      <trkpt lat="46.02912" lon="6.57597">
        <ele>1303.957</ele>
        <time>2026-03-15T09:00:30Z</time>
      </trkpt>
      <trkpt lat="46.02909" lon="6.57596">
        <ele>1304.26</ele>
        <time>2026-03-15T09:00:35Z</time>
      </trkpt>
      <trkpt lat="46.02906" lon="6.57595">
        <ele>1304.691</ele>
        <time>2026-03-15T09:00:40Z</time>
      </trkpt>
      <trkpt lat="46.02903" lon="6.57593">
        <ele>1305.139</ele>
        <time>2026-03-15T09:00:45Z</time>
      </trkpt>
      <trkpt lat="46.029" lon="6.57592">
        <ele>1304.91</ele>
        <time>2026-03-15T09:00:50Z</time>
      </trkpt>
      <trkpt lat="46.02897" lon="6.57591">
        <ele>1305.504</ele>
        <time>2026-03-15T09:00:55Z</time>
      </trkpt>
      <trkpt lat="46.02893" lon="6.57589">
        <ele>1306.404</ele>
        <time>2026-03-15T09:01:00Z</time>
      </trkpt>
      <trkpt lat="46.0289" lon="6.57588">
        <ele>1306.244</ele>
        <time>2026-03-15T09:01:05Z</time>
      </trkpt>
      <trkpt lat="46.02887" lon="6.57588">
        <ele>1306.575</ele>
        <time>2026-03-15T09:01:10Z</time>
      </trkpt>
      <trkpt lat="46.02884" lon="6.57587">
        <ele>1306.787</ele>
        <time>2026-03-15T09:01:15Z</time>
      </trkpt>
      <trkpt lat="46.0288" lon="6.57586">
        <ele>1307.41</ele>
        <time>2026-03-15T09:01:20Z</time>
      </trkpt>
      <trkpt lat="46.02877" lon="6.57585">
        <ele>1308.047</ele>
        <time>2026-03-15T09:01:25Z</time>
      </trkpt>
      <trkpt lat="46.02873" lon="6.57583">
        <ele>1308.143</ele>
        <time>2026-03-15T09:01:30Z</time>
      </trkpt>
      <trkpt lat="46.0287" lon="6.57582">
        <ele>1308.933</ele>
        <time>2026-03-15T09:01:35Z</time>
      </trkpt>
      <trkpt lat="46.02866" lon="6.57581">
        <ele>1309.682</ele>
        <time>2026-03-15T09:01:40Z</time>
      </trkpt>
      <trkpt lat="46.02862" lon="6.57581">
        <ele>1309.886</ele>
        <time>2026-03-15T09:01:45Z</time>
      </trkpt>
      <trkpt lat="46.02859" lon="6.57581">
        <ele>1310.464</ele>
        <time>2026-03-15T09:01:50Z</time>
      </trkpt>
      <trkpt lat="46.02856" lon="6.57579">
        <ele>1311.618</ele>
        <time>2026-03-15T09:01:55Z</time>
      </trkpt>
      <trkpt lat="46.02853" lon="6.57578">
        <ele>1312.127</ele>
        <time>2026-03-15T09:02:00Z</time>
      </trkpt>
      <trkpt lat="46.02849" lon="6.57577">
        <ele>1312.536</ele>
        <time>2026-03-15T09:02:05Z</time>
      </trkpt>
      <trkpt lat="46.02846" lon="6.57575">
        <ele>1312.945</ele>
        <time>2026-03-15T09:02:10Z</time>
      </trkpt>
      <trkpt lat="46.02842" lon="6.57574">
        <ele>1313.283</ele>
        <time>2026-03-15T09:02:15Z</time>
      </trkpt>
      <trkpt lat="46.02839" lon="6.57572">
        <ele>1313.176</ele>
        <time>2026-03-15T09:02:20Z</time>
      </trkpt>
      <trkpt lat="46.02835" lon="6.57571">
        <ele>1313.741</ele>
        <time>2026-03-15T09:02:25Z</time>
      </trkpt>
      <trkpt lat="46.02831" lon="6.57569">
        <ele>1314.24</ele>
        <time>2026-03-15T09:02:30Z</time>
      </trkpt>
      <trkpt lat="46.02827" lon="6.57567">
        <ele>1314.711</ele>
        <time>2026-03-15T09:02:35Z</time>
      </trkpt>
      <trkpt lat="46.02823" lon="6.57565">
        <ele>1315.15</ele>
        <time>2026-03-15T09:02:40Z</time>
      </trkpt>
      <trkpt lat="46.02819" lon="6.57564">
        <ele>1315.544</ele>
        <time>2026-03-15T09:02:45Z</time>
      </trkpt>
      <trkpt lat="46.02815" lon="6.57563">
        <ele>1315.265</ele>
        <time>2026-03-15T09:02:50Z</time>
      </trkpt>
      <trkpt lat="46.02811" lon="6.57562">
        <ele>1316.427</ele>
        <time>2026-03-15T09:02:55Z</time>
      </trkpt>
      <trkpt lat="46.02807" lon="6.5756">
        <ele>1316.808</ele>
        <time>2026-03-15T09:03:00Z</time>
      </trkpt>
      <trkpt lat="46.02803" lon="6.57559">
        <ele>1316.535</ele>
        <time>2026-03-15T09:03:05Z</time>
      </trkpt>
      <trkpt lat="46.028" lon="6.57558">
        <ele>1316.984</ele>
        <time>2026-03-15T09:03:10Z</time>
      </trkpt>
      <trkpt lat="46.02796" lon="6.57558">
        <ele>1317.643</ele>
        <time>2026-03-15T09:03:15Z</time>
      </trkpt>
      <trkpt lat="46.02793" lon="6.57556">
        <ele>1318.743</ele>
        <time>2026-03-15T09:03:20Z</time>
      </trkpt>
      <trkpt lat="46.0279" lon="6.57555">
        <ele>1318.755</ele>
        <time>2026-03-15T09:03:25Z</time>
      </trkpt>
      <trkpt lat="46.02787" lon="6.57555">
        <ele>1319.306</ele>
        <time>2026-03-15T09:03:30Z</time>
      </trkpt>
      <trkpt lat="46.02783" lon="6.57554">
        <ele>1319.906</ele>
        <time>2026-03-15T09:03:35Z</time>
      </trkpt>
      <trkpt lat="46.0278" lon="6.57552">
        <ele>1320.571</ele>
        <time>2026-03-15T09:03:40Z</time>
      </trkpt>
      <trkpt lat="46.02777" lon="6.57552">
        <ele>1321.215</ele>
        <time>2026-03-15T09:03:45Z</time>
      </trkpt>
      <trkpt lat="46.02773" lon="6.57551">
        <ele>1321.747</ele>
        <time>2026-03-15T09:03:50Z</time>
      </trkpt>
      <trkpt lat="46.02769" lon="6.57549">
        <ele>1322.241</ele>
        <time>2026-03-15T09:03:55Z</time>
      </trkpt>
      <trkpt lat="46.02766" lon="6.57549">
        <ele>1323.091</ele>
        <time>2026-03-15T09:04:00Z</time>
      </trkpt>
      <trkpt lat="46.02762" lon="6.57547">
        <ele>1324.107</ele>
        <time>2026-03-15T09:04:05Z</time>
      </trkpt>
      <trkpt lat="46.02759" lon="6.57546">
        <ele>1324.691</ele>
        <time>2026-03-15T09:04:10Z</time>
      </trkpt>
      <trkpt lat="46.02755" lon="6.57545">
        <ele>1325.203</ele>
        <time>2026-03-15T09:04:15Z</time>
      </trkpt>
      <trkpt lat="46.02751" lon="6.57547">
        <ele>1325.754</ele>
        <time>2026-03-15T09:04:20Z</time>
      </trkpt>
      <trkpt lat="46.02748" lon="6.57548">
        <ele>1326.946</ele>
        <time>2026-03-15T09:04:25Z</time>
      </trkpt>
      <trkpt lat="46.02745" lon="6.57549">
        <ele>1327.23</ele>
        <time>2026-03-15T09:04:30Z</time>
      </trkpt>
      <trkpt lat="46.02742" lon="6.5755">
        <ele>1328.209</ele>
        <time>2026-03-15T09:04:35Z</time>
      </trkpt>
      <trkpt lat="46.02739" lon="6.5755">
        <ele>1328.682</ele>
        <time>2026-03-15T09:04:40Z</time>
      </trkpt>
      <trkpt lat="46.02735" lon="6.57551">
        <ele>1329.044</ele>
        <time>2026-03-15T09:04:45Z</time>
      </trkpt>
      <trkpt lat="46.02733" lon="6.57552">
        <ele>1329.96</ele>
        <time>2026-03-15T09:04:50Z</time>
      </trkpt>
      <trkpt lat="46.0273" lon="6.57553">
        <ele>1329.809</ele>
        <time>2026-03-15T09:04:55Z</time>
      </trkpt>
      <trkpt lat="46.02727" lon="6.57554">
        <ele>1331.179</ele>
        <time>2026-03-15T09:05:00Z</time>
      </trkpt>
      <trkpt lat="46.02725" lon="6.57555">
        <ele>1332.173</ele>
        <time>2026-03-15T09:05:05Z</time>
      </trkpt>
      <trkpt lat="46.02722" lon="6.57556">
        <ele>1332.13</ele>
        <time>2026-03-15T09:05:10Z</time>
      </trkpt>
      <trkpt lat="46.02719" lon="6.57557">
        <ele>1332.453</ele>
        <time>2026-03-15T09:05:15Z</time>
      </trkpt>
      <trkpt lat="46.02716" lon="6.57558">
        <ele>1333.419</ele>
        <time>2026-03-15T09:05:20Z</time>
      </trkpt>
      <trkpt lat="46.02713" lon="6.57559">
        <ele>1333.851</ele>
        <time>2026-03-15T09:05:25Z</time>
      </trkpt>
      <trkpt lat="46.0271" lon="6.5756">
        <ele>1334.427</ele>
        <time>2026-03-15T09:05:30Z</time>
      </trkpt>
      <trkpt lat="46.02707" lon="6.5756">
        <ele>1335.308</ele>
        <time>2026-03-15T09:05:35Z</time>
      </trkpt>
      <trkpt lat="46.02704" lon="6.57561">
        <ele>1335.606</ele>
        <time>2026-03-15T09:05:40Z</time>
      </trkpt>
      <trkpt lat="46.02702" lon="6.57562">
        <ele>1336.884</ele>
        <time>2026-03-15T09:05:45Z</time>
      </trkpt>
      <trkpt lat="46.02699" lon="6.57563">
        <ele>1337.734</ele>
        <time>2026-03-15T09:05:50Z</time>
      </trkpt>
      <trkpt lat="46.02696" lon="6.57564">
        <ele>1338.267</ele>
        <time>2026-03-15T09:05:55Z</time>
      </trkpt>
      <trkpt lat="46.02693" lon="6.57565">
        <ele>1338.833</ele>
        <time>2026-03-15T09:06:00Z</time>
      </trkpt>
      <trkpt lat="46.0269" lon="6.57567">
        <ele>1339.41</ele>
        <time>2026-03-15T09:06:05Z</time>
      </trkpt>
      <trkpt lat="46.02688" lon="6.57568">
        <ele>1340.695</ele>
        <time>2026-03-15T09:06:10Z</time>
      </trkpt>
      <trkpt lat="46.02685" lon="6.57569">
        <ele>1341.61</ele>
        <time>2026-03-15T09:06:15Z</time>
      </trkpt>
      <trkpt lat="46.02681" lon="6.5757">
        <ele>1342.344</ele>
        <time>2026-03-15T09:06:20Z</time>
      </trkpt>
      <trkpt lat="46.02678" lon="6.57571">
        <ele>1343.027</ele>
        <time>2026-03-15T09:06:25Z</time>
      </trkpt>
      <trkpt lat="46.02676" lon="6.57572">
        <ele>1343.704</ele>
        <time>2026-03-15T09:06:30Z</time>
      </trkpt>
      <trkpt lat="46.02673" lon="6.57573">
        <ele>1344.587</ele>
        <time>2026-03-15T09:06:35Z</time>
      </trkpt>
      <trkpt lat="46.02671" lon="6.57575">
        <ele>1344.472</ele>
        <time>2026-03-15T09:06:40Z</time>
      </trkpt>
      <trkpt lat="46.02668" lon="6.57576">
        <ele>1344.971</ele>
        <time>2026-03-15T09:06:45Z</time>
      </trkpt>
      <trkpt lat="46.02665" lon="6.57578">
        <ele>1345.626</ele>
        <time>2026-03-15T09:06:50Z</time>
      </trkpt>
      <trkpt lat="46.02662" lon="6.57579">
        <ele>1346.719</ele>
        <time>2026-03-15T09:06:55Z</time>
      </trkpt>
      <trkpt lat="46.02659" lon="6.57581">
        <ele>1347.542</ele>
        <time>2026-03-15T09:07:00Z</time>
      </trkpt>
      <trkpt lat="46.02657" lon="6.57583">
        <ele>1348.143</ele>
        <time>2026-03-15T09:07:05Z</time>
      </trkpt>
      <trkpt lat="46.02654" lon="6.57584">
        <ele>1349.139</ele>
        <time>2026-03-15T09:07:10Z</time>
      </trkpt>
      <trkpt lat="46.02651" lon="6.57585">
        <ele>1349.622</ele>
        <time>2026-03-15T09:07:15Z</time>
      </trkpt>
      <trkpt lat="46.02649" lon="6.57587">
        <ele>1349.702</ele>
        <time>2026-03-15T09:07:20Z</time>
      </trkpt>
      <trkpt lat="46.02647" lon="6.57588">
        <ele>1351.125</ele>
        <time>2026-03-15T09:07:25Z</time>
      </trkpt>
      <trkpt lat="46.02644" lon="6.57591">
        <ele>1351.253</ele>
        <time>2026-03-15T09:07:30Z</time>
      </trkpt>
      <trkpt lat="46.02641" lon="6.57593">
        <ele>1352.082</ele>
        <time>2026-03-15T09:07:35Z</time>
      </trkpt>
      <trkpt lat="46.02638" lon="6.57596">
        <ele>1352.547</ele>
        <time>2026-03-15T09:07:40Z</time>
      </trkpt>
      <trkpt lat="46.02636" lon="6.57596">
        <ele>1356.617</ele>
        <time>2026-03-15T09:07:45Z</time>
      </trkpt>
      <trkpt lat="46.02632" lon="6.57599">
        <ele>1357.644</ele>
        <time>2026-03-15T09:07:50Z</time>
      </trkpt>
      <trkpt lat="46.02629" lon="6.57602">
        <ele>1357.95</ele>
        <time>2026-03-15T09:07:55Z</time>
      </trkpt>
      <trkpt lat="46.02627" lon="6.57604">
        <ele>1359.41</ele>
        <time>2026-03-15T09:08:00Z</time>
      </trkpt>
      <trkpt lat="46.02624" lon="6.57607">
        <ele>1360.11</ele>
        <time>2026-03-15T09:08:05Z</time>
      </trkpt>
      <trkpt lat="46.02622" lon="6.57609">
        <ele>1358.55</ele>
        <time>2026-03-15T09:08:10Z</time>
      </trkpt>
      <trkpt lat="46.02619" lon="6.57612">
        <ele>1358.862</ele>
        <time>2026-03-15T09:08:15Z</time>
      </trkpt>
      <trkpt lat="46.02616" lon="6.57615">
        <ele>1358.311</ele>
        <time>2026-03-15T09:08:20Z</time>
      </trkpt>
      <trkpt lat="46.02613" lon="6.57618">
        <ele>1358.643</ele>
        <time>2026-03-15T09:08:25Z</time>
      </trkpt>
      <trkpt lat="46.02611" lon="6.5762">
        <ele>1358.544</ele>
        <time>2026-03-15T09:08:30Z</time>
      </trkpt>
      <trkpt lat="46.02609" lon="6.57622">
        <ele>1359.731</ele>
        <time>2026-03-15T09:08:35Z</time>
      </trkpt>
      <trkpt lat="46.02606" lon="6.57623">
        <ele>1360.27</ele>
        <time>2026-03-15T09:08:40Z</time>
      </trkpt>
      <trkpt lat="46.02604" lon="6.57625">
        <ele>1361.236</ele>
        <time>2026-03-15T09:08:45Z</time>
      </trkpt>
      <trkpt lat="46.02602" lon="6.57626">
        <ele>1361.436</ele>
        <time>2026-03-15T09:08:50Z</time>
      </trkpt>
      <trkpt lat="46.026" lon="6.57628">
        <ele>1361.736</ele>
        <time>2026-03-15T09:08:55Z</time>
      </trkpt>
      <trkpt lat="46.02598" lon="6.57631">
        <ele>1362.683</ele>
        <time>2026-03-15T09:09:00Z</time>
      </trkpt>
      <trkpt lat="46.02597" lon="6.57633">
        <ele>1362.406</ele>
        <time>2026-03-15T09:09:05Z</time>
      </trkpt>
      <trkpt lat="46.02595" lon="6.57635">
        <ele>1363.178</ele>
        <time>2026-03-15T09:09:10Z</time>
      </trkpt>
      <trkpt lat="46.02594" lon="6.57637">
        <ele>1364.238</ele>
        <time>2026-03-15T09:09:15Z</time>
      </trkpt>
      <trkpt lat="46.02592" lon="6.57638">
        <ele>1365.32</ele>
        <time>2026-03-15T09:09:20Z</time>
      </trkpt>
      <trkpt lat="46.02591" lon="6.5764">
        <ele>1365.806</ele>
        <time>2026-03-15T09:09:25Z</time>
      </trkpt>
      <trkpt lat="46.02589" lon="6.57642">
        <ele>1366.379</ele>
        <time>2026-03-15T09:09:30Z</time>
      </trkpt>
      <trkpt lat="46.02588" lon="6.57644">
        <ele>1367.531</ele>
        <time>2026-03-15T09:09:35Z</time>
      </trkpt>
      <trkpt lat="46.02586" lon="6.57645">
        <ele>1368.334</ele>
        <time>2026-03-15T09:09:40Z</time>
      </trkpt>
      <trkpt lat="46.02585" lon="6.57647">
        <ele>1368.766</ele>
        <time>2026-03-15T09:09:45Z</time>
      </trkpt>
      <trkpt lat="46.02582" lon="6.57649">
        <ele>1369.522</ele>
        <time>2026-03-15T09:09:50Z</time>
      </trkpt>
      <trkpt lat="46.02581" lon="6.57649">
        <ele>1372.622</ele>
        <time>2026-03-15T09:09:55Z</time>
      </trkpt>
      <trkpt lat="46.02579" lon="6.57651">
        <ele>1373.068</ele>
        <time>2026-03-15T09:10:00Z</time>
      </trkpt>
      <trkpt lat="46.02577" lon="6.57653">
        <ele>1373.27</ele>
        <time>2026-03-15T09:10:05Z</time>
      </trkpt>
      <trkpt lat="46.02577" lon="6.57655">
        <ele>1374.004</ele>
        <time>2026-03-15T09:10:10Z</time>
      </trkpt>
      <trkpt lat="46.02577" lon="6.57657">
        <ele>1374.435</ele>
        <time>2026-03-15T09:10:15Z</time>
      </trkpt>
      <trkpt lat="46.02576" lon="6.57659">
        <ele>1374.661</ele>
        <time>2026-03-15T09:10:20Z</time>
      </trkpt>
      <trkpt lat="46.02574" lon="6.57661">
        <ele>1376.081</ele>
        <time>2026-03-15T09:10:25Z</time>
      </trkpt>
      <trkpt lat="46.02571" lon="6.57665">
        <ele>1376.419</ele>
        <time>2026-03-15T09:10:30Z</time>
      </trkpt>
      <trkpt lat="46.02568" lon="6.57667">
        <ele>1376.468</ele>
        <time>2026-03-15T09:10:35Z</time>
      </trkpt>
      <trkpt lat="46.02567" lon="6.5767">
        <ele>1376.641</ele>
        <time>2026-03-15T09:10:40Z</time>
      </trkpt>
      <trkpt lat="46.02565" lon="6.57672">
        <ele>1377.489</ele>
        <time>2026-03-15T09:10:45Z</time>
      </trkpt>
      <trkpt lat="46.02563" lon="6.57674">
        <ele>1378.172</ele>
        <time>2026-03-15T09:10:50Z</time>
      </trkpt>
      <trkpt lat="46.02562" lon="6.57676">
        <ele>1378.259</ele>
        <time>2026-03-15T09:10:55Z</time>
      </trkpt>
      <trkpt lat="46.0256" lon="6.57678">
        <ele>1378.596</ele>
        <time>2026-03-15T09:11:00Z</time>
      </trkpt>
      <trkpt lat="46.02559" lon="6.5768">
        <ele>1379.812</ele>
        <time>2026-03-15T09:11:05Z</time>
      </trkpt>
      <trkpt lat="46.02558" lon="6.57682">
        <ele>1380.373</ele>
        <time>2026-03-15T09:11:10Z</time>
      </trkpt>
      <trkpt lat="46.02558" lon="6.57684">
        <ele>1381.852</ele>
        <time>2026-03-15T09:11:15Z</time>
      </trkpt>
      <trkpt lat="46.02556" lon="6.57686">
        <ele>1382.301</ele>
        <time>2026-03-15T09:11:20Z</time>
      </trkpt>
      <trkpt lat="46.02555" lon="6.57688">
        <ele>1382.983</ele>
        <time>2026-03-15T09:11:25Z</time>
      </trkpt>
      <trkpt lat="46.02553" lon="6.5769">
        <ele>1383.15</ele>
        <time>2026-03-15T09:11:30Z</time>
      </trkpt>
      <trkpt lat="46.02552" lon="6.57691">
        <ele>1383.719</ele>
        <time>2026-03-15T09:11:35Z</time>
      </trkpt>
      <trkpt lat="46.0255" lon="6.57693">
        <ele>1384.38</ele>
        <time>2026-03-15T09:11:40Z</time>
      </trkpt>
      <trkpt lat="46.02549" lon="6.57695">
        <ele>1385.838</ele>
        <time>2026-03-15T09:11:45Z</time>
      </trkpt>
      <trkpt lat="46.02548" lon="6.57697">
        <ele>1386.303</ele>
        <time>2026-03-15T09:11:50Z</time>
      </trkpt>
      <trkpt lat="46.02547" lon="6.57698">
        <ele>1386.733</ele>
        <time>2026-03-15T09:11:55Z</time>
      </trkpt>
      <trkpt lat="46.02545" lon="6.577">
        <ele>1388.008</ele>
        <time>2026-03-15T09:12:00Z</time>
      </trkpt>
      <trkpt lat="46.02543" lon="6.57702">
        <ele>1388.639</ele>
        <time>2026-03-15T09:12:05Z</time>
      </trkpt>
      <trkpt lat="46.02541" lon="6.57704">
        <ele>1388.965</ele>
        <time>2026-03-15T09:12:10Z</time>
      </trkpt>
      <trkpt lat="46.0254" lon="6.57704">
        <ele>1389.818</ele>
        <time>2026-03-15T09:12:15Z</time>
      </trkpt>
      <trkpt lat="46.02538" lon="6.57706">
        <ele>1390.493</ele>
        <time>2026-03-15T09:12:20Z</time>
      </trkpt>
      <trkpt lat="46.02536" lon="6.57706">
        <ele>1391.58</ele>
        <time>2026-03-15T09:12:25Z</time>
      </trkpt>
      <trkpt lat="46.02534" lon="6.57706">
        <ele>1392.412</ele>
        <time>2026-03-15T09:12:30Z</time>
      </trkpt>
      <trkpt lat="46.02532" lon="6.57707">
        <ele>1393.522</ele>
        <time>2026-03-15T09:12:35Z</time>
      </trkpt>
      <trkpt lat="46.02529" lon="6.57708">
        <ele>1394.071</ele>
        <time>2026-03-15T09:12:40Z</time>
      </trkpt>
      <trkpt lat="46.02527" lon="6.57708">
        <ele>1394.232</ele>
        <time>2026-03-15T09:12:45Z</time>
      </trkpt>
      <trkpt lat="46.02525" lon="6.57709">
        <ele>1395.239</ele>
        <time>2026-03-15T09:12:50Z</time>
      </trkpt>
      <trkpt lat="46.02522" lon="6.5771">
        <ele>1395.866</ele>
        <time>2026-03-15T09:12:55Z</time>
      </trkpt>
      <trkpt lat="46.0252" lon="6.57711">
        <ele>1396.288</ele>
        <time>2026-03-15T09:13:00Z</time>
      </trkpt>
      <trkpt lat="46.02518" lon="6.57713">
        <ele>1397.351</ele>
        <time>2026-03-15T09:13:05Z</time>
      </trkpt>
      <trkpt lat="46.02516" lon="6.57716">
        <ele>1397.493</ele>
        <time>2026-03-15T09:13:10Z</time>
      </trkpt>
      <trkpt lat="46.02515" lon="6.57718">
        <ele>1398.193</ele>
        <time>2026-03-15T09:13:15Z</time>
      </trkpt>
      <trkpt lat="46.02513" lon="6.5772">
        <ele>1398.14</ele>
        <time>2026-03-15T09:13:20Z</time>
      </trkpt>
      <trkpt lat="46.02511" lon="6.57722">
        <ele>1399.083</ele>
        <time>2026-03-15T09:13:25Z</time>
      </trkpt>
      <trkpt lat="46.02509" lon="6.57724">
        <ele>1399.886</ele>
        <time>2026-03-15T09:13:30Z</time>
      </trkpt>
      <trkpt lat="46.02508" lon="6.57726">
        <ele>1400.259</ele>
        <time>2026-03-15T09:13:35Z</time>
      </trkpt>
      <trkpt lat="46.02507" lon="6.57728">
        <ele>1401.394</ele>
        <time>2026-03-15T09:13:40Z</time>
      </trkpt>
      <trkpt lat="46.02506" lon="6.57731">
        <ele>1402.893</ele>
        <time>2026-03-15T09:13:45Z</time>
      </trkpt>
      <trkpt lat="46.02506" lon="6.57734">
        <ele>1403.594</ele>
        <time>2026-03-15T09:13:50Z</time>
      </trkpt>
      <trkpt lat="46.02506" lon="6.57737">
        <ele>1404.237</ele>
        <time>2026-03-15T09:13:55Z</time>
      </trkpt>
      <trkpt lat="46.02506" lon="6.5774">
        <ele>1405.211</ele>
        <time>2026-03-15T09:14:00Z</time>
      </trkpt>
      <trkpt lat="46.02506" lon="6.57742">
        <ele>1405.923</ele>
        <time>2026-03-15T09:14:05Z</time>
      </trkpt>
      <trkpt lat="46.02506" lon="6.57745">
        <ele>1406.812</ele>
        <time>2026-03-15T09:14:10Z</time>
      </trkpt>
      <trkpt lat="46.02505" lon="6.57748">
        <ele>1407.773</ele>
        <time>2026-03-15T09:14:15Z</time>
      </trkpt>
      <trkpt lat="46.02504" lon="6.57751">
        <ele>1407.792</ele>
        <time>2026-03-15T09:14:20Z</time>
      </trkpt>
      <trkpt lat="46.02504" lon="6.57754">
        <ele>1408.13</ele>
        <time>2026-03-15T09:14:25Z</time>
      </trkpt>
      <trkpt lat="46.02504" lon="6.57757">
        <ele>1409.527</ele>
        <time>2026-03-15T09:14:30Z</time>
      </trkpt>
      <trkpt lat="46.02503" lon="6.5776">
        <ele>1410.071</ele>
        <time>2026-03-15T09:14:35Z</time>
      </trkpt>
      <trkpt lat="46.02502" lon="6.57763">
        <ele>1410.574</ele>
        <time>2026-03-15T09:14:40Z</time>
      </trkpt>
      <trkpt lat="46.02502" lon="6.57765">
        <ele>1412.194</ele>
        <time>2026-03-15T09:14:45Z</time>
      </trkpt>
      <trkpt lat="46.02501" lon="6.57768">
        <ele>1412.412</ele>
        <time>2026-03-15T09:14:50Z</time>
      </trkpt>
      <trkpt lat="46.02501" lon="6.57771">
        <ele>1412.915</ele>
        <time>2026-03-15T09:14:55Z</time>
      </trkpt>
      <trkpt lat="46.025" lon="6.57773">
        <ele>1413.928</ele>
        <time>2026-03-15T09:15:00Z</time>
      </trkpt>
      <trkpt lat="46.025" lon="6.57776">
        <ele>1414.687</ele>
        <time>2026-03-15T09:15:05Z</time>
      </trkpt>
      <trkpt lat="46.02499" lon="6.57778">
        <ele>1415.201</ele>
        <time>2026-03-15T09:15:10Z</time>
      </trkpt>
      <trkpt lat="46.02499" lon="6.5778">
        <ele>1415.645</ele>
        <time>2026-03-15T09:15:15Z</time>
      </trkpt>
      <trkpt lat="46.02497" lon="6.57783">
        <ele>1416.289</ele>
        <time>2026-03-15T09:15:20Z</time>
      </trkpt>
      <trkpt lat="46.02496" lon="6.57785">
        <ele>1417.207</ele>
        <time>2026-03-15T09:15:25Z</time>
      </trkpt>
      <trkpt lat="46.02495" lon="6.57788">
        <ele>1417.655</ele>
        <time>2026-03-15T09:15:30Z</time>
      </trkpt>
      <trkpt lat="46.02494" lon="6.5779">
        <ele>1418.588</ele>
        <time>2026-03-15T09:15:35Z</time>
      </trkpt>
      <trkpt lat="46.02494" lon="6.57792">
        <ele>1418.721</ele>
        <time>2026-03-15T09:15:40Z</time>
      </trkpt>
      <trkpt lat="46.02493" lon="6.57795">
        <ele>1418.853</ele>
        <time>2026-03-15T09:15:45Z</time>
      </trkpt>
      <trkpt lat="46.02493" lon="6.57798">
        <ele>1419.69</ele>
        <time>2026-03-15T09:15:50Z</time>
      </trkpt>
      <trkpt lat="46.02492" lon="6.578">
        <ele>1421.062</ele>
        <time>2026-03-15T09:15:55Z</time>
      </trkpt>
      <trkpt lat="46.02492" lon="6.57803">
        <ele>1421.181</ele>
        <time>2026-03-15T09:16:00Z</time>
      </trkpt>
      <trkpt lat="46.02491" lon="6.57806">
        <ele>1422.544</ele>
        <time>2026-03-15T09:16:05Z</time>
      </trkpt>
      <trkpt lat="46.0249" lon="6.57808">
        <ele>1423.433</ele>
        <time>2026-03-15T09:16:10Z</time>
      </trkpt>
      <trkpt lat="46.0249" lon="6.57811">
        <ele>1423.732</ele>
        <time>2026-03-15T09:16:15Z</time>
      </trkpt>
      <trkpt lat="46.02489" lon="6.57813">
        <ele>1425.196</ele>
        <time>2026-03-15T09:16:20Z</time>
      </trkpt>
      <trkpt lat="46.02488" lon="6.57812">
        <ele>1425.505</ele>
        <time>2026-03-15T09:16:25Z</time>
      </trkpt>
      <trkpt lat="46.02486" lon="6.57812">
        <ele>1426.298</ele>
        <time>2026-03-15T09:16:30Z</time>
      </trkpt>
      <trkpt lat="46.02484" lon="6.5781">
        <ele>1426.327</ele>
        <time>2026-03-15T09:16:35Z</time>
      </trkpt>
      <trkpt lat="46.02483" lon="6.57809">
        <ele>1426.572</ele>
        <time>2026-03-15T09:16:40Z</time>
      </trkpt>
      <trkpt lat="46.02481" lon="6.57808">
        <ele>1426.691</ele>
        <time>2026-03-15T09:16:45Z</time>
      </trkpt>
      <trkpt lat="46.0248" lon="6.57807">
        <ele>1427.393</ele>
        <time>2026-03-15T09:16:50Z</time>
      </trkpt>
      <trkpt lat="46.02477" lon="6.57806">
        <ele>1428.837</ele>
        <time>2026-03-15T09:16:55Z</time>
      </trkpt>
      <trkpt lat="46.02474" lon="6.57805">
        <ele>1429.789</ele>
        <time>2026-03-15T09:17:00Z</time>
      </trkpt>
      <trkpt lat="46.02473" lon="6.57804">
        <ele>1430.264</ele>
        <time>2026-03-15T09:17:05Z</time>
      </trkpt>
      <trkpt lat="46.02471" lon="6.57803">
        <ele>1430.561</ele>
        <time>2026-03-15T09:17:10Z</time>
      </trkpt>
      <trkpt lat="46.02469" lon="6.57802">
        <ele>1431.392</ele>
        <time>2026-03-15T09:17:15Z</time>
      </trkpt>
      <trkpt lat="46.02467" lon="6.57802">
        <ele>1431.922</ele>
        <time>2026-03-15T09:17:20Z</time>
      </trkpt>
      <trkpt lat="46.02465" lon="6.57801">
        <ele>1432.982</ele>
        <time>2026-03-15T09:17:25Z</time>
      </trkpt>
      <trkpt lat="46.02463" lon="6.57801">
        <ele>1433.495</ele>
        <time>2026-03-15T09:17:30Z</time>
      </trkpt>
      <trkpt lat="46.02461" lon="6.57799">
        <ele>1434.69</ele>
        <time>2026-03-15T09:17:35Z</time>
      </trkpt>
      <trkpt lat="46.02458" lon="6.57798">
        <ele>1434.79</ele>
        <time>2026-03-15T09:17:40Z</time>
      </trkpt>
      <trkpt lat="46.02455" lon="6.57798">
        <ele>1435.446</ele>
        <time>2026-03-15T09:17:45Z</time>
      </trkpt>
      <trkpt lat="46.02453" lon="6.57798">
        <ele>1435.681</ele>
        <time>2026-03-15T09:17:50Z</time>
      </trkpt>
      <trkpt lat="46.02454" lon="6.57799">
        <ele>1436.018</ele>
        <time>2026-03-15T09:17:55Z</time>
      </trkpt>
      <trkpt lat="46.02454" lon="6.57803">
        <ele>1436.857</ele>
        <time>2026-03-15T09:18:00Z</time>
      </trkpt>
      <trkpt lat="46.02454" lon="6.57806">
        <ele>1437.556</ele>
        <time>2026-03-15T09:18:05Z</time>
      </trkpt>
      <trkpt lat="46.02454" lon="6.57809">
        <ele>1438.761</ele>
        <time>2026-03-15T09:18:10Z</time>
      </trkpt>
      <trkpt lat="46.02454" lon="6.57813">
        <ele>1439.037</ele>
        <time>2026-03-15T09:18:15Z</time>
      </trkpt>
      <trkpt lat="46.02455" lon="6.57815">
        <ele>1438.966</ele>
        <time>2026-03-15T09:18:20Z</time>
      </trkpt>
      <trkpt lat="46.02456" lon="6.57817">
        <ele>1440.607</ele>
        <time>2026-03-15T09:18:25Z</time>
      </trkpt>
      <trkpt lat="46.02456" lon="6.5782">
        <ele>1440.511</ele>
        <time>2026-03-15T09:18:30Z</time>
      </trkpt>
      <trkpt lat="46.02456" lon="6.57823">
        <ele>1441.039</ele>
        <time>2026-03-15T09:18:35Z</time>
      </trkpt>
      <trkpt lat="46.02457" lon="6.57826">
        <ele>1441.634</ele>
        <time>2026-03-15T09:18:40Z</time>
      </trkpt>
      <trkpt lat="46.02457" lon="6.57829">
        <ele>1442.208</ele>
        <time>2026-03-15T09:18:45Z</time>
      </trkpt>
      <trkpt lat="46.02457" lon="6.57832">
        <ele>1442.714</ele>
        <time>2026-03-15T09:18:50Z</time>
      </trkpt>
      <trkpt lat="46.02457" lon="6.57835">
        <ele>1443.098</ele>
        <time>2026-03-15T09:18:55Z</time>
      </trkpt>
      <trkpt lat="46.02458" lon="6.57838">
        <ele>1443.556</ele>
        <time>2026-03-15T09:19:00Z</time>
      </trkpt>
      <trkpt lat="46.02458" lon="6.5784">
        <ele>1444.243</ele>
        <time>2026-03-15T09:19:05Z</time>
      </trkpt>
      <trkpt lat="46.02458" lon="6.57842">
        <ele>1444.731</ele>
        <time>2026-03-15T09:19:10Z</time>
      </trkpt>
      <trkpt lat="46.02458" lon="6.57845">
        <ele>1445.066</ele>
        <time>2026-03-15T09:19:15Z</time>
      </trkpt>
      <trkpt lat="46.02458" lon="6.57847">
        <ele>1445.352</ele>
        <time>2026-03-15T09:19:20Z</time>
      </trkpt>
      <trkpt lat="46.02458" lon="6.57851">
        <ele>1446.076</ele>
        <time>2026-03-15T09:19:25Z</time>
      </trkpt>
      <trkpt lat="46.02458" lon="6.57854">
        <ele>1446.89</ele>
        <time>2026-03-15T09:19:30Z</time>
      </trkpt>
      <trkpt lat="46.02458" lon="6.57855">
        <ele>1447.119</ele>
        <time>2026-03-15T09:19:35Z</time>
      </trkpt>
      <trkpt lat="46.02458" lon="6.57858">
        <ele>1447.117</ele>
        <time>2026-03-15T09:19:40Z</time>
      </trkpt>
      <trkpt lat="46.02458" lon="6.5786">
        <ele>1447.723</ele>
        <time>2026-03-15T09:19:45Z</time>
      </trkpt>
      <trkpt lat="46.02458" lon="6.57862">
        <ele>1448.092</ele>
        <time>2026-03-15T09:19:50Z</time>
      </trkpt>
      <trkpt lat="46.02457" lon="6.57865">
        <ele>1448.594</ele>
        <time>2026-03-15T09:19:55Z</time>
      </trkpt>
      <trkpt lat="46.02456" lon="6.57866">
        <ele>1449.063</ele>
        <time>2026-03-15T09:20:00Z</time>
      </trkpt>
      <trkpt lat="46.02453" lon="6.57864">
        <ele>1449.948</ele>
        <time>2026-03-15T09:20:05Z</time>
      </trkpt>
      <trkpt lat="46.02451" lon="6.57861">
        <ele>1450.622</ele>
        <time>2026-03-15T09:20:10Z</time>
      </trkpt>
      <trkpt lat="46.02449" lon="6.57859">
        <ele>1451.312</ele>
        <time>2026-03-15T09:20:15Z</time>
      </trkpt>
      <trkpt lat="46.02447" lon="6.57857">
        <ele>1452.343</ele>
        <time>2026-03-15T09:20:20Z</time>
      </trkpt>
      <trkpt lat="46.02445" lon="6.57856">
        <ele>1452.462</ele>
        <time>2026-03-15T09:20:25Z</time>
      </trkpt>
      <trkpt lat="46.02442" lon="6.57854">
        <ele>1453.31</ele>
        <time>2026-03-15T09:20:30Z</time>
      </trkpt>
      <trkpt lat="46.0244" lon="6.57852">
        <ele>1454.223</ele>
        <time>2026-03-15T09:20:35Z</time>
      </trkpt>
      <trkpt lat="46.02438" lon="6.57851">
        <ele>1455.278</ele>
        <time>2026-03-15T09:20:40Z</time>
      </trkpt>
      <trkpt lat="46.02435" lon="6.57849">
        <ele>1455.452</ele>
        <time>2026-03-15T09:20:45Z</time>
      </trkpt>
      <trkpt lat="46.02433" lon="6.57848">
        <ele>1455.968</ele>
        <time>2026-03-15T09:20:50Z</time>
      </trkpt>
      <trkpt lat="46.02431" lon="6.57846">
        <ele>1456.973</ele>
        <time>2026-03-15T09:20:55Z</time>
      </trkpt>
      <trkpt lat="46.02429" lon="6.57846">
        <ele>1458.42</ele>
        <time>2026-03-15T09:21:00Z</time>
      </trkpt>
      <trkpt lat="46.02427" lon="6.57845">
        <ele>1458.356</ele>
        <time>2026-03-15T09:21:05Z</time>
      </trkpt>
      <trkpt lat="46.02425" lon="6.57844">
        <ele>1459.456</ele>
        <time>2026-03-15T09:21:10Z</time>
      </trkpt>
      <trkpt lat="46.02423" lon="6.57842">
        <ele>1459.488</ele>
        <time>2026-03-15T09:21:15Z</time>
      </trkpt>
      <trkpt lat="46.02421" lon="6.57841">
        <ele>1460.921</ele>
        <time>2026-03-15T09:21:20Z</time>
      </trkpt>
      <trkpt lat="46.02419" lon="6.57839">
        <ele>1461.987</ele>
        <time>2026-03-15T09:21:25Z</time>
      </trkpt>
      <trkpt lat="46.02416" lon="6.57838">
        <ele>1462.094</ele>
        <time>2026-03-15T09:21:30Z</time>
      </trkpt>
      <trkpt lat="46.02414" lon="6.57837">
        <ele>1463.493</ele>
        <time>2026-03-15T09:21:35Z</time>
      </trkpt>
      <trkpt lat="46.02411" lon="6.57835">
        <ele>1464.326</ele>
        <time>2026-03-15T09:21:40Z</time>
      </trkpt>
      <trkpt lat="46.02409" lon="6.57834">
        <ele>1464.559</ele>
        <time>2026-03-15T09:21:45Z</time>
      </trkpt>
      <trkpt lat="46.02407" lon="6.57836">
        <ele>1465.695</ele>
        <time>2026-03-15T09:21:50Z</time>
      </trkpt>
      <trkpt lat="46.02408" lon="6.5784">
        <ele>1465.997</ele>
        <time>2026-03-15T09:21:55Z</time>
      </trkpt>
      <trkpt lat="46.02408" lon="6.57841">
        <ele>1466.569</ele>
        <time>2026-03-15T09:22:00Z</time>
      </trkpt>
      <trkpt lat="46.02409" lon="6.57845">
        <ele>1467.186</ele>
        <time>2026-03-15T09:22:05Z</time>
      </trkpt>
      <trkpt lat="46.02409" lon="6.57848">
        <ele>1468.307</ele>
        <time>2026-03-15T09:22:10Z</time>
      </trkpt>
      <trkpt lat="46.0241" lon="6.57851">
        <ele>1469.096</ele>
        <time>2026-03-15T09:22:15Z</time>
      </trkpt>
      <trkpt lat="46.0241" lon="6.57855">
        <ele>1470.027</ele>
        <time>2026-03-15T09:22:20Z</time>
      </trkpt>
      <trkpt lat="46.02411" lon="6.57858">
        <ele>1469.792</ele>
        <time>2026-03-15T09:22:25Z</time>
      </trkpt>
      <trkpt lat="46.02411" lon="6.57861">
        <ele>1470.534</ele>
        <time>2026-03-15T09:22:30Z</time>
      </trkpt>
      <trkpt lat="46.02411" lon="6.57865">
        <ele>1471.361</ele>
        <time>2026-03-15T09:22:35Z</time>
      </trkpt>
      <trkpt lat="46.02411" lon="6.57868">
        <ele>1471.015</ele>
        <time>2026-03-15T09:22:40Z</time>
      </trkpt>
      <trkpt lat="46.02411" lon="6.57871">
        <ele>1471.945</ele>
        <time>2026-03-15T09:22:45Z</time>
      </trkpt>
      <trkpt lat="46.02411" lon="6.57874">
        <ele>1472.456</ele>
        <time>2026-03-15T09:22:50Z</time>
      </trkpt>
      <trkpt lat="46.02412" lon="6.57878">
        <ele>1472.957</ele>
        <time>2026-03-15T09:22:55Z</time>
      </trkpt>
      <trkpt lat="46.02412" lon="6.5788">
        <ele>1473.617</ele>
        <time>2026-03-15T09:23:00Z</time>
      </trkpt>
      <trkpt lat="46.02412" lon="6.57883">
        <ele>1474.812</ele>
        <time>2026-03-15T09:23:05Z</time>
      </trkpt>
      <trkpt lat="46.02412" lon="6.57886">
        <ele>1475.798</ele>
        <time>2026-03-15T09:23:10Z</time>
      </trkpt>
      <trkpt lat="46.02411" lon="6.57891">
        <ele>1476.608</ele>
        <time>2026-03-15T09:23:15Z</time>
      </trkpt>
      <trkpt lat="46.02411" lon="6.57894">
        <ele>1477.448</ele>
        <time>2026-03-15T09:23:20Z</time>
      </trkpt>
      <trkpt lat="46.02411" lon="6.57897">
        <ele>1478.09</ele>
        <time>2026-03-15T09:23:25Z</time>
      </trkpt>
      <trkpt lat="46.02411" lon="6.57901">
        <ele>1478.081</ele>
        <time>2026-03-15T09:23:30Z</time>
      </trkpt>
      <trkpt lat="46.02411" lon="6.57904">
        <ele>1478.676</ele>
        <time>2026-03-15T09:23:35Z</time>
      </trkpt>
      <trkpt lat="46.02411" lon="6.57905">
        <ele>1480.093</ele>
        <time>2026-03-15T09:23:40Z</time>
      </trkpt>
      <trkpt lat="46.0241" lon="6.57902">
        <ele>1480.321</ele>
        <time>2026-03-15T09:23:45Z</time>
      </trkpt>
      <trkpt lat="46.02408" lon="6.579">
        <ele>1480.763</ele>
        <time>2026-03-15T09:23:50Z</time>
      </trkpt>
      <trkpt lat="46.02406" lon="6.57898">
        <ele>1481.224</ele>
        <time>2026-03-15T09:23:55Z</time>
      </trkpt>
      <trkpt lat="46.02405" lon="6.57896">
        <ele>1481.748</ele>
        <time>2026-03-15T09:24:00Z</time>
      </trkpt>
      <trkpt lat="46.02403" lon="6.57894">
        <ele>1482.427</ele>
        <time>2026-03-15T09:24:05Z</time>
      </trkpt>
      <trkpt lat="46.02401" lon="6.57892">
        <ele>1483.599</ele>
        <time>2026-03-15T09:24:10Z</time>
      </trkpt>
      <trkpt lat="46.024" lon="6.5789">
        <ele>1484.414</ele>
        <time>2026-03-15T09:24:15Z</time>
      </trkpt>
      <trkpt lat="46.02398" lon="6.57888">
        <ele>1485.291</ele>
        <time>2026-03-15T09:24:20Z</time>
      </trkpt>
      <trkpt lat="46.02396" lon="6.57887">
        <ele>1485.454</ele>
        <time>2026-03-15T09:24:25Z</time>
      </trkpt>
      <trkpt lat="46.02394" lon="6.57886">
        <ele>1485.343</ele>
        <time>2026-03-15T09:24:30Z</time>
      </trkpt>
      <trkpt lat="46.02392" lon="6.57885">
        <ele>1486.222</ele>
        <time>2026-03-15T09:24:35Z</time>
      </trkpt>
      <trkpt lat="46.0239" lon="6.57883">
        <ele>1487.16</ele>
        <time>2026-03-15T09:24:40Z</time>
      </trkpt>
      <trkpt lat="46.02388" lon="6.57882">
        <ele>1488.676</ele>
        <time>2026-03-15T09:24:45Z</time>
      </trkpt>
      <trkpt lat="46.02386" lon="6.57881">
        <ele>1488.898</ele>
        <time>2026-03-15T09:24:50Z</time>
      </trkpt>
      <trkpt lat="46.02384" lon="6.5788">
        <ele>1489.708</ele>
        <time>2026-03-15T09:24:55Z</time>
      </trkpt>
      <trkpt lat="46.02382" lon="6.57879">
        <ele>1489.777</ele>
        <time>2026-03-15T09:25:00Z</time>
      </trkpt>
      <trkpt lat="46.0238" lon="6.57878">
        <ele>1491.112</ele>
        <time>2026-03-15T09:25:05Z</time>
      </trkpt>
      <trkpt lat="46.02378" lon="6.57876">
        <ele>1491.536</ele>
        <time>2026-03-15T09:25:10Z</time>
      </trkpt>
      <trkpt lat="46.02376" lon="6.57875">
        <ele>1491.465</ele>
        <time>2026-03-15T09:25:15Z</time>
      </trkpt>
      <trkpt lat="46.02374" lon="6.57874">
        <ele>1492.121</ele>
        <time>2026-03-15T09:25:20Z</time>
      </trkpt>
      <trkpt lat="46.02372" lon="6.57873">
        <ele>1492.646</ele>
        <time>2026-03-15T09:25:25Z</time>
      </trkpt>
      <trkpt lat="46.0237" lon="6.57872">
        <ele>1492.981</ele>
        <time>2026-03-15T09:25:30Z</time>
      </trkpt>
      <trkpt lat="46.02368" lon="6.57873">
        <ele>1493.19</ele>
        <time>2026-03-15T09:25:35Z</time>
      </trkpt>
      <trkpt lat="46.02369" lon="6.57877">
        <ele>1493.923</ele>
        <time>2026-03-15T09:25:40Z</time>
      </trkpt>
      <trkpt lat="46.02369" lon="6.57881">
        <ele>1495.029</ele>
        <time>2026-03-15T09:25:45Z</time>
      </trkpt>
      <trkpt lat="46.0237" lon="6.57884">
        <ele>1495.849</ele>
        <time>2026-03-15T09:25:50Z</time>
      </trkpt>
      <trkpt lat="46.02371" lon="6.57887">
        <ele>1497.138</ele>
        <time>2026-03-15T09:25:55Z</time>
      </trkpt>
      <trkpt lat="46.02371" lon="6.5789">
        <ele>1497.707</ele>
        <time>2026-03-15T09:26:00Z</time>
      </trkpt>
      <trkpt lat="46.02372" lon="6.57893">
        <ele>1498.693</ele>
        <time>2026-03-15T09:26:05Z</time>
      </trkpt>
      <trkpt lat="46.02372" lon="6.57896">
        <ele>1499.305</ele>
        <time>2026-03-15T09:26:10Z</time>
      </trkpt>
      <trkpt lat="46.02373" lon="6.579">
        <ele>1499.464</ele>
        <time>2026-03-15T09:26:15Z</time>
      </trkpt>
      <trkpt lat="46.02373" lon="6.57904">
        <ele>1499.915</ele>
        <time>2026-03-15T09:26:20Z</time>
      </trkpt>
      <trkpt lat="46.02374" lon="6.57907">
        <ele>1500.175</ele>
        <time>2026-03-15T09:26:25Z</time>
      </trkpt>
      <trkpt lat="46.02374" lon="6.5791">
        <ele>1501.277</ele>
        <time>2026-03-15T09:26:30Z</time>
      </trkpt>
      <trkpt lat="46.02374" lon="6.57913">
        <ele>1502.032</ele>
        <time>2026-03-15T09:26:35Z</time>
      </trkpt>
      <trkpt lat="46.02375" lon="6.57917">
        <ele>1502.439</ele>
        <time>2026-03-15T09:26:40Z</time>
      </trkpt>
      <trkpt lat="46.02375" lon="6.57919">
        <ele>1502.62</ele>
        <time>2026-03-15T09:26:45Z</time>
      </trkpt>
      <trkpt lat="46.02376" lon="6.57923">
        <ele>1503.621</ele>
        <time>2026-03-15T09:26:50Z</time>
      </trkpt>
      <trkpt lat="46.02376" lon="6.57926">
        <ele>1504.091</ele>
        <time>2026-03-15T09:26:55Z</time>
      </trkpt>
      <trkpt lat="46.02377" lon="6.5793">
        <ele>1504.745</ele>
        <time>2026-03-15T09:27:00Z</time>
      </trkpt>
      <trkpt lat="46.02377" lon="6.57933">
        <ele>1505.375</ele>
        <time>2026-03-15T09:27:05Z</time>
      </trkpt>
      <trkpt lat="46.02377" lon="6.57936">
        <ele>1505.838</ele>
        <time>2026-03-15T09:27:10Z</time>
      </trkpt>
      <trkpt lat="46.02377" lon="6.57939">
        <ele>1506.54</ele>
        <time>2026-03-15T09:27:15Z</time>
      </trkpt>
      <trkpt lat="46.02376" lon="6.57942">
        <ele>1506.602</ele>
        <time>2026-03-15T09:27:20Z</time>
      </trkpt>
      <trkpt lat="46.02375" lon="6.57946">
        <ele>1506.926</ele>
        <time>2026-03-15T09:27:25Z</time>
      </trkpt>
      <trkpt lat="46.02375" lon="6.57949">
        <ele>1508.274</ele>
        <time>2026-03-15T09:27:30Z</time>
      </trkpt>
      <trkpt lat="46.02375" lon="6.57952">
        <ele>1508.905</ele>
        <time>2026-03-15T09:27:35Z</time>
      </trkpt>
      <trkpt lat="46.02375" lon="6.57954">
        <ele>1509.748</ele>
        <time>2026-03-15T09:27:40Z</time>
      </trkpt>
      <trkpt lat="46.02375" lon="6.57956">
        <ele>1509.765</ele>
        <time>2026-03-15T09:27:45Z</time>
      </trkpt>
      <trkpt lat="46.02375" lon="6.5796">
        <ele>1510.811</ele>
        <time>2026-03-15T09:27:50Z</time>
      </trkpt>
      <trkpt lat="46.02374" lon="6.57964">
        <ele>1511.747</ele>
        <time>2026-03-15T09:27:55Z</time>
      </trkpt>
      <trkpt lat="46.02374" lon="6.57967">
        <ele>1512.027</ele>
        <time>2026-03-15T09:28:00Z</time>
      </trkpt>
      <trkpt lat="46.02374" lon="6.5797">
        <ele>1512.728</ele>
        <time>2026-03-15T09:28:05Z</time>
      </trkpt>
      <trkpt lat="46.02373" lon="6.57974">
        <ele>1513.294</ele>
        <time>2026-03-15T09:28:10Z</time>
      </trkpt>
      <trkpt lat="46.02373" lon="6.57976">
        <ele>1513.966</ele>
        <time>2026-03-15T09:28:15Z</time>
      </trkpt>
      <trkpt lat="46.02372" lon="6.57979">
        <ele>1514.423</ele>
        <time>2026-03-15T09:28:20Z</time>
      </trkpt>
      <trkpt lat="46.02372" lon="6.57982">
        <ele>1515.053</ele>
        <time>2026-03-15T09:28:25Z</time>
      </trkpt>
      <trkpt lat="46.02372" lon="6.57986">
        <ele>1515.018</ele>
        <time>2026-03-15T09:28:30Z</time>
      </trkpt>
      <trkpt lat="46.02371" lon="6.57989">
        <ele>1514.907</ele>
        <time>2026-03-15T09:28:35Z</time>
      </trkpt>
      <trkpt lat="46.0237" lon="6.57994">
        <ele>1515.691</ele>
        <time>2026-03-15T09:28:40Z</time>
      </trkpt>
      <trkpt lat="46.0237" lon="6.57998">
        <ele>1516.341</ele>
        <time>2026-03-15T09:28:45Z</time>
      </trkpt>
      <trkpt lat="46.02369" lon="6.58001">
        <ele>1517.203</ele>
        <time>2026-03-15T09:28:50Z</time>
      </trkpt>
      <trkpt lat="46.02369" lon="6.58005">
        <ele>1517.346</ele>
        <time>2026-03-15T09:28:55Z</time>
      </trkpt>
      <trkpt lat="46.02369" lon="6.58009">
        <ele>1518.594</ele>
        <time>2026-03-15T09:29:00Z</time>
      </trkpt>
      <trkpt lat="46.02369" lon="6.58013">
        <ele>1518.88</ele>
        <time>2026-03-15T09:29:05Z</time>
      </trkpt>
      <trkpt lat="46.02368" lon="6.58016">
        <ele>1519.98</ele>
        <time>2026-03-15T09:29:10Z</time>
      </trkpt>
      <trkpt lat="46.02368" lon="6.58019">
        <ele>1520.264</ele>
        <time>2026-03-15T09:29:15Z</time>
      </trkpt>
      <trkpt lat="46.02368" lon="6.58022">
        <ele>1521.576</ele>
        <time>2026-03-15T09:29:20Z</time>
      </trkpt>
      <trkpt lat="46.02368" lon="6.58025">
        <ele>1522.12</ele>
        <time>2026-03-15T09:29:25Z</time>
      </trkpt>
      <trkpt lat="46.02368" lon="6.58028">
        <ele>1524.682</ele>
        <time>2026-03-15T09:29:30Z</time>
      </trkpt>
      <trkpt lat="46.02368" lon="6.5803">
        <ele>1524.57</ele>
        <time>2026-03-15T09:29:35Z</time>
      </trkpt>
      <trkpt lat="46.02368" lon="6.58034">
        <ele>1524.99</ele>
        <time>2026-03-15T09:29:40Z</time>
      </trkpt>
      <trkpt lat="46.02367" lon="6.58037">
        <ele>1525.006</ele>
        <time>2026-03-15T09:29:45Z</time>
      </trkpt>
      <trkpt lat="46.02367" lon="6.5804">
        <ele>1525.601</ele>
        <time>2026-03-15T09:29:50Z</time>
      </trkpt>
      <trkpt lat="46.02368" lon="6.58043">
        <ele>1526.828</ele>
        <time>2026-03-15T09:29:55Z</time>
      </trkpt>
      <trkpt lat="46.02368" lon="6.58046">
        <ele>1528.182</ele>
        <time>2026-03-15T09:30:00Z</time>
      </trkpt>
      <trkpt lat="46.02368" lon="6.58048">
        <ele>1527.782</ele>
        <time>2026-03-15T09:30:05Z</time>
      </trkpt>
      <trkpt lat="46.02366" lon="6.58049">
        <ele>1528.884</ele>
        <time>2026-03-15T09:30:10Z</time>
      </trkpt>
      <trkpt lat="46.02364" lon="6.5805">
        <ele>1530.097</ele>
        <time>2026-03-15T09:30:15Z</time>
      </trkpt>
      <trkpt lat="46.02361" lon="6.5805">
        <ele>1531.172</ele>
        <time>2026-03-15T09:30:20Z</time>
      </trkpt>
      <trkpt lat="46.02359" lon="6.5805">
        <ele>1530.447</ele>
        <time>2026-03-15T09:30:25Z</time>
      </trkpt>
      <trkpt lat="46.02357" lon="6.58049">
        <ele>1532.183</ele>
        <time>2026-03-15T09:30:30Z</time>
      </trkpt>
      <trkpt lat="46.02355" lon="6.58049">
        <ele>1532.135</ele>
        <time>2026-03-15T09:30:35Z</time>
      </trkpt>
      <trkpt lat="46.02353" lon="6.58048">
        <ele>1533.591</ele>
        <time>2026-03-15T09:30:40Z</time>
      </trkpt>
      <trkpt lat="46.02351" lon="6.5805">
        <ele>1534.531</ele>
        <time>2026-03-15T09:30:45Z</time>
      </trkpt>
      <trkpt lat="46.0235" lon="6.58054">
        <ele>1535.715</ele>
        <time>2026-03-15T09:30:50Z</time>
      </trkpt>
      <trkpt lat="46.02349" lon="6.58058">
        <ele>1536.285</ele>
        <time>2026-03-15T09:30:55Z</time>
      </trkpt>
      <trkpt lat="46.02348" lon="6.58062">
        <ele>1536.981</ele>
        <time>2026-03-15T09:31:00Z</time>
      </trkpt>
      <trkpt lat="46.02347" lon="6.58066">
        <ele>1538.253</ele>
        <time>2026-03-15T09:31:05Z</time>
      </trkpt>
      <trkpt lat="46.02347" lon="6.58069">
        <ele>1538.083</ele>
        <time>2026-03-15T09:31:10Z</time>
      </trkpt>
      <trkpt lat="46.02346" lon="6.58072">
        <ele>1538.971</ele>
        <time>2026-03-15T09:31:15Z</time>
      </trkpt>
      <trkpt lat="46.02345" lon="6.58076">
        <ele>1539.441</ele>
        <time>2026-03-15T09:31:20Z</time>
      </trkpt>
      <trkpt lat="46.02343" lon="6.58078">
        <ele>1540.328</ele>
        <time>2026-03-15T09:31:25Z</time>
      </trkpt>
      <trkpt lat="46.02341" lon="6.58078">
        <ele>1539.976</ele>
        <time>2026-03-15T09:31:30Z</time>
      </trkpt>
      <trkpt lat="46.02339" lon="6.58073">
        <ele>1539.77</ele>
        <time>2026-03-15T09:31:35Z</time>
      </trkpt>
      <trkpt lat="46.02338" lon="6.58068">
        <ele>1539.768</ele>
        <time>2026-03-15T09:31:40Z</time>
      </trkpt>
      <trkpt lat="46.02337" lon="6.58063">
        <ele>1540.835</ele>
        <time>2026-03-15T09:31:45Z</time>
      </trkpt>
      <trkpt lat="46.02336" lon="6.58059">
        <ele>1541.385</ele>
        <time>2026-03-15T09:31:50Z</time>
      </trkpt>
      <trkpt lat="46.02335" lon="6.58054">
        <ele>1542.436</ele>
        <time>2026-03-15T09:31:55Z</time>
      </trkpt>
      <trkpt lat="46.02334" lon="6.5805">
        <ele>1543.379</ele>
        <time>2026-03-15T09:32:00Z</time>
      </trkpt>
      <trkpt lat="46.02333" lon="6.58046">
        <ele>1543.066</ele>
        <time>2026-03-15T09:32:05Z</time>
      </trkpt>
      <trkpt lat="46.02332" lon="6.58042">
        <ele>1543.735</ele>
        <time>2026-03-15T09:32:10Z</time>
      </trkpt>
      <trkpt lat="46.02331" lon="6.58037">
        <ele>1543.837</ele>
        <time>2026-03-15T09:32:15Z</time>
      </trkpt>
      <trkpt lat="46.02329" lon="6.58034">
        <ele>1545.202</ele>
        <time>2026-03-15T09:32:20Z</time>
      </trkpt>
      <trkpt lat="46.02328" lon="6.5803">
        <ele>1545.89</ele>
        <time>2026-03-15T09:32:25Z</time>
      </trkpt>
      <trkpt lat="46.02326" lon="6.58026">
        <ele>1545.788</ele>
        <time>2026-03-15T09:32:30Z</time>
      </trkpt>
      <trkpt lat="46.02325" lon="6.58021">
        <ele>1546.813</ele>
        <time>2026-03-15T09:32:35Z</time>
      </trkpt>
      <trkpt lat="46.02323" lon="6.58017">
        <ele>1547.373</ele>
        <time>2026-03-15T09:32:40Z</time>
      </trkpt>
      <trkpt lat="46.02321" lon="6.58014">
        <ele>1548.429</ele>
        <time>2026-03-15T09:32:45Z</time>
      </trkpt>
      <trkpt lat="46.02319" lon="6.5801">
        <ele>1548.788</ele>
        <time>2026-03-15T09:32:50Z</time>
      </trkpt>
      <trkpt lat="46.02317" lon="6.58006">
        <ele>1548.686</ele>
        <time>2026-03-15T09:32:55Z</time>
      </trkpt>
      <trkpt lat="46.02315" lon="6.58003">
        <ele>1549.381</ele>
        <time>2026-03-15T09:33:00Z</time>
      </trkpt>
      <trkpt lat="46.02312" lon="6.57998">
        <ele>1549.66</ele>
        <time>2026-03-15T09:33:05Z</time>
      </trkpt>
      <trkpt lat="46.0231" lon="6.57994">
        <ele>1550.426</ele>
        <time>2026-03-15T09:33:10Z</time>
      </trkpt>
      <trkpt lat="46.02309" lon="6.57991">
        <ele>1550.732</ele>
        <time>2026-03-15T09:33:15Z</time>
      </trkpt>
      <trkpt lat="46.02307" lon="6.57989">
        <ele>1551.386</ele>
        <time>2026-03-15T09:33:20Z</time>
      </trkpt>
      <trkpt lat="46.02305" lon="6.57987">
        <ele>1551.609</ele>
        <time>2026-03-15T09:33:25Z</time>
      </trkpt>
      <trkpt lat="46.02302" lon="6.57984">
        <ele>1552.706</ele>
        <time>2026-03-15T09:33:30Z</time>
      </trkpt>
      <trkpt lat="46.023" lon="6.57981">
        <ele>1553.356</ele>
        <time>2026-03-15T09:33:35Z</time>
      </trkpt>
      <trkpt lat="46.02298" lon="6.57978">
        <ele>1553.932</ele>
        <time>2026-03-15T09:33:40Z</time>
      </trkpt>
      <trkpt lat="46.02295" lon="6.57975">
        <ele>1554.5</ele>
        <time>2026-03-15T09:33:45Z</time>
      </trkpt>
      <trkpt lat="46.02293" lon="6.57972">
        <ele>1554.826</ele>
        <time>2026-03-15T09:33:50Z</time>
      </trkpt>
      <trkpt lat="46.02291" lon="6.57969">
        <ele>1555.707</ele>
        <time>2026-03-15T09:33:55Z</time>
      </trkpt>
      <trkpt lat="46.02292" lon="6.57966">
        <ele>1555.863</ele>
        <time>2026-03-15T09:34:00Z</time>
      </trkpt>
      <trkpt lat="46.02292" lon="6.57966">
        <ele>1555.85</ele>
        <time>2026-03-15T09:34:05Z</time>
      </trkpt>
      <trkpt lat="46.02292" lon="6.57966">
        <ele>1555.849</ele>
        <time>2026-03-15T09:34:10Z</time>
      </trkpt>
      <trkpt lat="46.02292" lon="6.57966">
        <ele>1555.939</ele>
        <time>2026-03-15T09:34:15Z</time>
      </trkpt>
      <trkpt lat="46.02292" lon="6.57966">
        <ele>1556.039</ele>
        <time>2026-03-15T09:34:20Z</time>
      </trkpt>
      <trkpt lat="46.02292" lon="6.57966">
        <ele>1556.037</ele>
        <time>2026-03-15T09:34:25Z</time>
      </trkpt>
      <trkpt lat="46.02292" lon="6.57966">
        <ele>1555.706</ele>
        <time>2026-03-15T09:34:30Z</time>
      </trkpt>
      <trkpt lat="46.02292" lon="6.57966">
        <ele>1555.813</ele>
        <time>2026-03-15T09:34:35Z</time>
      </trkpt>
      <trkpt lat="46.02292" lon="6.57966">
        <ele>1555.824</ele>
        <time>2026-03-15T09:34:40Z</time>
      </trkpt>
      <trkpt lat="46.02292" lon="6.57966">
        <ele>1555.833</ele>
        <time>2026-03-15T09:34:45Z</time>
      </trkpt>
      <trkpt lat="46.02292" lon="6.57966">
        <ele>1555.838</ele>
        <time>2026-03-15T09:34:50Z</time>
      </trkpt>
      <trkpt lat="46.02292" lon="6.57966">
        <ele>1555.842</ele>
        <time>2026-03-15T09:34:55Z</time>
      </trkpt>
      <trkpt lat="46.02292" lon="6.57966">
        <ele>1555.855</ele>
        <time>2026-03-15T09:35:00Z</time>
      </trkpt>
      <trkpt lat="46.02292" lon="6.57966">
        <ele>1555.864</ele>
        <time>2026-03-15T09:35:05Z</time>
      </trkpt>
      <trkpt lat="46.02292" lon="6.57966">
        <ele>1555.871</ele>
        <time>2026-03-15T09:35:10Z</time>
      </trkpt>
      <trkpt lat="46.02292" lon="6.57966">
        <ele>1555.878</ele>
        <time>2026-03-15T09:35:15Z</time>
      </trkpt>
      <trkpt lat="46.02292" lon="6.57966">
        <ele>1555.885</ele>
        <time>2026-03-15T09:35:20Z</time>
      </trkpt>
      <trkpt lat="46.02292" lon="6.57966">
        <ele>1556.235</ele>
        <time>2026-03-15T09:35:25Z</time>
      </trkpt>
      <trkpt lat="46.02292" lon="6.57966">
        <ele>1556.999</ele>
        <time>2026-03-15T09:35:30Z</time>
      </trkpt>
      <trkpt lat="46.02292" lon="6.57966">
        <ele>1556.996</ele>
        <time>2026-03-15T09:35:35Z</time>
      </trkpt>
      <trkpt lat="46.02292" lon="6.57966">
        <ele>1556.998</ele>
        <time>2026-03-15T09:35:40Z</time>
      </trkpt>
      <trkpt lat="46.02292" lon="6.57966">
        <ele>1556.997</ele>
        <time>2026-03-15T09:35:45Z</time>
      </trkpt>
      <trkpt lat="46.02292" lon="6.57966">
        <ele>1556.998</ele>
        <time>2026-03-15T09:35:50Z</time>
      </trkpt>
      <trkpt lat="46.02292" lon="6.57966">
        <ele>1557.003</ele>
        <time>2026-03-15T09:35:55Z</time>
      </trkpt>
      <trkpt lat="46.02292" lon="6.57966">
        <ele>1557.003</ele>
        <time>2026-03-15T09:36:00Z</time>
      </trkpt>
      <trkpt lat="46.02292" lon="6.57966">
        <ele>1556.998</ele>
        <time>2026-03-15T09:36:05Z</time>
      </trkpt>
      <trkpt lat="46.02292" lon="6.57966">
        <ele>1557.005</ele>
        <time>2026-03-15T09:36:10Z</time>
      </trkpt>
      <trkpt lat="46.02292" lon="6.57966">
        <ele>1557.003</ele>
        <time>2026-03-15T09:36:15Z</time>
      </trkpt>
      <trkpt lat="46.02292" lon="6.57966">
        <ele>1557.001</ele>
        <time>2026-03-15T09:36:20Z</time>
      </trkpt>
      <trkpt lat="46.02292" lon="6.57966">
        <ele>1557.007</ele>
        <time>2026-03-15T09:36:25Z</time>
      </trkpt>
      <trkpt lat="46.02292" lon="6.57966">
        <ele>1557.008</ele>
        <time>2026-03-15T09:36:30Z</time>
      </trkpt>
      <trkpt lat="46.02292" lon="6.57966">
        <ele>1557.01</ele>
        <time>2026-03-15T09:36:35Z</time>
      </trkpt>
      <trkpt lat="46.02292" lon="6.57966">
        <ele>1557.01</ele>
        <time>2026-03-15T09:36:40Z</time>
      </trkpt>
      <trkpt lat="46.02292" lon="6.57966">
        <ele>1557.01</ele>
        <time>2026-03-15T09:36:45Z</time>
      </trkpt>
      <trkpt lat="46.02292" lon="6.57966">
        <ele>1557.017</ele>
        <time>2026-03-15T09:36:50Z</time>
      </trkpt>
      <trkpt lat="46.02292" lon="6.57966">
        <ele>1557.022</ele>
        <time>2026-03-15T09:36:55Z</time>
      </trkpt>
      <trkpt lat="46.02292" lon="6.57966">
        <ele>1557.028</ele>
        <time>2026-03-15T09:37:00Z</time>
      </trkpt>
      <trkpt lat="46.02292" lon="6.57966">
        <ele>1557.033</ele>
        <time>2026-03-15T09:37:05Z</time>
      </trkpt>
      <trkpt lat="46.02292" lon="6.57966">
        <ele>1557.031</ele>
        <time>2026-03-15T09:37:10Z</time>
      </trkpt>
      <trkpt lat="46.02292" lon="6.57966">
        <ele>1557.032</ele>
        <time>2026-03-15T09:37:15Z</time>
      </trkpt>
      <trkpt lat="46.02292" lon="6.57966">
        <ele>1557.039</ele>
        <time>2026-03-15T09:37:20Z</time>
      </trkpt>
      <trkpt lat="46.02292" lon="6.57966">
        <ele>1557.044</ele>
        <time>2026-03-15T09:37:25Z</time>
      </trkpt>
      <trkpt lat="46.02292" lon="6.57966">
        <ele>1557.048</ele>
        <time>2026-03-15T09:37:30Z</time>
      </trkpt>
      <trkpt lat="46.02292" lon="6.57966">
        <ele>1557.057</ele>
        <time>2026-03-15T09:37:35Z</time>
      </trkpt>
      <trkpt lat="46.02292" lon="6.57966">
        <ele>1556.69</ele>
        <time>2026-03-15T09:37:40Z</time>
      </trkpt>
      <trkpt lat="46.02292" lon="6.57966">
        <ele>1556.937</ele>
        <time>2026-03-15T09:37:45Z</time>
      </trkpt>
      <trkpt lat="46.02292" lon="6.57966">
        <ele>1557.081</ele>
        <time>2026-03-15T09:37:50Z</time>
      </trkpt>
      <trkpt lat="46.02292" lon="6.57966">
        <ele>1557.966</ele>
        <time>2026-03-15T09:37:55Z</time>
      </trkpt>
      <trkpt lat="46.02292" lon="6.57966">
        <ele>1557.886</ele>
        <time>2026-03-15T09:38:00Z</time>
      </trkpt>
      <trkpt lat="46.02292" lon="6.57966">
        <ele>1557.892</ele>
        <time>2026-03-15T09:38:05Z</time>
      </trkpt>
      <trkpt lat="46.02292" lon="6.57966">
        <ele>1557.9</ele>
        <time>2026-03-15T09:38:10Z</time>
      </trkpt>
      <trkpt lat="46.02292" lon="6.57966">
        <ele>1564.407</ele>
        <time>2026-03-15T09:38:15Z</time>
      </trkpt>
      <trkpt lat="46.02292" lon="6.57966">
        <ele>1564.136</ele>
        <time>2026-03-15T09:38:20Z</time>
      </trkpt>
      <trkpt lat="46.02292" lon="6.57966">
        <ele>1562.465</ele>
        <time>2026-03-15T09:38:25Z</time>
      </trkpt>
      <trkpt lat="46.02292" lon="6.57966">
        <ele>1561.885</ele>
        <time>2026-03-15T09:38:30Z</time>
      </trkpt>
      <trkpt lat="46.02292" lon="6.57966">
        <ele>1561.202</ele>
        <time>2026-03-15T09:38:35Z</time>
      </trkpt>
      <trkpt lat="46.02292" lon="6.57966">
        <ele>1560.765</ele>
        <time>2026-03-15T09:38:40Z</time>
      </trkpt>
      <trkpt lat="46.02292" lon="6.57966">
        <ele>1560.362</ele>
        <time>2026-03-15T09:38:45Z</time>
      </trkpt>
      <trkpt lat="46.02292" lon="6.57966">
        <ele>1560.385</ele>
        <time>2026-03-15T09:38:50Z</time>
      </trkpt>
      <trkpt lat="46.02292" lon="6.57966">
        <ele>1560.366</ele>
        <time>2026-03-15T09:38:55Z</time>
      </trkpt>
      <trkpt lat="46.02292" lon="6.57966">
        <ele>1560.491</ele>
        <time>2026-03-15T09:39:00Z</time>
      </trkpt>
      <trkpt lat="46.02292" lon="6.57966">
        <ele>1560.216</ele>
        <time>2026-03-15T09:39:05Z</time>
      </trkpt>
      <trkpt lat="46.02292" lon="6.57966">
        <ele>1560.68</ele>
        <time>2026-03-15T09:39:10Z</time>
      </trkpt>
      <trkpt lat="46.02292" lon="6.57966">
        <ele>1560.703</ele>
        <time>2026-03-15T09:39:15Z</time>
      </trkpt>
      <trkpt lat="46.02292" lon="6.57966">
        <ele>1560.745</ele>
        <time>2026-03-15T09:39:20Z</time>
      </trkpt>
      <trkpt lat="46.02292" lon="6.57966">
        <ele>1560.745</ele>
        <time>2026-03-15T09:39:25Z</time>
      </trkpt>
      <trkpt lat="46.02292" lon="6.57966">
        <ele>1560.748</ele>
        <time>2026-03-15T09:39:30Z</time>
      </trkpt>
      <trkpt lat="46.02292" lon="6.57966">
        <ele>1560.894</ele>
        <time>2026-03-15T09:39:35Z</time>
      </trkpt>
      <trkpt lat="46.02292" lon="6.57966">
        <ele>1561.045</ele>
        <time>2026-03-15T09:39:40Z</time>
      </trkpt>
      <trkpt lat="46.02292" lon="6.57966">
        <ele>1561.151</ele>
        <time>2026-03-15T09:39:45Z</time>
      </trkpt>
      <trkpt lat="46.02292" lon="6.57966">
        <ele>1561.16</ele>
        <time>2026-03-15T09:39:50Z</time>
      </trkpt>
      <trkpt lat="46.02292" lon="6.57966">
        <ele>1561.315</ele>
        <time>2026-03-15T09:39:55Z</time>
      </trkpt>
      <trkpt lat="46.02292" lon="6.57966">
        <ele>1561.398</ele>
        <time>2026-03-15T09:40:00Z</time>
      </trkpt>
      <trkpt lat="46.02292" lon="6.57964">
        <ele>1561.398</ele>
        <time>2026-03-15T09:40:05Z</time>
      </trkpt>
      <trkpt lat="46.02292" lon="6.57964">
        <ele>1561.401</ele>
        <time>2026-03-15T09:40:10Z</time>
      </trkpt>
      <trkpt lat="46.02292" lon="6.57964">
        <ele>1561.404</ele>
        <time>2026-03-15T09:40:15Z</time>
      </trkpt>
      <trkpt lat="46.02292" lon="6.57964">
        <ele>1561.401</ele>
        <time>2026-03-15T09:40:20Z</time>
      </trkpt>
      <trkpt lat="46.02292" lon="6.57964">
        <ele>1561.4</ele>
        <time>2026-03-15T09:40:25Z</time>
      </trkpt>
      <trkpt lat="46.02292" lon="6.57964">
        <ele>1561.397</ele>
        <time>2026-03-15T09:40:30Z</time>
      </trkpt>
      <trkpt lat="46.02292" lon="6.57964">
        <ele>1561.394</ele>
        <time>2026-03-15T09:40:35Z</time>
      </trkpt>
      <trkpt lat="46.02292" lon="6.57964">
        <ele>1561.387</ele>
        <time>2026-03-15T09:40:40Z</time>
      </trkpt>
      <trkpt lat="46.02291" lon="6.57964">
        <ele>1561.377</ele>
        <time>2026-03-15T09:40:45Z</time>
      </trkpt>
      <trkpt lat="46.02291" lon="6.57964">
        <ele>1561.368</ele>
        <time>2026-03-15T09:40:50Z</time>
      </trkpt>
      <trkpt lat="46.02291" lon="6.57964">
        <ele>1561.361</ele>
        <time>2026-03-15T09:40:55Z</time>
      </trkpt>
      <trkpt lat="46.02291" lon="6.57964">
        <ele>1561.352</ele>
        <time>2026-03-15T09:41:00Z</time>
      </trkpt>
      <trkpt lat="46.0229" lon="6.57964">
        <ele>1561.434</ele>
        <time>2026-03-15T09:41:05Z</time>
      </trkpt>
      <trkpt lat="46.02287" lon="6.57962">
        <ele>1560.944</ele>
        <time>2026-03-15T09:41:10Z</time>
      </trkpt>
      <trkpt lat="46.02284" lon="6.5796">
        <ele>1559.778</ele>
        <time>2026-03-15T09:41:15Z</time>
      </trkpt>
      <trkpt lat="46.02281" lon="6.57958">
        <ele>1560.254</ele>
        <time>2026-03-15T09:41:20Z</time>
      </trkpt>
      <trkpt lat="46.02278" lon="6.57956">
        <ele>1560.246</ele>
        <time>2026-03-15T09:41:25Z</time>
      </trkpt>
      <trkpt lat="46.02275" lon="6.57954">
        <ele>1560.9</ele>
        <time>2026-03-15T09:41:30Z</time>
      </trkpt>
      <trkpt lat="46.02273" lon="6.57951">
        <ele>1561.374</ele>
        <time>2026-03-15T09:41:35Z</time>
      </trkpt>
      <trkpt lat="46.02271" lon="6.57949">
        <ele>1561.512</ele>
        <time>2026-03-15T09:41:40Z</time>
      </trkpt>
      <trkpt lat="46.02268" lon="6.57947">
        <ele>1562.069</ele>
        <time>2026-03-15T09:41:45Z</time>
      </trkpt>
      <trkpt lat="46.02266" lon="6.57945">
        <ele>1562.727</ele>
        <time>2026-03-15T09:41:50Z</time>
      </trkpt>
      <trkpt lat="46.02263" lon="6.57942">
        <ele>1563.189</ele>
        <time>2026-03-15T09:41:55Z</time>
      </trkpt>
      <trkpt lat="46.0226" lon="6.5794">
        <ele>1564.139</ele>
        <time>2026-03-15T09:42:00Z</time>
      </trkpt>
      <trkpt lat="46.02258" lon="6.57937">
        <ele>1564.7</ele>
        <time>2026-03-15T09:42:05Z</time>
      </trkpt>
      <trkpt lat="46.02254" lon="6.57935">
        <ele>1565.288</ele>
        <time>2026-03-15T09:42:10Z</time>
      </trkpt>
      <trkpt lat="46.02252" lon="6.57932">
        <ele>1566.145</ele>
        <time>2026-03-15T09:42:15Z</time>
      </trkpt>
      <trkpt lat="46.02249" lon="6.5793">
        <ele>1566.313</ele>
        <time>2026-03-15T09:42:20Z</time>
      </trkpt>
      <trkpt lat="46.02246" lon="6.57928">
        <ele>1567.278</ele>
        <time>2026-03-15T09:42:25Z</time>
      </trkpt>
      <trkpt lat="46.02243" lon="6.57927">
        <ele>1567.789</ele>
        <time>2026-03-15T09:42:30Z</time>
      </trkpt>
      <trkpt lat="46.0224" lon="6.57925">
        <ele>1568.015</ele>
        <time>2026-03-15T09:42:35Z</time>
      </trkpt>
      <trkpt lat="46.02237" lon="6.57924">
        <ele>1569.076</ele>
        <time>2026-03-15T09:42:40Z</time>
      </trkpt>
      <trkpt lat="46.02237" lon="6.57925">
        <ele>1569.633</ele>
        <time>2026-03-15T09:42:44Z</time>
      </trkpt>
      <trkpt lat="46.02234" lon="6.57927">
        <ele>1569.119</ele>
        <time>2026-03-15T09:42:50Z</time>
      </trkpt>
      <trkpt lat="46.02234" lon="6.57932">
        <ele>1571.054</ele>
        <time>2026-03-15T09:42:54Z</time>
      </trkpt>
      <trkpt lat="46.02237" lon="6.57935">
        <ele>1573.785</ele>
        <time>2026-03-15T09:43:00Z</time>
      </trkpt>
      <trkpt lat="46.0224" lon="6.57937">
        <ele>1574.945</ele>
        <time>2026-03-15T09:43:05Z</time>
      </trkpt>
      <trkpt lat="46.02241" lon="6.57943">
        <ele>1574.307</ele>
        <time>2026-03-15T09:43:10Z</time>
      </trkpt>
      <trkpt lat="46.02243" lon="6.57947">
        <ele>1574.146</ele>
        <time>2026-03-15T09:43:15Z</time>
      </trkpt>
      <trkpt lat="46.02245" lon="6.5795">
        <ele>1574.981</ele>
        <time>2026-03-15T09:43:20Z</time>
      </trkpt>
      <trkpt lat="46.02247" lon="6.57954">
        <ele>1574.884</ele>
        <time>2026-03-15T09:43:25Z</time>
      </trkpt>
      <trkpt lat="46.02248" lon="6.57956">
        <ele>1575.72</ele>
        <time>2026-03-15T09:43:30Z</time>
      </trkpt>
      <trkpt lat="46.02248" lon="6.57959">
        <ele>1576.379</ele>
        <time>2026-03-15T09:43:35Z</time>
      </trkpt>
      <trkpt lat="46.02249" lon="6.57963">
        <ele>1576.609</ele>
        <time>2026-03-15T09:43:40Z</time>
      </trkpt>
      <trkpt lat="46.02249" lon="6.57968">
        <ele>1577.054</ele>
        <time>2026-03-15T09:43:45Z</time>
      </trkpt>
      <trkpt lat="46.02249" lon="6.57972">
        <ele>1577.756</ele>
        <time>2026-03-15T09:43:50Z</time>
      </trkpt>
      <trkpt lat="46.0225" lon="6.57975">
        <ele>1578.747</ele>
        <time>2026-03-15T09:43:55Z</time>
      </trkpt>
      <trkpt lat="46.02251" lon="6.57979">
        <ele>1579.424</ele>
        <time>2026-03-15T09:44:00Z</time>
      </trkpt>
      <trkpt lat="46.02251" lon="6.57983">
        <ele>1580.537</ele>
        <time>2026-03-15T09:44:05Z</time>
      </trkpt>
      <trkpt lat="46.02252" lon="6.57986">
        <ele>1580.081</ele>
        <time>2026-03-15T09:44:10Z</time>
      </trkpt>
      <trkpt lat="46.02252" lon="6.5799">
        <ele>1580.503</ele>
        <time>2026-03-15T09:44:15Z</time>
      </trkpt>
      <trkpt lat="46.02253" lon="6.57993">
        <ele>1581.293</ele>
        <time>2026-03-15T09:44:20Z</time>
      </trkpt>
      <trkpt lat="46.02254" lon="6.57996">
        <ele>1582.593</ele>
        <time>2026-03-15T09:44:25Z</time>
      </trkpt>
      <trkpt lat="46.02256" lon="6.58002">
        <ele>1581.605</ele>
        <time>2026-03-15T09:44:30Z</time>
      </trkpt>
      <trkpt lat="46.02259" lon="6.58007">
        <ele>1582.25</ele>
        <time>2026-03-15T09:44:35Z</time>
      </trkpt>
      <trkpt lat="46.0226" lon="6.58011">
        <ele>1583.398</ele>
        <time>2026-03-15T09:44:40Z</time>
      </trkpt>
      <trkpt lat="46.02261" lon="6.58015">
        <ele>1583.317</ele>
        <time>2026-03-15T09:44:45Z</time>
      </trkpt>
      <trkpt lat="46.02261" lon="6.58019">
        <ele>1584.324</ele>
        <time>2026-03-15T09:44:50Z</time>
      </trkpt>
      <trkpt lat="46.02261" lon="6.58023">
        <ele>1584.644</ele>
        <time>2026-03-15T09:44:55Z</time>
      </trkpt>
      <trkpt lat="46.02261" lon="6.58026">
        <ele>1584.779</ele>
        <time>2026-03-15T09:45:00Z</time>
      </trkpt>
      <trkpt lat="46.0226" lon="6.5803">
        <ele>1584.727</ele>
        <time>2026-03-15T09:45:05Z</time>
      </trkpt>
      <trkpt lat="46.0226" lon="6.58033">
        <ele>1585.136</ele>
        <time>2026-03-15T09:45:10Z</time>
      </trkpt>
      <trkpt lat="46.0226" lon="6.58038">
        <ele>1585.421</ele>
        <time>2026-03-15T09:45:15Z</time>
      </trkpt>
      <trkpt lat="46.02261" lon="6.58042">
        <ele>1586.229</ele>
        <time>2026-03-15T09:45:20Z</time>
      </trkpt>
      <trkpt lat="46.02261" lon="6.58045">
        <ele>1586.497</ele>
        <time>2026-03-15T09:45:25Z</time>
      </trkpt>
      <trkpt lat="46.02261" lon="6.5805">
        <ele>1588.041</ele>
        <time>2026-03-15T09:45:30Z</time>
      </trkpt>
      <trkpt lat="46.0226" lon="6.58055">
        <ele>1587.585</ele>
        <time>2026-03-15T09:45:35Z</time>
      </trkpt>
      <trkpt lat="46.0226" lon="6.58058">
        <ele>1588.168</ele>
        <time>2026-03-15T09:45:40Z</time>
      </trkpt>
      <trkpt lat="46.0226" lon="6.58062">
        <ele>1589.005</ele>
        <time>2026-03-15T09:45:45Z</time>
      </trkpt>
      <trkpt lat="46.0226" lon="6.58064">
        <ele>1589.922</ele>
        <time>2026-03-15T09:45:50Z</time>
      </trkpt>
      <trkpt lat="46.02259" lon="6.58067">
        <ele>1590.67</ele>
        <time>2026-03-15T09:45:55Z</time>
      </trkpt>
      <trkpt lat="46.02258" lon="6.58072">
        <ele>1591.83</ele>
        <time>2026-03-15T09:46:00Z</time>
      </trkpt>
      <trkpt lat="46.02256" lon="6.58076">
        <ele>1592.811</ele>
        <time>2026-03-15T09:46:05Z</time>
      </trkpt>
      <trkpt lat="46.02254" lon="6.5808">
        <ele>1594.244</ele>
        <time>2026-03-15T09:46:10Z</time>
      </trkpt>
      <trkpt lat="46.02252" lon="6.58084">
        <ele>1594.731</ele>
        <time>2026-03-15T09:46:15Z</time>
      </trkpt>
      <trkpt lat="46.0225" lon="6.58086">
        <ele>1596.1</ele>
        <time>2026-03-15T09:46:20Z</time>
      </trkpt>
      <trkpt lat="46.02248" lon="6.58089">
        <ele>1595.742</ele>
        <time>2026-03-15T09:46:25Z</time>
      </trkpt>
      <trkpt lat="46.02245" lon="6.58092">
        <ele>1595.464</ele>
        <time>2026-03-15T09:46:30Z</time>
      </trkpt>
      <trkpt lat="46.02242" lon="6.58094">
        <ele>1596.209</ele>
        <time>2026-03-15T09:46:35Z</time>
      </trkpt>
      <trkpt lat="46.02239" lon="6.58096">
        <ele>1596.891</ele>
        <time>2026-03-15T09:46:40Z</time>
      </trkpt>
      <trkpt lat="46.02235" lon="6.58098">
        <ele>1596.117</ele>
        <time>2026-03-15T09:46:45Z</time>
      </trkpt>
      <trkpt lat="46.02232" lon="6.58101">
        <ele>1596.68</ele>
        <time>2026-03-15T09:46:50Z</time>
      </trkpt>
      <trkpt lat="46.0223" lon="6.58104">
        <ele>1597.806</ele>
        <time>2026-03-15T09:46:55Z</time>
      </trkpt>
      <trkpt lat="46.02226" lon="6.58107">
        <ele>1598.605</ele>
        <time>2026-03-15T09:47:00Z</time>
      </trkpt>
      <trkpt lat="46.02223" lon="6.5811">
        <ele>1599.47</ele>
        <time>2026-03-15T09:47:05Z</time>
      </trkpt>
      <trkpt lat="46.0222" lon="6.58114">
        <ele>1598.883</ele>
        <time>2026-03-15T09:47:10Z</time>
      </trkpt>
      <trkpt lat="46.02216" lon="6.58117">
        <ele>1599.208</ele>
        <time>2026-03-15T09:47:15Z</time>
      </trkpt>
      <trkpt lat="46.02214" lon="6.58118">
        <ele>1600.639</ele>
        <time>2026-03-15T09:47:20Z</time>
      </trkpt>
      <trkpt lat="46.02211" lon="6.58122">
        <ele>1601.905</ele>
        <time>2026-03-15T09:47:25Z</time>
      </trkpt>
      <trkpt lat="46.02208" lon="6.58126">
        <ele>1602.371</ele>
        <time>2026-03-15T09:47:30Z</time>
      </trkpt>
      <trkpt lat="46.02205" lon="6.5813">
        <ele>1601.798</ele>
        <time>2026-03-15T09:47:35Z</time>
      </trkpt>
      <trkpt lat="46.02203" lon="6.58134">
        <ele>1601.481</ele>
        <time>2026-03-15T09:47:40Z</time>
      </trkpt>
      <trkpt lat="46.022" lon="6.58138">
        <ele>1602.991</ele>
        <time>2026-03-15T09:47:45Z</time>
      </trkpt>
      <trkpt lat="46.02198" lon="6.58141">
        <ele>1605.164</ele>
        <time>2026-03-15T09:47:50Z</time>
      </trkpt>
      <trkpt lat="46.02197" lon="6.58145">
        <ele>1605.232</ele>
        <time>2026-03-15T09:47:55Z</time>
      </trkpt>
      <trkpt lat="46.02194" lon="6.58146">
        <ele>1605.46</ele>
        <time>2026-03-15T09:48:00Z</time>
      </trkpt>
      <trkpt lat="46.02192" lon="6.58148">
        <ele>1605.626</ele>
        <time>2026-03-15T09:48:05Z</time>
      </trkpt>
      <trkpt lat="46.0219" lon="6.58152">
        <ele>1607.076</ele>
        <time>2026-03-15T09:48:10Z</time>
      </trkpt>
      <trkpt lat="46.02188" lon="6.58155">
        <ele>1606.435</ele>
        <time>2026-03-15T09:48:15Z</time>
      </trkpt>
      <trkpt lat="46.02186" lon="6.58159">
        <ele>1606.084</ele>
        <time>2026-03-15T09:48:20Z</time>
      </trkpt>
      <trkpt lat="46.02185" lon="6.58164">
        <ele>1605.878</ele>
        <time>2026-03-15T09:48:25Z</time>
      </trkpt>
      <trkpt lat="46.02184" lon="6.58169">
        <ele>1606.848</ele>
        <time>2026-03-15T09:48:30Z</time>
      </trkpt>
      <trkpt lat="46.02184" lon="6.58173">
        <ele>1607.193</ele>
        <time>2026-03-15T09:48:35Z</time>
      </trkpt>
      <trkpt lat="46.02184" lon="6.58178">
        <ele>1607.178</ele>
        <time>2026-03-15T09:48:40Z</time>
      </trkpt>
      <trkpt lat="46.02184" lon="6.58183">
        <ele>1608.045</ele>
        <time>2026-03-15T09:48:45Z</time>
      </trkpt>
      <trkpt lat="46.02184" lon="6.58187">
        <ele>1608.067</ele>
        <time>2026-03-15T09:48:50Z</time>
      </trkpt>
      <trkpt lat="46.02184" lon="6.58191">
        <ele>1607.429</ele>
        <time>2026-03-15T09:48:55Z</time>
      </trkpt>
      <trkpt lat="46.02184" lon="6.58195">
        <ele>1608.112</ele>
        <time>2026-03-15T09:49:00Z</time>
      </trkpt>
      <trkpt lat="46.02185" lon="6.58199">
        <ele>1608.547</ele>
        <time>2026-03-15T09:49:05Z</time>
      </trkpt>
      <trkpt lat="46.02186" lon="6.58204">
        <ele>1609.424</ele>
        <time>2026-03-15T09:49:10Z</time>
      </trkpt>
      <trkpt lat="46.02188" lon="6.58208">
        <ele>1609.666</ele>
        <time>2026-03-15T09:49:15Z</time>
      </trkpt>
      <trkpt lat="46.0219" lon="6.58212">
        <ele>1610.713</ele>
        <time>2026-03-15T09:49:20Z</time>
      </trkpt>
      <trkpt lat="46.02193" lon="6.58216">
        <ele>1611.903</ele>
        <time>2026-03-15T09:49:25Z</time>
      </trkpt>
      <trkpt lat="46.02197" lon="6.5822">
        <ele>1612.557</ele>
        <time>2026-03-15T09:49:30Z</time>
      </trkpt>
      <trkpt lat="46.022" lon="6.58222">
        <ele>1613.594</ele>
        <time>2026-03-15T09:49:35Z</time>
      </trkpt>
      <trkpt lat="46.02202" lon="6.58224">
        <ele>1614.821</ele>
        <time>2026-03-15T09:49:40Z</time>
      </trkpt>
      <trkpt lat="46.02205" lon="6.58226">
        <ele>1615.157</ele>
        <time>2026-03-15T09:49:45Z</time>
      </trkpt>
      <trkpt lat="46.02207" lon="6.58229">
        <ele>1615.888</ele>
        <time>2026-03-15T09:49:50Z</time>
      </trkpt>
      <trkpt lat="46.0221" lon="6.58232">
        <ele>1615.516</ele>
        <time>2026-03-15T09:49:55Z</time>
      </trkpt>
      <trkpt lat="46.0221" lon="6.58235">
        <ele>1615.642</ele>
        <time>2026-03-15T09:50:00Z</time>
      </trkpt>
      <trkpt lat="46.0221" lon="6.58238">
        <ele>1616.284</ele>
        <time>2026-03-15T09:50:05Z</time>
      </trkpt>
      <trkpt lat="46.02209" lon="6.58242">
        <ele>1616.911</ele>
        <time>2026-03-15T09:50:10Z</time>
      </trkpt>
      <trkpt lat="46.02208" lon="6.58245">
        <ele>1617.134</ele>
        <time>2026-03-15T09:50:15Z</time>
      </trkpt>
      <trkpt lat="46.02208" lon="6.58249">
        <ele>1618.167</ele>
        <time>2026-03-15T09:50:20Z</time>
      </trkpt>
      <trkpt lat="46.02207" lon="6.58253">
        <ele>1619.62</ele>
        <time>2026-03-15T09:50:25Z</time>
      </trkpt>
      <trkpt lat="46.02206" lon="6.58258">
        <ele>1619.992</ele>
        <time>2026-03-15T09:50:30Z</time>
      </trkpt>
      <trkpt lat="46.02205" lon="6.58262">
        <ele>1620.123</ele>
        <time>2026-03-15T09:50:35Z</time>
      </trkpt>
      <trkpt lat="46.02204" lon="6.58267">
        <ele>1621.248</ele>
        <time>2026-03-15T09:50:40Z</time>
      </trkpt>
      <trkpt lat="46.02204" lon="6.58271">
        <ele>1621.313</ele>
        <time>2026-03-15T09:50:45Z</time>
      </trkpt>
      <trkpt lat="46.02203" lon="6.58276">
        <ele>1621.779</ele>
        <time>2026-03-15T09:50:50Z</time>
      </trkpt>
      <trkpt lat="46.02203" lon="6.58282">
        <ele>1622.738</ele>
        <time>2026-03-15T09:50:55Z</time>
      </trkpt>
      <trkpt lat="46.02203" lon="6.58287">
        <ele>1623.804</ele>
        <time>2026-03-15T09:51:00Z</time>
      </trkpt>
      <trkpt lat="46.02203" lon="6.58291">
        <ele>1625.382</ele>
        <time>2026-03-15T09:51:05Z</time>
      </trkpt>
      <trkpt lat="46.02203" lon="6.58295">
        <ele>1625.477</ele>
        <time>2026-03-15T09:51:10Z</time>
      </trkpt>
      <trkpt lat="46.02203" lon="6.583">
        <ele>1624.871</ele>
        <time>2026-03-15T09:51:15Z</time>
      </trkpt>
      <trkpt lat="46.02203" lon="6.58304">
        <ele>1625.085</ele>
        <time>2026-03-15T09:51:20Z</time>
      </trkpt>
      <trkpt lat="46.02203" lon="6.58308">
        <ele>1625.136</ele>
        <time>2026-03-15T09:51:25Z</time>
      </trkpt>
      <trkpt lat="46.02203" lon="6.58312">
        <ele>1625.474</ele>
        <time>2026-03-15T09:51:30Z</time>
      </trkpt>
      <trkpt lat="46.02202" lon="6.58316">
        <ele>1627.086</ele>
        <time>2026-03-15T09:51:35Z</time>
      </trkpt>
      <trkpt lat="46.02203" lon="6.58321">
        <ele>1628.852</ele>
        <time>2026-03-15T09:51:40Z</time>
      </trkpt>
      <trkpt lat="46.02204" lon="6.58325">
        <ele>1629.252</ele>
        <time>2026-03-15T09:51:45Z</time>
      </trkpt>
      <trkpt lat="46.02205" lon="6.58329">
        <ele>1630.583</ele>
        <time>2026-03-15T09:51:50Z</time>
      </trkpt>
      <trkpt lat="46.02206" lon="6.58334">
        <ele>1630.65</ele>
        <time>2026-03-15T09:51:55Z</time>
      </trkpt>
      <trkpt lat="46.02207" lon="6.58338">
        <ele>1630.66</ele>
        <time>2026-03-15T09:52:00Z</time>
      </trkpt>
      <trkpt lat="46.02208" lon="6.58342">
        <ele>1631.564</ele>
        <time>2026-03-15T09:52:05Z</time>
      </trkpt>
      <trkpt lat="46.0221" lon="6.58346">
        <ele>1632.157</ele>
        <time>2026-03-15T09:52:10Z</time>
      </trkpt>
      <trkpt lat="46.02212" lon="6.58349">
        <ele>1632.581</ele>
        <time>2026-03-15T09:52:15Z</time>
      </trkpt>
      <trkpt lat="46.02214" lon="6.58352">
        <ele>1633.876</ele>
        <time>2026-03-15T09:52:20Z</time>
      </trkpt>
      <trkpt lat="46.02215" lon="6.58356">
        <ele>1634.196</ele>
        <time>2026-03-15T09:52:25Z</time>
      </trkpt>
      <trkpt lat="46.02217" lon="6.5836">
        <ele>1635.043</ele>
        <time>2026-03-15T09:52:30Z</time>
      </trkpt>
      <trkpt lat="46.02218" lon="6.58364">
        <ele>1636.124</ele>
        <time>2026-03-15T09:52:35Z</time>
      </trkpt>
      <trkpt lat="46.02219" lon="6.58367">
        <ele>1635.812</ele>
        <time>2026-03-15T09:52:40Z</time>
      </trkpt>
      <trkpt lat="46.02219" lon="6.5837">
        <ele>1636.057</ele>
        <time>2026-03-15T09:52:45Z</time>
      </trkpt>
      <trkpt lat="46.02219" lon="6.58372">
        <ele>1636.06</ele>
        <time>2026-03-15T09:52:50Z</time>
      </trkpt>
      <trkpt lat="46.0222" lon="6.58375">
        <ele>1636.842</ele>
        <time>2026-03-15T09:52:55Z</time>
      </trkpt>
      <trkpt lat="46.02221" lon="6.58381">
        <ele>1637.42</ele>
        <time>2026-03-15T09:53:00Z</time>
      </trkpt>
      <trkpt lat="46.02221" lon="6.58385">
        <ele>1637.755</ele>
        <time>2026-03-15T09:53:05Z</time>
      </trkpt>
      <trkpt lat="46.02222" lon="6.58391">
        <ele>1638.742</ele>
        <time>2026-03-15T09:53:10Z</time>
      </trkpt>
      <trkpt lat="46.02222" lon="6.58396">
        <ele>1638.654</ele>
        <time>2026-03-15T09:53:15Z</time>
      </trkpt>
      <trkpt lat="46.02223" lon="6.58401">
        <ele>1639.498</ele>
        <time>2026-03-15T09:53:20Z</time>
      </trkpt>
      <trkpt lat="46.02224" lon="6.58404">
        <ele>1639.906</ele>
        <time>2026-03-15T09:53:25Z</time>
      </trkpt>
      <trkpt lat="46.02225" lon="6.58409">
        <ele>1640.907</ele>
        <time>2026-03-15T09:53:30Z</time>
      </trkpt>
      <trkpt lat="46.02226" lon="6.58412">
        <ele>1641.429</ele>
        <time>2026-03-15T09:53:35Z</time>
      </trkpt>
      <trkpt lat="46.02227" lon="6.58416">
        <ele>1643.392</ele>
        <time>2026-03-15T09:53:40Z</time>
      </trkpt>
      <trkpt lat="46.02228" lon="6.5842">
        <ele>1644.028</ele>
        <time>2026-03-15T09:53:45Z</time>
      </trkpt>
      <trkpt lat="46.02229" lon="6.58425">
        <ele>1644.461</ele>
        <time>2026-03-15T09:53:50Z</time>
      </trkpt>
      <trkpt lat="46.0223" lon="6.58429">
        <ele>1644.871</ele>
        <time>2026-03-15T09:53:55Z</time>
      </trkpt>
      <trkpt lat="46.0223" lon="6.58432">
        <ele>1644.383</ele>
        <time>2026-03-15T09:54:00Z</time>
      </trkpt>
      <trkpt lat="46.02229" lon="6.58437">
        <ele>1644.283</ele>
        <time>2026-03-15T09:54:05Z</time>
      </trkpt>
      <trkpt lat="46.0223" lon="6.58442">
        <ele>1644.896</ele>
        <time>2026-03-15T09:54:10Z</time>
      </trkpt>
      <trkpt lat="46.0223" lon="6.58447">
        <ele>1645.613</ele>
        <time>2026-03-15T09:54:15Z</time>
      </trkpt>
      <trkpt lat="46.0223" lon="6.58452">
        <ele>1646.498</ele>
        <time>2026-03-15T09:54:20Z</time>
      </trkpt>
      <trkpt lat="46.02231" lon="6.58457">
        <ele>1647.311</ele>
        <time>2026-03-15T09:54:25Z</time>
      </trkpt>
      <trkpt lat="46.0223" lon="6.58463">
        <ele>1647.067</ele>
        <time>2026-03-15T09:54:30Z</time>
      </trkpt>
      <trkpt lat="46.02231" lon="6.58469">
        <ele>1647.775</ele>
        <time>2026-03-15T09:54:35Z</time>
      </trkpt>
      <trkpt lat="46.02233" lon="6.58476">
        <ele>1648.415</ele>
        <time>2026-03-15T09:54:40Z</time>
      </trkpt>
      <trkpt lat="46.02234" lon="6.58481">
        <ele>1647.55</ele>
        <time>2026-03-15T09:54:45Z</time>
      </trkpt>
      <trkpt lat="46.02235" lon="6.58486">
        <ele>1647.302</ele>
        <time>2026-03-15T09:54:50Z</time>
      </trkpt>
      <trkpt lat="46.02236" lon="6.58492">
        <ele>1648.587</ele>
        <time>2026-03-15T09:54:55Z</time>
      </trkpt>
      <trkpt lat="46.02237" lon="6.58496">
        <ele>1647.835</ele>
        <time>2026-03-15T09:55:00Z</time>
      </trkpt>
      <trkpt lat="46.02236" lon="6.58502">
        <ele>1648.019</ele>
        <time>2026-03-15T09:55:05Z</time>
      </trkpt>
      <trkpt lat="46.02237" lon="6.58508">
        <ele>1648.374</ele>
        <time>2026-03-15T09:55:10Z</time>
      </trkpt>
      <trkpt lat="46.02236" lon="6.58513">
        <ele>1648.168</ele>
        <time>2026-03-15T09:55:15Z</time>
      </trkpt>
      <trkpt lat="46.02235" lon="6.58518">
        <ele>1648.31</ele>
        <time>2026-03-15T09:55:20Z</time>
      </trkpt>
      <trkpt lat="46.02233" lon="6.58522">
        <ele>1646.516</ele>
        <time>2026-03-15T09:55:25Z</time>
      </trkpt>
      <trkpt lat="46.02231" lon="6.58527">
        <ele>1648.159</ele>
        <time>2026-03-15T09:55:30Z</time>
      </trkpt>
      <trkpt lat="46.02229" lon="6.58533">
        <ele>1648.424</ele>
        <time>2026-03-15T09:55:35Z</time>
      </trkpt>
      <trkpt lat="46.02228" lon="6.58538">
        <ele>1648.313</ele>
        <time>2026-03-15T09:55:40Z</time>
      </trkpt>
      <trkpt lat="46.02226" lon="6.58543">
        <ele>1649.031</ele>
        <time>2026-03-15T09:55:45Z</time>
      </trkpt>
      <trkpt lat="46.02224" lon="6.58548">
        <ele>1649.362</ele>
        <time>2026-03-15T09:55:50Z</time>
      </trkpt>
      <trkpt lat="46.02223" lon="6.58553">
        <ele>1650.3</ele>
        <time>2026-03-15T09:55:55Z</time>
      </trkpt>
      <trkpt lat="46.02221" lon="6.58557">
        <ele>1651.302</ele>
        <time>2026-03-15T09:56:00Z</time>
      </trkpt>
      <trkpt lat="46.0222" lon="6.58562">
        <ele>1651.166</ele>
        <time>2026-03-15T09:56:05Z</time>
      </trkpt>
      <trkpt lat="46.02219" lon="6.58567">
        <ele>1651.295</ele>
        <time>2026-03-15T09:56:10Z</time>
      </trkpt>
      <trkpt lat="46.02218" lon="6.58572">
        <ele>1651.36</ele>
        <time>2026-03-15T09:56:15Z</time>
      </trkpt>
      <trkpt lat="46.02217" lon="6.58574">
        <ele>1651.981</ele>
        <time>2026-03-15T09:56:20Z</time>
      </trkpt>
      <trkpt lat="46.02215" lon="6.58578">
        <ele>1651.776</ele>
        <time>2026-03-15T09:56:25Z</time>
      </trkpt>
      <trkpt lat="46.02211" lon="6.58581">
        <ele>1651.874</ele>
        <time>2026-03-15T09:56:30Z</time>
      </trkpt>
      <trkpt lat="46.02208" lon="6.58583">
        <ele>1653.809</ele>
        <time>2026-03-15T09:56:35Z</time>
      </trkpt>
      <trkpt lat="46.02205" lon="6.58586">
        <ele>1653.997</ele>
        <time>2026-03-15T09:56:40Z</time>
      </trkpt>
      <trkpt lat="46.02202" lon="6.58587">
        <ele>1653.793</ele>
        <time>2026-03-15T09:56:45Z</time>
      </trkpt>
      <trkpt lat="46.02198" lon="6.58589">
        <ele>1653.666</ele>
        <time>2026-03-15T09:56:50Z</time>
      </trkpt>
      <trkpt lat="46.02195" lon="6.58592">
        <ele>1654.735</ele>
        <time>2026-03-15T09:56:55Z</time>
      </trkpt>
      <trkpt lat="46.02192" lon="6.58596">
        <ele>1655.048</ele>
        <time>2026-03-15T09:57:00Z</time>
      </trkpt>
      <trkpt lat="46.02189" lon="6.58599">
        <ele>1656.04</ele>
        <time>2026-03-15T09:57:05Z</time>
      </trkpt>
      <trkpt lat="46.02185" lon="6.58601">
        <ele>1658.076</ele>
        <time>2026-03-15T09:57:10Z</time>
      </trkpt>
      <trkpt lat="46.02181" lon="6.58603">
        <ele>1658.452</ele>
        <time>2026-03-15T09:57:15Z</time>
      </trkpt>
      <trkpt lat="46.02178" lon="6.58606">
        <ele>1658.956</ele>
        <time>2026-03-15T09:57:20Z</time>
      </trkpt>
      <trkpt lat="46.02175" lon="6.58608">
        <ele>1658.631</ele>
        <time>2026-03-15T09:57:25Z</time>
      </trkpt>
      <trkpt lat="46.02171" lon="6.58611">
        <ele>1659.272</ele>
        <time>2026-03-15T09:57:30Z</time>
      </trkpt>
      <trkpt lat="46.02168" lon="6.58613">
        <ele>1659.993</ele>
        <time>2026-03-15T09:57:35Z</time>
      </trkpt>
      <trkpt lat="46.02164" lon="6.58615">
        <ele>1659.795</ele>
        <time>2026-03-15T09:57:40Z</time>
      </trkpt>
      <trkpt lat="46.0216" lon="6.58617">
        <ele>1660.863</ele>
        <time>2026-03-15T09:57:45Z</time>
      </trkpt>
      <trkpt lat="46.02157" lon="6.58619">
        <ele>1661.127</ele>
        <time>2026-03-15T09:57:50Z</time>
      </trkpt>
      <trkpt lat="46.02153" lon="6.58621">
        <ele>1661.203</ele>
        <time>2026-03-15T09:57:55Z</time>
      </trkpt>
      <trkpt lat="46.02149" lon="6.58623">
        <ele>1661.748</ele>
        <time>2026-03-15T09:58:00Z</time>
      </trkpt>
      <trkpt lat="46.02145" lon="6.58624">
        <ele>1662.481</ele>
        <time>2026-03-15T09:58:05Z</time>
      </trkpt>
      <trkpt lat="46.02141" lon="6.58626">
        <ele>1662.89</ele>
        <time>2026-03-15T09:58:10Z</time>
      </trkpt>
      <trkpt lat="46.02138" lon="6.58629">
        <ele>1663.706</ele>
        <time>2026-03-15T09:58:15Z</time>
      </trkpt>
      <trkpt lat="46.02134" lon="6.58631">
        <ele>1663.12</ele>
        <time>2026-03-15T09:58:20Z</time>
      </trkpt>
      <trkpt lat="46.0213" lon="6.58633">
        <ele>1664.127</ele>
        <time>2026-03-15T09:58:25Z</time>
      </trkpt>
      <trkpt lat="46.02128" lon="6.58634">
        <ele>1668.165</ele>
        <time>2026-03-15T09:58:30Z</time>
      </trkpt>
      <trkpt lat="46.02126" lon="6.58638">
        <ele>1668.959</ele>
        <time>2026-03-15T09:58:36Z</time>
      </trkpt>
      <trkpt lat="46.02124" lon="6.58643">
        <ele>1669.938</ele>
        <time>2026-03-15T09:58:40Z</time>
      </trkpt>
      <trkpt lat="46.0212" lon="6.58648">
        <ele>1669.558</ele>
        <time>2026-03-15T09:58:46Z</time>
      </trkpt>
      <trkpt lat="46.02118" lon="6.58653">
        <ele>1668.896</ele>
        <time>2026-03-15T09:58:51Z</time>
      </trkpt>
      <trkpt lat="46.02115" lon="6.58656">
        <ele>1668.603</ele>
        <time>2026-03-15T09:58:56Z</time>
      </trkpt>
      <trkpt lat="46.02112" lon="6.58658">
        <ele>1669.245</ele>
        <time>2026-03-15T09:59:01Z</time>
      </trkpt>
      <trkpt lat="46.02108" lon="6.58661">
        <ele>1669.449</ele>
        <time>2026-03-15T09:59:06Z</time>
      </trkpt>
      <trkpt lat="46.02106" lon="6.58666">
        <ele>1669.123</ele>
        <time>2026-03-15T09:59:11Z</time>
      </trkpt>
      <trkpt lat="46.02104" lon="6.58671">
        <ele>1668.224</ele>
        <time>2026-03-15T09:59:16Z</time>
      </trkpt>
      <trkpt lat="46.02101" lon="6.58675">
        <ele>1668.224</ele>
        <time>2026-03-15T09:59:21Z</time>
      </trkpt>
      <trkpt lat="46.02099" lon="6.58678">
        <ele>1669.131</ele>
        <time>2026-03-15T09:59:26Z</time>
      </trkpt>
      <trkpt lat="46.02096" lon="6.58682">
        <ele>1669.96</ele>
        <time>2026-03-15T09:59:31Z</time>
      </trkpt>
      <trkpt lat="46.02093" lon="6.58683">
        <ele>1670.428</ele>
        <time>2026-03-15T09:59:36Z</time>
      </trkpt>
      <trkpt lat="46.02089" lon="6.58682">
        <ele>1671.943</ele>
        <time>2026-03-15T09:59:41Z</time>
      </trkpt>
      <trkpt lat="46.02086" lon="6.5868">
        <ele>1672.392</ele>
        <time>2026-03-15T09:59:46Z</time>
      </trkpt>
      <trkpt lat="46.02084" lon="6.58678">
        <ele>1674.252</ele>
        <time>2026-03-15T09:59:51Z</time>
      </trkpt>
      <trkpt lat="46.02082" lon="6.58675">
        <ele>1675.515</ele>
        <time>2026-03-15T09:59:56Z</time>
      </trkpt>
      <trkpt lat="46.02081" lon="6.58674">
        <ele>1676.749</ele>
        <time>2026-03-15T10:00:01Z</time>
      </trkpt>
      <trkpt lat="46.02079" lon="6.58672">
        <ele>1677.549</ele>
        <time>2026-03-15T10:00:06Z</time>
      </trkpt>
      <trkpt lat="46.02078" lon="6.58671">
        <ele>1677.133</ele>
        <time>2026-03-15T10:00:11Z</time>
      </trkpt>
      <trkpt lat="46.02077" lon="6.5867">
        <ele>1676.503</ele>
        <time>2026-03-15T10:00:16Z</time>
      </trkpt>
      <trkpt lat="46.02075" lon="6.58667">
        <ele>1677.063</ele>
        <time>2026-03-15T10:00:21Z</time>
      </trkpt>
      <trkpt lat="46.02073" lon="6.58664">
        <ele>1678.197</ele>
        <time>2026-03-15T10:00:26Z</time>
      </trkpt>
      <trkpt lat="46.02071" lon="6.58661">
        <ele>1679.164</ele>
        <time>2026-03-15T10:00:31Z</time>
      </trkpt>
      <trkpt lat="46.02068" lon="6.5866">
        <ele>1679.894</ele>
        <time>2026-03-15T10:00:36Z</time>
      </trkpt>
      <trkpt lat="46.02065" lon="6.58659">
        <ele>1678.973</ele>
        <time>2026-03-15T10:00:41Z</time>
      </trkpt>
      <trkpt lat="46.02063" lon="6.58657">
        <ele>1680.212</ele>
        <time>2026-03-15T10:00:46Z</time>
      </trkpt>
      <trkpt lat="46.02062" lon="6.58655">
        <ele>1681.365</ele>
        <time>2026-03-15T10:00:51Z</time>
      </trkpt>
      <trkpt lat="46.02061" lon="6.58653">
        <ele>1682.056</ele>
        <time>2026-03-15T10:00:56Z</time>
      </trkpt>
      <trkpt lat="46.02061" lon="6.5865">
        <ele>1682.153</ele>
        <time>2026-03-15T10:01:01Z</time>
      </trkpt>
      <trkpt lat="46.0206" lon="6.58648">
        <ele>1683.236</ele>
        <time>2026-03-15T10:01:06Z</time>
      </trkpt>
      <trkpt lat="46.02058" lon="6.58646">
        <ele>1685.182</ele>
        <time>2026-03-15T10:01:11Z</time>
      </trkpt>
      <trkpt lat="46.02058" lon="6.58643">
        <ele>1685.652</ele>
        <time>2026-03-15T10:01:16Z</time>
      </trkpt>
      <trkpt lat="46.02057" lon="6.5864">
        <ele>1686.196</ele>
        <time>2026-03-15T10:01:21Z</time>
      </trkpt>
      <trkpt lat="46.02056" lon="6.58638">
        <ele>1687.257</ele>
        <time>2026-03-15T10:01:26Z</time>
      </trkpt>
      <trkpt lat="46.02056" lon="6.58634">
        <ele>1688.178</ele>
        <time>2026-03-15T10:01:31Z</time>
      </trkpt>
      <trkpt lat="46.02055" lon="6.5863">
        <ele>1687.185</ele>
        <time>2026-03-15T10:01:36Z</time>
      </trkpt>
      <trkpt lat="46.02055" lon="6.58628">
        <ele>1688.045</ele>
        <time>2026-03-15T10:01:41Z</time>
      </trkpt>
      <trkpt lat="46.02056" lon="6.58624">
        <ele>1687.949</ele>
        <time>2026-03-15T10:01:46Z</time>
      </trkpt>
      <trkpt lat="46.02057" lon="6.5862">
        <ele>1688.176</ele>
        <time>2026-03-15T10:01:51Z</time>
      </trkpt>
      <trkpt lat="46.02057" lon="6.58617">
        <ele>1688.814</ele>
        <time>2026-03-15T10:01:56Z</time>
      </trkpt>
      <trkpt lat="46.02058" lon="6.58613">
        <ele>1689.155</ele>
        <time>2026-03-15T10:02:01Z</time>
      </trkpt>
      <trkpt lat="46.0206" lon="6.58609">
        <ele>1689.583</ele>
        <time>2026-03-15T10:02:06Z</time>
      </trkpt>
      <trkpt lat="46.02062" lon="6.58605">
        <ele>1691.005</ele>
        <time>2026-03-15T10:02:11Z</time>
      </trkpt>
      <trkpt lat="46.02063" lon="6.58602">
        <ele>1691.46</ele>
        <time>2026-03-15T10:02:16Z</time>
      </trkpt>
      <trkpt lat="46.02065" lon="6.58598">
        <ele>1692.216</ele>
        <time>2026-03-15T10:02:21Z</time>
      </trkpt>
      <trkpt lat="46.02068" lon="6.58593">
        <ele>1692.846</ele>
        <time>2026-03-15T10:02:26Z</time>
      </trkpt>
      <trkpt lat="46.02068" lon="6.58587">
        <ele>1693.877</ele>
        <time>2026-03-15T10:02:31Z</time>
      </trkpt>
      <trkpt lat="46.02066" lon="6.5858">
        <ele>1694.179</ele>
        <time>2026-03-15T10:02:36Z</time>
      </trkpt>
      <trkpt lat="46.02064" lon="6.58573">
        <ele>1695.927</ele>
        <time>2026-03-15T10:02:41Z</time>
      </trkpt>
      <trkpt lat="46.02063" lon="6.58569">
        <ele>1696.533</ele>
        <time>2026-03-15T10:02:46Z</time>
      </trkpt>
      <trkpt lat="46.02062" lon="6.58563">
        <ele>1696.868</ele>
        <time>2026-03-15T10:02:51Z</time>
      </trkpt>
      <trkpt lat="46.0206" lon="6.58555">
        <ele>1695.869</ele>
        <time>2026-03-15T10:02:56Z</time>
      </trkpt>
      <trkpt lat="46.02061" lon="6.5855">
        <ele>1697.802</ele>
        <time>2026-03-15T10:03:01Z</time>
      </trkpt>
      <trkpt lat="46.02062" lon="6.58545">
        <ele>1698.536</ele>
        <time>2026-03-15T10:03:06Z</time>
      </trkpt>
      <trkpt lat="46.02061" lon="6.58545">
        <ele>1699.075</ele>
        <time>2026-03-15T10:03:11Z</time>
      </trkpt>
      <trkpt lat="46.02061" lon="6.58545">
        <ele>1699.063</ele>
        <time>2026-03-15T10:03:16Z</time>
      </trkpt>
      <trkpt lat="46.02061" lon="6.58545">
        <ele>1699.055</ele>
        <time>2026-03-15T10:03:21Z</time>
      </trkpt>
      <trkpt lat="46.02061" lon="6.58545">
        <ele>1698.852</ele>
        <time>2026-03-15T10:03:26Z</time>
      </trkpt>
      <trkpt lat="46.02062" lon="6.58543">
        <ele>1698.466</ele>
        <time>2026-03-15T10:03:31Z</time>
      </trkpt>
      <trkpt lat="46.02062" lon="6.5854">
        <ele>1698.598</ele>
        <time>2026-03-15T10:03:36Z</time>
      </trkpt>
      <trkpt lat="46.02064" lon="6.58534">
        <ele>1699.059</ele>
        <time>2026-03-15T10:03:41Z</time>
      </trkpt>
      <trkpt lat="46.02065" lon="6.58528">
        <ele>1698.704</ele>
        <time>2026-03-15T10:03:46Z</time>
      </trkpt>
      <trkpt lat="46.02065" lon="6.58522">
        <ele>1700.071</ele>
        <time>2026-03-15T10:03:51Z</time>
      </trkpt>
      <trkpt lat="46.02066" lon="6.58516">
        <ele>1700.449</ele>
        <time>2026-03-15T10:03:56Z</time>
      </trkpt>
      <trkpt lat="46.02066" lon="6.5851">
        <ele>1700.871</ele>
        <time>2026-03-15T10:04:01Z</time>
      </trkpt>
      <trkpt lat="46.02066" lon="6.58505">
        <ele>1700.785</ele>
        <time>2026-03-15T10:04:06Z</time>
      </trkpt>
      <trkpt lat="46.02067" lon="6.58499">
        <ele>1701.696</ele>
        <time>2026-03-15T10:04:11Z</time>
      </trkpt>
      <trkpt lat="46.02068" lon="6.58492">
        <ele>1701.855</ele>
        <time>2026-03-15T10:04:16Z</time>
      </trkpt>
      <trkpt lat="46.0207" lon="6.58486">
        <ele>1702.603</ele>
        <time>2026-03-15T10:04:21Z</time>
      </trkpt>
      <trkpt lat="46.0207" lon="6.58479">
        <ele>1701.928</ele>
        <time>2026-03-15T10:04:26Z</time>
      </trkpt>
      <trkpt lat="46.02071" lon="6.58471">
        <ele>1703.201</ele>
        <time>2026-03-15T10:04:31Z</time>
      </trkpt>
      <trkpt lat="46.02073" lon="6.58465">
        <ele>1704.087</ele>
        <time>2026-03-15T10:04:36Z</time>
      </trkpt>
      <trkpt lat="46.02074" lon="6.58459">
        <ele>1704.213</ele>
        <time>2026-03-15T10:04:41Z</time>
      </trkpt>
      <trkpt lat="46.02072" lon="6.58453">
        <ele>1704.894</ele>
        <time>2026-03-15T10:04:46Z</time>
      </trkpt>
      <trkpt lat="46.02071" lon="6.58446">
        <ele>1705.961</ele>
        <time>2026-03-15T10:04:51Z</time>
      </trkpt>
      <trkpt lat="46.02069" lon="6.58441">
        <ele>1706.96</ele>
        <time>2026-03-15T10:04:56Z</time>
      </trkpt>
      <trkpt lat="46.02067" lon="6.58435">
        <ele>1706.49</ele>
        <time>2026-03-15T10:05:01Z</time>
      </trkpt>
      <trkpt lat="46.02066" lon="6.5843">
        <ele>1706.928</ele>
        <time>2026-03-15T10:05:06Z</time>
      </trkpt>
      <trkpt lat="46.02064" lon="6.58422">
        <ele>1706.43</ele>
        <time>2026-03-15T10:05:11Z</time>
      </trkpt>
      <trkpt lat="46.02065" lon="6.58415">
        <ele>1706.254</ele>
        <time>2026-03-15T10:05:16Z</time>
      </trkpt>
      <trkpt lat="46.02066" lon="6.58408">
        <ele>1706.136</ele>
        <time>2026-03-15T10:05:21Z</time>
      </trkpt>
      <trkpt lat="46.02067" lon="6.58401">
        <ele>1707.048</ele>
        <time>2026-03-15T10:05:26Z</time>
      </trkpt>
      <trkpt lat="46.02068" lon="6.58396">
        <ele>1706.824</ele>
        <time>2026-03-15T10:05:31Z</time>
      </trkpt>
      <trkpt lat="46.02069" lon="6.58391">
        <ele>1707.186</ele>
        <time>2026-03-15T10:05:36Z</time>
      </trkpt>
      <trkpt lat="46.0207" lon="6.58386">
        <ele>1707.57</ele>
        <time>2026-03-15T10:05:41Z</time>
      </trkpt>
      <trkpt lat="46.0207" lon="6.58379">
        <ele>1707.412</ele>
        <time>2026-03-15T10:05:46Z</time>
      </trkpt>
      <trkpt lat="46.0207" lon="6.58373">
        <ele>1708.565</ele>
        <time>2026-03-15T10:05:51Z</time>
      </trkpt>
      <trkpt lat="46.0207" lon="6.58365">
        <ele>1709.963</ele>
        <time>2026-03-15T10:05:56Z</time>
      </trkpt>
      <trkpt lat="46.02069" lon="6.58359">
        <ele>1710.04</ele>
        <time>2026-03-15T10:06:01Z</time>
      </trkpt>
      <trkpt lat="46.02067" lon="6.58354">
        <ele>1710.713</ele>
        <time>2026-03-15T10:06:06Z</time>
      </trkpt>
      <trkpt lat="46.02065" lon="6.58349">
        <ele>1712.276</ele>
        <time>2026-03-15T10:06:11Z</time>
      </trkpt>
      <trkpt lat="46.02063" lon="6.58345">
        <ele>1713.207</ele>
        <time>2026-03-15T10:06:16Z</time>
      </trkpt>
      <trkpt lat="46.02059" lon="6.58343">
        <ele>1712.934</ele>
        <time>2026-03-15T10:06:21Z</time>
      </trkpt>
      <trkpt lat="46.02056" lon="6.58337">
        <ele>1712.795</ele>
        <time>2026-03-15T10:06:26Z</time>
      </trkpt>
      <trkpt lat="46.02054" lon="6.58332">
        <ele>1714.46</ele>
        <time>2026-03-15T10:06:31Z</time>
      </trkpt>
      <trkpt lat="46.02051" lon="6.58329">
        <ele>1713.104</ele>
        <time>2026-03-15T10:06:36Z</time>
      </trkpt>
      <trkpt lat="46.02049" lon="6.58326">
        <ele>1714.858</ele>
        <time>2026-03-15T10:06:41Z</time>
      </trkpt>
      <trkpt lat="46.02046" lon="6.58323">
        <ele>1714.98</ele>
        <time>2026-03-15T10:06:46Z</time>
      </trkpt>
      <trkpt lat="46.02042" lon="6.58319">
        <ele>1715.13</ele>
        <time>2026-03-15T10:06:51Z</time>
      </trkpt>
      <trkpt lat="46.02039" lon="6.58316">
        <ele>1715.413</ele>
        <time>2026-03-15T10:06:56Z</time>
      </trkpt>
      <trkpt lat="46.02035" lon="6.58313">
        <ele>1714.348</ele>
        <time>2026-03-15T10:07:01Z</time>
      </trkpt>
      <trkpt lat="46.02032" lon="6.58311">
        <ele>1715.113</ele>
        <time>2026-03-15T10:07:06Z</time>
      </trkpt>
      <trkpt lat="46.02029" lon="6.58307">
        <ele>1716.322</ele>
        <time>2026-03-15T10:07:11Z</time>
      </trkpt>
      <trkpt lat="46.02025" lon="6.58303">
        <ele>1716.918</ele>
        <time>2026-03-15T10:07:16Z</time>
      </trkpt>
      <trkpt lat="46.02025" lon="6.58303">
        <ele>1717.427</ele>
        <time>2026-03-15T10:07:21Z</time>
      </trkpt>
      <trkpt lat="46.02024" lon="6.58302">
        <ele>1718.353</ele>
        <time>2026-03-15T10:07:26Z</time>
      </trkpt>
      <trkpt lat="46.02021" lon="6.58299">
        <ele>1718.776</ele>
        <time>2026-03-15T10:07:31Z</time>
      </trkpt>
      <trkpt lat="46.02019" lon="6.58296">
        <ele>1718.385</ele>
        <time>2026-03-15T10:07:36Z</time>
      </trkpt>
      <trkpt lat="46.02016" lon="6.58292">
        <ele>1718.89</ele>
        <time>2026-03-15T10:07:41Z</time>
      </trkpt>
      <trkpt lat="46.02012" lon="6.58288">
        <ele>1719.029</ele>
        <time>2026-03-15T10:07:46Z</time>
      </trkpt>
      <trkpt lat="46.02008" lon="6.58283">
        <ele>1720.134</ele>
        <time>2026-03-15T10:07:51Z</time>
      </trkpt>
      <trkpt lat="46.02006" lon="6.58279">
        <ele>1721.061</ele>
        <time>2026-03-15T10:07:56Z</time>
      </trkpt>
      <trkpt lat="46.02003" lon="6.58275">
        <ele>1722.394</ele>
        <time>2026-03-15T10:08:01Z</time>
      </trkpt>
      <trkpt lat="46.02001" lon="6.58272">
        <ele>1723.356</ele>
        <time>2026-03-15T10:08:06Z</time>
      </trkpt>
      <trkpt lat="46.01999" lon="6.5827">
        <ele>1724.289</ele>
        <time>2026-03-15T10:08:11Z</time>
      </trkpt>
      <trkpt lat="46.01997" lon="6.58267">
        <ele>1726.392</ele>
        <time>2026-03-15T10:08:16Z</time>
      </trkpt>
      <trkpt lat="46.01995" lon="6.58263">
        <ele>1726.353</ele>
        <time>2026-03-15T10:08:21Z</time>
      </trkpt>
      <trkpt lat="46.01993" lon="6.5826">
        <ele>1726.35</ele>
        <time>2026-03-15T10:08:26Z</time>
      </trkpt>
      <trkpt lat="46.01992" lon="6.58256">
        <ele>1727.136</ele>
        <time>2026-03-15T10:08:31Z</time>
      </trkpt>
      <trkpt lat="46.0199" lon="6.58251">
        <ele>1727.159</ele>
        <time>2026-03-15T10:08:36Z</time>
      </trkpt>
      <trkpt lat="46.01987" lon="6.58247">
        <ele>1728.312</ele>
        <time>2026-03-15T10:08:41Z</time>
      </trkpt>
      <trkpt lat="46.01984" lon="6.58247">
        <ele>1728.009</ele>
        <time>2026-03-15T10:08:46Z</time>
      </trkpt>
      <trkpt lat="46.01981" lon="6.58249">
        <ele>1728.434</ele>
        <time>2026-03-15T10:08:51Z</time>
      </trkpt>
      <trkpt lat="46.0198" lon="6.58256">
        <ele>1728.474</ele>
        <time>2026-03-15T10:08:56Z</time>
      </trkpt>
      <trkpt lat="46.01979" lon="6.58262">
        <ele>1728.644</ele>
        <time>2026-03-15T10:09:01Z</time>
      </trkpt>
      <trkpt lat="46.0198" lon="6.58268">
        <ele>1730.478</ele>
        <time>2026-03-15T10:09:06Z</time>
      </trkpt>
      <trkpt lat="46.0198" lon="6.58274">
        <ele>1731.85</ele>
        <time>2026-03-15T10:09:11Z</time>
      </trkpt>
      <trkpt lat="46.01982" lon="6.58281">
        <ele>1731.524</ele>
        <time>2026-03-15T10:09:16Z</time>
      </trkpt>
      <trkpt lat="46.01983" lon="6.58286">
        <ele>1732.051</ele>
        <time>2026-03-15T10:09:21Z</time>
      </trkpt>
      <trkpt lat="46.01984" lon="6.58292">
        <ele>1732.784</ele>
        <time>2026-03-15T10:09:26Z</time>
      </trkpt>
      <trkpt lat="46.01986" lon="6.58298">
        <ele>1733.746</ele>
        <time>2026-03-15T10:09:31Z</time>
      </trkpt>
      <trkpt lat="46.01989" lon="6.58302">
        <ele>1733.42</ele>
        <time>2026-03-15T10:09:36Z</time>
      </trkpt>
      <trkpt lat="46.01992" lon="6.58306">
        <ele>1733.256</ele>
        <time>2026-03-15T10:09:41Z</time>
      </trkpt>
      <trkpt lat="46.01996" lon="6.58309">
        <ele>1733.376</ele>
        <time>2026-03-15T10:09:46Z</time>
      </trkpt>
      <trkpt lat="46.01997" lon="6.5831">
        <ele>1733.363</ele>
        <time>2026-03-15T10:09:51Z</time>
      </trkpt>
      <trkpt lat="46.01998" lon="6.5831">
        <ele>1733.651</ele>
        <time>2026-03-15T10:09:56Z</time>
      </trkpt>
      <trkpt lat="46.02003" lon="6.58313">
        <ele>1734.121</ele>
        <time>2026-03-15T10:10:01Z</time>
      </trkpt>
      <trkpt lat="46.02007" lon="6.58317">
        <ele>1735.887</ele>
        <time>2026-03-15T10:10:06Z</time>
      </trkpt>
      <trkpt lat="46.02009" lon="6.5832">
        <ele>1736.231</ele>
        <time>2026-03-15T10:10:11Z</time>
      </trkpt>
      <trkpt lat="46.02011" lon="6.58324">
        <ele>1736.665</ele>
        <time>2026-03-15T10:10:16Z</time>
      </trkpt>
      <trkpt lat="46.02013" lon="6.58329">
        <ele>1737.509</ele>
        <time>2026-03-15T10:10:21Z</time>
      </trkpt>
      <trkpt lat="46.02015" lon="6.58332">
        <ele>1736.612</ele>
        <time>2026-03-15T10:10:26Z</time>
      </trkpt>
      <trkpt lat="46.02016" lon="6.58337">
        <ele>1737.544</ele>
        <time>2026-03-15T10:10:31Z</time>
      </trkpt>
      <trkpt lat="46.02015" lon="6.58341">
        <ele>1737.199</ele>
        <time>2026-03-15T10:10:36Z</time>
      </trkpt>
      <trkpt lat="46.02011" lon="6.58341">
        <ele>1739.387</ele>
        <time>2026-03-15T10:10:41Z</time>
      </trkpt>
      <trkpt lat="46.02007" lon="6.58337">
        <ele>1740.331</ele>
        <time>2026-03-15T10:10:46Z</time>
      </trkpt>
      <trkpt lat="46.02005" lon="6.58333">
        <ele>1741.793</ele>
        <time>2026-03-15T10:10:51Z</time>
      </trkpt>
      <trkpt lat="46.02001" lon="6.5833">
        <ele>1741.546</ele>
        <time>2026-03-15T10:10:56Z</time>
      </trkpt>
      <trkpt lat="46.01997" lon="6.58329">
        <ele>1742.363</ele>
        <time>2026-03-15T10:11:01Z</time>
      </trkpt>
      <trkpt lat="46.01993" lon="6.58329">
        <ele>1741.453</ele>
        <time>2026-03-15T10:11:06Z</time>
      </trkpt>
      <trkpt lat="46.01989" lon="6.58328">
        <ele>1741.167</ele>
        <time>2026-03-15T10:11:11Z</time>
      </trkpt>
      <trkpt lat="46.01985" lon="6.58326">
        <ele>1744.277</ele>
        <time>2026-03-15T10:11:16Z</time>
      </trkpt>
      <trkpt lat="46.01981" lon="6.58323">
        <ele>1745.133</ele>
        <time>2026-03-15T10:11:21Z</time>
      </trkpt>
      <trkpt lat="46.01978" lon="6.5832">
        <ele>1745.892</ele>
        <time>2026-03-15T10:11:26Z</time>
      </trkpt>
      <trkpt lat="46.01974" lon="6.58319">
        <ele>1745.253</ele>
        <time>2026-03-15T10:11:31Z</time>
      </trkpt>
      <trkpt lat="46.0197" lon="6.58319">
        <ele>1745.42</ele>
        <time>2026-03-15T10:11:36Z</time>
      </trkpt>
      <trkpt lat="46.01965" lon="6.58319">
        <ele>1745.038</ele>
        <time>2026-03-15T10:11:41Z</time>
      </trkpt>
      <trkpt lat="46.01961" lon="6.58317">
        <ele>1746.228</ele>
        <time>2026-03-15T10:11:46Z</time>
      </trkpt>
      <trkpt lat="46.01958" lon="6.58314">
        <ele>1746.048</ele>
        <time>2026-03-15T10:11:51Z</time>
      </trkpt>
      <trkpt lat="46.01956" lon="6.58309">
        <ele>1746.95</ele>
        <time>2026-03-15T10:11:56Z</time>
      </trkpt>
      <trkpt lat="46.01953" lon="6.58304">
        <ele>1748.134</ele>
        <time>2026-03-15T10:12:01Z</time>
      </trkpt>
      <trkpt lat="46.01951" lon="6.58299">
        <ele>1750.01</ele>
        <time>2026-03-15T10:12:06Z</time>
      </trkpt>
      <trkpt lat="46.01949" lon="6.58293">
        <ele>1749.9</ele>
        <time>2026-03-15T10:12:11Z</time>
      </trkpt>
      <trkpt lat="46.01946" lon="6.58288">
        <ele>1750.568</ele>
        <time>2026-03-15T10:12:16Z</time>
      </trkpt>
      <trkpt lat="46.01942" lon="6.58283">
        <ele>1750.382</ele>
        <time>2026-03-15T10:12:21Z</time>
      </trkpt>
      <trkpt lat="46.0194" lon="6.58278">
        <ele>1750.76</ele>
        <time>2026-03-15T10:12:26Z</time>
      </trkpt>
      <trkpt lat="46.01937" lon="6.58272">
        <ele>1751.705</ele>
        <time>2026-03-15T10:12:31Z</time>
      </trkpt>
      <trkpt lat="46.01934" lon="6.58268">
        <ele>1751.723</ele>
        <time>2026-03-15T10:12:36Z</time>
      </trkpt>
      <trkpt lat="46.01933" lon="6.58262">
        <ele>1751.795</ele>
        <time>2026-03-15T10:12:41Z</time>
      </trkpt>
      <trkpt lat="46.01933" lon="6.58256">
        <ele>1752.837</ele>
        <time>2026-03-15T10:12:46Z</time>
      </trkpt>
      <trkpt lat="46.01934" lon="6.58249">
        <ele>1753.654</ele>
        <time>2026-03-15T10:12:51Z</time>
      </trkpt>
      <trkpt lat="46.01935" lon="6.58245">
        <ele>1752.956</ele>
        <time>2026-03-15T10:12:56Z</time>
      </trkpt>
      <trkpt lat="46.01935" lon="6.58239">
        <ele>1753.39</ele>
        <time>2026-03-15T10:13:01Z</time>
      </trkpt>
      <trkpt lat="46.01935" lon="6.58234">
        <ele>1753.381</ele>
        <time>2026-03-15T10:13:06Z</time>
      </trkpt>
      <trkpt lat="46.01937" lon="6.58227">
        <ele>1753.426</ele>
        <time>2026-03-15T10:13:11Z</time>
      </trkpt>
      <trkpt lat="46.01939" lon="6.58221">
        <ele>1754.27</ele>
        <time>2026-03-15T10:13:16Z</time>
      </trkpt>
      <trkpt lat="46.01942" lon="6.58217">
        <ele>1754.347</ele>
        <time>2026-03-15T10:13:21Z</time>
      </trkpt>
      <trkpt lat="46.01945" lon="6.58212">
        <ele>1755.427</ele>
        <time>2026-03-15T10:13:26Z</time>
      </trkpt>
      <trkpt lat="46.01948" lon="6.58207">
        <ele>1755.915</ele>
        <time>2026-03-15T10:13:31Z</time>
      </trkpt>
      <trkpt lat="46.01952" lon="6.58203">
        <ele>1757.446</ele>
        <time>2026-03-15T10:13:36Z</time>
      </trkpt>
      <trkpt lat="46.01955" lon="6.58202">
        <ele>1756.212</ele>
        <time>2026-03-15T10:13:41Z</time>
      </trkpt>
      <trkpt lat="46.01959" lon="6.58199">
        <ele>1757.732</ele>
        <time>2026-03-15T10:13:46Z</time>
      </trkpt>
      <trkpt lat="46.01962" lon="6.58194">
        <ele>1758.08</ele>
        <time>2026-03-15T10:13:51Z</time>
      </trkpt>
      <trkpt lat="46.01962" lon="6.58189">
        <ele>1759.096</ele>
        <time>2026-03-15T10:13:56Z</time>
      </trkpt>
      <trkpt lat="46.01959" lon="6.58186">
        <ele>1760.06</ele>
        <time>2026-03-15T10:14:01Z</time>
      </trkpt>
      <trkpt lat="46.01955" lon="6.58186">
        <ele>1758.868</ele>
        <time>2026-03-15T10:14:06Z</time>
      </trkpt>
      <trkpt lat="46.0195" lon="6.58189">
        <ele>1758.683</ele>
        <time>2026-03-15T10:14:11Z</time>
      </trkpt>
      <trkpt lat="46.01946" lon="6.58192">
        <ele>1758.75</ele>
        <time>2026-03-15T10:14:16Z</time>
      </trkpt>
      <trkpt lat="46.01942" lon="6.58195">
        <ele>1759.051</ele>
        <time>2026-03-15T10:14:21Z</time>
      </trkpt>
      <trkpt lat="46.01938" lon="6.58197">
        <ele>1759.561</ele>
        <time>2026-03-15T10:14:26Z</time>
      </trkpt>
      <trkpt lat="46.01935" lon="6.58199">
        <ele>1760.178</ele>
        <time>2026-03-15T10:14:31Z</time>
      </trkpt>
      <trkpt lat="46.01932" lon="6.58202">
        <ele>1761.162</ele>
        <time>2026-03-15T10:14:36Z</time>
      </trkpt>
      <trkpt lat="46.01928" lon="6.58205">
        <ele>1761.824</ele>
        <time>2026-03-15T10:14:41Z</time>
      </trkpt>
      <trkpt lat="46.01926" lon="6.58207">
        <ele>1762.976</ele>
        <time>2026-03-15T10:14:46Z</time>
      </trkpt>
      <trkpt lat="46.01924" lon="6.58211">
        <ele>1763.342</ele>
        <time>2026-03-15T10:14:51Z</time>
      </trkpt>
      <trkpt lat="46.01922" lon="6.58215">
        <ele>1763.655</ele>
        <time>2026-03-15T10:14:56Z</time>
      </trkpt>
      <trkpt lat="46.0192" lon="6.5822">
        <ele>1763.822</ele>
        <time>2026-03-15T10:15:01Z</time>
      </trkpt>
      <trkpt lat="46.01917" lon="6.58224">
        <ele>1764.013</ele>
        <time>2026-03-15T10:15:06Z</time>
      </trkpt>
      <trkpt lat="46.01914" lon="6.58223">
        <ele>1765.646</ele>
        <time>2026-03-15T10:15:11Z</time>
      </trkpt>
      <trkpt lat="46.01912" lon="6.58218">
        <ele>1766.148</ele>
        <time>2026-03-15T10:15:16Z</time>
      </trkpt>
      <trkpt lat="46.01913" lon="6.58213">
        <ele>1767.905</ele>
        <time>2026-03-15T10:15:21Z</time>
      </trkpt>
      <trkpt lat="46.01916" lon="6.58209">
        <ele>1768.466</ele>
        <time>2026-03-15T10:15:26Z</time>
      </trkpt>
      <trkpt lat="46.01919" lon="6.58203">
        <ele>1768.922</ele>
        <time>2026-03-15T10:15:31Z</time>
      </trkpt>
      <trkpt lat="46.01921" lon="6.58198">
        <ele>1769.13</ele>
        <time>2026-03-15T10:15:36Z</time>
      </trkpt>
      <trkpt lat="46.01924" lon="6.58192">
        <ele>1768.989</ele>
        <time>2026-03-15T10:15:41Z</time>
      </trkpt>
      <trkpt lat="46.01928" lon="6.58187">
        <ele>1769.308</ele>
        <time>2026-03-15T10:15:46Z</time>
      </trkpt>
      <trkpt lat="46.01932" lon="6.58182">
        <ele>1769.632</ele>
        <time>2026-03-15T10:15:51Z</time>
      </trkpt>
      <trkpt lat="46.01935" lon="6.58177">
        <ele>1769.902</ele>
        <time>2026-03-15T10:15:56Z</time>
      </trkpt>
      <trkpt lat="46.01938" lon="6.58171">
        <ele>1769.98</ele>
        <time>2026-03-15T10:16:01Z</time>
      </trkpt>
      <trkpt lat="46.01942" lon="6.58167">
        <ele>1771.276</ele>
        <time>2026-03-15T10:16:06Z</time>
      </trkpt>
      <trkpt lat="46.01946" lon="6.58163">
        <ele>1770.937</ele>
        <time>2026-03-15T10:16:11Z</time>
      </trkpt>
      <trkpt lat="46.0195" lon="6.5816">
        <ele>1771.827</ele>
        <time>2026-03-15T10:16:16Z</time>
      </trkpt>
      <trkpt lat="46.01954" lon="6.58156">
        <ele>1771.777</ele>
        <time>2026-03-15T10:16:21Z</time>
      </trkpt>
      <trkpt lat="46.01958" lon="6.58153">
        <ele>1773.266</ele>
        <time>2026-03-15T10:16:26Z</time>
      </trkpt>
      <trkpt lat="46.01961" lon="6.58149">
        <ele>1774.171</ele>
        <time>2026-03-15T10:16:31Z</time>
      </trkpt>
      <trkpt lat="46.01962" lon="6.58142">
        <ele>1774.905</ele>
        <time>2026-03-15T10:16:36Z</time>
      </trkpt>
      <trkpt lat="46.01961" lon="6.58136">
        <ele>1775.486</ele>
        <time>2026-03-15T10:16:41Z</time>
      </trkpt>
      <trkpt lat="46.01959" lon="6.5813">
        <ele>1775.726</ele>
        <time>2026-03-15T10:16:46Z</time>
      </trkpt>
      <trkpt lat="46.01957" lon="6.58128">
        <ele>1774.33</ele>
        <time>2026-03-15T10:16:51Z</time>
      </trkpt>
      <trkpt lat="46.01957" lon="6.58129">
        <ele>1774.331</ele>
        <time>2026-03-15T10:16:56Z</time>
      </trkpt>
      <trkpt lat="46.01957" lon="6.58129">
        <ele>1774.328</ele>
        <time>2026-03-15T10:17:01Z</time>
      </trkpt>
      <trkpt lat="46.01957" lon="6.58129">
        <ele>1774.324</ele>
        <time>2026-03-15T10:17:06Z</time>
      </trkpt>
      <trkpt lat="46.01957" lon="6.58129">
        <ele>1774.321</ele>
        <time>2026-03-15T10:17:11Z</time>
      </trkpt>
      <trkpt lat="46.01957" lon="6.58129">
        <ele>1774.321</ele>
        <time>2026-03-15T10:17:16Z</time>
      </trkpt>
      <trkpt lat="46.01957" lon="6.58129">
        <ele>1774.324</ele>
        <time>2026-03-15T10:17:21Z</time>
      </trkpt>
      <trkpt lat="46.01957" lon="6.58129">
        <ele>1774.325</ele>
        <time>2026-03-15T10:17:26Z</time>
      </trkpt>
      <trkpt lat="46.01957" lon="6.58129">
        <ele>1774.325</ele>
        <time>2026-03-15T10:17:31Z</time>
      </trkpt>
      <trkpt lat="46.01957" lon="6.58129">
        <ele>1774.325</ele>
        <time>2026-03-15T10:17:36Z</time>
      </trkpt>
      <trkpt lat="46.01957" lon="6.58129">
        <ele>1774.33</ele>
        <time>2026-03-15T10:17:41Z</time>
      </trkpt>
      <trkpt lat="46.01956" lon="6.58128">
        <ele>1773.941</ele>
        <time>2026-03-15T10:17:46Z</time>
      </trkpt>
      <trkpt lat="46.01954" lon="6.58124">
        <ele>1774.495</ele>
        <time>2026-03-15T10:17:51Z</time>
      </trkpt>
      <trkpt lat="46.01952" lon="6.58121">
        <ele>1775.35</ele>
        <time>2026-03-15T10:17:56Z</time>
      </trkpt>
      <trkpt lat="46.01949" lon="6.58118">
        <ele>1775.779</ele>
        <time>2026-03-15T10:18:01Z</time>
      </trkpt>
      <trkpt lat="46.01947" lon="6.58114">
        <ele>1776.096</ele>
        <time>2026-03-15T10:18:06Z</time>
      </trkpt>
      <trkpt lat="46.01944" lon="6.58111">
        <ele>1776.838</ele>
        <time>2026-03-15T10:18:11Z</time>
      </trkpt>
      <trkpt lat="46.01942" lon="6.58107">
        <ele>1777.725</ele>
        <time>2026-03-15T10:18:16Z</time>
      </trkpt>
      <trkpt lat="46.01938" lon="6.58105">
        <ele>1778.159</ele>
        <time>2026-03-15T10:18:21Z</time>
      </trkpt>
      <trkpt lat="46.01935" lon="6.58104">
        <ele>1778.096</ele>
        <time>2026-03-15T10:18:26Z</time>
      </trkpt>
      <trkpt lat="46.01931" lon="6.58103">
        <ele>1778.568</ele>
        <time>2026-03-15T10:18:31Z</time>
      </trkpt>
      <trkpt lat="46.01927" lon="6.58102">
        <ele>1779.176</ele>
        <time>2026-03-15T10:18:36Z</time>
      </trkpt>
      <trkpt lat="46.01923" lon="6.58101">
        <ele>1779.571</ele>
        <time>2026-03-15T10:18:41Z</time>
      </trkpt>
      <trkpt lat="46.0192" lon="6.581">
        <ele>1780.83</ele>
        <time>2026-03-15T10:18:46Z</time>
      </trkpt>
      <trkpt lat="46.01917" lon="6.58099">
        <ele>1781.455</ele>
        <time>2026-03-15T10:18:51Z</time>
      </trkpt>
      <trkpt lat="46.01913" lon="6.58098">
        <ele>1782.147</ele>
        <time>2026-03-15T10:18:56Z</time>
      </trkpt>
      <trkpt lat="46.01909" lon="6.58097">
        <ele>1782.574</ele>
        <time>2026-03-15T10:19:01Z</time>
      </trkpt>
      <trkpt lat="46.01905" lon="6.58096">
        <ele>1783.585</ele>
        <time>2026-03-15T10:19:06Z</time>
      </trkpt>
      <trkpt lat="46.01901" lon="6.58095">
        <ele>1784.426</ele>
        <time>2026-03-15T10:19:11Z</time>
      </trkpt>
      <trkpt lat="46.01898" lon="6.58095">
        <ele>1785.187</ele>
        <time>2026-03-15T10:19:16Z</time>
      </trkpt>
      <trkpt lat="46.01894" lon="6.58095">
        <ele>1785.897</ele>
        <time>2026-03-15T10:19:21Z</time>
      </trkpt>
      <trkpt lat="46.01891" lon="6.58096">
        <ele>1785.41</ele>
        <time>2026-03-15T10:19:26Z</time>
      </trkpt>
      <trkpt lat="46.01887" lon="6.58098">
        <ele>1786.156</ele>
        <time>2026-03-15T10:19:31Z</time>
      </trkpt>
      <trkpt lat="46.01884" lon="6.58099">
        <ele>1786.565</ele>
        <time>2026-03-15T10:19:36Z</time>
      </trkpt>
      <trkpt lat="46.01881" lon="6.581">
        <ele>1787.023</ele>
        <time>2026-03-15T10:19:41Z</time>
      </trkpt>
      <trkpt lat="46.01877" lon="6.58102">
        <ele>1787.061</ele>
        <time>2026-03-15T10:19:46Z</time>
      </trkpt>
      <trkpt lat="46.01873" lon="6.58103">
        <ele>1788.268</ele>
        <time>2026-03-15T10:19:51Z</time>
      </trkpt>
      <trkpt lat="46.01869" lon="6.58102">
        <ele>1789.524</ele>
        <time>2026-03-15T10:19:56Z</time>
      </trkpt>
      <trkpt lat="46.01865" lon="6.58102">
        <ele>1790.041</ele>
        <time>2026-03-15T10:20:01Z</time>
      </trkpt>
      <trkpt lat="46.01862" lon="6.581">
        <ele>1790.013</ele>
        <time>2026-03-15T10:20:06Z</time>
      </trkpt>
      <trkpt lat="46.01858" lon="6.58099">
        <ele>1790.927</ele>
        <time>2026-03-15T10:20:11Z</time>
      </trkpt>
      <trkpt lat="46.01855" lon="6.58097">
        <ele>1791.471</ele>
        <time>2026-03-15T10:20:16Z</time>
      </trkpt>
      <trkpt lat="46.01852" lon="6.58095">
        <ele>1792.122</ele>
        <time>2026-03-15T10:20:21Z</time>
      </trkpt>
      <trkpt lat="46.01849" lon="6.58093">
        <ele>1793.582</ele>
        <time>2026-03-15T10:20:26Z</time>
      </trkpt>
      <trkpt lat="46.01847" lon="6.58089">
        <ele>1793.618</ele>
        <time>2026-03-15T10:20:31Z</time>
      </trkpt>
      <trkpt lat="46.01845" lon="6.58086">
        <ele>1793.556</ele>
        <time>2026-03-15T10:20:36Z</time>
      </trkpt>
      <trkpt lat="46.01843" lon="6.58082">
        <ele>1794.008</ele>
        <time>2026-03-15T10:20:41Z</time>
      </trkpt>
      <trkpt lat="46.0184" lon="6.58078">
        <ele>1794.303</ele>
        <time>2026-03-15T10:20:46Z</time>
      </trkpt>
      <trkpt lat="46.01838" lon="6.58076">
        <ele>1794.851</ele>
        <time>2026-03-15T10:20:51Z</time>
      </trkpt>
      <trkpt lat="46.01835" lon="6.58072">
        <ele>1794.898</ele>
        <time>2026-03-15T10:20:56Z</time>
      </trkpt>
      <trkpt lat="46.01833" lon="6.58071">
        <ele>1794.556</ele>
        <time>2026-03-15T10:21:01Z</time>
      </trkpt>
      <trkpt lat="46.01831" lon="6.5807">
        <ele>1795.029</ele>
        <time>2026-03-15T10:21:06Z</time>
      </trkpt>
      <trkpt lat="46.01828" lon="6.58068">
        <ele>1796.175</ele>
        <time>2026-03-15T10:21:11Z</time>
      </trkpt>
      <trkpt lat="46.01825" lon="6.58066">
        <ele>1796.915</ele>
        <time>2026-03-15T10:21:16Z</time>
      </trkpt>
      <trkpt lat="46.01823" lon="6.58064">
        <ele>1797.402</ele>
        <time>2026-03-15T10:21:21Z</time>
      </trkpt>
      <trkpt lat="46.0182" lon="6.58063">
        <ele>1798.28</ele>
        <time>2026-03-15T10:21:26Z</time>
      </trkpt>
      <trkpt lat="46.01817" lon="6.58061">
        <ele>1799.011</ele>
        <time>2026-03-15T10:21:31Z</time>
      </trkpt>
      <trkpt lat="46.01815" lon="6.58061">
        <ele>1800.171</ele>
        <time>2026-03-15T10:21:36Z</time>
      </trkpt>
      <trkpt lat="46.01811" lon="6.5806">
        <ele>1800.611</ele>
        <time>2026-03-15T10:21:41Z</time>
      </trkpt>
      <trkpt lat="46.01808" lon="6.58058">
        <ele>1800.777</ele>
        <time>2026-03-15T10:21:46Z</time>
      </trkpt>
      <trkpt lat="46.01806" lon="6.58057">
        <ele>1801.981</ele>
        <time>2026-03-15T10:21:51Z</time>
      </trkpt>
      <trkpt lat="46.01802" lon="6.58056">
        <ele>1802.362</ele>
        <time>2026-03-15T10:21:56Z</time>
      </trkpt>
      <trkpt lat="46.01799" lon="6.58055">
        <ele>1802.514</ele>
        <time>2026-03-15T10:22:01Z</time>
      </trkpt>
      <trkpt lat="46.01796" lon="6.58054">
        <ele>1803.435</ele>
        <time>2026-03-15T10:22:06Z</time>
      </trkpt>
      <trkpt lat="46.01794" lon="6.58053">
        <ele>1803.309</ele>
        <time>2026-03-15T10:22:11Z</time>
      </trkpt>
      <trkpt lat="46.01791" lon="6.58052">
        <ele>1803.873</ele>
        <time>2026-03-15T10:22:16Z</time>
      </trkpt>
      <trkpt lat="46.01788" lon="6.58051">
        <ele>1803.859</ele>
        <time>2026-03-15T10:22:21Z</time>
      </trkpt>
      <trkpt lat="46.01784" lon="6.58049">
        <ele>1805.006</ele>
        <time>2026-03-15T10:22:26Z</time>
      </trkpt>
      <trkpt lat="46.01782" lon="6.58048">
        <ele>1805.331</ele>
        <time>2026-03-15T10:22:31Z</time>
      </trkpt>
      <trkpt lat="46.01779" lon="6.58047">
        <ele>1805.747</ele>
        <time>2026-03-15T10:22:36Z</time>
      </trkpt>
      <trkpt lat="46.01777" lon="6.58046">
        <ele>1806.773</ele>
        <time>2026-03-15T10:22:41Z</time>
      </trkpt>
      <trkpt lat="46.01774" lon="6.58044">
        <ele>1807.501</ele>
        <time>2026-03-15T10:22:46Z</time>
      </trkpt>
      <trkpt lat="46.01772" lon="6.58042">
        <ele>1808.137</ele>
        <time>2026-03-15T10:22:51Z</time>
      </trkpt>
      <trkpt lat="46.01769" lon="6.58041">
        <ele>1809.089</ele>
        <time>2026-03-15T10:22:56Z</time>
      </trkpt>
      <trkpt lat="46.01767" lon="6.58041">
        <ele>1809.579</ele>
        <time>2026-03-15T10:23:01Z</time>
      </trkpt>
      <trkpt lat="46.01764" lon="6.58041">
        <ele>1810.574</ele>
        <time>2026-03-15T10:23:06Z</time>
      </trkpt>
      <trkpt lat="46.01762" lon="6.5804">
        <ele>1810.672</ele>
        <time>2026-03-15T10:23:11Z</time>
      </trkpt>
      <trkpt lat="46.0176" lon="6.5804">
        <ele>1811.088</ele>
        <time>2026-03-15T10:23:16Z</time>
      </trkpt>
      <trkpt lat="46.01758" lon="6.58043">
        <ele>1811.741</ele>
        <time>2026-03-15T10:23:21Z</time>
      </trkpt>
      <trkpt lat="46.01758" lon="6.58047">
        <ele>1811.529</ele>
        <time>2026-03-15T10:23:26Z</time>
      </trkpt>
      <trkpt lat="46.01759" lon="6.58051">
        <ele>1812.063</ele>
        <time>2026-03-15T10:23:31Z</time>
      </trkpt>
      <trkpt lat="46.0176" lon="6.58056">
        <ele>1812.357</ele>
        <time>2026-03-15T10:23:36Z</time>
      </trkpt>
      <trkpt lat="46.01761" lon="6.5806">
        <ele>1813.568</ele>
        <time>2026-03-15T10:23:41Z</time>
      </trkpt>
      <trkpt lat="46.01763" lon="6.58064">
        <ele>1813.956</ele>
        <time>2026-03-15T10:23:46Z</time>
      </trkpt>
      <trkpt lat="46.01765" lon="6.58068">
        <ele>1814.476</ele>
        <time>2026-03-15T10:23:51Z</time>
      </trkpt>
      <trkpt lat="46.01767" lon="6.58071">
        <ele>1815.133</ele>
        <time>2026-03-15T10:23:56Z</time>
      </trkpt>
      <trkpt lat="46.01769" lon="6.58074">
        <ele>1815.686</ele>
        <time>2026-03-15T10:24:01Z</time>
      </trkpt>
      <trkpt lat="46.01771" lon="6.58077">
        <ele>1815.301</ele>
        <time>2026-03-15T10:24:06Z</time>
      </trkpt>
      <trkpt lat="46.01774" lon="6.58079">
        <ele>1815.568</ele>
        <time>2026-03-15T10:24:11Z</time>
      </trkpt>
      <trkpt lat="46.01774" lon="6.58079">
        <ele>1815.572</ele>
        <time>2026-03-15T10:24:16Z</time>
      </trkpt>
      <trkpt lat="46.01774" lon="6.5808">
        <ele>1815.888</ele>
        <time>2026-03-15T10:24:21Z</time>
      </trkpt>
      <trkpt lat="46.01772" lon="6.58079">
        <ele>1816.679</ele>
        <time>2026-03-15T10:24:26Z</time>
      </trkpt>
      <trkpt lat="46.01769" lon="6.58077">
        <ele>1818.483</ele>
        <time>2026-03-15T10:24:31Z</time>
      </trkpt>
      <trkpt lat="46.01767" lon="6.58075">
        <ele>1819.67</ele>
        <time>2026-03-15T10:24:36Z</time>
      </trkpt>
      <trkpt lat="46.01764" lon="6.58074">
        <ele>1820.295</ele>
        <time>2026-03-15T10:24:41Z</time>
      </trkpt>
      <trkpt lat="46.01761" lon="6.58073">
        <ele>1820.198</ele>
        <time>2026-03-15T10:24:46Z</time>
      </trkpt>
      <trkpt lat="46.01758" lon="6.58072">
        <ele>1820.909</ele>
        <time>2026-03-15T10:24:51Z</time>
      </trkpt>
      <trkpt lat="46.01755" lon="6.58071">
        <ele>1821.607</ele>
        <time>2026-03-15T10:24:56Z</time>
      </trkpt>
      <trkpt lat="46.01752" lon="6.5807">
        <ele>1822.093</ele>
        <time>2026-03-15T10:25:01Z</time>
      </trkpt>
      <trkpt lat="46.01748" lon="6.58068">
        <ele>1822.612</ele>
        <time>2026-03-15T10:25:06Z</time>
      </trkpt>
      <trkpt lat="46.01746" lon="6.58067">
        <ele>1822.903</ele>
        <time>2026-03-15T10:25:11Z</time>
      </trkpt>
      <trkpt lat="46.01743" lon="6.58065">
        <ele>1823.915</ele>
        <time>2026-03-15T10:25:16Z</time>
      </trkpt>
      <trkpt lat="46.0174" lon="6.58063">
        <ele>1824.433</ele>
        <time>2026-03-15T10:25:21Z</time>
      </trkpt>
      <trkpt lat="46.01738" lon="6.58061">
        <ele>1824.633</ele>
        <time>2026-03-15T10:25:26Z</time>
      </trkpt>
      <trkpt lat="46.01736" lon="6.5806">
        <ele>1824.923</ele>
        <time>2026-03-15T10:25:31Z</time>
      </trkpt>
      <trkpt lat="46.01732" lon="6.58058">
        <ele>1825.161</ele>
        <time>2026-03-15T10:25:36Z</time>
      </trkpt>
      <trkpt lat="46.0173" lon="6.58057">
        <ele>1825.64</ele>
        <time>2026-03-15T10:25:41Z</time>
      </trkpt>
      <trkpt lat="46.01727" lon="6.58056">
        <ele>1826.282</ele>
        <time>2026-03-15T10:25:46Z</time>
      </trkpt>
      <trkpt lat="46.01724" lon="6.58054">
        <ele>1826.622</ele>
        <time>2026-03-15T10:25:51Z</time>
      </trkpt>
      <trkpt lat="46.01722" lon="6.58053">
        <ele>1827.388</ele>
        <time>2026-03-15T10:25:56Z</time>
      </trkpt>
      <trkpt lat="46.01721" lon="6.58053">
        <ele>1827.739</ele>
        <time>2026-03-15T10:26:01Z</time>
      </trkpt>
      <trkpt lat="46.01722" lon="6.58057">
        <ele>1828.501</ele>
        <time>2026-03-15T10:26:06Z</time>
      </trkpt>
      <trkpt lat="46.01722" lon="6.5806">
        <ele>1828.529</ele>
        <time>2026-03-15T10:26:11Z</time>
      </trkpt>
      <trkpt lat="46.01723" lon="6.58065">
        <ele>1828.517</ele>
        <time>2026-03-15T10:26:16Z</time>
      </trkpt>
      <trkpt lat="46.01724" lon="6.58069">
        <ele>1829.482</ele>
        <time>2026-03-15T10:26:21Z</time>
      </trkpt>
      <trkpt lat="46.01724" lon="6.5807">
        <ele>1830.038</ele>
        <time>2026-03-15T10:26:26Z</time>
      </trkpt>
      <trkpt lat="46.01724" lon="6.5807">
        <ele>1830.039</ele>
        <time>2026-03-15T10:26:31Z</time>
      </trkpt>
      <trkpt lat="46.01724" lon="6.5807">
        <ele>1830.036</ele>
        <time>2026-03-15T10:26:36Z</time>
      </trkpt>
      <trkpt lat="46.01724" lon="6.5807">
        <ele>1830.034</ele>
        <time>2026-03-15T10:26:41Z</time>
      </trkpt>
      <trkpt lat="46.01724" lon="6.5807">
        <ele>1830.042</ele>
        <time>2026-03-15T10:26:46Z</time>
      </trkpt>
      <trkpt lat="46.01724" lon="6.5807">
        <ele>1830.046</ele>
        <time>2026-03-15T10:26:51Z</time>
      </trkpt>
      <trkpt lat="46.01724" lon="6.58071">
        <ele>1830.267</ele>
        <time>2026-03-15T10:26:56Z</time>
      </trkpt>
      <trkpt lat="46.01726" lon="6.58074">
        <ele>1830.331</ele>
        <time>2026-03-15T10:27:01Z</time>
      </trkpt>
      <trkpt lat="46.01727" lon="6.58078">
        <ele>1831.381</ele>
        <time>2026-03-15T10:27:06Z</time>
      </trkpt>
      <trkpt lat="46.01729" lon="6.58082">
        <ele>1831.996</ele>
        <time>2026-03-15T10:27:11Z</time>
      </trkpt>
      <trkpt lat="46.0173" lon="6.58085">
        <ele>1832.123</ele>
        <time>2026-03-15T10:27:16Z</time>
      </trkpt>
      <trkpt lat="46.01731" lon="6.58089">
        <ele>1833.805</ele>
        <time>2026-03-15T10:27:21Z</time>
      </trkpt>
      <trkpt lat="46.01732" lon="6.58094">
        <ele>1834.995</ele>
        <time>2026-03-15T10:27:26Z</time>
      </trkpt>
      <trkpt lat="46.01731" lon="6.58095">
        <ele>1835.357</ele>
        <time>2026-03-15T10:27:31Z</time>
      </trkpt>
      <trkpt lat="46.01729" lon="6.58095">
        <ele>1836.834</ele>
        <time>2026-03-15T10:27:36Z</time>
      </trkpt>
      <trkpt lat="46.01727" lon="6.58095">
        <ele>1838.513</ele>
        <time>2026-03-15T10:27:41Z</time>
      </trkpt>
      <trkpt lat="46.01725" lon="6.58094">
        <ele>1839.478</ele>
        <time>2026-03-15T10:27:46Z</time>
      </trkpt>
      <trkpt lat="46.01723" lon="6.58093">
        <ele>1840.723</ele>
        <time>2026-03-15T10:27:51Z</time>
      </trkpt>
      <trkpt lat="46.01721" lon="6.58093">
        <ele>1841.414</ele>
        <time>2026-03-15T10:27:56Z</time>
      </trkpt>
      <trkpt lat="46.01718" lon="6.58093">
        <ele>1841.988</ele>
        <time>2026-03-15T10:28:01Z</time>
      </trkpt>
      <trkpt lat="46.01716" lon="6.58093">
        <ele>1842.401</ele>
        <time>2026-03-15T10:28:06Z</time>
      </trkpt>
      <trkpt lat="46.01713" lon="6.58092">
        <ele>1843.628</ele>
        <time>2026-03-15T10:28:11Z</time>
      </trkpt>
      <trkpt lat="46.01711" lon="6.58093">
        <ele>1844.257</ele>
        <time>2026-03-15T10:28:16Z</time>
      </trkpt>
      <trkpt lat="46.01709" lon="6.58092">
        <ele>1844.867</ele>
        <time>2026-03-15T10:28:21Z</time>
      </trkpt>
      <trkpt lat="46.01707" lon="6.58093">
        <ele>1845.466</ele>
        <time>2026-03-15T10:28:26Z</time>
      </trkpt>
      <trkpt lat="46.01705" lon="6.58093">
        <ele>1846.207</ele>
        <time>2026-03-15T10:28:31Z</time>
      </trkpt>
      <trkpt lat="46.01703" lon="6.58094">
        <ele>1847.477</ele>
        <time>2026-03-15T10:28:36Z</time>
      </trkpt>
      <trkpt lat="46.01701" lon="6.58094">
        <ele>1848.277</ele>
        <time>2026-03-15T10:28:41Z</time>
      </trkpt>
      <trkpt lat="46.01699" lon="6.58096">
        <ele>1848.41</ele>
        <time>2026-03-15T10:28:46Z</time>
      </trkpt>
      <trkpt lat="46.01697" lon="6.58097">
        <ele>1848.995</ele>
        <time>2026-03-15T10:28:51Z</time>
      </trkpt>
      <trkpt lat="46.01694" lon="6.58097">
        <ele>1849.86</ele>
        <time>2026-03-15T10:28:56Z</time>
      </trkpt>
      <trkpt lat="46.01692" lon="6.58097">
        <ele>1850.997</ele>
        <time>2026-03-15T10:29:01Z</time>
      </trkpt>
      <trkpt lat="46.0169" lon="6.58098">
        <ele>1852.423</ele>
        <time>2026-03-15T10:29:06Z</time>
      </trkpt>
      <trkpt lat="46.01688" lon="6.58099">
        <ele>1852.745</ele>
        <time>2026-03-15T10:29:11Z</time>
      </trkpt>
      <trkpt lat="46.01685" lon="6.58099">
        <ele>1853.725</ele>
        <time>2026-03-15T10:29:16Z</time>
      </trkpt>
      <trkpt lat="46.01682" lon="6.581">
        <ele>1854.496</ele>
        <time>2026-03-15T10:29:21Z</time>
      </trkpt>
      <trkpt lat="46.01679" lon="6.58099">
        <ele>1854.932</ele>
        <time>2026-03-15T10:29:26Z</time>
      </trkpt>
      <trkpt lat="46.01675" lon="6.58098">
        <ele>1855.775</ele>
        <time>2026-03-15T10:29:31Z</time>
      </trkpt>
      <trkpt lat="46.01672" lon="6.58096">
        <ele>1856.512</ele>
        <time>2026-03-15T10:29:36Z</time>
      </trkpt>
      <trkpt lat="46.01669" lon="6.58095">
        <ele>1857.562</ele>
        <time>2026-03-15T10:29:41Z</time>
      </trkpt>
      <trkpt lat="46.01666" lon="6.58094">
        <ele>1858.312</ele>
        <time>2026-03-15T10:29:46Z</time>
      </trkpt>
      <trkpt lat="46.01663" lon="6.58093">
        <ele>1858.589</ele>
        <time>2026-03-15T10:29:51Z</time>
      </trkpt>
      <trkpt lat="46.01661" lon="6.58093">
        <ele>1858.471</ele>
        <time>2026-03-15T10:29:56Z</time>
      </trkpt>
      <trkpt lat="46.01658" lon="6.58093">
        <ele>1858.897</ele>
        <time>2026-03-15T10:30:01Z</time>
      </trkpt>
      <trkpt lat="46.01655" lon="6.58094">
        <ele>1858.529</ele>
        <time>2026-03-15T10:30:06Z</time>
      </trkpt>
      <trkpt lat="46.01652" lon="6.58097">
        <ele>1859.436</ele>
        <time>2026-03-15T10:30:11Z</time>
      </trkpt>
      <trkpt lat="46.01649" lon="6.58099">
        <ele>1859.67</ele>
        <time>2026-03-15T10:30:16Z</time>
      </trkpt>
      <trkpt lat="46.01647" lon="6.58099">
        <ele>1860.163</ele>
        <time>2026-03-15T10:30:21Z</time>
      </trkpt>
      <trkpt lat="46.01644" lon="6.581">
        <ele>1860.943</ele>
        <time>2026-03-15T10:30:26Z</time>
      </trkpt>
      <trkpt lat="46.01641" lon="6.581">
        <ele>1861.829</ele>
        <time>2026-03-15T10:30:31Z</time>
      </trkpt>
      <trkpt lat="46.01639" lon="6.581">
        <ele>1862.127</ele>
        <time>2026-03-15T10:30:36Z</time>
      </trkpt>
      <trkpt lat="46.01637" lon="6.58101">
        <ele>1862.848</ele>
        <time>2026-03-15T10:30:41Z</time>
      </trkpt>
      <trkpt lat="46.01634" lon="6.58101">
        <ele>1863.042</ele>
        <time>2026-03-15T10:30:46Z</time>
      </trkpt>
      <trkpt lat="46.01632" lon="6.58102">
        <ele>1863.693</ele>
        <time>2026-03-15T10:30:51Z</time>
      </trkpt>
      <trkpt lat="46.01629" lon="6.58102">
        <ele>1864.555</ele>
        <time>2026-03-15T10:30:56Z</time>
      </trkpt>
      <trkpt lat="46.01627" lon="6.58102">
        <ele>1865.346</ele>
        <time>2026-03-15T10:31:01Z</time>
      </trkpt>
      <trkpt lat="46.01624" lon="6.58102">
        <ele>1866.148</ele>
        <time>2026-03-15T10:31:06Z</time>
      </trkpt>
      <trkpt lat="46.01622" lon="6.58102">
        <ele>1866.195</ele>
        <time>2026-03-15T10:31:11Z</time>
      </trkpt>
      <trkpt lat="46.0162" lon="6.58102">
        <ele>1866.62</ele>
        <time>2026-03-15T10:31:16Z</time>
      </trkpt>
      <trkpt lat="46.01616" lon="6.58102">
        <ele>1867.872</ele>
        <time>2026-03-15T10:31:21Z</time>
      </trkpt>
      <trkpt lat="46.01614" lon="6.58102">
        <ele>1868.578</ele>
        <time>2026-03-15T10:31:26Z</time>
      </trkpt>
      <trkpt lat="46.01611" lon="6.58102">
        <ele>1868.949</ele>
        <time>2026-03-15T10:31:31Z</time>
      </trkpt>
      <trkpt lat="46.01608" lon="6.58102">
        <ele>1869.172</ele>
        <time>2026-03-15T10:31:36Z</time>
      </trkpt>
      <trkpt lat="46.01605" lon="6.58102">
        <ele>1869.211</ele>
        <time>2026-03-15T10:31:41Z</time>
      </trkpt>
      <trkpt lat="46.01603" lon="6.58102">
        <ele>1869.711</ele>
        <time>2026-03-15T10:31:46Z</time>
      </trkpt>
      <trkpt lat="46.016" lon="6.58102">
        <ele>1870.937</ele>
        <time>2026-03-15T10:31:51Z</time>
      </trkpt>
      <trkpt lat="46.01597" lon="6.58102">
        <ele>1871.18</ele>
        <time>2026-03-15T10:31:56Z</time>
      </trkpt>
      <trkpt lat="46.01595" lon="6.58102">
        <ele>1872.169</ele>
        <time>2026-03-15T10:32:01Z</time>
      </trkpt>
      <trkpt lat="46.01593" lon="6.58102">
        <ele>1872.506</ele>
        <time>2026-03-15T10:32:06Z</time>
      </trkpt>
      <trkpt lat="46.01591" lon="6.58102">
        <ele>1873.16</ele>
        <time>2026-03-15T10:32:11Z</time>
      </trkpt>
      <trkpt lat="46.01588" lon="6.58102">
        <ele>1873.269</ele>
        <time>2026-03-15T10:32:16Z</time>
      </trkpt>
      <trkpt lat="46.01585" lon="6.58102">
        <ele>1874.112</ele>
        <time>2026-03-15T10:32:21Z</time>
      </trkpt>
      <trkpt lat="46.01583" lon="6.58102">
        <ele>1874.419</ele>
        <time>2026-03-15T10:32:26Z</time>
      </trkpt>
      <trkpt lat="46.0158" lon="6.58102">
        <ele>1874.807</ele>
        <time>2026-03-15T10:32:31Z</time>
      </trkpt>
      <trkpt lat="46.01578" lon="6.58102">
        <ele>1875.882</ele>
        <time>2026-03-15T10:32:36Z</time>
      </trkpt>
      <trkpt lat="46.01576" lon="6.58102">
        <ele>1876.507</ele>
        <time>2026-03-15T10:32:41Z</time>
      </trkpt>
      <trkpt lat="46.01573" lon="6.58102">
        <ele>1877.154</ele>
        <time>2026-03-15T10:32:46Z</time>
      </trkpt>
      <trkpt lat="46.01571" lon="6.58101">
        <ele>1877.9</ele>
        <time>2026-03-15T10:32:51Z</time>
      </trkpt>
      <trkpt lat="46.01569" lon="6.58101">
        <ele>1877.977</ele>
        <time>2026-03-15T10:32:56Z</time>
      </trkpt>
      <trkpt lat="46.01566" lon="6.58101">
        <ele>1877.884</ele>
        <time>2026-03-15T10:33:01Z</time>
      </trkpt>
      <trkpt lat="46.01564" lon="6.58101">
        <ele>1878.17</ele>
        <time>2026-03-15T10:33:06Z</time>
      </trkpt>
      <trkpt lat="46.01561" lon="6.58101">
        <ele>1878.292</ele>
        <time>2026-03-15T10:33:11Z</time>
      </trkpt>
      <trkpt lat="46.01559" lon="6.58101">
        <ele>1879.283</ele>
        <time>2026-03-15T10:33:16Z</time>
      </trkpt>
      <trkpt lat="46.01556" lon="6.581">
        <ele>1879.964</ele>
        <time>2026-03-15T10:33:21Z</time>
      </trkpt>
      <trkpt lat="46.01553" lon="6.58099">
        <ele>1880.159</ele>
        <time>2026-03-15T10:33:26Z</time>
      </trkpt>
      <trkpt lat="46.01551" lon="6.58099">
        <ele>1881.518</ele>
        <time>2026-03-15T10:33:31Z</time>
      </trkpt>
      <trkpt lat="46.01549" lon="6.58099">
        <ele>1882.227</ele>
        <time>2026-03-15T10:33:36Z</time>
      </trkpt>
      <trkpt lat="46.01546" lon="6.58098">
        <ele>1882.492</ele>
        <time>2026-03-15T10:33:41Z</time>
      </trkpt>
      <trkpt lat="46.01543" lon="6.58097">
        <ele>1883.413</ele>
        <time>2026-03-15T10:33:46Z</time>
      </trkpt>
      <trkpt lat="46.01541" lon="6.58097">
        <ele>1884.074</ele>
        <time>2026-03-15T10:33:51Z</time>
      </trkpt>
      <trkpt lat="46.01539" lon="6.58097">
        <ele>1885.252</ele>
        <time>2026-03-15T10:33:56Z</time>
      </trkpt>
      <trkpt lat="46.01537" lon="6.58096">
        <ele>1885.615</ele>
        <time>2026-03-15T10:34:01Z</time>
      </trkpt>
      <trkpt lat="46.01535" lon="6.58096">
        <ele>1886.074</ele>
        <time>2026-03-15T10:34:06Z</time>
      </trkpt>
      <trkpt lat="46.01532" lon="6.58096">
        <ele>1886.459</ele>
        <time>2026-03-15T10:34:11Z</time>
      </trkpt>
      <trkpt lat="46.0153" lon="6.58096">
        <ele>1887.129</ele>
        <time>2026-03-15T10:34:16Z</time>
      </trkpt>
      <trkpt lat="46.01528" lon="6.58096">
        <ele>1887.568</ele>
        <time>2026-03-15T10:34:21Z</time>
      </trkpt>
      <trkpt lat="46.01526" lon="6.58095">
        <ele>1888.291</ele>
        <time>2026-03-15T10:34:26Z</time>
      </trkpt>
      <trkpt lat="46.01523" lon="6.58095">
        <ele>1888.884</ele>
        <time>2026-03-15T10:34:31Z</time>
      </trkpt>
      <trkpt lat="46.01521" lon="6.58094">
        <ele>1888.931</ele>
        <time>2026-03-15T10:34:36Z</time>
      </trkpt>
      <trkpt lat="46.01518" lon="6.58094">
        <ele>1889.249</ele>
        <time>2026-03-15T10:34:41Z</time>
      </trkpt>
      <trkpt lat="46.01515" lon="6.58093">
        <ele>1889.201</ele>
        <time>2026-03-15T10:34:46Z</time>
      </trkpt>
      <trkpt lat="46.01513" lon="6.58092">
        <ele>1889.493</ele>
        <time>2026-03-15T10:34:51Z</time>
      </trkpt>
      <trkpt lat="46.0151" lon="6.58092">
        <ele>1890.286</ele>
        <time>2026-03-15T10:34:56Z</time>
      </trkpt>
      <trkpt lat="46.01508" lon="6.58091">
        <ele>1890.196</ele>
        <time>2026-03-15T10:35:01Z</time>
      </trkpt>
      <trkpt lat="46.01506" lon="6.58091">
        <ele>1891.563</ele>
        <time>2026-03-15T10:35:06Z</time>
      </trkpt>
      <trkpt lat="46.01504" lon="6.58091">
        <ele>1892.28</ele>
        <time>2026-03-15T10:35:11Z</time>
      </trkpt>
      <trkpt lat="46.01502" lon="6.58091">
        <ele>1893.52</ele>
        <time>2026-03-15T10:35:16Z</time>
      </trkpt>
      <trkpt lat="46.015" lon="6.58091">
        <ele>1894.11</ele>
        <time>2026-03-15T10:35:21Z</time>
      </trkpt>
      <trkpt lat="46.01498" lon="6.58091">
        <ele>1895.023</ele>
        <time>2026-03-15T10:35:26Z</time>
      </trkpt>
      <trkpt lat="46.01496" lon="6.58091">
        <ele>1895.793</ele>
        <time>2026-03-15T10:35:31Z</time>
      </trkpt>
      <trkpt lat="46.01494" lon="6.58091">
        <ele>1896.446</ele>
        <time>2026-03-15T10:35:36Z</time>
      </trkpt>
      <trkpt lat="46.01492" lon="6.58092">
        <ele>1896.756</ele>
        <time>2026-03-15T10:35:41Z</time>
      </trkpt>
      <trkpt lat="46.0149" lon="6.58092">
        <ele>1897.132</ele>
        <time>2026-03-15T10:35:46Z</time>
      </trkpt>
      <trkpt lat="46.01488" lon="6.58092">
        <ele>1897.413</ele>
        <time>2026-03-15T10:35:51Z</time>
      </trkpt>
      <trkpt lat="46.01486" lon="6.58092">
        <ele>1898.021</ele>
        <time>2026-03-15T10:35:56Z</time>
      </trkpt>
      <trkpt lat="46.01483" lon="6.58092">
        <ele>1898.81</ele>
        <time>2026-03-15T10:36:01Z</time>
      </trkpt>
      <trkpt lat="46.0148" lon="6.58092">
        <ele>1899.446</ele>
        <time>2026-03-15T10:36:06Z</time>
      </trkpt>
      <trkpt lat="46.01477" lon="6.58092">
        <ele>1899.69</ele>
        <time>2026-03-15T10:36:11Z</time>
      </trkpt>
      <trkpt lat="46.01474" lon="6.58092">
        <ele>1900.613</ele>
        <time>2026-03-15T10:36:16Z</time>
      </trkpt>
      <trkpt lat="46.01471" lon="6.58092">
        <ele>1901.349</ele>
        <time>2026-03-15T10:36:21Z</time>
      </trkpt>
      <trkpt lat="46.01468" lon="6.58092">
        <ele>1901.524</ele>
        <time>2026-03-15T10:36:26Z</time>
      </trkpt>
      <trkpt lat="46.01464" lon="6.58092">
        <ele>1901.934</ele>
        <time>2026-03-15T10:36:31Z</time>
      </trkpt>
      <trkpt lat="46.01461" lon="6.58092">
        <ele>1902.265</ele>
        <time>2026-03-15T10:36:36Z</time>
      </trkpt>
      <trkpt lat="46.01457" lon="6.58091">
        <ele>1902.393</ele>
        <time>2026-03-15T10:36:41Z</time>
      </trkpt>
      <trkpt lat="46.01454" lon="6.58091">
        <ele>1902.743</ele>
        <time>2026-03-15T10:36:46Z</time>
      </trkpt>
      <trkpt lat="46.01452" lon="6.58092">
        <ele>1903.086</ele>
        <time>2026-03-15T10:36:51Z</time>
      </trkpt>
      <trkpt lat="46.01448" lon="6.58092">
        <ele>1903.458</ele>
        <time>2026-03-15T10:36:56Z</time>
      </trkpt>
      <trkpt lat="46.01444" lon="6.58092">
        <ele>1903.985</ele>
        <time>2026-03-15T10:37:01Z</time>
      </trkpt>
      <trkpt lat="46.0144" lon="6.58092">
        <ele>1904.523</ele>
        <time>2026-03-15T10:37:06Z</time>
      </trkpt>
      <trkpt lat="46.01436" lon="6.58092">
        <ele>1905.089</ele>
        <time>2026-03-15T10:37:11Z</time>
      </trkpt>
      <trkpt lat="46.01432" lon="6.58092">
        <ele>1905.928</ele>
        <time>2026-03-15T10:37:16Z</time>
      </trkpt>
      <trkpt lat="46.01428" lon="6.58093">
        <ele>1905.632</ele>
        <time>2026-03-15T10:37:21Z</time>
      </trkpt>
      <trkpt lat="46.01424" lon="6.58093">
        <ele>1905.111</ele>
        <time>2026-03-15T10:37:26Z</time>
      </trkpt>
      <trkpt lat="46.01421" lon="6.58094">
        <ele>1905.383</ele>
        <time>2026-03-15T10:37:31Z</time>
      </trkpt>
      <trkpt lat="46.01419" lon="6.58097">
        <ele>1906.654</ele>
        <time>2026-03-15T10:37:36Z</time>
      </trkpt>
      <trkpt lat="46.01416" lon="6.581">
        <ele>1906.754</ele>
        <time>2026-03-15T10:37:41Z</time>
      </trkpt>
      <trkpt lat="46.01413" lon="6.58103">
        <ele>1906.656</ele>
        <time>2026-03-15T10:37:46Z</time>
      </trkpt>
      <trkpt lat="46.01411" lon="6.58106">
        <ele>1906.541</ele>
        <time>2026-03-15T10:37:51Z</time>
      </trkpt>
      <trkpt lat="46.01411" lon="6.58107">
        <ele>1906.696</ele>
        <time>2026-03-15T10:37:56Z</time>
      </trkpt>
      <trkpt lat="46.01411" lon="6.58107">
        <ele>1906.701</ele>
        <time>2026-03-15T10:38:01Z</time>
      </trkpt>
      <trkpt lat="46.01411" lon="6.58107">
        <ele>1906.705</ele>
        <time>2026-03-15T10:38:06Z</time>
      </trkpt>
      <trkpt lat="46.01411" lon="6.58107">
        <ele>1906.623</ele>
        <time>2026-03-15T10:38:11Z</time>
      </trkpt>
      <trkpt lat="46.01411" lon="6.58107">
        <ele>1906.622</ele>
        <time>2026-03-15T10:38:16Z</time>
      </trkpt>
      <trkpt lat="46.01411" lon="6.58107">
        <ele>1906.622</ele>
        <time>2026-03-15T10:38:21Z</time>
      </trkpt>
      <trkpt lat="46.01411" lon="6.58107">
        <ele>1906.623</ele>
        <time>2026-03-15T10:38:26Z</time>
      </trkpt>
      <trkpt lat="46.01411" lon="6.58107">
        <ele>1906.626</ele>
        <time>2026-03-15T10:38:31Z</time>
      </trkpt>
      <trkpt lat="46.01411" lon="6.58107">
        <ele>1906.627</ele>
        <time>2026-03-15T10:38:36Z</time>
      </trkpt>
      <trkpt lat="46.01411" lon="6.58107">
        <ele>1906.629</ele>
        <time>2026-03-15T10:38:41Z</time>
      </trkpt>
      <trkpt lat="46.01411" lon="6.58107">
        <ele>1906.635</ele>
        <time>2026-03-15T10:38:46Z</time>
      </trkpt>
      <trkpt lat="46.01411" lon="6.58107">
        <ele>1906.642</ele>
        <time>2026-03-15T10:38:51Z</time>
      </trkpt>
      <trkpt lat="46.01411" lon="6.58107">
        <ele>1906.643</ele>
        <time>2026-03-15T10:38:56Z</time>
      </trkpt>
      <trkpt lat="46.01411" lon="6.58107">
        <ele>1906.653</ele>
        <time>2026-03-15T10:39:01Z</time>
      </trkpt>
      <trkpt lat="46.01411" lon="6.58107">
        <ele>1906.661</ele>
        <time>2026-03-15T10:39:06Z</time>
      </trkpt>
      <trkpt lat="46.01411" lon="6.58107">
        <ele>1906.949</ele>
        <time>2026-03-15T10:39:11Z</time>
      </trkpt>
      <trkpt lat="46.01411" lon="6.58107">
        <ele>1906.956</ele>
        <time>2026-03-15T10:39:16Z</time>
      </trkpt>
      <trkpt lat="46.01411" lon="6.58107">
        <ele>1906.962</ele>
        <time>2026-03-15T10:39:21Z</time>
      </trkpt>
      <trkpt lat="46.01411" lon="6.58107">
        <ele>1906.965</ele>
        <time>2026-03-15T10:39:26Z</time>
      </trkpt>
      <trkpt lat="46.01411" lon="6.58107">
        <ele>1906.972</ele>
        <time>2026-03-15T10:39:31Z</time>
      </trkpt>
      <trkpt lat="46.01411" lon="6.58107">
        <ele>1906.975</ele>
        <time>2026-03-15T10:39:36Z</time>
      </trkpt>
      <trkpt lat="46.01411" lon="6.58107">
        <ele>1906.977</ele>
        <time>2026-03-15T10:39:41Z</time>
      </trkpt>
      <trkpt lat="46.01411" lon="6.58107">
        <ele>1907.231</ele>
        <time>2026-03-15T10:39:46Z</time>
      </trkpt>
      <trkpt lat="46.01411" lon="6.58107">
        <ele>1907.297</ele>
        <time>2026-03-15T10:39:51Z</time>
      </trkpt>
      <trkpt lat="46.01411" lon="6.58107">
        <ele>1907.302</ele>
        <time>2026-03-15T10:39:56Z</time>
      </trkpt>
      <trkpt lat="46.01411" lon="6.58107">
        <ele>1907.307</ele>
        <time>2026-03-15T10:40:01Z</time>
      </trkpt>
      <trkpt lat="46.01411" lon="6.58107">
        <ele>1907.31</ele>
        <time>2026-03-15T10:40:06Z</time>
      </trkpt>
      <trkpt lat="46.01411" lon="6.58107">
        <ele>1907.31</ele>
        <time>2026-03-15T10:40:11Z</time>
      </trkpt>
      <trkpt lat="46.01411" lon="6.58107">
        <ele>1907.307</ele>
        <time>2026-03-15T10:40:16Z</time>
      </trkpt>
      <trkpt lat="46.01411" lon="6.58107">
        <ele>1907.315</ele>
        <time>2026-03-15T10:40:21Z</time>
      </trkpt>
      <trkpt lat="46.01411" lon="6.58107">
        <ele>1907.318</ele>
        <time>2026-03-15T10:40:26Z</time>
      </trkpt>
      <trkpt lat="46.01411" lon="6.58107">
        <ele>1907.164</ele>
        <time>2026-03-15T10:40:31Z</time>
      </trkpt>
      <trkpt lat="46.01411" lon="6.58107">
        <ele>1907.535</ele>
        <time>2026-03-15T10:40:36Z</time>
      </trkpt>
      <trkpt lat="46.01411" lon="6.58107">
        <ele>1907.525</ele>
        <time>2026-03-15T10:40:41Z</time>
      </trkpt>
      <trkpt lat="46.01411" lon="6.58107">
        <ele>1907.52</ele>
        <time>2026-03-15T10:40:46Z</time>
      </trkpt>
      <trkpt lat="46.01411" lon="6.58107">
        <ele>1907.521</ele>
        <time>2026-03-15T10:40:51Z</time>
      </trkpt>
      <trkpt lat="46.01411" lon="6.58107">
        <ele>1907.52</ele>
        <time>2026-03-15T10:40:56Z</time>
      </trkpt>
      <trkpt lat="46.01411" lon="6.58107">
        <ele>1907.518</ele>
        <time>2026-03-15T10:41:01Z</time>
      </trkpt>
      <trkpt lat="46.01411" lon="6.58107">
        <ele>1907.525</ele>
        <time>2026-03-15T10:41:06Z</time>
      </trkpt>
      <trkpt lat="46.01411" lon="6.58107">
        <ele>1907.528</ele>
        <time>2026-03-15T10:41:11Z</time>
      </trkpt>
      <trkpt lat="46.01411" lon="6.58107">
        <ele>1907.53</ele>
        <time>2026-03-15T10:41:16Z</time>
      </trkpt>
      <trkpt lat="46.01411" lon="6.58107">
        <ele>1907.531</ele>
        <time>2026-03-15T10:41:21Z</time>
      </trkpt>
      <trkpt lat="46.01411" lon="6.58107">
        <ele>1907.536</ele>
        <time>2026-03-15T10:41:26Z</time>
      </trkpt>
      <trkpt lat="46.01411" lon="6.58107">
        <ele>1907.54</ele>
        <time>2026-03-15T10:41:31Z</time>
      </trkpt>
      <trkpt lat="46.01411" lon="6.58107">
        <ele>1907.547</ele>
        <time>2026-03-15T10:41:36Z</time>
      </trkpt>
      <trkpt lat="46.01411" lon="6.58107">
        <ele>1907.549</ele>
        <time>2026-03-15T10:41:41Z</time>
      </trkpt>
      <trkpt lat="46.01411" lon="6.58107">
        <ele>1907.55</ele>
        <time>2026-03-15T10:41:46Z</time>
      </trkpt>
      <trkpt lat="46.01411" lon="6.58107">
        <ele>1907.55</ele>
        <time>2026-03-15T10:41:51Z</time>
      </trkpt>
      <trkpt lat="46.01411" lon="6.58107">
        <ele>1907.555</ele>
        <time>2026-03-15T10:41:56Z</time>
      </trkpt>
      <trkpt lat="46.01411" lon="6.58107">
        <ele>1907.55</ele>
        <time>2026-03-15T10:42:01Z</time>
      </trkpt>
      <trkpt lat="46.01411" lon="6.58107">
        <ele>1907.549</ele>
        <time>2026-03-15T10:42:06Z</time>
      </trkpt>
      <trkpt lat="46.01411" lon="6.58107">
        <ele>1907.546</ele>
        <time>2026-03-15T10:42:11Z</time>
      </trkpt>
      <trkpt lat="46.01411" lon="6.58107">
        <ele>1907.399</ele>
        <time>2026-03-15T10:42:16Z</time>
      </trkpt>
      <trkpt lat="46.01411" lon="6.58107">
        <ele>1907.39</ele>
        <time>2026-03-15T10:42:21Z</time>
      </trkpt>
      <trkpt lat="46.01411" lon="6.58107">
        <ele>1907.389</ele>
        <time>2026-03-15T10:42:26Z</time>
      </trkpt>
      <trkpt lat="46.01411" lon="6.58107">
        <ele>1907.39</ele>
        <time>2026-03-15T10:42:31Z</time>
      </trkpt>
      <trkpt lat="46.01411" lon="6.58107">
        <ele>1907.389</ele>
        <time>2026-03-15T10:42:36Z</time>
      </trkpt>
      <trkpt lat="46.01411" lon="6.58107">
        <ele>1907.392</ele>
        <time>2026-03-15T10:42:41Z</time>
      </trkpt>
      <trkpt lat="46.01411" lon="6.58107">
        <ele>1907.395</ele>
        <time>2026-03-15T10:42:46Z</time>
      </trkpt>
      <trkpt lat="46.01411" lon="6.58107">
        <ele>1907.397</ele>
        <time>2026-03-15T10:42:51Z</time>
      </trkpt>
      <trkpt lat="46.01411" lon="6.58107">
        <ele>1907.223</ele>
        <time>2026-03-15T10:42:56Z</time>
      </trkpt>
      <trkpt lat="46.01411" lon="6.58107">
        <ele>1907.22</ele>
        <time>2026-03-15T10:43:01Z</time>
      </trkpt>
      <trkpt lat="46.01411" lon="6.58107">
        <ele>1907.22</ele>
        <time>2026-03-15T10:43:06Z</time>
      </trkpt>
      <trkpt lat="46.01411" lon="6.58107">
        <ele>1907.222</ele>
        <time>2026-03-15T10:43:11Z</time>
      </trkpt>
      <trkpt lat="46.01411" lon="6.58107">
        <ele>1907.175</ele>
        <time>2026-03-15T10:43:16Z</time>
      </trkpt>
      <trkpt lat="46.01411" lon="6.58107">
        <ele>1907.528</ele>
        <time>2026-03-15T10:43:21Z</time>
      </trkpt>
      <trkpt lat="46.01411" lon="6.58107">
        <ele>1907.517</ele>
        <time>2026-03-15T10:43:26Z</time>
      </trkpt>
      <trkpt lat="46.01411" lon="6.58107">
        <ele>1907.517</ele>
        <time>2026-03-15T10:43:31Z</time>
      </trkpt>
      <trkpt lat="46.01411" lon="6.58107">
        <ele>1907.519</ele>
        <time>2026-03-15T10:43:36Z</time>
      </trkpt>
      <trkpt lat="46.01411" lon="6.58107">
        <ele>1907.519</ele>
        <time>2026-03-15T10:43:41Z</time>
      </trkpt>
      <trkpt lat="46.01411" lon="6.58107">
        <ele>1907.525</ele>
        <time>2026-03-15T10:43:46Z</time>
      </trkpt>
      <trkpt lat="46.01411" lon="6.58107">
        <ele>1907.528</ele>
        <time>2026-03-15T10:43:51Z</time>
      </trkpt>
      <trkpt lat="46.01411" lon="6.58107">
        <ele>1907.53</ele>
        <time>2026-03-15T10:43:56Z</time>
      </trkpt>
      <trkpt lat="46.01411" lon="6.58107">
        <ele>1907.531</ele>
        <time>2026-03-15T10:44:01Z</time>
      </trkpt>
      <trkpt lat="46.01411" lon="6.58107">
        <ele>1907.528</ele>
        <time>2026-03-15T10:44:06Z</time>
      </trkpt>
      <trkpt lat="46.01411" lon="6.58107">
        <ele>1907.531</ele>
        <time>2026-03-15T10:44:11Z</time>
      </trkpt>
      <trkpt lat="46.01411" lon="6.58107">
        <ele>1907.535</ele>
        <time>2026-03-15T10:44:16Z</time>
      </trkpt>
      <trkpt lat="46.01411" lon="6.58107">
        <ele>1907.537</ele>
        <time>2026-03-15T10:44:21Z</time>
      </trkpt>
      <trkpt lat="46.01411" lon="6.58107">
        <ele>1907.541</ele>
        <time>2026-03-15T10:44:26Z</time>
      </trkpt>
      <trkpt lat="46.01411" lon="6.58107">
        <ele>1907.544</ele>
        <time>2026-03-15T10:44:31Z</time>
      </trkpt>
      <trkpt lat="46.01411" lon="6.58107">
        <ele>1907.55</ele>
        <time>2026-03-15T10:44:36Z</time>
      </trkpt>
      <trkpt lat="46.01411" lon="6.58107">
        <ele>1907.285</ele>
        <time>2026-03-15T10:44:41Z</time>
      </trkpt>
      <trkpt lat="46.01411" lon="6.58107">
        <ele>1908.015</ele>
        <time>2026-03-15T10:44:46Z</time>
      </trkpt>
      <trkpt lat="46.01411" lon="6.58107">
        <ele>1908.009</ele>
        <time>2026-03-15T10:44:51Z</time>
      </trkpt>
      <trkpt lat="46.01411" lon="6.58107">
        <ele>1908.007</ele>
        <time>2026-03-15T10:44:56Z</time>
      </trkpt>
      <trkpt lat="46.01411" lon="6.58107">
        <ele>1908.008</ele>
        <time>2026-03-15T10:45:01Z</time>
      </trkpt>
      <trkpt lat="46.01411" lon="6.58107">
        <ele>1908.009</ele>
        <time>2026-03-15T10:45:06Z</time>
      </trkpt>
      <trkpt lat="46.01411" lon="6.58107">
        <ele>1908.01</ele>
        <time>2026-03-15T10:45:11Z</time>
      </trkpt>
      <trkpt lat="46.01411" lon="6.58107">
        <ele>1907.969</ele>
        <time>2026-03-15T10:45:16Z</time>
      </trkpt>
      <trkpt lat="46.01411" lon="6.58107">
        <ele>1907.965</ele>
        <time>2026-03-15T10:45:21Z</time>
      </trkpt>
      <trkpt lat="46.01411" lon="6.58107">
        <ele>1907.961</ele>
        <time>2026-03-15T10:45:26Z</time>
      </trkpt>
      <trkpt lat="46.01411" lon="6.58107">
        <ele>1907.91</ele>
        <time>2026-03-15T10:45:31Z</time>
      </trkpt>
      <trkpt lat="46.01411" lon="6.58107">
        <ele>1907.91</ele>
        <time>2026-03-15T10:45:36Z</time>
      </trkpt>
      <trkpt lat="46.01411" lon="6.58107">
        <ele>1907.902</ele>
        <time>2026-03-15T10:45:41Z</time>
      </trkpt>
      <trkpt lat="46.01411" lon="6.58107">
        <ele>1907.836</ele>
        <time>2026-03-15T10:45:46Z</time>
      </trkpt>
      <trkpt lat="46.01411" lon="6.58107">
        <ele>1907.69</ele>
        <time>2026-03-15T10:45:51Z</time>
      </trkpt>
      <trkpt lat="46.01411" lon="6.58107">
        <ele>1907.414</ele>
        <time>2026-03-15T10:45:56Z</time>
      </trkpt>
      <trkpt lat="46.01411" lon="6.58107">
        <ele>1907.393</ele>
        <time>2026-03-15T10:46:01Z</time>
      </trkpt>
      <trkpt lat="46.01411" lon="6.58107">
        <ele>1907.388</ele>
        <time>2026-03-15T10:46:06Z</time>
      </trkpt>
      <trkpt lat="46.01411" lon="6.58107">
        <ele>1907.385</ele>
        <time>2026-03-15T10:46:11Z</time>
      </trkpt>
      <trkpt lat="46.01411" lon="6.58107">
        <ele>1907.379</ele>
        <time>2026-03-15T10:46:16Z</time>
      </trkpt>
      <trkpt lat="46.01411" lon="6.58107">
        <ele>1907.379</ele>
        <time>2026-03-15T10:46:21Z</time>
      </trkpt>
      <trkpt lat="46.01411" lon="6.58107">
        <ele>1907.377</ele>
        <time>2026-03-15T10:46:26Z</time>
      </trkpt>
      <trkpt lat="46.01411" lon="6.58107">
        <ele>1907.378</ele>
        <time>2026-03-15T10:46:31Z</time>
      </trkpt>
      <trkpt lat="46.01411" lon="6.58107">
        <ele>1907.374</ele>
        <time>2026-03-15T10:46:36Z</time>
      </trkpt>
      <trkpt lat="46.01411" lon="6.58107">
        <ele>1907.375</ele>
        <time>2026-03-15T10:46:41Z</time>
      </trkpt>
      <trkpt lat="46.01411" lon="6.58107">
        <ele>1907.176</ele>
        <time>2026-03-15T10:46:46Z</time>
      </trkpt>
      <trkpt lat="46.01411" lon="6.58107">
        <ele>1907.18</ele>
        <time>2026-03-15T10:46:51Z</time>
      </trkpt>
      <trkpt lat="46.01411" lon="6.58107">
        <ele>1907.181</ele>
        <time>2026-03-15T10:46:56Z</time>
      </trkpt>
      <trkpt lat="46.01411" lon="6.58107">
        <ele>1907.181</ele>
        <time>2026-03-15T10:47:01Z</time>
      </trkpt>
      <trkpt lat="46.01411" lon="6.58107">
        <ele>1907.182</ele>
        <time>2026-03-15T10:47:06Z</time>
      </trkpt>
      <trkpt lat="46.01411" lon="6.58107">
        <ele>1907.184</ele>
        <time>2026-03-15T10:47:11Z</time>
      </trkpt>
      <trkpt lat="46.01407" lon="6.5811">
        <ele>1907.573</ele>
        <time>2026-03-15T10:47:16Z</time>
      </trkpt>
      <trkpt lat="46.01405" lon="6.58109">
        <ele>1907.342</ele>
        <time>2026-03-15T10:47:21Z</time>
      </trkpt>
      <trkpt lat="46.01401" lon="6.58108">
        <ele>1906.23</ele>
        <time>2026-03-15T10:47:26Z</time>
      </trkpt>
      <trkpt lat="46.01394" lon="6.58106">
        <ele>1905.717</ele>
        <time>2026-03-15T10:47:31Z</time>
      </trkpt>
      <trkpt lat="46.0139" lon="6.58104">
        <ele>1905.705</ele>
        <time>2026-03-15T10:47:36Z</time>
      </trkpt>
      <trkpt lat="46.01386" lon="6.58103">
        <ele>1906.116</ele>
        <time>2026-03-15T10:47:41Z</time>
      </trkpt>
      <trkpt lat="46.01383" lon="6.58102">
        <ele>1905.868</ele>
        <time>2026-03-15T10:47:46Z</time>
      </trkpt>
      <trkpt lat="46.01379" lon="6.58101">
        <ele>1906.223</ele>
        <time>2026-03-15T10:47:51Z</time>
      </trkpt>
      <trkpt lat="46.01375" lon="6.581">
        <ele>1906.175</ele>
        <time>2026-03-15T10:47:56Z</time>
      </trkpt>
      <trkpt lat="46.01372" lon="6.581">
        <ele>1906.386</ele>
        <time>2026-03-15T10:48:01Z</time>
      </trkpt>
      <trkpt lat="46.01368" lon="6.58099">
        <ele>1906.869</ele>
        <time>2026-03-15T10:48:06Z</time>
      </trkpt>
      <trkpt lat="46.01364" lon="6.58096">
        <ele>1907.596</ele>
        <time>2026-03-15T10:48:11Z</time>
      </trkpt>
      <trkpt lat="46.01359" lon="6.58094">
        <ele>1907.073</ele>
        <time>2026-03-15T10:48:16Z</time>
      </trkpt>
      <trkpt lat="46.01355" lon="6.58093">
        <ele>1907.016</ele>
        <time>2026-03-15T10:48:21Z</time>
      </trkpt>
      <trkpt lat="46.01352" lon="6.58091">
        <ele>1907.307</ele>
        <time>2026-03-15T10:48:26Z</time>
      </trkpt>
      <trkpt lat="46.01348" lon="6.5809">
        <ele>1907.378</ele>
        <time>2026-03-15T10:48:31Z</time>
      </trkpt>
      <trkpt lat="46.01346" lon="6.58089">
        <ele>1908.243</ele>
        <time>2026-03-15T10:48:36Z</time>
      </trkpt>
      <trkpt lat="46.01342" lon="6.58088">
        <ele>1908.415</ele>
        <time>2026-03-15T10:48:41Z</time>
      </trkpt>
      <trkpt lat="46.01339" lon="6.58086">
        <ele>1908.679</ele>
        <time>2026-03-15T10:48:46Z</time>
      </trkpt>
      <trkpt lat="46.01335" lon="6.58085">
        <ele>1909.467</ele>
        <time>2026-03-15T10:48:51Z</time>
      </trkpt>
      <trkpt lat="46.01331" lon="6.58084">
        <ele>1909.451</ele>
        <time>2026-03-15T10:48:56Z</time>
      </trkpt>
      <trkpt lat="46.01329" lon="6.58083">
        <ele>1910.387</ele>
        <time>2026-03-15T10:49:01Z</time>
      </trkpt>
      <trkpt lat="46.01325" lon="6.58083">
        <ele>1910.644</ele>
        <time>2026-03-15T10:49:06Z</time>
      </trkpt>
      <trkpt lat="46.01321" lon="6.58082">
        <ele>1911.571</ele>
        <time>2026-03-15T10:49:11Z</time>
      </trkpt>
      <trkpt lat="46.01318" lon="6.58081">
        <ele>1912.47</ele>
        <time>2026-03-15T10:49:16Z</time>
      </trkpt>
      <trkpt lat="46.01315" lon="6.58081">
        <ele>1912.617</ele>
        <time>2026-03-15T10:49:21Z</time>
      </trkpt>
      <trkpt lat="46.01312" lon="6.5808">
        <ele>1913.215</ele>
        <time>2026-03-15T10:49:26Z</time>
      </trkpt>
      <trkpt lat="46.01309" lon="6.58079">
        <ele>1913.902</ele>
        <time>2026-03-15T10:49:31Z</time>
      </trkpt>
      <trkpt lat="46.01306" lon="6.58078">
        <ele>1914.15</ele>
        <time>2026-03-15T10:49:36Z</time>
      </trkpt>
      <trkpt lat="46.01303" lon="6.58077">
        <ele>1913.751</ele>
        <time>2026-03-15T10:49:41Z</time>
      </trkpt>
      <trkpt lat="46.013" lon="6.58076">
        <ele>1913.924</ele>
        <time>2026-03-15T10:49:46Z</time>
      </trkpt>
      <trkpt lat="46.01296" lon="6.58076">
        <ele>1913.681</ele>
        <time>2026-03-15T10:49:51Z</time>
      </trkpt>
      <trkpt lat="46.01293" lon="6.58076">
        <ele>1914.932</ele>
        <time>2026-03-15T10:49:56Z</time>
      </trkpt>
      <trkpt lat="46.0129" lon="6.58076">
        <ele>1915.349</ele>
        <time>2026-03-15T10:50:01Z</time>
      </trkpt>
      <trkpt lat="46.01287" lon="6.58077">
        <ele>1915.699</ele>
        <time>2026-03-15T10:50:06Z</time>
      </trkpt>
      <trkpt lat="46.01284" lon="6.58078">
        <ele>1915.476</ele>
        <time>2026-03-15T10:50:11Z</time>
      </trkpt>
      <trkpt lat="46.0128" lon="6.58078">
        <ele>1916.215</ele>
        <time>2026-03-15T10:50:16Z</time>
      </trkpt>
      <trkpt lat="46.01276" lon="6.58079">
        <ele>1916.44</ele>
        <time>2026-03-15T10:50:21Z</time>
      </trkpt>
      <trkpt lat="46.01272" lon="6.58079">
        <ele>1916.232</ele>
        <time>2026-03-15T10:50:26Z</time>
      </trkpt>
      <trkpt lat="46.01269" lon="6.5808">
        <ele>1916.661</ele>
        <time>2026-03-15T10:50:31Z</time>
      </trkpt>
      <trkpt lat="46.01265" lon="6.58082">
        <ele>1917.817</ele>
        <time>2026-03-15T10:50:36Z</time>
      </trkpt>
      <trkpt lat="46.01262" lon="6.58084">
        <ele>1917.993</ele>
        <time>2026-03-15T10:50:41Z</time>
      </trkpt>
      <trkpt lat="46.01258" lon="6.58086">
        <ele>1917.834</ele>
        <time>2026-03-15T10:50:46Z</time>
      </trkpt>
      <trkpt lat="46.01255" lon="6.58088">
        <ele>1917.365</ele>
        <time>2026-03-15T10:50:51Z</time>
      </trkpt>
      <trkpt lat="46.01251" lon="6.58089">
        <ele>1918.267</ele>
        <time>2026-03-15T10:50:56Z</time>
      </trkpt>
      <trkpt lat="46.01247" lon="6.58091">
        <ele>1917.747</ele>
        <time>2026-03-15T10:51:01Z</time>
      </trkpt>
      <trkpt lat="46.01244" lon="6.58091">
        <ele>1918.135</ele>
        <time>2026-03-15T10:51:06Z</time>
      </trkpt>
      <trkpt lat="46.0124" lon="6.58091">
        <ele>1918.654</ele>
        <time>2026-03-15T10:51:11Z</time>
      </trkpt>
      <trkpt lat="46.01237" lon="6.5809">
        <ele>1919.096</ele>
        <time>2026-03-15T10:51:16Z</time>
      </trkpt>
      <trkpt lat="46.01235" lon="6.5809">
        <ele>1920.732</ele>
        <time>2026-03-15T10:51:21Z</time>
      </trkpt>
      <trkpt lat="46.01232" lon="6.58089">
        <ele>1921.169</ele>
        <time>2026-03-15T10:51:26Z</time>
      </trkpt>
      <trkpt lat="46.01229" lon="6.58088">
        <ele>1921.551</ele>
        <time>2026-03-15T10:51:31Z</time>
      </trkpt>
      <trkpt lat="46.01227" lon="6.58087">
        <ele>1921.871</ele>
        <time>2026-03-15T10:51:36Z</time>
      </trkpt>
      <trkpt lat="46.01225" lon="6.58086">
        <ele>1923.105</ele>
        <time>2026-03-15T10:51:41Z</time>
      </trkpt>
      <trkpt lat="46.01222" lon="6.58084">
        <ele>1923.709</ele>
        <time>2026-03-15T10:51:46Z</time>
      </trkpt>
      <trkpt lat="46.01219" lon="6.58084">
        <ele>1924.228</ele>
        <time>2026-03-15T10:51:51Z</time>
      </trkpt>
      <trkpt lat="46.01216" lon="6.58082">
        <ele>1924.731</ele>
        <time>2026-03-15T10:51:56Z</time>
      </trkpt>
      <trkpt lat="46.01214" lon="6.5808">
        <ele>1925.132</ele>
        <time>2026-03-15T10:52:01Z</time>
      </trkpt>
      <trkpt lat="46.01212" lon="6.58079">
        <ele>1926.061</ele>
        <time>2026-03-15T10:52:06Z</time>
      </trkpt>
      <trkpt lat="46.01209" lon="6.58077">
        <ele>1926.269</ele>
        <time>2026-03-15T10:52:11Z</time>
      </trkpt>
      <trkpt lat="46.01207" lon="6.58076">
        <ele>1927.099</ele>
        <time>2026-03-15T10:52:16Z</time>
      </trkpt>
      <trkpt lat="46.01205" lon="6.58074">
        <ele>1928.273</ele>
        <time>2026-03-15T10:52:21Z</time>
      </trkpt>
      <trkpt lat="46.01202" lon="6.58073">
        <ele>1928.846</ele>
        <time>2026-03-15T10:52:26Z</time>
      </trkpt>
      <trkpt lat="46.012" lon="6.58071">
        <ele>1928.889</ele>
        <time>2026-03-15T10:52:31Z</time>
      </trkpt>
      <trkpt lat="46.01197" lon="6.58071">
        <ele>1929</ele>
        <time>2026-03-15T10:52:36Z</time>
      </trkpt>
      <trkpt lat="46.01194" lon="6.58071">
        <ele>1929.905</ele>
        <time>2026-03-15T10:52:41Z</time>
      </trkpt>
      <trkpt lat="46.01191" lon="6.58071">
        <ele>1930.586</ele>
        <time>2026-03-15T10:52:46Z</time>
      </trkpt>
      <trkpt lat="46.01189" lon="6.58072">
        <ele>1931.279</ele>
        <time>2026-03-15T10:52:51Z</time>
      </trkpt>
      <trkpt lat="46.01186" lon="6.58073">
        <ele>1932.066</ele>
        <time>2026-03-15T10:52:56Z</time>
      </trkpt>
      <trkpt lat="46.01184" lon="6.58074">
        <ele>1932.295</ele>
        <time>2026-03-15T10:53:01Z</time>
      </trkpt>
      <trkpt lat="46.0118" lon="6.58075">
        <ele>1932.281</ele>
        <time>2026-03-15T10:53:06Z</time>
      </trkpt>
      <trkpt lat="46.01176" lon="6.58076">
        <ele>1933.118</ele>
        <time>2026-03-15T10:53:11Z</time>
      </trkpt>
      <trkpt lat="46.01172" lon="6.58077">
        <ele>1933.436</ele>
        <time>2026-03-15T10:53:16Z</time>
      </trkpt>
      <trkpt lat="46.01169" lon="6.58077">
        <ele>1933.844</ele>
        <time>2026-03-15T10:53:21Z</time>
      </trkpt>
      <trkpt lat="46.01166" lon="6.58077">
        <ele>1934.212</ele>
        <time>2026-03-15T10:53:26Z</time>
      </trkpt>
      <trkpt lat="46.01163" lon="6.58077">
        <ele>1934.306</ele>
        <time>2026-03-15T10:53:31Z</time>
      </trkpt>
      <trkpt lat="46.0116" lon="6.58078">
        <ele>1935.215</ele>
        <time>2026-03-15T10:53:36Z</time>
      </trkpt>
      <trkpt lat="46.01157" lon="6.58078">
        <ele>1935.728</ele>
        <time>2026-03-15T10:53:41Z</time>
      </trkpt>
      <trkpt lat="46.01154" lon="6.58078">
        <ele>1936.061</ele>
        <time>2026-03-15T10:53:46Z</time>
      </trkpt>
      <trkpt lat="46.01152" lon="6.58079">
        <ele>1937</ele>
        <time>2026-03-15T10:53:51Z</time>
      </trkpt>
      <trkpt lat="46.01149" lon="6.58079">
        <ele>1937.556</ele>
        <time>2026-03-15T10:53:56Z</time>
      </trkpt>
      <trkpt lat="46.01146" lon="6.5808">
        <ele>1938.048</ele>
        <time>2026-03-15T10:54:01Z</time>
      </trkpt>
      <trkpt lat="46.01143" lon="6.5808">
        <ele>1938.644</ele>
        <time>2026-03-15T10:54:06Z</time>
      </trkpt>
      <trkpt lat="46.0114" lon="6.58081">
        <ele>1940.128</ele>
        <time>2026-03-15T10:54:11Z</time>
      </trkpt>
      <trkpt lat="46.01136" lon="6.58082">
        <ele>1940.775</ele>
        <time>2026-03-15T10:54:16Z</time>
      </trkpt>
      <trkpt lat="46.01136" lon="6.58083">
        <ele>1941.251</ele>
        <time>2026-03-15T10:54:21Z</time>
      </trkpt>
      <trkpt lat="46.01132" lon="6.58086">
        <ele>1941.715</ele>
        <time>2026-03-15T10:54:26Z</time>
      </trkpt>
      <trkpt lat="46.01129" lon="6.58087">
        <ele>1942.444</ele>
        <time>2026-03-15T10:54:31Z</time>
      </trkpt>
      <trkpt lat="46.01126" lon="6.5809">
        <ele>1943.422</ele>
        <time>2026-03-15T10:54:36Z</time>
      </trkpt>
      <trkpt lat="46.01124" lon="6.58093">
        <ele>1944.002</ele>
        <time>2026-03-15T10:54:41Z</time>
      </trkpt>
      <trkpt lat="46.01122" lon="6.58096">
        <ele>1944.128</ele>
        <time>2026-03-15T10:54:46Z</time>
      </trkpt>
      <trkpt lat="46.0112" lon="6.58099">
        <ele>1944.509</ele>
        <time>2026-03-15T10:54:51Z</time>
      </trkpt>
      <trkpt lat="46.01118" lon="6.58101">
        <ele>1944.599</ele>
        <time>2026-03-15T10:54:56Z</time>
      </trkpt>
      <trkpt lat="46.01116" lon="6.58104">
        <ele>1945.488</ele>
        <time>2026-03-15T10:55:01Z</time>
      </trkpt>
      <trkpt lat="46.01114" lon="6.58106">
        <ele>1946.196</ele>
        <time>2026-03-15T10:55:06Z</time>
      </trkpt>
      <trkpt lat="46.01113" lon="6.58108">
        <ele>1947.137</ele>
        <time>2026-03-15T10:55:11Z</time>
      </trkpt>
      <trkpt lat="46.01111" lon="6.5811">
        <ele>1947.579</ele>
        <time>2026-03-15T10:55:16Z</time>
      </trkpt>
      <trkpt lat="46.01109" lon="6.58112">
        <ele>1947.744</ele>
        <time>2026-03-15T10:55:21Z</time>
      </trkpt>
      <trkpt lat="46.01107" lon="6.58115">
        <ele>1948.218</ele>
        <time>2026-03-15T10:55:26Z</time>
      </trkpt>
      <trkpt lat="46.01106" lon="6.58118">
        <ele>1949.763</ele>
        <time>2026-03-15T10:55:31Z</time>
      </trkpt>
      <trkpt lat="46.01104" lon="6.5812">
        <ele>1949.528</ele>
        <time>2026-03-15T10:55:36Z</time>
      </trkpt>
      <trkpt lat="46.01102" lon="6.58123">
        <ele>1949.49</ele>
        <time>2026-03-15T10:55:41Z</time>
      </trkpt>
      <trkpt lat="46.01101" lon="6.58125">
        <ele>1949.644</ele>
        <time>2026-03-15T10:55:46Z</time>
      </trkpt>
      <trkpt lat="46.01099" lon="6.58128">
        <ele>1950.652</ele>
        <time>2026-03-15T10:55:51Z</time>
      </trkpt>
      <trkpt lat="46.01098" lon="6.58131">
        <ele>1951.519</ele>
        <time>2026-03-15T10:55:56Z</time>
      </trkpt>
      <trkpt lat="46.01097" lon="6.58134">
        <ele>1951.908</ele>
        <time>2026-03-15T10:56:01Z</time>
      </trkpt>
      <trkpt lat="46.01096" lon="6.58137">
        <ele>1953.424</ele>
        <time>2026-03-15T10:56:06Z</time>
      </trkpt>
      <trkpt lat="46.01095" lon="6.5814">
        <ele>1954.35</ele>
        <time>2026-03-15T10:56:11Z</time>
      </trkpt>
      <trkpt lat="46.01095" lon="6.58141">
        <ele>1954.809</ele>
        <time>2026-03-15T10:56:16Z</time>
      </trkpt>
      <trkpt lat="46.01094" lon="6.58143">
        <ele>1955.754</ele>
        <time>2026-03-15T10:56:21Z</time>
      </trkpt>
      <trkpt lat="46.01092" lon="6.58145">
        <ele>1955.861</ele>
        <time>2026-03-15T10:56:26Z</time>
      </trkpt>
      <trkpt lat="46.01091" lon="6.58148">
        <ele>1955.518</ele>
        <time>2026-03-15T10:56:31Z</time>
      </trkpt>
      <trkpt lat="46.0109" lon="6.5815">
        <ele>1956.089</ele>
        <time>2026-03-15T10:56:36Z</time>
      </trkpt>
      <trkpt lat="46.01089" lon="6.58153">
        <ele>1956.987</ele>
        <time>2026-03-15T10:56:41Z</time>
      </trkpt>
      <trkpt lat="46.01088" lon="6.58156">
        <ele>1957.958</ele>
        <time>2026-03-15T10:56:46Z</time>
      </trkpt>
      <trkpt lat="46.01087" lon="6.58158">
        <ele>1958.494</ele>
        <time>2026-03-15T10:56:51Z</time>
      </trkpt>
      <trkpt lat="46.01087" lon="6.5816">
        <ele>1958.747</ele>
        <time>2026-03-15T10:56:56Z</time>
      </trkpt>
      <trkpt lat="46.01086" lon="6.58161">
        <ele>1958.971</ele>
        <time>2026-03-15T10:57:01Z</time>
      </trkpt>
      <trkpt lat="46.01085" lon="6.58161">
        <ele>1960.402</ele>
        <time>2026-03-15T10:57:06Z</time>
      </trkpt>
      <trkpt lat="46.01084" lon="6.58159">
        <ele>1961.014</ele>
        <time>2026-03-15T10:57:11Z</time>
      </trkpt>
      <trkpt lat="46.01083" lon="6.58156">
        <ele>1962.05</ele>
        <time>2026-03-15T10:57:16Z</time>
      </trkpt>
      <trkpt lat="46.01082" lon="6.58154">
        <ele>1962.466</ele>
        <time>2026-03-15T10:57:21Z</time>
      </trkpt>
      <trkpt lat="46.01082" lon="6.5815">
        <ele>1962.518</ele>
        <time>2026-03-15T10:57:26Z</time>
      </trkpt>
      <trkpt lat="46.01081" lon="6.58147">
        <ele>1963.238</ele>
        <time>2026-03-15T10:57:31Z</time>
      </trkpt>
      <trkpt lat="46.01081" lon="6.58144">
        <ele>1963.61</ele>
        <time>2026-03-15T10:57:36Z</time>
      </trkpt>
      <trkpt lat="46.0108" lon="6.58141">
        <ele>1963.69</ele>
        <time>2026-03-15T10:57:41Z</time>
      </trkpt>
      <trkpt lat="46.01079" lon="6.58137">
        <ele>1964.952</ele>
        <time>2026-03-15T10:57:46Z</time>
      </trkpt>
      <trkpt lat="46.01079" lon="6.58135">
        <ele>1964.641</ele>
        <time>2026-03-15T10:57:51Z</time>
      </trkpt>
      <trkpt lat="46.01078" lon="6.58131">
        <ele>1965.638</ele>
        <time>2026-03-15T10:57:56Z</time>
      </trkpt>
      <trkpt lat="46.01077" lon="6.58127">
        <ele>1965.907</ele>
        <time>2026-03-15T10:58:01Z</time>
      </trkpt>
      <trkpt lat="46.01075" lon="6.58124">
        <ele>1966.539</ele>
        <time>2026-03-15T10:58:06Z</time>
      </trkpt>
      <trkpt lat="46.01074" lon="6.58121">
        <ele>1967.365</ele>
        <time>2026-03-15T10:58:11Z</time>
      </trkpt>
      <trkpt lat="46.01072" lon="6.58118">
        <ele>1967.951</ele>
        <time>2026-03-15T10:58:16Z</time>
      </trkpt>
      <trkpt lat="46.01069" lon="6.58117">
        <ele>1968.092</ele>
        <time>2026-03-15T10:58:21Z</time>
      </trkpt>
      <trkpt lat="46.01066" lon="6.58116">
        <ele>1969.284</ele>
        <time>2026-03-15T10:58:26Z</time>
      </trkpt>
      <trkpt lat="46.01063" lon="6.58116">
        <ele>1969.087</ele>
        <time>2026-03-15T10:58:31Z</time>
      </trkpt>
      <trkpt lat="46.0106" lon="6.58117">
        <ele>1969.836</ele>
        <time>2026-03-15T10:58:36Z</time>
      </trkpt>
      <trkpt lat="46.01058" lon="6.58119">
        <ele>1970.619</ele>
        <time>2026-03-15T10:58:41Z</time>
      </trkpt>
      <trkpt lat="46.01057" lon="6.58122">
        <ele>1971.482</ele>
        <time>2026-03-15T10:58:46Z</time>
      </trkpt>
      <trkpt lat="46.01055" lon="6.58125">
        <ele>1972.255</ele>
        <time>2026-03-15T10:58:51Z</time>
      </trkpt>
      <trkpt lat="46.01054" lon="6.58128">
        <ele>1972.509</ele>
        <time>2026-03-15T10:58:56Z</time>
      </trkpt>
      <trkpt lat="46.01053" lon="6.5813">
        <ele>1972.832</ele>
        <time>2026-03-15T10:59:01Z</time>
      </trkpt>
      <trkpt lat="46.01051" lon="6.58133">
        <ele>1973.871</ele>
        <time>2026-03-15T10:59:06Z</time>
      </trkpt>
      <trkpt lat="46.0105" lon="6.58136">
        <ele>1974.478</ele>
        <time>2026-03-15T10:59:11Z</time>
      </trkpt>
      <trkpt lat="46.01048" lon="6.58139">
        <ele>1975.238</ele>
        <time>2026-03-15T10:59:16Z</time>
      </trkpt>
      <trkpt lat="46.01046" lon="6.58143">
        <ele>1975.942</ele>
        <time>2026-03-15T10:59:21Z</time>
      </trkpt>
      <trkpt lat="46.01045" lon="6.58146">
        <ele>1976.303</ele>
        <time>2026-03-15T10:59:26Z</time>
      </trkpt>
      <trkpt lat="46.01043" lon="6.58149">
        <ele>1977.028</ele>
        <time>2026-03-15T10:59:31Z</time>
      </trkpt>
      <trkpt lat="46.01041" lon="6.58152">
        <ele>1976.956</ele>
        <time>2026-03-15T10:59:36Z</time>
      </trkpt>
      <trkpt lat="46.01039" lon="6.58155">
        <ele>1977.571</ele>
        <time>2026-03-15T10:59:41Z</time>
      </trkpt>
      <trkpt lat="46.01037" lon="6.58158">
        <ele>1978.492</ele>
        <time>2026-03-15T10:59:46Z</time>
      </trkpt>
      <trkpt lat="46.01036" lon="6.5816">
        <ele>1979.264</ele>
        <time>2026-03-15T10:59:51Z</time>
      </trkpt>
      <trkpt lat="46.01034" lon="6.58163">
        <ele>1979.353</ele>
        <time>2026-03-15T10:59:56Z</time>
      </trkpt>
      <trkpt lat="46.01032" lon="6.58166">
        <ele>1979.82</ele>
        <time>2026-03-15T11:00:01Z</time>
      </trkpt>
      <trkpt lat="46.0103" lon="6.58169">
        <ele>1980.048</ele>
        <time>2026-03-15T11:00:06Z</time>
      </trkpt>
      <trkpt lat="46.01028" lon="6.58172">
        <ele>1980.723</ele>
        <time>2026-03-15T11:00:11Z</time>
      </trkpt>
      <trkpt lat="46.01026" lon="6.58176">
        <ele>1981.339</ele>
        <time>2026-03-15T11:00:16Z</time>
      </trkpt>
      <trkpt lat="46.01024" lon="6.58178">
        <ele>1982.979</ele>
        <time>2026-03-15T11:00:21Z</time>
      </trkpt>
      <trkpt lat="46.01023" lon="6.58181">
        <ele>1983.035</ele>
        <time>2026-03-15T11:00:26Z</time>
      </trkpt>
      <trkpt lat="46.01021" lon="6.58184">
        <ele>1983.723</ele>
        <time>2026-03-15T11:00:31Z</time>
      </trkpt>
      <trkpt lat="46.01019" lon="6.58186">
        <ele>1984.424</ele>
        <time>2026-03-15T11:00:36Z</time>
      </trkpt>
      <trkpt lat="46.01018" lon="6.58188">
        <ele>1984.717</ele>
        <time>2026-03-15T11:00:41Z</time>
      </trkpt>
      <trkpt lat="46.01017" lon="6.58189">
        <ele>1985.248</ele>
        <time>2026-03-15T11:00:46Z</time>
      </trkpt>
      <trkpt lat="46.01016" lon="6.58192">
        <ele>1985.401</ele>
        <time>2026-03-15T11:00:51Z</time>
      </trkpt>
      <trkpt lat="46.01014" lon="6.58195">
        <ele>1986.55</ele>
        <time>2026-03-15T11:00:56Z</time>
      </trkpt>
      <trkpt lat="46.01012" lon="6.58197">
        <ele>1987.425</ele>
        <time>2026-03-15T11:01:01Z</time>
      </trkpt>
      <trkpt lat="46.01011" lon="6.58199">
        <ele>1988.014</ele>
        <time>2026-03-15T11:01:06Z</time>
      </trkpt>
      <trkpt lat="46.0101" lon="6.58201">
        <ele>1988.416</ele>
        <time>2026-03-15T11:01:11Z</time>
      </trkpt>
      <trkpt lat="46.01008" lon="6.58203">
        <ele>1988.694</ele>
        <time>2026-03-15T11:01:16Z</time>
      </trkpt>
      <trkpt lat="46.01007" lon="6.58205">
        <ele>1988.597</ele>
        <time>2026-03-15T11:01:21Z</time>
      </trkpt>
      <trkpt lat="46.01006" lon="6.58207">
        <ele>1989.685</ele>
        <time>2026-03-15T11:01:26Z</time>
      </trkpt>
      <trkpt lat="46.01005" lon="6.58209">
        <ele>1990.045</ele>
        <time>2026-03-15T11:01:31Z</time>
      </trkpt>
      <trkpt lat="46.01003" lon="6.58211">
        <ele>1990.767</ele>
        <time>2026-03-15T11:01:36Z</time>
      </trkpt>
      <trkpt lat="46.01001" lon="6.58214">
        <ele>1992.362</ele>
        <time>2026-03-15T11:01:41Z</time>
      </trkpt>
      <trkpt lat="46.00999" lon="6.58216">
        <ele>1993.169</ele>
        <time>2026-03-15T11:01:46Z</time>
      </trkpt>
      <trkpt lat="46.00998" lon="6.58217">
        <ele>1993.282</ele>
        <time>2026-03-15T11:01:51Z</time>
      </trkpt>
      <trkpt lat="46.00997" lon="6.58219">
        <ele>1994.055</ele>
        <time>2026-03-15T11:01:56Z</time>
      </trkpt>
      <trkpt lat="46.00995" lon="6.5822">
        <ele>1995.155</ele>
        <time>2026-03-15T11:02:01Z</time>
      </trkpt>
      <trkpt lat="46.00994" lon="6.58221">
        <ele>1995.156</ele>
        <time>2026-03-15T11:02:06Z</time>
      </trkpt>
      <trkpt lat="46.00992" lon="6.58223">
        <ele>1996.036</ele>
        <time>2026-03-15T11:02:11Z</time>
      </trkpt>
      <trkpt lat="46.00992" lon="6.58223">
        <ele>1996.057</ele>
        <time>2026-03-15T11:02:16Z</time>
      </trkpt>
      <trkpt lat="46.00991" lon="6.58224">
        <ele>1996.665</ele>
        <time>2026-03-15T11:02:21Z</time>
      </trkpt>
      <trkpt lat="46.00989" lon="6.58226">
        <ele>1997.663</ele>
        <time>2026-03-15T11:02:26Z</time>
      </trkpt>
      <trkpt lat="46.00987" lon="6.58227">
        <ele>1998.442</ele>
        <time>2026-03-15T11:02:31Z</time>
      </trkpt>
      <trkpt lat="46.00985" lon="6.58228">
        <ele>1998.406</ele>
        <time>2026-03-15T11:02:36Z</time>
      </trkpt>
      <trkpt lat="46.00984" lon="6.58229">
        <ele>1999.121</ele>
        <time>2026-03-15T11:02:41Z</time>
      </trkpt>
      <trkpt lat="46.00981" lon="6.5823">
        <ele>1999.641</ele>
        <time>2026-03-15T11:02:46Z</time>
      </trkpt>
      <trkpt lat="46.0098" lon="6.58231">
        <ele>1999.62</ele>
        <time>2026-03-15T11:02:51Z</time>
      </trkpt>
      <trkpt lat="46.00977" lon="6.58231">
        <ele>2000.487</ele>
        <time>2026-03-15T11:02:56Z</time>
      </trkpt>
      <trkpt lat="46.00976" lon="6.58232">
        <ele>2000.87</ele>
        <time>2026-03-15T11:03:01Z</time>
      </trkpt>
      <trkpt lat="46.00974" lon="6.58232">
        <ele>2001.636</ele>
        <time>2026-03-15T11:03:06Z</time>
      </trkpt>
      <trkpt lat="46.00972" lon="6.58232">
        <ele>2002.724</ele>
        <time>2026-03-15T11:03:11Z</time>
      </trkpt>
      <trkpt lat="46.0097" lon="6.58233">
        <ele>2003.009</ele>
        <time>2026-03-15T11:03:16Z</time>
      </trkpt>
      <trkpt lat="46.00967" lon="6.58232">
        <ele>2003.88</ele>
        <time>2026-03-15T11:03:21Z</time>
      </trkpt>
      <trkpt lat="46.00965" lon="6.58232">
        <ele>2004.034</ele>
        <time>2026-03-15T11:03:26Z</time>
      </trkpt>
      <trkpt lat="46.00963" lon="6.58231">
        <ele>2005.11</ele>
        <time>2026-03-15T11:03:31Z</time>
      </trkpt>
      <trkpt lat="46.00961" lon="6.5823">
        <ele>2004.94</ele>
        <time>2026-03-15T11:03:36Z</time>
      </trkpt>
      <trkpt lat="46.00959" lon="6.58228">
        <ele>2005.03</ele>
        <time>2026-03-15T11:03:41Z</time>
      </trkpt>
      <trkpt lat="46.00958" lon="6.58227">
        <ele>2005.682</ele>
        <time>2026-03-15T11:03:46Z</time>
      </trkpt>
      <trkpt lat="46.00957" lon="6.58226">
        <ele>2006.474</ele>
        <time>2026-03-15T11:03:51Z</time>
      </trkpt>
      <trkpt lat="46.00955" lon="6.58224">
        <ele>2007.546</ele>
        <time>2026-03-15T11:03:56Z</time>
      </trkpt>
      <trkpt lat="46.00954" lon="6.58222">
        <ele>2009.122</ele>
        <time>2026-03-15T11:04:01Z</time>
      </trkpt>
      <trkpt lat="46.00953" lon="6.5822">
        <ele>2009.2</ele>
        <time>2026-03-15T11:04:06Z</time>
      </trkpt>
      <trkpt lat="46.00952" lon="6.58219">
        <ele>2009.688</ele>
        <time>2026-03-15T11:04:11Z</time>
      </trkpt>
      <trkpt lat="46.0095" lon="6.58217">
        <ele>2009.888</ele>
        <time>2026-03-15T11:04:16Z</time>
      </trkpt>
      <trkpt lat="46.00948" lon="6.58214">
        <ele>2010.766</ele>
        <time>2026-03-15T11:04:21Z</time>
      </trkpt>
      <trkpt lat="46.00946" lon="6.58211">
        <ele>2011.614</ele>
        <time>2026-03-15T11:04:26Z</time>
      </trkpt>
      <trkpt lat="46.00944" lon="6.58209">
        <ele>2012.317</ele>
        <time>2026-03-15T11:04:31Z</time>
      </trkpt>
      <trkpt lat="46.00943" lon="6.58206">
        <ele>2013.398</ele>
        <time>2026-03-15T11:04:36Z</time>
      </trkpt>
      <trkpt lat="46.00942" lon="6.58204">
        <ele>2014.264</ele>
        <time>2026-03-15T11:04:41Z</time>
      </trkpt>
      <trkpt lat="46.0094" lon="6.58199">
        <ele>2014.025</ele>
        <time>2026-03-15T11:04:46Z</time>
      </trkpt>
      <trkpt lat="46.00938" lon="6.58196">
        <ele>2013.463</ele>
        <time>2026-03-15T11:04:51Z</time>
      </trkpt>
      <trkpt lat="46.00936" lon="6.58193">
        <ele>2013.594</ele>
        <time>2026-03-15T11:04:56Z</time>
      </trkpt>
      <trkpt lat="46.00935" lon="6.58192">
        <ele>2013.421</ele>
        <time>2026-03-15T11:05:01Z</time>
      </trkpt>
      <trkpt lat="46.00935" lon="6.58192">
        <ele>2013.422</ele>
        <time>2026-03-15T11:05:06Z</time>
      </trkpt>
      <trkpt lat="46.00935" lon="6.58189">
        <ele>2014.295</ele>
        <time>2026-03-15T11:05:11Z</time>
      </trkpt>
      <trkpt lat="46.00935" lon="6.58186">
        <ele>2015.123</ele>
        <time>2026-03-15T11:05:16Z</time>
      </trkpt>
      <trkpt lat="46.00935" lon="6.58181">
        <ele>2015.342</ele>
        <time>2026-03-15T11:05:21Z</time>
      </trkpt>
      <trkpt lat="46.00935" lon="6.58176">
        <ele>2015.716</ele>
        <time>2026-03-15T11:05:26Z</time>
      </trkpt>
      <trkpt lat="46.00934" lon="6.58173">
        <ele>2015.754</ele>
        <time>2026-03-15T11:05:31Z</time>
      </trkpt>
      <trkpt lat="46.00934" lon="6.58168">
        <ele>2016.372</ele>
        <time>2026-03-15T11:05:36Z</time>
      </trkpt>
      <trkpt lat="46.00935" lon="6.58164">
        <ele>2016.69</ele>
        <time>2026-03-15T11:05:41Z</time>
      </trkpt>
      <trkpt lat="46.00935" lon="6.5816">
        <ele>2017.031</ele>
        <time>2026-03-15T11:05:46Z</time>
      </trkpt>
      <trkpt lat="46.00936" lon="6.58154">
        <ele>2017.81</ele>
        <time>2026-03-15T11:05:51Z</time>
      </trkpt>
      <trkpt lat="46.00936" lon="6.5815">
        <ele>2017.927</ele>
        <time>2026-03-15T11:05:56Z</time>
      </trkpt>
      <trkpt lat="46.00937" lon="6.58144">
        <ele>2017.98</ele>
        <time>2026-03-15T11:06:01Z</time>
      </trkpt>
      <trkpt lat="46.00938" lon="6.58139">
        <ele>2018.531</ele>
        <time>2026-03-15T11:06:06Z</time>
      </trkpt>
      <trkpt lat="46.00939" lon="6.58133">
        <ele>2018.597</ele>
        <time>2026-03-15T11:06:11Z</time>
      </trkpt>
      <trkpt lat="46.00941" lon="6.58128">
        <ele>2018.964</ele>
        <time>2026-03-15T11:06:16Z</time>
      </trkpt>
      <trkpt lat="46.00942" lon="6.58123">
        <ele>2018.857</ele>
        <time>2026-03-15T11:06:21Z</time>
      </trkpt>
      <trkpt lat="46.00944" lon="6.58118">
        <ele>2019.013</ele>
        <time>2026-03-15T11:06:26Z</time>
      </trkpt>
      <trkpt lat="46.00945" lon="6.58113">
        <ele>2018.939</ele>
        <time>2026-03-15T11:06:31Z</time>
      </trkpt>
      <trkpt lat="46.00947" lon="6.58108">
        <ele>2019.059</ele>
        <time>2026-03-15T11:06:36Z</time>
      </trkpt>
      <trkpt lat="46.00948" lon="6.58102">
        <ele>2019.074</ele>
        <time>2026-03-15T11:06:41Z</time>
      </trkpt>
      <trkpt lat="46.0095" lon="6.58097">
        <ele>2018.798</ele>
        <time>2026-03-15T11:06:46Z</time>
      </trkpt>
      <trkpt lat="46.00951" lon="6.58092">
        <ele>2018.507</ele>
        <time>2026-03-15T11:06:51Z</time>
      </trkpt>
      <trkpt lat="46.00952" lon="6.58086">
        <ele>2018.879</ele>
        <time>2026-03-15T11:06:56Z</time>
      </trkpt>
      <trkpt lat="46.00953" lon="6.58081">
        <ele>2018.912</ele>
        <time>2026-03-15T11:07:01Z</time>
      </trkpt>
      <trkpt lat="46.00954" lon="6.58076">
        <ele>2018.683</ele>
        <time>2026-03-15T11:07:06Z</time>
      </trkpt>
      <trkpt lat="46.00955" lon="6.58071">
        <ele>2019.15</ele>
        <time>2026-03-15T11:07:11Z</time>
      </trkpt>
      <trkpt lat="46.00956" lon="6.58066">
        <ele>2019.271</ele>
        <time>2026-03-15T11:07:16Z</time>
      </trkpt>
      <trkpt lat="46.00957" lon="6.58061">
        <ele>2019.275</ele>
        <time>2026-03-15T11:07:21Z</time>
      </trkpt>
      <trkpt lat="46.00958" lon="6.58056">
        <ele>2018.851</ele>
        <time>2026-03-15T11:07:26Z</time>
      </trkpt>
      <trkpt lat="46.00959" lon="6.58051">
        <ele>2018.813</ele>
        <time>2026-03-15T11:07:31Z</time>
      </trkpt>
      <trkpt lat="46.0096" lon="6.58046">
        <ele>2019.395</ele>
        <time>2026-03-15T11:07:36Z</time>
      </trkpt>
      <trkpt lat="46.00962" lon="6.58041">
        <ele>2019.608</ele>
        <time>2026-03-15T11:07:41Z</time>
      </trkpt>
      <trkpt lat="46.00963" lon="6.58037">
        <ele>2020.385</ele>
        <time>2026-03-15T11:07:46Z</time>
      </trkpt>
      <trkpt lat="46.00964" lon="6.58033">
        <ele>2021.259</ele>
        <time>2026-03-15T11:07:51Z</time>
      </trkpt>
      <trkpt lat="46.00966" lon="6.58027">
        <ele>2021.221</ele>
        <time>2026-03-15T11:07:56Z</time>
      </trkpt>
      <trkpt lat="46.00967" lon="6.58023">
        <ele>2022.014</ele>
        <time>2026-03-15T11:08:01Z</time>
      </trkpt>
      <trkpt lat="46.00969" lon="6.58018">
        <ele>2021.961</ele>
        <time>2026-03-15T11:08:06Z</time>
      </trkpt>
      <trkpt lat="46.00969" lon="6.58013">
        <ele>2021.728</ele>
        <time>2026-03-15T11:08:11Z</time>
      </trkpt>
      <trkpt lat="46.0097" lon="6.58008">
        <ele>2021.983</ele>
        <time>2026-03-15T11:08:16Z</time>
      </trkpt>
      <trkpt lat="46.00972" lon="6.58003">
        <ele>2021.913</ele>
        <time>2026-03-15T11:08:21Z</time>
      </trkpt>
      <trkpt lat="46.00973" lon="6.57998">
        <ele>2022.12</ele>
        <time>2026-03-15T11:08:26Z</time>
      </trkpt>
      <trkpt lat="46.00974" lon="6.57993">
        <ele>2022.188</ele>
        <time>2026-03-15T11:08:31Z</time>
      </trkpt>
      <trkpt lat="46.00976" lon="6.57988">
        <ele>2022.61</ele>
        <time>2026-03-15T11:08:36Z</time>
      </trkpt>
      <trkpt lat="46.00977" lon="6.57982">
        <ele>2022.548</ele>
        <time>2026-03-15T11:08:41Z</time>
      </trkpt>
      <trkpt lat="46.00978" lon="6.57977">
        <ele>2022.685</ele>
        <time>2026-03-15T11:08:46Z</time>
      </trkpt>
      <trkpt lat="46.00979" lon="6.57973">
        <ele>2022.45</ele>
        <time>2026-03-15T11:08:51Z</time>
      </trkpt>
      <trkpt lat="46.00981" lon="6.5797">
        <ele>2023.147</ele>
        <time>2026-03-15T11:08:56Z</time>
      </trkpt>
      <trkpt lat="46.00983" lon="6.57967">
        <ele>2024.377</ele>
        <time>2026-03-15T11:09:01Z</time>
      </trkpt>
      <trkpt lat="46.00984" lon="6.57963">
        <ele>2024.321</ele>
        <time>2026-03-15T11:09:06Z</time>
      </trkpt>
      <trkpt lat="46.00986" lon="6.5796">
        <ele>2025.183</ele>
        <time>2026-03-15T11:09:11Z</time>
      </trkpt>
      <trkpt lat="46.00988" lon="6.57955">
        <ele>2025.505</ele>
        <time>2026-03-15T11:09:16Z</time>
      </trkpt>
      <trkpt lat="46.00989" lon="6.57951">
        <ele>2025.795</ele>
        <time>2026-03-15T11:09:21Z</time>
      </trkpt>
      <trkpt lat="46.0099" lon="6.57947">
        <ele>2026.309</ele>
        <time>2026-03-15T11:09:26Z</time>
      </trkpt>
      <trkpt lat="46.00991" lon="6.57943">
        <ele>2026.054</ele>
        <time>2026-03-15T11:09:31Z</time>
      </trkpt>
      <trkpt lat="46.00992" lon="6.57938">
        <ele>2025.795</ele>
        <time>2026-03-15T11:09:36Z</time>
      </trkpt>
      <trkpt lat="46.00993" lon="6.57933">
        <ele>2026.11</ele>
        <time>2026-03-15T11:09:41Z</time>
      </trkpt>
      <trkpt lat="46.00995" lon="6.57929">
        <ele>2026.47</ele>
        <time>2026-03-15T11:09:46Z</time>
      </trkpt>
      <trkpt lat="46.00995" lon="6.57924">
        <ele>2026.785</ele>
        <time>2026-03-15T11:09:51Z</time>
      </trkpt>
      <trkpt lat="46.00996" lon="6.5792">
        <ele>2026.988</ele>
        <time>2026-03-15T11:09:56Z</time>
      </trkpt>
      <trkpt lat="46.00998" lon="6.57915">
        <ele>2027.794</ele>
        <time>2026-03-15T11:10:01Z</time>
      </trkpt>
      <trkpt lat="46.00999" lon="6.57912">
        <ele>2027.887</ele>
        <time>2026-03-15T11:10:06Z</time>
      </trkpt>
      <trkpt lat="46.01" lon="6.57908">
        <ele>2027.9</ele>
        <time>2026-03-15T11:10:11Z</time>
      </trkpt>
      <trkpt lat="46.01001" lon="6.57903">
        <ele>2028.384</ele>
        <time>2026-03-15T11:10:16Z</time>
      </trkpt>
      <trkpt lat="46.01" lon="6.57902">
        <ele>2028.44</ele>
        <time>2026-03-15T11:10:21Z</time>
      </trkpt>
      <trkpt lat="46.01" lon="6.57902">
        <ele>2028.435</ele>
        <time>2026-03-15T11:10:26Z</time>
      </trkpt>
      <trkpt lat="46.01" lon="6.57902">
        <ele>2028.408</ele>
        <time>2026-03-15T11:10:31Z</time>
      </trkpt>
      <trkpt lat="46.01" lon="6.57902">
        <ele>2028.444</ele>
        <time>2026-03-15T11:10:36Z</time>
      </trkpt>
      <trkpt lat="46.01001" lon="6.57902">
        <ele>2028.46</ele>
        <time>2026-03-15T11:10:41Z</time>
      </trkpt>
      <trkpt lat="46.01001" lon="6.57902">
        <ele>2028.461</ele>
        <time>2026-03-15T11:10:46Z</time>
      </trkpt>
      <trkpt lat="46.01001" lon="6.57902">
        <ele>2028.464</ele>
        <time>2026-03-15T11:10:51Z</time>
      </trkpt>
      <trkpt lat="46.01001" lon="6.57902">
        <ele>2028.868</ele>
        <time>2026-03-15T11:10:56Z</time>
      </trkpt>
      <trkpt lat="46.01001" lon="6.57902">
        <ele>2028.867</ele>
        <time>2026-03-15T11:11:01Z</time>
      </trkpt>
      <trkpt lat="46.01001" lon="6.57902">
        <ele>2028.766</ele>
        <time>2026-03-15T11:11:06Z</time>
      </trkpt>
      <trkpt lat="46.01001" lon="6.57902">
        <ele>2028.75</ele>
        <time>2026-03-15T11:11:11Z</time>
      </trkpt>
      <trkpt lat="46.01001" lon="6.57902">
        <ele>2028.751</ele>
        <time>2026-03-15T11:11:16Z</time>
      </trkpt>
      <trkpt lat="46.01001" lon="6.57902">
        <ele>2028.744</ele>
        <time>2026-03-15T11:11:21Z</time>
      </trkpt>
      <trkpt lat="46.01001" lon="6.57902">
        <ele>2028.587</ele>
        <time>2026-03-15T11:11:26Z</time>
      </trkpt>
      <trkpt lat="46.01001" lon="6.57902">
        <ele>2028.587</ele>
        <time>2026-03-15T11:11:31Z</time>
      </trkpt>
      <trkpt lat="46.01001" lon="6.57902">
        <ele>2028.585</ele>
        <time>2026-03-15T11:11:36Z</time>
      </trkpt>
      <trkpt lat="46.01001" lon="6.57902">
        <ele>2028.582</ele>
        <time>2026-03-15T11:11:41Z</time>
      </trkpt>
      <trkpt lat="46.01001" lon="6.57902">
        <ele>2028.578</ele>
        <time>2026-03-15T11:11:46Z</time>
      </trkpt>
      <trkpt lat="46.01001" lon="6.57902">
        <ele>2028.577</ele>
        <time>2026-03-15T11:11:51Z</time>
      </trkpt>
      <trkpt lat="46.01001" lon="6.57902">
        <ele>2028.578</ele>
        <time>2026-03-15T11:11:56Z</time>
      </trkpt>
      <trkpt lat="46.01001" lon="6.57902">
        <ele>2028.575</ele>
        <time>2026-03-15T11:12:01Z</time>
      </trkpt>
      <trkpt lat="46.01001" lon="6.57902">
        <ele>2028.579</ele>
        <time>2026-03-15T11:12:06Z</time>
      </trkpt>
      <trkpt lat="46.01001" lon="6.57902">
        <ele>2028.585</ele>
        <time>2026-03-15T11:12:11Z</time>
      </trkpt>
      <trkpt lat="46.01001" lon="6.57902">
        <ele>2028.59</ele>
        <time>2026-03-15T11:12:16Z</time>
      </trkpt>
      <trkpt lat="46.01001" lon="6.57902">
        <ele>2028.585</ele>
        <time>2026-03-15T11:12:21Z</time>
      </trkpt>
      <trkpt lat="46.01001" lon="6.57902">
        <ele>2028.584</ele>
        <time>2026-03-15T11:12:26Z</time>
      </trkpt>
      <trkpt lat="46.01001" lon="6.57902">
        <ele>2028.969</ele>
        <time>2026-03-15T11:12:31Z</time>
      </trkpt>
      <trkpt lat="46.01001" lon="6.57902">
        <ele>2028.655</ele>
        <time>2026-03-15T11:12:36Z</time>
      </trkpt>
      <trkpt lat="46.01001" lon="6.57902">
        <ele>2028.666</ele>
        <time>2026-03-15T11:12:41Z</time>
      </trkpt>
      <trkpt lat="46.01001" lon="6.57902">
        <ele>2028.673</ele>
        <time>2026-03-15T11:12:46Z</time>
      </trkpt>
      <trkpt lat="46.01001" lon="6.57902">
        <ele>2028.76</ele>
        <time>2026-03-15T11:12:51Z</time>
      </trkpt>
      <trkpt lat="46.01001" lon="6.57902">
        <ele>2028.755</ele>
        <time>2026-03-15T11:12:56Z</time>
      </trkpt>
      <trkpt lat="46.01001" lon="6.57902">
        <ele>2028.754</ele>
        <time>2026-03-15T11:13:01Z</time>
      </trkpt>
      <trkpt lat="46.01001" lon="6.57902">
        <ele>2030.143</ele>
        <time>2026-03-15T11:13:05Z</time>
      </trkpt>
      <trkpt lat="46.01001" lon="6.57902">
        <ele>2030.092</ele>
        <time>2026-03-15T11:13:11Z</time>
      </trkpt>
      <trkpt lat="46.01001" lon="6.57902">
        <ele>2029.994</ele>
        <time>2026-03-15T11:13:16Z</time>
      </trkpt>
      <trkpt lat="46.01001" lon="6.57902">
        <ele>2029.939</ele>
        <time>2026-03-15T11:13:21Z</time>
      </trkpt>
      <trkpt lat="46.01001" lon="6.57902">
        <ele>2029.983</ele>
        <time>2026-03-15T11:13:26Z</time>
      </trkpt>
      <trkpt lat="46.01001" lon="6.57902">
        <ele>2030.055</ele>
        <time>2026-03-15T11:13:31Z</time>
      </trkpt>
      <trkpt lat="46.01001" lon="6.57902">
        <ele>2030.05</ele>
        <time>2026-03-15T11:13:36Z</time>
      </trkpt>
      <trkpt lat="46.01001" lon="6.57902">
        <ele>2030.056</ele>
        <time>2026-03-15T11:13:41Z</time>
      </trkpt>
      <trkpt lat="46.01001" lon="6.57902">
        <ele>2030.058</ele>
        <time>2026-03-15T11:13:46Z</time>
      </trkpt>
      <trkpt lat="46.01001" lon="6.57902">
        <ele>2030.06</ele>
        <time>2026-03-15T11:13:51Z</time>
      </trkpt>
      <trkpt lat="46.01001" lon="6.57902">
        <ele>2030.053</ele>
        <time>2026-03-15T11:13:56Z</time>
      </trkpt>
      <trkpt lat="46.01001" lon="6.57902">
        <ele>2030.05</ele>
        <time>2026-03-15T11:14:01Z</time>
      </trkpt>
      <trkpt lat="46.01001" lon="6.57902">
        <ele>2030.047</ele>
        <time>2026-03-15T11:14:06Z</time>
      </trkpt>
      <trkpt lat="46.01001" lon="6.57902">
        <ele>2030.042</ele>
        <time>2026-03-15T11:14:11Z</time>
      </trkpt>
      <trkpt lat="46.01001" lon="6.57902">
        <ele>2030.031</ele>
        <time>2026-03-15T11:14:16Z</time>
      </trkpt>
      <trkpt lat="46.01001" lon="6.57902">
        <ele>2030.021</ele>
        <time>2026-03-15T11:14:21Z</time>
      </trkpt>
      <trkpt lat="46.01001" lon="6.57902">
        <ele>2030.013</ele>
        <time>2026-03-15T11:14:26Z</time>
      </trkpt>
      <trkpt lat="46.01001" lon="6.57902">
        <ele>2030.003</ele>
        <time>2026-03-15T11:14:31Z</time>
      </trkpt>
      <trkpt lat="46.01001" lon="6.57902">
        <ele>2029.997</ele>
        <time>2026-03-15T11:14:36Z</time>
      </trkpt>
      <trkpt lat="46.01001" lon="6.57902">
        <ele>2029.996</ele>
        <time>2026-03-15T11:14:41Z</time>
      </trkpt>
      <trkpt lat="46.01001" lon="6.57902">
        <ele>2029.996</ele>
        <time>2026-03-15T11:14:46Z</time>
      </trkpt>
      <trkpt lat="46.01001" lon="6.57902">
        <ele>2029.989</ele>
        <time>2026-03-15T11:14:51Z</time>
      </trkpt>
      <trkpt lat="46.01001" lon="6.57902">
        <ele>2029.984</ele>
        <time>2026-03-15T11:14:56Z</time>
      </trkpt>
      <trkpt lat="46.01001" lon="6.57902">
        <ele>2029.983</ele>
        <time>2026-03-15T11:15:01Z</time>
      </trkpt>
      <trkpt lat="46.01001" lon="6.57902">
        <ele>2029.979</ele>
        <time>2026-03-15T11:15:06Z</time>
      </trkpt>
      <trkpt lat="46.01001" lon="6.57902">
        <ele>2029.975</ele>
        <time>2026-03-15T11:15:11Z</time>
      </trkpt>
      <trkpt lat="46.01001" lon="6.57902">
        <ele>2029.975</ele>
        <time>2026-03-15T11:15:16Z</time>
      </trkpt>
      <trkpt lat="46.01001" lon="6.57902">
        <ele>2029.975</ele>
        <time>2026-03-15T11:15:21Z</time>
      </trkpt>
      <trkpt lat="46.01001" lon="6.57902">
        <ele>2029.971</ele>
        <time>2026-03-15T11:15:26Z</time>
      </trkpt>
      <trkpt lat="46.01001" lon="6.57902">
        <ele>2029.96</ele>
        <time>2026-03-15T11:15:31Z</time>
      </trkpt>
      <trkpt lat="46.01001" lon="6.57902">
        <ele>2029.96</ele>
        <time>2026-03-15T11:15:36Z</time>
      </trkpt>
      <trkpt lat="46.01001" lon="6.57902">
        <ele>2029.962</ele>
        <time>2026-03-15T11:15:41Z</time>
      </trkpt>
      <trkpt lat="46.01001" lon="6.57902">
        <ele>2029.963</ele>
        <time>2026-03-15T11:15:46Z</time>
      </trkpt>
      <trkpt lat="46.01001" lon="6.57902">
        <ele>2029.963</ele>
        <time>2026-03-15T11:15:51Z</time>
      </trkpt>
      <trkpt lat="46.01001" lon="6.57902">
        <ele>2029.96</ele>
        <time>2026-03-15T11:15:56Z</time>
      </trkpt>
      <trkpt lat="46.01001" lon="6.57902">
        <ele>2029.958</ele>
        <time>2026-03-15T11:16:01Z</time>
      </trkpt>
      <trkpt lat="46.01001" lon="6.57902">
        <ele>2029.953</ele>
        <time>2026-03-15T11:16:06Z</time>
      </trkpt>
      <trkpt lat="46.01001" lon="6.57902">
        <ele>2029.948</ele>
        <time>2026-03-15T11:16:11Z</time>
      </trkpt>
      <trkpt lat="46.01001" lon="6.57902">
        <ele>2029.949</ele>
        <time>2026-03-15T11:16:16Z</time>
      </trkpt>
      <trkpt lat="46.01001" lon="6.57902">
        <ele>2029.944</ele>
        <time>2026-03-15T11:16:21Z</time>
      </trkpt>
      <trkpt lat="46.01001" lon="6.57902">
        <ele>2029.937</ele>
        <time>2026-03-15T11:16:26Z</time>
      </trkpt>
      <trkpt lat="46.01001" lon="6.57902">
        <ele>2029.936</ele>
        <time>2026-03-15T11:16:31Z</time>
      </trkpt>
      <trkpt lat="46.01001" lon="6.57902">
        <ele>2029.932</ele>
        <time>2026-03-15T11:16:36Z</time>
      </trkpt>
      <trkpt lat="46.01001" lon="6.57902">
        <ele>2029.927</ele>
        <time>2026-03-15T11:16:41Z</time>
      </trkpt>
      <trkpt lat="46.01001" lon="6.57902">
        <ele>2029.924</ele>
        <time>2026-03-15T11:16:46Z</time>
      </trkpt>
      <trkpt lat="46.01001" lon="6.57902">
        <ele>2029.916</ele>
        <time>2026-03-15T11:16:51Z</time>
      </trkpt>
      <trkpt lat="46.01001" lon="6.57902">
        <ele>2029.914</ele>
        <time>2026-03-15T11:16:56Z</time>
      </trkpt>
      <trkpt lat="46.01001" lon="6.57902">
        <ele>2029.907</ele>
        <time>2026-03-15T11:17:01Z</time>
      </trkpt>
      <trkpt lat="46.01001" lon="6.57902">
        <ele>2029.901</ele>
        <time>2026-03-15T11:17:06Z</time>
      </trkpt>
      <trkpt lat="46.01001" lon="6.57902">
        <ele>2029.898</ele>
        <time>2026-03-15T11:17:11Z</time>
      </trkpt>
      <trkpt lat="46.01001" lon="6.57902">
        <ele>2029.893</ele>
        <time>2026-03-15T11:17:16Z</time>
      </trkpt>
      <trkpt lat="46.01001" lon="6.57902">
        <ele>2029.888</ele>
        <time>2026-03-15T11:17:21Z</time>
      </trkpt>
      <trkpt lat="46.01001" lon="6.57902">
        <ele>2029.888</ele>
        <time>2026-03-15T11:17:26Z</time>
      </trkpt>
      <trkpt lat="46.01001" lon="6.57902">
        <ele>2029.892</ele>
        <time>2026-03-15T11:17:31Z</time>
      </trkpt>
      <trkpt lat="46.01001" lon="6.57902">
        <ele>2029.902</ele>
        <time>2026-03-15T11:17:36Z</time>
      </trkpt>
      <trkpt lat="46.01001" lon="6.57902">
        <ele>2029.907</ele>
        <time>2026-03-15T11:17:41Z</time>
      </trkpt>
      <trkpt lat="46.01001" lon="6.57902">
        <ele>2029.909</ele>
        <time>2026-03-15T11:17:46Z</time>
      </trkpt>
      <trkpt lat="46.01001" lon="6.57902">
        <ele>2029.908</ele>
        <time>2026-03-15T11:17:51Z</time>
      </trkpt>
      <trkpt lat="46.01001" lon="6.57902">
        <ele>2029.909</ele>
        <time>2026-03-15T11:17:56Z</time>
      </trkpt>
      <trkpt lat="46.01001" lon="6.57902">
        <ele>2029.911</ele>
        <time>2026-03-15T11:18:01Z</time>
      </trkpt>
      <trkpt lat="46.01001" lon="6.57902">
        <ele>2029.911</ele>
        <time>2026-03-15T11:18:06Z</time>
      </trkpt>
      <trkpt lat="46.01001" lon="6.57902">
        <ele>2029.913</ele>
        <time>2026-03-15T11:18:11Z</time>
      </trkpt>
      <trkpt lat="46.01001" lon="6.57902">
        <ele>2029.914</ele>
        <time>2026-03-15T11:18:16Z</time>
      </trkpt>
      <trkpt lat="46.01001" lon="6.57902">
        <ele>2029.916</ele>
        <time>2026-03-15T11:18:21Z</time>
      </trkpt>
      <trkpt lat="46.01001" lon="6.57902">
        <ele>2029.916</ele>
        <time>2026-03-15T11:18:26Z</time>
      </trkpt>
      <trkpt lat="46.01001" lon="6.57902">
        <ele>2029.912</ele>
        <time>2026-03-15T11:18:31Z</time>
      </trkpt>
      <trkpt lat="46.01001" lon="6.57902">
        <ele>2029.906</ele>
        <time>2026-03-15T11:18:36Z</time>
      </trkpt>
      <trkpt lat="46.01001" lon="6.57902">
        <ele>2029.905</ele>
        <time>2026-03-15T11:18:41Z</time>
      </trkpt>
      <trkpt lat="46.01001" lon="6.57902">
        <ele>2029.9</ele>
        <time>2026-03-15T11:18:46Z</time>
      </trkpt>
      <trkpt lat="46.01001" lon="6.57902">
        <ele>2029.903</ele>
        <time>2026-03-15T11:18:51Z</time>
      </trkpt>
      <trkpt lat="46.01001" lon="6.57902">
        <ele>2029.901</ele>
        <time>2026-03-15T11:18:56Z</time>
      </trkpt>
      <trkpt lat="46.01001" lon="6.57902">
        <ele>2029.897</ele>
        <time>2026-03-15T11:19:01Z</time>
      </trkpt>
      <trkpt lat="46.01001" lon="6.57902">
        <ele>2029.899</ele>
        <time>2026-03-15T11:19:06Z</time>
      </trkpt>
      <trkpt lat="46.01001" lon="6.57902">
        <ele>2029.895</ele>
        <time>2026-03-15T11:19:11Z</time>
      </trkpt>
      <trkpt lat="46.01001" lon="6.57902">
        <ele>2029.892</ele>
        <time>2026-03-15T11:19:16Z</time>
      </trkpt>
      <trkpt lat="46.01001" lon="6.57902">
        <ele>2029.888</ele>
        <time>2026-03-15T11:19:21Z</time>
      </trkpt>
      <trkpt lat="46.01001" lon="6.57902">
        <ele>2029.884</ele>
        <time>2026-03-15T11:19:26Z</time>
      </trkpt>
      <trkpt lat="46.01001" lon="6.57902">
        <ele>2029.884</ele>
        <time>2026-03-15T11:19:31Z</time>
      </trkpt>
      <trkpt lat="46.01001" lon="6.57902">
        <ele>2029.879</ele>
        <time>2026-03-15T11:19:36Z</time>
      </trkpt>
      <trkpt lat="46.01001" lon="6.57902">
        <ele>2029.878</ele>
        <time>2026-03-15T11:19:41Z</time>
      </trkpt>
      <trkpt lat="46.01001" lon="6.57902">
        <ele>2029.873</ele>
        <time>2026-03-15T11:19:46Z</time>
      </trkpt>
      <trkpt lat="46.01001" lon="6.57902">
        <ele>2029.871</ele>
        <time>2026-03-15T11:19:51Z</time>
      </trkpt>
      <trkpt lat="46.01001" lon="6.57902">
        <ele>2027.896</ele>
        <time>2026-03-15T11:19:56Z</time>
      </trkpt>
      <trkpt lat="46.01001" lon="6.57902">
        <ele>2027.954</ele>
        <time>2026-03-15T11:20:01Z</time>
      </trkpt>
      <trkpt lat="46.01001" lon="6.57902">
        <ele>2028.441</ele>
        <time>2026-03-15T11:20:06Z</time>
      </trkpt>
      <trkpt lat="46.01001" lon="6.57902">
        <ele>2028.642</ele>
        <time>2026-03-15T11:20:11Z</time>
      </trkpt>
      <trkpt lat="46.01001" lon="6.57902">
        <ele>2028.728</ele>
        <time>2026-03-15T11:20:16Z</time>
      </trkpt>
      <trkpt lat="46.01001" lon="6.57902">
        <ele>2028.704</ele>
        <time>2026-03-15T11:20:21Z</time>
      </trkpt>
      <trkpt lat="46.01001" lon="6.57902">
        <ele>2028.728</ele>
        <time>2026-03-15T11:20:26Z</time>
      </trkpt>
      <trkpt lat="46.01001" lon="6.57902">
        <ele>2028.728</ele>
        <time>2026-03-15T11:20:31Z</time>
      </trkpt>
      <trkpt lat="46.01001" lon="6.57902">
        <ele>2028.73</ele>
        <time>2026-03-15T11:20:36Z</time>
      </trkpt>
      <trkpt lat="46.01001" lon="6.57902">
        <ele>2028.728</ele>
        <time>2026-03-15T11:20:41Z</time>
      </trkpt>
      <trkpt lat="46.01001" lon="6.57902">
        <ele>2028.728</ele>
        <time>2026-03-15T11:20:46Z</time>
      </trkpt>
      <trkpt lat="46.01001" lon="6.57902">
        <ele>2028.728</ele>
        <time>2026-03-15T11:20:51Z</time>
      </trkpt>
      <trkpt lat="46.01001" lon="6.57902">
        <ele>2028.728</ele>
        <time>2026-03-15T11:20:56Z</time>
      </trkpt>
      <trkpt lat="46.01001" lon="6.57902">
        <ele>2028.726</ele>
        <time>2026-03-15T11:21:01Z</time>
      </trkpt>
      <trkpt lat="46.01001" lon="6.57902">
        <ele>2028.725</ele>
        <time>2026-03-15T11:21:06Z</time>
      </trkpt>
      <trkpt lat="46.01001" lon="6.57902">
        <ele>2028.724</ele>
        <time>2026-03-15T11:21:11Z</time>
      </trkpt>
      <trkpt lat="46.01001" lon="6.57902">
        <ele>2028.726</ele>
        <time>2026-03-15T11:21:16Z</time>
      </trkpt>
      <trkpt lat="46.01001" lon="6.57902">
        <ele>2028.726</ele>
        <time>2026-03-15T11:21:21Z</time>
      </trkpt>
      <trkpt lat="46.01001" lon="6.57902">
        <ele>2028.727</ele>
        <time>2026-03-15T11:21:26Z</time>
      </trkpt>
      <trkpt lat="46.01001" lon="6.57902">
        <ele>2028.728</ele>
        <time>2026-03-15T11:21:31Z</time>
      </trkpt>
      <trkpt lat="46.01001" lon="6.57902">
        <ele>2028.729</ele>
        <time>2026-03-15T11:21:36Z</time>
      </trkpt>
      <trkpt lat="46.01001" lon="6.57902">
        <ele>2028.73</ele>
        <time>2026-03-15T11:21:41Z</time>
      </trkpt>
      <trkpt lat="46.01001" lon="6.57902">
        <ele>2028.732</ele>
        <time>2026-03-15T11:21:46Z</time>
      </trkpt>
      <trkpt lat="46.01001" lon="6.57902">
        <ele>2028.732</ele>
        <time>2026-03-15T11:21:51Z</time>
      </trkpt>
      <trkpt lat="46.01001" lon="6.57902">
        <ele>2028.732</ele>
        <time>2026-03-15T11:21:56Z</time>
      </trkpt>
      <trkpt lat="46.01001" lon="6.57902">
        <ele>2028.735</ele>
        <time>2026-03-15T11:22:01Z</time>
      </trkpt>
      <trkpt lat="46.01001" lon="6.57902">
        <ele>2028.736</ele>
        <time>2026-03-15T11:22:06Z</time>
      </trkpt>
      <trkpt lat="46.01001" lon="6.57902">
        <ele>2028.734</ele>
        <time>2026-03-15T11:22:11Z</time>
      </trkpt>
      <trkpt lat="46.01001" lon="6.57902">
        <ele>2028.734</ele>
        <time>2026-03-15T11:22:16Z</time>
      </trkpt>
      <trkpt lat="46.01001" lon="6.57902">
        <ele>2028.734</ele>
        <time>2026-03-15T11:22:21Z</time>
      </trkpt>
      <trkpt lat="46.01001" lon="6.57902">
        <ele>2028.734</ele>
        <time>2026-03-15T11:22:26Z</time>
      </trkpt>
      <trkpt lat="46.01001" lon="6.57902">
        <ele>2028.735</ele>
        <time>2026-03-15T11:22:31Z</time>
      </trkpt>
      <trkpt lat="46.01001" lon="6.57902">
        <ele>2028.737</ele>
        <time>2026-03-15T11:22:36Z</time>
      </trkpt>
      <trkpt lat="46.01001" lon="6.57902">
        <ele>2028.738</ele>
        <time>2026-03-15T11:22:41Z</time>
      </trkpt>
      <trkpt lat="46.01001" lon="6.57902">
        <ele>2028.739</ele>
        <time>2026-03-15T11:22:46Z</time>
      </trkpt>
      <trkpt lat="46.01001" lon="6.57902">
        <ele>2028.738</ele>
        <time>2026-03-15T11:22:51Z</time>
      </trkpt>
      <trkpt lat="46.01001" lon="6.57902">
        <ele>2028.738</ele>
        <time>2026-03-15T11:22:56Z</time>
      </trkpt>
      <trkpt lat="46.01001" lon="6.57902">
        <ele>2028.735</ele>
        <time>2026-03-15T11:23:01Z</time>
      </trkpt>
      <trkpt lat="46.01001" lon="6.57902">
        <ele>2028.735</ele>
        <time>2026-03-15T11:23:06Z</time>
      </trkpt>
      <trkpt lat="46.01001" lon="6.57902">
        <ele>2028.736</ele>
        <time>2026-03-15T11:23:11Z</time>
      </trkpt>
      <trkpt lat="46.01001" lon="6.57902">
        <ele>2028.735</ele>
        <time>2026-03-15T11:23:16Z</time>
      </trkpt>
      <trkpt lat="46.01001" lon="6.57902">
        <ele>2028.735</ele>
        <time>2026-03-15T11:23:21Z</time>
      </trkpt>
      <trkpt lat="46.01001" lon="6.57902">
        <ele>2028.736</ele>
        <time>2026-03-15T11:23:26Z</time>
      </trkpt>
      <trkpt lat="46.01001" lon="6.57902">
        <ele>2028.738</ele>
        <time>2026-03-15T11:23:31Z</time>
      </trkpt>
      <trkpt lat="46.01001" lon="6.57902">
        <ele>2028.736</ele>
        <time>2026-03-15T11:23:36Z</time>
      </trkpt>
      <trkpt lat="46.01001" lon="6.57902">
        <ele>2028.736</ele>
        <time>2026-03-15T11:23:41Z</time>
      </trkpt>
      <trkpt lat="46.01001" lon="6.57902">
        <ele>2028.737</ele>
        <time>2026-03-15T11:23:46Z</time>
      </trkpt>
      <trkpt lat="46.01001" lon="6.57902">
        <ele>2028.737</ele>
        <time>2026-03-15T11:23:51Z</time>
      </trkpt>
      <trkpt lat="46.01001" lon="6.57902">
        <ele>2028.738</ele>
        <time>2026-03-15T11:23:56Z</time>
      </trkpt>
      <trkpt lat="46.01001" lon="6.57902">
        <ele>2028.738</ele>
        <time>2026-03-15T11:24:01Z</time>
      </trkpt>
      <trkpt lat="46.01001" lon="6.57902">
        <ele>2028.678</ele>
        <time>2026-03-15T11:24:06Z</time>
      </trkpt>
      <trkpt lat="46.01001" lon="6.57902">
        <ele>2028.673</ele>
        <time>2026-03-15T11:24:11Z</time>
      </trkpt>
      <trkpt lat="46.01001" lon="6.57902">
        <ele>2028.636</ele>
        <time>2026-03-15T11:24:16Z</time>
      </trkpt>
      <trkpt lat="46.01001" lon="6.57902">
        <ele>2028.632</ele>
        <time>2026-03-15T11:24:21Z</time>
      </trkpt>
      <trkpt lat="46.01001" lon="6.57902">
        <ele>2028.629</ele>
        <time>2026-03-15T11:24:26Z</time>
      </trkpt>
      <trkpt lat="46.01001" lon="6.57902">
        <ele>2028.628</ele>
        <time>2026-03-15T11:24:31Z</time>
      </trkpt>
      <trkpt lat="46.01001" lon="6.57902">
        <ele>2028.627</ele>
        <time>2026-03-15T11:24:36Z</time>
      </trkpt>
      <trkpt lat="46.01001" lon="6.57902">
        <ele>2028.63</ele>
        <time>2026-03-15T11:24:41Z</time>
      </trkpt>
      <trkpt lat="46.01001" lon="6.57902">
        <ele>2028.631</ele>
        <time>2026-03-15T11:24:46Z</time>
      </trkpt>
      <trkpt lat="46.01001" lon="6.57902">
        <ele>2028.633</ele>
        <time>2026-03-15T11:24:51Z</time>
      </trkpt>
      <trkpt lat="46.01001" lon="6.57902">
        <ele>2028.636</ele>
        <time>2026-03-15T11:24:56Z</time>
      </trkpt>
      <trkpt lat="46.01001" lon="6.57902">
        <ele>2028.636</ele>
        <time>2026-03-15T11:25:01Z</time>
      </trkpt>
      <trkpt lat="46.01001" lon="6.57902">
        <ele>2028.638</ele>
        <time>2026-03-15T11:25:06Z</time>
      </trkpt>
      <trkpt lat="46.01001" lon="6.57902">
        <ele>2028.64</ele>
        <time>2026-03-15T11:25:11Z</time>
      </trkpt>
      <trkpt lat="46.01001" lon="6.57902">
        <ele>2028.639</ele>
        <time>2026-03-15T11:25:16Z</time>
      </trkpt>
      <trkpt lat="46.01001" lon="6.57902">
        <ele>2028.639</ele>
        <time>2026-03-15T11:25:21Z</time>
      </trkpt>
      <trkpt lat="46.01001" lon="6.57902">
        <ele>2028.637</ele>
        <time>2026-03-15T11:25:26Z</time>
      </trkpt>
      <trkpt lat="46.01001" lon="6.57902">
        <ele>2028.639</ele>
        <time>2026-03-15T11:25:31Z</time>
      </trkpt>
      <trkpt lat="46.01001" lon="6.57902">
        <ele>2028.642</ele>
        <time>2026-03-15T11:25:36Z</time>
      </trkpt>
      <trkpt lat="46.01001" lon="6.57902">
        <ele>2028.645</ele>
        <time>2026-03-15T11:25:41Z</time>
      </trkpt>
      <trkpt lat="46.01001" lon="6.57902">
        <ele>2028.646</ele>
        <time>2026-03-15T11:25:46Z</time>
      </trkpt>
      <trkpt lat="46.01001" lon="6.57902">
        <ele>2028.643</ele>
        <time>2026-03-15T11:25:51Z</time>
      </trkpt>
      <trkpt lat="46.01001" lon="6.57902">
        <ele>2028.645</ele>
        <time>2026-03-15T11:25:56Z</time>
      </trkpt>
      <trkpt lat="46.01001" lon="6.57902">
        <ele>2028.646</ele>
        <time>2026-03-15T11:26:01Z</time>
      </trkpt>
      <trkpt lat="46.01001" lon="6.57902">
        <ele>2028.649</ele>
        <time>2026-03-15T11:26:06Z</time>
      </trkpt>
      <trkpt lat="46.01001" lon="6.57902">
        <ele>2028.65</ele>
        <time>2026-03-15T11:26:11Z</time>
      </trkpt>
      <trkpt lat="46.01001" lon="6.57902">
        <ele>2028.651</ele>
        <time>2026-03-15T11:26:16Z</time>
      </trkpt>
      <trkpt lat="46.01001" lon="6.57902">
        <ele>2028.654</ele>
        <time>2026-03-15T11:26:21Z</time>
      </trkpt>
      <trkpt lat="46.01001" lon="6.57902">
        <ele>2028.655</ele>
        <time>2026-03-15T11:26:26Z</time>
      </trkpt>
      <trkpt lat="46.01001" lon="6.57902">
        <ele>2028.658</ele>
        <time>2026-03-15T11:26:31Z</time>
      </trkpt>
      <trkpt lat="46.01001" lon="6.57902">
        <ele>2028.66</ele>
        <time>2026-03-15T11:26:36Z</time>
      </trkpt>
      <trkpt lat="46.01001" lon="6.57902">
        <ele>2028.663</ele>
        <time>2026-03-15T11:26:41Z</time>
      </trkpt>
      <trkpt lat="46.01001" lon="6.57902">
        <ele>2028.666</ele>
        <time>2026-03-15T11:26:46Z</time>
      </trkpt>
      <trkpt lat="46.01001" lon="6.57902">
        <ele>2028.671</ele>
        <time>2026-03-15T11:26:51Z</time>
      </trkpt>
      <trkpt lat="46.01001" lon="6.57902">
        <ele>2028.673</ele>
        <time>2026-03-15T11:26:56Z</time>
      </trkpt>
      <trkpt lat="46.01001" lon="6.57902">
        <ele>2028.673</ele>
        <time>2026-03-15T11:27:01Z</time>
      </trkpt>
      <trkpt lat="46.01001" lon="6.57902">
        <ele>2028.674</ele>
        <time>2026-03-15T11:27:06Z</time>
      </trkpt>
      <trkpt lat="46.01001" lon="6.57902">
        <ele>2028.676</ele>
        <time>2026-03-15T11:27:11Z</time>
      </trkpt>
      <trkpt lat="46.01001" lon="6.57902">
        <ele>2028.677</ele>
        <time>2026-03-15T11:27:16Z</time>
      </trkpt>
      <trkpt lat="46.01001" lon="6.57902">
        <ele>2028.68</ele>
        <time>2026-03-15T11:27:21Z</time>
      </trkpt>
      <trkpt lat="46.01001" lon="6.57902">
        <ele>2028.684</ele>
        <time>2026-03-15T11:27:26Z</time>
      </trkpt>
      <trkpt lat="46.01001" lon="6.57902">
        <ele>2028.688</ele>
        <time>2026-03-15T11:27:31Z</time>
      </trkpt>
      <trkpt lat="46.01001" lon="6.57902">
        <ele>2028.69</ele>
        <time>2026-03-15T11:27:36Z</time>
      </trkpt>
      <trkpt lat="46.01001" lon="6.57902">
        <ele>2028.69</ele>
        <time>2026-03-15T11:27:41Z</time>
      </trkpt>
      <trkpt lat="46.01001" lon="6.57902">
        <ele>2028.691</ele>
        <time>2026-03-15T11:27:46Z</time>
      </trkpt>
      <trkpt lat="46.01001" lon="6.57902">
        <ele>2028.691</ele>
        <time>2026-03-15T11:27:51Z</time>
      </trkpt>
      <trkpt lat="46.01001" lon="6.57902">
        <ele>2028.695</ele>
        <time>2026-03-15T11:27:56Z</time>
      </trkpt>
      <trkpt lat="46.01001" lon="6.57902">
        <ele>2028.696</ele>
        <time>2026-03-15T11:28:01Z</time>
      </trkpt>
      <trkpt lat="46.01001" lon="6.57902">
        <ele>2028.696</ele>
        <time>2026-03-15T11:28:06Z</time>
      </trkpt>
      <trkpt lat="46.01001" lon="6.57902">
        <ele>2028.697</ele>
        <time>2026-03-15T11:28:11Z</time>
      </trkpt>
      <trkpt lat="46.01001" lon="6.57902">
        <ele>2028.697</ele>
        <time>2026-03-15T11:28:16Z</time>
      </trkpt>
      <trkpt lat="46.01001" lon="6.57902">
        <ele>2028.698</ele>
        <time>2026-03-15T11:28:21Z</time>
      </trkpt>
      <trkpt lat="46.01001" lon="6.57902">
        <ele>2028.699</ele>
        <time>2026-03-15T11:28:26Z</time>
      </trkpt>
      <trkpt lat="46.01001" lon="6.57902">
        <ele>2028.699</ele>
        <time>2026-03-15T11:28:31Z</time>
      </trkpt>
      <trkpt lat="46.01001" lon="6.57902">
        <ele>2028.703</ele>
        <time>2026-03-15T11:28:36Z</time>
      </trkpt>
      <trkpt lat="46.01001" lon="6.57902">
        <ele>2028.704</ele>
        <time>2026-03-15T11:28:41Z</time>
      </trkpt>
      <trkpt lat="46.01001" lon="6.57902">
        <ele>2028.705</ele>
        <time>2026-03-15T11:28:46Z</time>
      </trkpt>
      <trkpt lat="46.01001" lon="6.57902">
        <ele>2028.706</ele>
        <time>2026-03-15T11:28:51Z</time>
      </trkpt>
      <trkpt lat="46.01001" lon="6.57902">
        <ele>2028.706</ele>
        <time>2026-03-15T11:28:56Z</time>
      </trkpt>
      <trkpt lat="46.01001" lon="6.57902">
        <ele>2028.706</ele>
        <time>2026-03-15T11:29:01Z</time>
      </trkpt>
      <trkpt lat="46.01001" lon="6.57902">
        <ele>2028.708</ele>
        <time>2026-03-15T11:29:06Z</time>
      </trkpt>
      <trkpt lat="46.01001" lon="6.57902">
        <ele>2028.707</ele>
        <time>2026-03-15T11:29:11Z</time>
      </trkpt>
      <trkpt lat="46.01001" lon="6.57902">
        <ele>2028.708</ele>
        <time>2026-03-15T11:29:16Z</time>
      </trkpt>
      <trkpt lat="46.01001" lon="6.57902">
        <ele>2028.708</ele>
        <time>2026-03-15T11:29:21Z</time>
      </trkpt>
      <trkpt lat="46.01001" lon="6.57902">
        <ele>2028.708</ele>
        <time>2026-03-15T11:29:26Z</time>
      </trkpt>
      <trkpt lat="46.01001" lon="6.57902">
        <ele>2028.709</ele>
        <time>2026-03-15T11:29:31Z</time>
      </trkpt>
      <trkpt lat="46.01001" lon="6.57902">
        <ele>2028.71</ele>
        <time>2026-03-15T11:29:36Z</time>
      </trkpt>
      <trkpt lat="46.01001" lon="6.57902">
        <ele>2028.711</ele>
        <time>2026-03-15T11:29:41Z</time>
      </trkpt>
      <trkpt lat="46.01001" lon="6.57902">
        <ele>2028.71</ele>
        <time>2026-03-15T11:29:46Z</time>
      </trkpt>
      <trkpt lat="46.01001" lon="6.57902">
        <ele>2028.708</ele>
        <time>2026-03-15T11:29:51Z</time>
      </trkpt>
      <trkpt lat="46.01001" lon="6.57902">
        <ele>2028.707</ele>
        <time>2026-03-15T11:29:56Z</time>
      </trkpt>
      <trkpt lat="46.01001" lon="6.57902">
        <ele>2028.706</ele>
        <time>2026-03-15T11:30:01Z</time>
      </trkpt>
      <trkpt lat="46.01001" lon="6.57902">
        <ele>2028.705</ele>
        <time>2026-03-15T11:30:06Z</time>
      </trkpt>
      <trkpt lat="46.01001" lon="6.57902">
        <ele>2028.703</ele>
        <time>2026-03-15T11:30:11Z</time>
      </trkpt>
      <trkpt lat="46.01001" lon="6.57902">
        <ele>2028.703</ele>
        <time>2026-03-15T11:30:16Z</time>
      </trkpt>
      <trkpt lat="46.01001" lon="6.57902">
        <ele>2028.704</ele>
        <time>2026-03-15T11:30:21Z</time>
      </trkpt>
      <trkpt lat="46.01001" lon="6.57902">
        <ele>2028.704</ele>
        <time>2026-03-15T11:30:26Z</time>
      </trkpt>
      <trkpt lat="46.01001" lon="6.57902">
        <ele>2028.705</ele>
        <time>2026-03-15T11:30:31Z</time>
      </trkpt>
      <trkpt lat="46.01001" lon="6.57902">
        <ele>2028.706</ele>
        <time>2026-03-15T11:30:36Z</time>
      </trkpt>
      <trkpt lat="46.01001" lon="6.57902">
        <ele>2028.707</ele>
        <time>2026-03-15T11:30:41Z</time>
      </trkpt>
      <trkpt lat="46.01001" lon="6.57902">
        <ele>2028.706</ele>
        <time>2026-03-15T11:30:46Z</time>
      </trkpt>
      <trkpt lat="46.01001" lon="6.57902">
        <ele>2028.707</ele>
        <time>2026-03-15T11:30:51Z</time>
      </trkpt>
      <trkpt lat="46.01001" lon="6.57902">
        <ele>2028.707</ele>
        <time>2026-03-15T11:30:56Z</time>
      </trkpt>
      <trkpt lat="46.01001" lon="6.57902">
        <ele>2028.708</ele>
        <time>2026-03-15T11:31:01Z</time>
      </trkpt>
      <trkpt lat="46.01001" lon="6.57902">
        <ele>2028.709</ele>
        <time>2026-03-15T11:31:06Z</time>
      </trkpt>
      <trkpt lat="46.01001" lon="6.57902">
        <ele>2028.709</ele>
        <time>2026-03-15T11:31:11Z</time>
      </trkpt>
      <trkpt lat="46.01001" lon="6.57902">
        <ele>2028.708</ele>
        <time>2026-03-15T11:31:16Z</time>
      </trkpt>
      <trkpt lat="46.01001" lon="6.57902">
        <ele>2028.707</ele>
        <time>2026-03-15T11:31:21Z</time>
      </trkpt>
      <trkpt lat="46.01001" lon="6.57902">
        <ele>2028.707</ele>
        <time>2026-03-15T11:31:26Z</time>
      </trkpt>
      <trkpt lat="46.01001" lon="6.57902">
        <ele>2028.706</ele>
        <time>2026-03-15T11:31:31Z</time>
      </trkpt>
      <trkpt lat="46.01001" lon="6.57902">
        <ele>2028.707</ele>
        <time>2026-03-15T11:31:36Z</time>
      </trkpt>
      <trkpt lat="46.01001" lon="6.57902">
        <ele>2028.707</ele>
        <time>2026-03-15T11:31:41Z</time>
      </trkpt>
      <trkpt lat="46.01001" lon="6.57902">
        <ele>2028.706</ele>
        <time>2026-03-15T11:31:46Z</time>
      </trkpt>
      <trkpt lat="46.01001" lon="6.57902">
        <ele>2028.706</ele>
        <time>2026-03-15T11:31:51Z</time>
      </trkpt>
      <trkpt lat="46.01001" lon="6.57902">
        <ele>2028.704</ele>
        <time>2026-03-15T11:31:56Z</time>
      </trkpt>
      <trkpt lat="46.01001" lon="6.57902">
        <ele>2028.706</ele>
        <time>2026-03-15T11:32:01Z</time>
      </trkpt>
      <trkpt lat="46.01001" lon="6.57902">
        <ele>2028.705</ele>
        <time>2026-03-15T11:32:06Z</time>
      </trkpt>
      <trkpt lat="46.01001" lon="6.57902">
        <ele>2028.704</ele>
        <time>2026-03-15T11:32:11Z</time>
      </trkpt>
      <trkpt lat="46.01001" lon="6.57902">
        <ele>2028.703</ele>
        <time>2026-03-15T11:32:16Z</time>
      </trkpt>
      <trkpt lat="46.01001" lon="6.57902">
        <ele>2028.703</ele>
        <time>2026-03-15T11:32:21Z</time>
      </trkpt>
      <trkpt lat="46.01001" lon="6.57902">
        <ele>2028.703</ele>
        <time>2026-03-15T11:32:26Z</time>
      </trkpt>
      <trkpt lat="46.01001" lon="6.57902">
        <ele>2028.702</ele>
        <time>2026-03-15T11:32:31Z</time>
      </trkpt>
      <trkpt lat="46.01001" lon="6.57902">
        <ele>2028.701</ele>
        <time>2026-03-15T11:32:36Z</time>
      </trkpt>
      <trkpt lat="46.01001" lon="6.57902">
        <ele>2028.699</ele>
        <time>2026-03-15T11:32:41Z</time>
      </trkpt>
      <trkpt lat="46.01001" lon="6.57902">
        <ele>2028.697</ele>
        <time>2026-03-15T11:32:46Z</time>
      </trkpt>
      <trkpt lat="46.01001" lon="6.57902">
        <ele>2028.698</ele>
        <time>2026-03-15T11:32:51Z</time>
      </trkpt>
      <trkpt lat="46.01001" lon="6.57902">
        <ele>2028.698</ele>
        <time>2026-03-15T11:32:56Z</time>
      </trkpt>
      <trkpt lat="46.01001" lon="6.57902">
        <ele>2028.694</ele>
        <time>2026-03-15T11:33:01Z</time>
      </trkpt>
      <trkpt lat="46.01001" lon="6.57902">
        <ele>2028.692</ele>
        <time>2026-03-15T11:33:06Z</time>
      </trkpt>
      <trkpt lat="46.01001" lon="6.57902">
        <ele>2028.69</ele>
        <time>2026-03-15T11:33:11Z</time>
      </trkpt>
      <trkpt lat="46.01001" lon="6.57902">
        <ele>2028.687</ele>
        <time>2026-03-15T11:33:16Z</time>
      </trkpt>
      <trkpt lat="46.01001" lon="6.57902">
        <ele>2028.682</ele>
        <time>2026-03-15T11:33:21Z</time>
      </trkpt>
      <trkpt lat="46.01001" lon="6.57902">
        <ele>2028.676</ele>
        <time>2026-03-15T11:33:26Z</time>
      </trkpt>
      <trkpt lat="46.01001" lon="6.57902">
        <ele>2028.667</ele>
        <time>2026-03-15T11:33:31Z</time>
      </trkpt>
      <trkpt lat="46.01001" lon="6.57902">
        <ele>2028.668</ele>
        <time>2026-03-15T11:33:36Z</time>
      </trkpt>
      <trkpt lat="46.01001" lon="6.57902">
        <ele>2028.668</ele>
        <time>2026-03-15T11:33:41Z</time>
      </trkpt>
      <trkpt lat="46.01001" lon="6.57902">
        <ele>2028.663</ele>
        <time>2026-03-15T11:33:46Z</time>
      </trkpt>
      <trkpt lat="46.01001" lon="6.57902">
        <ele>2028.657</ele>
        <time>2026-03-15T11:33:51Z</time>
      </trkpt>
      <trkpt lat="46.01001" lon="6.57902">
        <ele>2028.654</ele>
        <time>2026-03-15T11:33:56Z</time>
      </trkpt>
      <trkpt lat="46.01001" lon="6.57902">
        <ele>2028.649</ele>
        <time>2026-03-15T11:34:01Z</time>
      </trkpt>
      <trkpt lat="46.01001" lon="6.57902">
        <ele>2028.647</ele>
        <time>2026-03-15T11:34:06Z</time>
      </trkpt>
      <trkpt lat="46.01001" lon="6.57902">
        <ele>2028.649</ele>
        <time>2026-03-15T11:34:11Z</time>
      </trkpt>
      <trkpt lat="46.01001" lon="6.57902">
        <ele>2029.057</ele>
        <time>2026-03-15T11:34:16Z</time>
      </trkpt>
      <trkpt lat="46.01001" lon="6.57902">
        <ele>2029.07</ele>
        <time>2026-03-15T11:34:21Z</time>
      </trkpt>
      <trkpt lat="46.01001" lon="6.57902">
        <ele>2029.178</ele>
        <time>2026-03-15T11:34:26Z</time>
      </trkpt>
      <trkpt lat="46.01001" lon="6.57902">
        <ele>2028.629</ele>
        <time>2026-03-15T11:34:31Z</time>
      </trkpt>
      <trkpt lat="46.01001" lon="6.57902">
        <ele>2028.778</ele>
        <time>2026-03-15T11:34:36Z</time>
      </trkpt>
      <trkpt lat="46.01001" lon="6.57902">
        <ele>2028.915</ele>
        <time>2026-03-15T11:34:41Z</time>
      </trkpt>
      <trkpt lat="46.01001" lon="6.57902">
        <ele>2029.018</ele>
        <time>2026-03-15T11:34:46Z</time>
      </trkpt>
      <trkpt lat="46.01001" lon="6.57902">
        <ele>2029.047</ele>
        <time>2026-03-15T11:34:51Z</time>
      </trkpt>
      <trkpt lat="46.01001" lon="6.57902">
        <ele>2029.038</ele>
        <time>2026-03-15T11:34:56Z</time>
      </trkpt>
      <trkpt lat="46.01001" lon="6.57902">
        <ele>2027.248</ele>
        <time>2026-03-15T11:35:01Z</time>
      </trkpt>
      <trkpt lat="46.01001" lon="6.57902">
        <ele>2026.923</ele>
        <time>2026-03-15T11:35:06Z</time>
      </trkpt>
      <trkpt lat="46.01001" lon="6.57902">
        <ele>2027.618</ele>
        <time>2026-03-15T11:35:11Z</time>
      </trkpt>
      <trkpt lat="46.01001" lon="6.57902">
        <ele>2028.216</ele>
        <time>2026-03-15T11:35:16Z</time>
      </trkpt>
      <trkpt lat="46.01001" lon="6.57902">
        <ele>2028.582</ele>
        <time>2026-03-15T11:35:21Z</time>
      </trkpt>
      <trkpt lat="46.01001" lon="6.57902">
        <ele>2027.78</ele>
        <time>2026-03-15T11:35:26Z</time>
      </trkpt>
      <trkpt lat="46.01001" lon="6.57902">
        <ele>2028.941</ele>
        <time>2026-03-15T11:35:31Z</time>
      </trkpt>
      <trkpt lat="46.01001" lon="6.57902">
        <ele>2028.561</ele>
        <time>2026-03-15T11:35:36Z</time>
      </trkpt>
      <trkpt lat="46.01001" lon="6.57902">
        <ele>2028.792</ele>
        <time>2026-03-15T11:35:41Z</time>
      </trkpt>
      <trkpt lat="46.01001" lon="6.57902">
        <ele>2029.663</ele>
        <time>2026-03-15T11:35:46Z</time>
      </trkpt>
      <trkpt lat="46.01001" lon="6.57902">
        <ele>2028.561</ele>
        <time>2026-03-15T11:35:51Z</time>
      </trkpt>
      <trkpt lat="46.01001" lon="6.57902">
        <ele>2028.208</ele>
        <time>2026-03-15T11:35:56Z</time>
      </trkpt>
      <trkpt lat="46.01001" lon="6.57902">
        <ele>2027.891</ele>
        <time>2026-03-15T11:36:01Z</time>
      </trkpt>
      <trkpt lat="46.01001" lon="6.57902">
        <ele>2028.039</ele>
        <time>2026-03-15T11:36:06Z</time>
      </trkpt>
      <trkpt lat="46.01001" lon="6.57902">
        <ele>2027.991</ele>
        <time>2026-03-15T11:36:11Z</time>
      </trkpt>
      <trkpt lat="46.01001" lon="6.57902">
        <ele>2028.07</ele>
        <time>2026-03-15T11:36:16Z</time>
      </trkpt>
      <trkpt lat="46.01001" lon="6.57902">
        <ele>2028.409</ele>
        <time>2026-03-15T11:36:21Z</time>
      </trkpt>
      <trkpt lat="46.01001" lon="6.57902">
        <ele>2028.351</ele>
        <time>2026-03-15T11:36:26Z</time>
      </trkpt>
      <trkpt lat="46.01001" lon="6.57902">
        <ele>2028.407</ele>
        <time>2026-03-15T11:36:31Z</time>
      </trkpt>
      <trkpt lat="46.01001" lon="6.57902">
        <ele>2028.41</ele>
        <time>2026-03-15T11:36:36Z</time>
      </trkpt>
      <trkpt lat="46.01001" lon="6.57902">
        <ele>2028.5</ele>
        <time>2026-03-15T11:36:41Z</time>
      </trkpt>
      <trkpt lat="46.01001" lon="6.57902">
        <ele>2028.538</ele>
        <time>2026-03-15T11:36:46Z</time>
      </trkpt>
      <trkpt lat="46.01001" lon="6.57902">
        <ele>2028.547</ele>
        <time>2026-03-15T11:36:51Z</time>
      </trkpt>
      <trkpt lat="46.01001" lon="6.57902">
        <ele>2028.552</ele>
        <time>2026-03-15T11:36:56Z</time>
      </trkpt>
      <trkpt lat="46.01001" lon="6.57902">
        <ele>2028.561</ele>
        <time>2026-03-15T11:37:01Z</time>
      </trkpt>
      <trkpt lat="46.01001" lon="6.57902">
        <ele>2028.569</ele>
        <time>2026-03-15T11:37:06Z</time>
      </trkpt>
      <trkpt lat="46.01001" lon="6.57902">
        <ele>2028.571</ele>
        <time>2026-03-15T11:37:11Z</time>
      </trkpt>
      <trkpt lat="46.01001" lon="6.57902">
        <ele>2028.636</ele>
        <time>2026-03-15T11:37:16Z</time>
      </trkpt>
      <trkpt lat="46.01001" lon="6.57902">
        <ele>2028.694</ele>
        <time>2026-03-15T11:37:21Z</time>
      </trkpt>
      <trkpt lat="46.01001" lon="6.57902">
        <ele>2028.702</ele>
        <time>2026-03-15T11:37:26Z</time>
      </trkpt>
      <trkpt lat="46.01001" lon="6.57902">
        <ele>2028.704</ele>
        <time>2026-03-15T11:37:31Z</time>
      </trkpt>
      <trkpt lat="46.01001" lon="6.57902">
        <ele>2028.705</ele>
        <time>2026-03-15T11:37:36Z</time>
      </trkpt>
      <trkpt lat="46.01001" lon="6.57902">
        <ele>2028.707</ele>
        <time>2026-03-15T11:37:41Z</time>
      </trkpt>
      <trkpt lat="46.01001" lon="6.57902">
        <ele>2028.718</ele>
        <time>2026-03-15T11:37:46Z</time>
      </trkpt>
      <trkpt lat="46.01001" lon="6.57902">
        <ele>2028.731</ele>
        <time>2026-03-15T11:37:51Z</time>
      </trkpt>
      <trkpt lat="46.01001" lon="6.57902">
        <ele>2028.732</ele>
        <time>2026-03-15T11:37:56Z</time>
      </trkpt>
      <trkpt lat="46.01001" lon="6.57902">
        <ele>2028.756</ele>
        <time>2026-03-15T11:38:01Z</time>
      </trkpt>
      <trkpt lat="46.01001" lon="6.57902">
        <ele>2028.758</ele>
        <time>2026-03-15T11:38:06Z</time>
      </trkpt>
      <trkpt lat="46.01001" lon="6.57902">
        <ele>2028.762</ele>
        <time>2026-03-15T11:38:11Z</time>
      </trkpt>
      <trkpt lat="46.01001" lon="6.57902">
        <ele>2028.772</ele>
        <time>2026-03-15T11:38:16Z</time>
      </trkpt>
      <trkpt lat="46.01001" lon="6.57902">
        <ele>2028.772</ele>
        <time>2026-03-15T11:38:21Z</time>
      </trkpt>
      <trkpt lat="46.01001" lon="6.57902">
        <ele>2028.777</ele>
        <time>2026-03-15T11:38:26Z</time>
      </trkpt>
      <trkpt lat="46.01001" lon="6.57902">
        <ele>2028.785</ele>
        <time>2026-03-15T11:38:31Z</time>
      </trkpt>
      <trkpt lat="46.01001" lon="6.57902">
        <ele>2028.786</ele>
        <time>2026-03-15T11:38:36Z</time>
      </trkpt>
      <trkpt lat="46.01001" lon="6.57902">
        <ele>2028.788</ele>
        <time>2026-03-15T11:38:41Z</time>
      </trkpt>
      <trkpt lat="46.01001" lon="6.57902">
        <ele>2028.787</ele>
        <time>2026-03-15T11:38:46Z</time>
      </trkpt>
      <trkpt lat="46.01001" lon="6.57902">
        <ele>2028.789</ele>
        <time>2026-03-15T11:38:51Z</time>
      </trkpt>
      <trkpt lat="46.01001" lon="6.57902">
        <ele>2028.787</ele>
        <time>2026-03-15T11:38:56Z</time>
      </trkpt>
      <trkpt lat="46.01001" lon="6.57902">
        <ele>2028.785</ele>
        <time>2026-03-15T11:39:01Z</time>
      </trkpt>
      <trkpt lat="46.01001" lon="6.57902">
        <ele>2028.788</ele>
        <time>2026-03-15T11:39:06Z</time>
      </trkpt>
      <trkpt lat="46.01001" lon="6.57902">
        <ele>2028.787</ele>
        <time>2026-03-15T11:39:11Z</time>
      </trkpt>
      <trkpt lat="46.01001" lon="6.57902">
        <ele>2028.791</ele>
        <time>2026-03-15T11:39:16Z</time>
      </trkpt>
      <trkpt lat="46.01001" lon="6.57902">
        <ele>2028.798</ele>
        <time>2026-03-15T11:39:21Z</time>
      </trkpt>
      <trkpt lat="46.01001" lon="6.57902">
        <ele>2028.8</ele>
        <time>2026-03-15T11:39:26Z</time>
      </trkpt>
      <trkpt lat="46.01001" lon="6.57902">
        <ele>2028.806</ele>
        <time>2026-03-15T11:39:31Z</time>
      </trkpt>
      <trkpt lat="46.01001" lon="6.57902">
        <ele>2028.81</ele>
        <time>2026-03-15T11:39:36Z</time>
      </trkpt>
      <trkpt lat="46.01001" lon="6.57902">
        <ele>2028.816</ele>
        <time>2026-03-15T11:39:41Z</time>
      </trkpt>
      <trkpt lat="46.01001" lon="6.57902">
        <ele>2028.822</ele>
        <time>2026-03-15T11:39:46Z</time>
      </trkpt>
      <trkpt lat="46.01001" lon="6.57902">
        <ele>2028.827</ele>
        <time>2026-03-15T11:39:51Z</time>
      </trkpt>
      <trkpt lat="46.01001" lon="6.57902">
        <ele>2028.832</ele>
        <time>2026-03-15T11:39:56Z</time>
      </trkpt>
      <trkpt lat="46.01001" lon="6.57902">
        <ele>2028.835</ele>
        <time>2026-03-15T11:40:01Z</time>
      </trkpt>
      <trkpt lat="46.01001" lon="6.57902">
        <ele>2028.842</ele>
        <time>2026-03-15T11:40:06Z</time>
      </trkpt>
      <trkpt lat="46.01001" lon="6.57902">
        <ele>2028.843</ele>
        <time>2026-03-15T11:40:11Z</time>
      </trkpt>
      <trkpt lat="46.01001" lon="6.57902">
        <ele>2028.837</ele>
        <time>2026-03-15T11:40:16Z</time>
      </trkpt>
      <trkpt lat="46.01001" lon="6.57902">
        <ele>2028.836</ele>
        <time>2026-03-15T11:40:21Z</time>
      </trkpt>
      <trkpt lat="46.01001" lon="6.57902">
        <ele>2028.837</ele>
        <time>2026-03-15T11:40:26Z</time>
      </trkpt>
      <trkpt lat="46.01001" lon="6.57902">
        <ele>2028.837</ele>
        <time>2026-03-15T11:40:31Z</time>
      </trkpt>
      <trkpt lat="46.01001" lon="6.57902">
        <ele>2028.84</ele>
        <time>2026-03-15T11:40:36Z</time>
      </trkpt>
      <trkpt lat="46.01001" lon="6.57902">
        <ele>2028.846</ele>
        <time>2026-03-15T11:40:41Z</time>
      </trkpt>
      <trkpt lat="46.01001" lon="6.57902">
        <ele>2028.656</ele>
        <time>2026-03-15T11:40:46Z</time>
      </trkpt>
      <trkpt lat="46.01001" lon="6.57902">
        <ele>2029.323</ele>
        <time>2026-03-15T11:40:51Z</time>
      </trkpt>
      <trkpt lat="46.01001" lon="6.57902">
        <ele>2029.621</ele>
        <time>2026-03-15T11:40:56Z</time>
      </trkpt>
      <trkpt lat="46.01001" lon="6.57902">
        <ele>2029.585</ele>
        <time>2026-03-15T11:41:01Z</time>
      </trkpt>
      <trkpt lat="46.01001" lon="6.57902">
        <ele>2029.583</ele>
        <time>2026-03-15T11:41:06Z</time>
      </trkpt>
      <trkpt lat="46.01001" lon="6.57902">
        <ele>2029.841</ele>
        <time>2026-03-15T11:41:11Z</time>
      </trkpt>
      <trkpt lat="46.01001" lon="6.57902">
        <ele>2028.938</ele>
        <time>2026-03-15T11:41:16Z</time>
      </trkpt>
      <trkpt lat="46.01001" lon="6.57902">
        <ele>2029.209</ele>
        <time>2026-03-15T11:41:21Z</time>
      </trkpt>
      <trkpt lat="46.01001" lon="6.57902">
        <ele>2029.457</ele>
        <time>2026-03-15T11:41:26Z</time>
      </trkpt>
      <trkpt lat="46.01001" lon="6.57902">
        <ele>2029.471</ele>
        <time>2026-03-15T11:41:31Z</time>
      </trkpt>
      <trkpt lat="46.01001" lon="6.57902">
        <ele>2029.487</ele>
        <time>2026-03-15T11:41:36Z</time>
      </trkpt>
      <trkpt lat="46.01001" lon="6.57902">
        <ele>2029.508</ele>
        <time>2026-03-15T11:41:41Z</time>
      </trkpt>
      <trkpt lat="46.01001" lon="6.57902">
        <ele>2029.529</ele>
        <time>2026-03-15T11:41:46Z</time>
      </trkpt>
      <trkpt lat="46.01001" lon="6.57902">
        <ele>2029.556</ele>
        <time>2026-03-15T11:41:51Z</time>
      </trkpt>
      <trkpt lat="46.01001" lon="6.57902">
        <ele>2029.589</ele>
        <time>2026-03-15T11:41:56Z</time>
      </trkpt>
      <trkpt lat="46.01001" lon="6.57902">
        <ele>2029.621</ele>
        <time>2026-03-15T11:42:01Z</time>
      </trkpt>
      <trkpt lat="46.01001" lon="6.57902">
        <ele>2029.641</ele>
        <time>2026-03-15T11:42:06Z</time>
      </trkpt>
      <trkpt lat="46.01001" lon="6.57902">
        <ele>2029.674</ele>
        <time>2026-03-15T11:42:11Z</time>
      </trkpt>
      <trkpt lat="46.01001" lon="6.57902">
        <ele>2029.715</ele>
        <time>2026-03-15T11:42:16Z</time>
      </trkpt>
      <trkpt lat="46.01001" lon="6.57902">
        <ele>2029.874</ele>
        <time>2026-03-15T11:42:21Z</time>
      </trkpt>
      <trkpt lat="46.01001" lon="6.57902">
        <ele>2030.373</ele>
        <time>2026-03-15T11:42:26Z</time>
      </trkpt>
      <trkpt lat="46.01001" lon="6.57902">
        <ele>2030.037</ele>
        <time>2026-03-15T11:42:31Z</time>
      </trkpt>
      <trkpt lat="46.01001" lon="6.57902">
        <ele>2030.112</ele>
        <time>2026-03-15T11:42:36Z</time>
      </trkpt>
      <trkpt lat="46.01001" lon="6.57902">
        <ele>2030.107</ele>
        <time>2026-03-15T11:42:41Z</time>
      </trkpt>
      <trkpt lat="46.01001" lon="6.57902">
        <ele>2030.112</ele>
        <time>2026-03-15T11:42:46Z</time>
      </trkpt>
      <trkpt lat="46.01001" lon="6.57902">
        <ele>2030.136</ele>
        <time>2026-03-15T11:42:50Z</time>
      </trkpt>
      <trkpt lat="46.01001" lon="6.57902">
        <ele>2030.121</ele>
        <time>2026-03-15T11:42:56Z</time>
      </trkpt>
      <trkpt lat="46.01001" lon="6.57902">
        <ele>2030.117</ele>
        <time>2026-03-15T11:43:01Z</time>
      </trkpt>
      <trkpt lat="46.01001" lon="6.57902">
        <ele>2030.112</ele>
        <time>2026-03-15T11:43:06Z</time>
      </trkpt>
      <trkpt lat="46.01001" lon="6.57902">
        <ele>2030.107</ele>
        <time>2026-03-15T11:43:11Z</time>
      </trkpt>
      <trkpt lat="46.01001" lon="6.57902">
        <ele>2030.11</ele>
        <time>2026-03-15T11:43:16Z</time>
      </trkpt>
      <trkpt lat="46.01001" lon="6.57902">
        <ele>2030.113</ele>
        <time>2026-03-15T11:43:21Z</time>
      </trkpt>
      <trkpt lat="46.01001" lon="6.57902">
        <ele>2030.111</ele>
        <time>2026-03-15T11:43:26Z</time>
      </trkpt>
      <trkpt lat="46.01001" lon="6.57902">
        <ele>2030.102</ele>
        <time>2026-03-15T11:43:31Z</time>
      </trkpt>
      <trkpt lat="46.01001" lon="6.57902">
        <ele>2030.103</ele>
        <time>2026-03-15T11:43:36Z</time>
      </trkpt>
      <trkpt lat="46.01001" lon="6.57902">
        <ele>2030.104</ele>
        <time>2026-03-15T11:43:41Z</time>
      </trkpt>
      <trkpt lat="46.01001" lon="6.57902">
        <ele>2030.106</ele>
        <time>2026-03-15T11:43:46Z</time>
      </trkpt>
      <trkpt lat="46.01001" lon="6.57902">
        <ele>2030.358</ele>
        <time>2026-03-15T11:43:51Z</time>
      </trkpt>
      <trkpt lat="46.01001" lon="6.57902">
        <ele>2030.037</ele>
        <time>2026-03-15T11:43:56Z</time>
      </trkpt>
      <trkpt lat="46.01001" lon="6.57902">
        <ele>2030.065</ele>
        <time>2026-03-15T11:44:01Z</time>
      </trkpt>
      <trkpt lat="46.01001" lon="6.57902">
        <ele>2030.076</ele>
        <time>2026-03-15T11:44:06Z</time>
      </trkpt>
      <trkpt lat="46.01001" lon="6.57902">
        <ele>2030.084</ele>
        <time>2026-03-15T11:44:11Z</time>
      </trkpt>
      <trkpt lat="46.01001" lon="6.57902">
        <ele>2030.082</ele>
        <time>2026-03-15T11:44:16Z</time>
      </trkpt>
      <trkpt lat="46.01001" lon="6.57902">
        <ele>2030.104</ele>
        <time>2026-03-15T11:44:21Z</time>
      </trkpt>
      <trkpt lat="46.01001" lon="6.57902">
        <ele>2029.775</ele>
        <time>2026-03-15T11:44:26Z</time>
      </trkpt>
      <trkpt lat="46.01001" lon="6.57902">
        <ele>2029.763</ele>
        <time>2026-03-15T11:44:31Z</time>
      </trkpt>
      <trkpt lat="46.01001" lon="6.57902">
        <ele>2029.749</ele>
        <time>2026-03-15T11:44:36Z</time>
      </trkpt>
      <trkpt lat="46.01001" lon="6.57902">
        <ele>2029.74</ele>
        <time>2026-03-15T11:44:41Z</time>
      </trkpt>
      <trkpt lat="46.01001" lon="6.57902">
        <ele>2029.735</ele>
        <time>2026-03-15T11:44:46Z</time>
      </trkpt>
      <trkpt lat="46.01001" lon="6.57902">
        <ele>2029.737</ele>
        <time>2026-03-15T11:44:51Z</time>
      </trkpt>
      <trkpt lat="46.01001" lon="6.57902">
        <ele>2029.747</ele>
        <time>2026-03-15T11:44:56Z</time>
      </trkpt>
      <trkpt lat="46.01001" lon="6.57902">
        <ele>2029.762</ele>
        <time>2026-03-15T11:45:01Z</time>
      </trkpt>
      <trkpt lat="46.01001" lon="6.57902">
        <ele>2029.765</ele>
        <time>2026-03-15T11:45:06Z</time>
      </trkpt>
      <trkpt lat="46.01001" lon="6.57902">
        <ele>2029.764</ele>
        <time>2026-03-15T11:45:11Z</time>
      </trkpt>
      <trkpt lat="46.01001" lon="6.57902">
        <ele>2029.779</ele>
        <time>2026-03-15T11:45:16Z</time>
      </trkpt>
      <trkpt lat="46.01001" lon="6.57902">
        <ele>2029.791</ele>
        <time>2026-03-15T11:45:21Z</time>
      </trkpt>
      <trkpt lat="46.01001" lon="6.57902">
        <ele>2029.793</ele>
        <time>2026-03-15T11:45:26Z</time>
      </trkpt>
      <trkpt lat="46.01001" lon="6.57902">
        <ele>2029.788</ele>
        <time>2026-03-15T11:45:31Z</time>
      </trkpt>
      <trkpt lat="46.01001" lon="6.57902">
        <ele>2029.79</ele>
        <time>2026-03-15T11:45:36Z</time>
      </trkpt>
      <trkpt lat="46.01001" lon="6.57902">
        <ele>2029.798</ele>
        <time>2026-03-15T11:45:41Z</time>
      </trkpt>
      <trkpt lat="46.01001" lon="6.57902">
        <ele>2029.826</ele>
        <time>2026-03-15T11:45:46Z</time>
      </trkpt>
      <trkpt lat="46.01001" lon="6.57902">
        <ele>2029.84</ele>
        <time>2026-03-15T11:45:51Z</time>
      </trkpt>
      <trkpt lat="46.01001" lon="6.57902">
        <ele>2029.835</ele>
        <time>2026-03-15T11:45:56Z</time>
      </trkpt>
      <trkpt lat="46.01001" lon="6.57902">
        <ele>2029.836</ele>
        <time>2026-03-15T11:46:01Z</time>
      </trkpt>
      <trkpt lat="46.01001" lon="6.57902">
        <ele>2029.836</ele>
        <time>2026-03-15T11:46:06Z</time>
      </trkpt>
      <trkpt lat="46.01001" lon="6.57902">
        <ele>2029.83</ele>
        <time>2026-03-15T11:46:11Z</time>
      </trkpt>
      <trkpt lat="46.01001" lon="6.57902">
        <ele>2029.83</ele>
        <time>2026-03-15T11:46:16Z</time>
      </trkpt>
      <trkpt lat="46.01001" lon="6.57902">
        <ele>2029.836</ele>
        <time>2026-03-15T11:46:21Z</time>
      </trkpt>
      <trkpt lat="46.01001" lon="6.57902">
        <ele>2029.849</ele>
        <time>2026-03-15T11:46:26Z</time>
      </trkpt>
      <trkpt lat="46.01001" lon="6.57902">
        <ele>2029.853</ele>
        <time>2026-03-15T11:46:31Z</time>
      </trkpt>
      <trkpt lat="46.01001" lon="6.57902">
        <ele>2029.849</ele>
        <time>2026-03-15T11:46:36Z</time>
      </trkpt>
      <trkpt lat="46.01001" lon="6.57902">
        <ele>2029.849</ele>
        <time>2026-03-15T11:46:41Z</time>
      </trkpt>
      <trkpt lat="46.01001" lon="6.57902">
        <ele>2029.846</ele>
        <time>2026-03-15T11:46:46Z</time>
      </trkpt>
      <trkpt lat="46.01001" lon="6.57902">
        <ele>2029.84</ele>
        <time>2026-03-15T11:46:51Z</time>
      </trkpt>
      <trkpt lat="46.01001" lon="6.57902">
        <ele>2029.839</ele>
        <time>2026-03-15T11:46:56Z</time>
      </trkpt>
      <trkpt lat="46.01001" lon="6.57902">
        <ele>2029.862</ele>
        <time>2026-03-15T11:47:01Z</time>
      </trkpt>
      <trkpt lat="46.01001" lon="6.57902">
        <ele>2029.864</ele>
        <time>2026-03-15T11:47:06Z</time>
      </trkpt>
      <trkpt lat="46.01001" lon="6.57902">
        <ele>2029.86</ele>
        <time>2026-03-15T11:47:11Z</time>
      </trkpt>
      <trkpt lat="46.01001" lon="6.57902">
        <ele>2029.933</ele>
        <time>2026-03-15T11:47:16Z</time>
      </trkpt>
      <trkpt lat="46.01001" lon="6.57902">
        <ele>2029.93</ele>
        <time>2026-03-15T11:47:21Z</time>
      </trkpt>
      <trkpt lat="46.01001" lon="6.57902">
        <ele>2029.937</ele>
        <time>2026-03-15T11:47:26Z</time>
      </trkpt>
      <trkpt lat="46.01001" lon="6.57902">
        <ele>2029.952</ele>
        <time>2026-03-15T11:47:31Z</time>
      </trkpt>
      <trkpt lat="46.01001" lon="6.57902">
        <ele>2029.954</ele>
        <time>2026-03-15T11:47:36Z</time>
      </trkpt>
      <trkpt lat="46.01001" lon="6.57902">
        <ele>2029.97</ele>
        <time>2026-03-15T11:47:41Z</time>
      </trkpt>
      <trkpt lat="46.01001" lon="6.57902">
        <ele>2029.975</ele>
        <time>2026-03-15T11:47:46Z</time>
      </trkpt>
      <trkpt lat="46.01001" lon="6.57902">
        <ele>2029.975</ele>
        <time>2026-03-15T11:47:51Z</time>
      </trkpt>
      <trkpt lat="46.01001" lon="6.57902">
        <ele>2029.984</ele>
        <time>2026-03-15T11:47:56Z</time>
      </trkpt>
      <trkpt lat="46.01001" lon="6.57902">
        <ele>2029.998</ele>
        <time>2026-03-15T11:48:01Z</time>
      </trkpt>
      <trkpt lat="46.01001" lon="6.57902">
        <ele>2029.991</ele>
        <time>2026-03-15T11:48:06Z</time>
      </trkpt>
      <trkpt lat="46.01001" lon="6.57902">
        <ele>2029.989</ele>
        <time>2026-03-15T11:48:11Z</time>
      </trkpt>
      <trkpt lat="46.01001" lon="6.57902">
        <ele>2029.99</ele>
        <time>2026-03-15T11:48:16Z</time>
      </trkpt>
      <trkpt lat="46.01001" lon="6.57902">
        <ele>2029.986</ele>
        <time>2026-03-15T11:48:21Z</time>
      </trkpt>
      <trkpt lat="46.01001" lon="6.57902">
        <ele>2029.986</ele>
        <time>2026-03-15T11:48:26Z</time>
      </trkpt>
      <trkpt lat="46.01001" lon="6.57902">
        <ele>2029.992</ele>
        <time>2026-03-15T11:48:31Z</time>
      </trkpt>
      <trkpt lat="46.01001" lon="6.57902">
        <ele>2029.993</ele>
        <time>2026-03-15T11:48:36Z</time>
      </trkpt>
      <trkpt lat="46.01001" lon="6.57902">
        <ele>2029.999</ele>
        <time>2026-03-15T11:48:41Z</time>
      </trkpt>
      <trkpt lat="46.01001" lon="6.57902">
        <ele>2029.998</ele>
        <time>2026-03-15T11:48:46Z</time>
      </trkpt>
      <trkpt lat="46.01001" lon="6.57902">
        <ele>2030</ele>
        <time>2026-03-15T11:48:51Z</time>
      </trkpt>
      <trkpt lat="46.01001" lon="6.57902">
        <ele>2030</ele>
        <time>2026-03-15T11:48:56Z</time>
      </trkpt>
      <trkpt lat="46.01001" lon="6.57902">
        <ele>2029.994</ele>
        <time>2026-03-15T11:49:01Z</time>
      </trkpt>
      <trkpt lat="46.01001" lon="6.57902">
        <ele>2029.99</ele>
        <time>2026-03-15T11:49:06Z</time>
      </trkpt>
      <trkpt lat="46.01001" lon="6.57902">
        <ele>2029.982</ele>
        <time>2026-03-15T11:49:11Z</time>
      </trkpt>
      <trkpt lat="46.01001" lon="6.57902">
        <ele>2029.975</ele>
        <time>2026-03-15T11:49:16Z</time>
      </trkpt>
      <trkpt lat="46.01001" lon="6.57902">
        <ele>2029.975</ele>
        <time>2026-03-15T11:49:21Z</time>
      </trkpt>
      <trkpt lat="46.01001" lon="6.57902">
        <ele>2029.972</ele>
        <time>2026-03-15T11:49:26Z</time>
      </trkpt>
      <trkpt lat="46.01001" lon="6.57902">
        <ele>2029.973</ele>
        <time>2026-03-15T11:49:31Z</time>
      </trkpt>
      <trkpt lat="46.01001" lon="6.57902">
        <ele>2029.969</ele>
        <time>2026-03-15T11:49:36Z</time>
      </trkpt>
      <trkpt lat="46.01001" lon="6.57902">
        <ele>2029.966</ele>
        <time>2026-03-15T11:49:41Z</time>
      </trkpt>
      <trkpt lat="46.01001" lon="6.57902">
        <ele>2029.965</ele>
        <time>2026-03-15T11:49:46Z</time>
      </trkpt>
      <trkpt lat="46.01001" lon="6.57902">
        <ele>2029.962</ele>
        <time>2026-03-15T11:49:51Z</time>
      </trkpt>
      <trkpt lat="46.01001" lon="6.57902">
        <ele>2029.957</ele>
        <time>2026-03-15T11:49:56Z</time>
      </trkpt>
      <trkpt lat="46.01001" lon="6.57902">
        <ele>2029.949</ele>
        <time>2026-03-15T11:50:01Z</time>
      </trkpt>
      <trkpt lat="46.01001" lon="6.57902">
        <ele>2029.942</ele>
        <time>2026-03-15T11:50:06Z</time>
      </trkpt>
      <trkpt lat="46.01001" lon="6.57902">
        <ele>2029.938</ele>
        <time>2026-03-15T11:50:11Z</time>
      </trkpt>
      <trkpt lat="46.01001" lon="6.57902">
        <ele>2029.932</ele>
        <time>2026-03-15T11:50:16Z</time>
      </trkpt>
      <trkpt lat="46.01001" lon="6.57902">
        <ele>2029.927</ele>
        <time>2026-03-15T11:50:21Z</time>
      </trkpt>
      <trkpt lat="46.01001" lon="6.57902">
        <ele>2029.924</ele>
        <time>2026-03-15T11:50:26Z</time>
      </trkpt>
      <trkpt lat="46.01001" lon="6.57902">
        <ele>2029.924</ele>
        <time>2026-03-15T11:50:31Z</time>
      </trkpt>
      <trkpt lat="46.01001" lon="6.57902">
        <ele>2029.92</ele>
        <time>2026-03-15T11:50:36Z</time>
      </trkpt>
      <trkpt lat="46.01001" lon="6.57902">
        <ele>2029.909</ele>
        <time>2026-03-15T11:50:41Z</time>
      </trkpt>
      <trkpt lat="46.01001" lon="6.57902">
        <ele>2029.901</ele>
        <time>2026-03-15T11:50:46Z</time>
      </trkpt>
      <trkpt lat="46.01001" lon="6.57902">
        <ele>2029.901</ele>
        <time>2026-03-15T11:50:51Z</time>
      </trkpt>
      <trkpt lat="46.01001" lon="6.57902">
        <ele>2029.899</ele>
        <time>2026-03-15T11:50:56Z</time>
      </trkpt>
      <trkpt lat="46.01001" lon="6.57902">
        <ele>2029.904</ele>
        <time>2026-03-15T11:51:01Z</time>
      </trkpt>
      <trkpt lat="46.01001" lon="6.57902">
        <ele>2029.913</ele>
        <time>2026-03-15T11:51:06Z</time>
      </trkpt>
      <trkpt lat="46.01001" lon="6.57902">
        <ele>2029.908</ele>
        <time>2026-03-15T11:51:11Z</time>
      </trkpt>
      <trkpt lat="46.01001" lon="6.57902">
        <ele>2029.907</ele>
        <time>2026-03-15T11:51:16Z</time>
      </trkpt>
      <trkpt lat="46.01001" lon="6.57902">
        <ele>2029.902</ele>
        <time>2026-03-15T11:51:21Z</time>
      </trkpt>
      <trkpt lat="46.01001" lon="6.57902">
        <ele>2029.91</ele>
        <time>2026-03-15T11:51:26Z</time>
      </trkpt>
      <trkpt lat="46.01001" lon="6.57902">
        <ele>2029.912</ele>
        <time>2026-03-15T11:51:31Z</time>
      </trkpt>
      <trkpt lat="46.01001" lon="6.57902">
        <ele>2029.912</ele>
        <time>2026-03-15T11:51:36Z</time>
      </trkpt>
      <trkpt lat="46.01001" lon="6.57902">
        <ele>2029.909</ele>
        <time>2026-03-15T11:51:41Z</time>
      </trkpt>
      <trkpt lat="46.01001" lon="6.57902">
        <ele>2029.904</ele>
        <time>2026-03-15T11:51:46Z</time>
      </trkpt>
      <trkpt lat="46.01001" lon="6.57902">
        <ele>2029.897</ele>
        <time>2026-03-15T11:51:51Z</time>
      </trkpt>
      <trkpt lat="46.01001" lon="6.57902">
        <ele>2029.889</ele>
        <time>2026-03-15T11:51:56Z</time>
      </trkpt>
      <trkpt lat="46.01001" lon="6.57902">
        <ele>2029.881</ele>
        <time>2026-03-15T11:52:01Z</time>
      </trkpt>
      <trkpt lat="46.01001" lon="6.57902">
        <ele>2029.878</ele>
        <time>2026-03-15T11:52:06Z</time>
      </trkpt>
      <trkpt lat="46.01001" lon="6.57902">
        <ele>2029.876</ele>
        <time>2026-03-15T11:52:11Z</time>
      </trkpt>
      <trkpt lat="46.01001" lon="6.57902">
        <ele>2029.87</ele>
        <time>2026-03-15T11:52:16Z</time>
      </trkpt>
      <trkpt lat="46.01001" lon="6.57902">
        <ele>2029.859</ele>
        <time>2026-03-15T11:52:21Z</time>
      </trkpt>
      <trkpt lat="46.01001" lon="6.57902">
        <ele>2029.853</ele>
        <time>2026-03-15T11:52:26Z</time>
      </trkpt>
      <trkpt lat="46.01001" lon="6.57902">
        <ele>2029.85</ele>
        <time>2026-03-15T11:52:31Z</time>
      </trkpt>
      <trkpt lat="46.01001" lon="6.57902">
        <ele>2029.846</ele>
        <time>2026-03-15T11:52:36Z</time>
      </trkpt>
      <trkpt lat="46.01001" lon="6.57902">
        <ele>2029.84</ele>
        <time>2026-03-15T11:52:41Z</time>
      </trkpt>
      <trkpt lat="46.01001" lon="6.57902">
        <ele>2029.831</ele>
        <time>2026-03-15T11:52:46Z</time>
      </trkpt>
      <trkpt lat="46.01001" lon="6.57902">
        <ele>2029.819</ele>
        <time>2026-03-15T11:52:51Z</time>
      </trkpt>
      <trkpt lat="46.01001" lon="6.57902">
        <ele>2029.81</ele>
        <time>2026-03-15T11:52:56Z</time>
      </trkpt>
      <trkpt lat="46.01001" lon="6.57902">
        <ele>2027.246</ele>
        <time>2026-03-15T11:53:01Z</time>
      </trkpt>
      <trkpt lat="46.01001" lon="6.57902">
        <ele>2027.39</ele>
        <time>2026-03-15T11:53:06Z</time>
      </trkpt>
      <trkpt lat="46.01001" lon="6.57902">
        <ele>2027.441</ele>
        <time>2026-03-15T11:53:11Z</time>
      </trkpt>
      <trkpt lat="46.01001" lon="6.57902">
        <ele>2027.233</ele>
        <time>2026-03-15T11:53:16Z</time>
      </trkpt>
      <trkpt lat="46.01001" lon="6.57902">
        <ele>2026.971</ele>
        <time>2026-03-15T11:53:21Z</time>
      </trkpt>
      <trkpt lat="46.01001" lon="6.57902">
        <ele>2026.957</ele>
        <time>2026-03-15T11:53:26Z</time>
      </trkpt>
      <trkpt lat="46.01001" lon="6.57902">
        <ele>2026.955</ele>
        <time>2026-03-15T11:53:31Z</time>
      </trkpt>
      <trkpt lat="46.01001" lon="6.57902">
        <ele>2026.96</ele>
        <time>2026-03-15T11:53:36Z</time>
      </trkpt>
      <trkpt lat="46.01001" lon="6.57902">
        <ele>2026.991</ele>
        <time>2026-03-15T11:53:41Z</time>
      </trkpt>
      <trkpt lat="46.01001" lon="6.57902">
        <ele>2026.991</ele>
        <time>2026-03-15T11:53:46Z</time>
      </trkpt>
      <trkpt lat="46.01001" lon="6.57902">
        <ele>2026.988</ele>
        <time>2026-03-15T11:53:51Z</time>
      </trkpt>
      <trkpt lat="46.01001" lon="6.57902">
        <ele>2026.986</ele>
        <time>2026-03-15T11:53:56Z</time>
      </trkpt>
      <trkpt lat="46.01001" lon="6.57902">
        <ele>2026.988</ele>
        <time>2026-03-15T11:54:01Z</time>
      </trkpt>
      <trkpt lat="46.01001" lon="6.57902">
        <ele>2026.99</ele>
        <time>2026-03-15T11:54:06Z</time>
      </trkpt>
      <trkpt lat="46.01001" lon="6.57902">
        <ele>2026.987</ele>
        <time>2026-03-15T11:54:11Z</time>
      </trkpt>
      <trkpt lat="46.01001" lon="6.57902">
        <ele>2026.98</ele>
        <time>2026-03-15T11:54:16Z</time>
      </trkpt>
      <trkpt lat="46.01001" lon="6.57902">
        <ele>2026.998</ele>
        <time>2026-03-15T11:54:21Z</time>
      </trkpt>
      <trkpt lat="46.01001" lon="6.57902">
        <ele>2026.998</ele>
        <time>2026-03-15T11:54:26Z</time>
      </trkpt>
      <trkpt lat="46.01001" lon="6.57902">
        <ele>2026.997</ele>
        <time>2026-03-15T11:54:31Z</time>
      </trkpt>
      <trkpt lat="46.01001" lon="6.57902">
        <ele>2026.993</ele>
        <time>2026-03-15T11:54:36Z</time>
      </trkpt>
      <trkpt lat="46.01001" lon="6.57902">
        <ele>2026.99</ele>
        <time>2026-03-15T11:54:41Z</time>
      </trkpt>
      <trkpt lat="46.01001" lon="6.57902">
        <ele>2026.992</ele>
        <time>2026-03-15T11:54:46Z</time>
      </trkpt>
      <trkpt lat="46.01001" lon="6.57902">
        <ele>2026.993</ele>
        <time>2026-03-15T11:54:51Z</time>
      </trkpt>
      <trkpt lat="46.01001" lon="6.57902">
        <ele>2026.993</ele>
        <time>2026-03-15T11:54:56Z</time>
      </trkpt>
      <trkpt lat="46.01001" lon="6.57902">
        <ele>2027.003</ele>
        <time>2026-03-15T11:55:01Z</time>
      </trkpt>
      <trkpt lat="46.01001" lon="6.57902">
        <ele>2027.004</ele>
        <time>2026-03-15T11:55:06Z</time>
      </trkpt>
      <trkpt lat="46.01001" lon="6.57902">
        <ele>2026.996</ele>
        <time>2026-03-15T11:55:11Z</time>
      </trkpt>
      <trkpt lat="46.01001" lon="6.57902">
        <ele>2027.015</ele>
        <time>2026-03-15T11:55:16Z</time>
      </trkpt>
      <trkpt lat="46.01001" lon="6.57902">
        <ele>2027.012</ele>
        <time>2026-03-15T11:55:21Z</time>
      </trkpt>
      <trkpt lat="46.01001" lon="6.57902">
        <ele>2027.01</ele>
        <time>2026-03-15T11:55:26Z</time>
      </trkpt>
      <trkpt lat="46.01001" lon="6.57902">
        <ele>2027.01</ele>
        <time>2026-03-15T11:55:31Z</time>
      </trkpt>
      <trkpt lat="46.01001" lon="6.57902">
        <ele>2027.008</ele>
        <time>2026-03-15T11:55:36Z</time>
      </trkpt>
      <trkpt lat="46.01001" lon="6.57902">
        <ele>2027.006</ele>
        <time>2026-03-15T11:55:41Z</time>
      </trkpt>
      <trkpt lat="46.01001" lon="6.57902">
        <ele>2027.007</ele>
        <time>2026-03-15T11:55:46Z</time>
      </trkpt>
      <trkpt lat="46.01001" lon="6.57902">
        <ele>2027.008</ele>
        <time>2026-03-15T11:55:51Z</time>
      </trkpt>
      <trkpt lat="46.01001" lon="6.57902">
        <ele>2027.012</ele>
        <time>2026-03-15T11:55:56Z</time>
      </trkpt>
      <trkpt lat="46.01001" lon="6.57902">
        <ele>2027.012</ele>
        <time>2026-03-15T11:56:01Z</time>
      </trkpt>
      <trkpt lat="46.01001" lon="6.57902">
        <ele>2027.014</ele>
        <time>2026-03-15T11:56:06Z</time>
      </trkpt>
      <trkpt lat="46.01001" lon="6.57902">
        <ele>2027.015</ele>
        <time>2026-03-15T11:56:11Z</time>
      </trkpt>
      <trkpt lat="46.01001" lon="6.57902">
        <ele>2027.027</ele>
        <time>2026-03-15T11:56:16Z</time>
      </trkpt>
      <trkpt lat="46.01001" lon="6.57902">
        <ele>2027.028</ele>
        <time>2026-03-15T11:56:21Z</time>
      </trkpt>
      <trkpt lat="46.01001" lon="6.57902">
        <ele>2027.027</ele>
        <time>2026-03-15T11:56:26Z</time>
      </trkpt>
      <trkpt lat="46.01001" lon="6.57902">
        <ele>2027.034</ele>
        <time>2026-03-15T11:56:31Z</time>
      </trkpt>
      <trkpt lat="46.01001" lon="6.57902">
        <ele>2027.035</ele>
        <time>2026-03-15T11:56:36Z</time>
      </trkpt>
      <trkpt lat="46.01001" lon="6.57902">
        <ele>2027.05</ele>
        <time>2026-03-15T11:56:41Z</time>
      </trkpt>
      <trkpt lat="46.01001" lon="6.57902">
        <ele>2027.068</ele>
        <time>2026-03-15T11:56:46Z</time>
      </trkpt>
      <trkpt lat="46.01001" lon="6.57902">
        <ele>2027.078</ele>
        <time>2026-03-15T11:56:51Z</time>
      </trkpt>
      <trkpt lat="46.01001" lon="6.57902">
        <ele>2027.087</ele>
        <time>2026-03-15T11:56:56Z</time>
      </trkpt>
      <trkpt lat="46.01001" lon="6.57902">
        <ele>2027.084</ele>
        <time>2026-03-15T11:57:01Z</time>
      </trkpt>
      <trkpt lat="46.01001" lon="6.57902">
        <ele>2027.084</ele>
        <time>2026-03-15T11:57:06Z</time>
      </trkpt>
      <trkpt lat="46.01001" lon="6.57902">
        <ele>2027.095</ele>
        <time>2026-03-15T11:57:11Z</time>
      </trkpt>
      <trkpt lat="46.01001" lon="6.57902">
        <ele>2027.105</ele>
        <time>2026-03-15T11:57:16Z</time>
      </trkpt>
      <trkpt lat="46.01001" lon="6.57902">
        <ele>2027.128</ele>
        <time>2026-03-15T11:57:21Z</time>
      </trkpt>
      <trkpt lat="46.01001" lon="6.57902">
        <ele>2027.134</ele>
        <time>2026-03-15T11:57:26Z</time>
      </trkpt>
      <trkpt lat="46.01001" lon="6.57902">
        <ele>2027.141</ele>
        <time>2026-03-15T11:57:31Z</time>
      </trkpt>
      <trkpt lat="46.01001" lon="6.57902">
        <ele>2027.145</ele>
        <time>2026-03-15T11:57:36Z</time>
      </trkpt>
      <trkpt lat="46.01001" lon="6.57902">
        <ele>2027.159</ele>
        <time>2026-03-15T11:57:41Z</time>
      </trkpt>
      <trkpt lat="46.01001" lon="6.57902">
        <ele>2027.168</ele>
        <time>2026-03-15T11:57:46Z</time>
      </trkpt>
      <trkpt lat="46.01001" lon="6.57902">
        <ele>2027.174</ele>
        <time>2026-03-15T11:57:51Z</time>
      </trkpt>
      <trkpt lat="46.01001" lon="6.57902">
        <ele>2027.18</ele>
        <time>2026-03-15T11:57:56Z</time>
      </trkpt>
      <trkpt lat="46.01001" lon="6.57902">
        <ele>2027.18</ele>
        <time>2026-03-15T11:58:01Z</time>
      </trkpt>
      <trkpt lat="46.01001" lon="6.57902">
        <ele>2027.186</ele>
        <time>2026-03-15T11:58:06Z</time>
      </trkpt>
      <trkpt lat="46.01001" lon="6.57902">
        <ele>2027.188</ele>
        <time>2026-03-15T11:58:11Z</time>
      </trkpt>
      <trkpt lat="46.01001" lon="6.57902">
        <ele>2027.185</ele>
        <time>2026-03-15T11:58:16Z</time>
      </trkpt>
      <trkpt lat="46.01001" lon="6.57902">
        <ele>2027.186</ele>
        <time>2026-03-15T11:58:21Z</time>
      </trkpt>
      <trkpt lat="46.01001" lon="6.57902">
        <ele>2027.192</ele>
        <time>2026-03-15T11:58:26Z</time>
      </trkpt>
      <trkpt lat="46.01001" lon="6.57902">
        <ele>2027.192</ele>
        <time>2026-03-15T11:58:31Z</time>
      </trkpt>
      <trkpt lat="46.01001" lon="6.57902">
        <ele>2027.193</ele>
        <time>2026-03-15T11:58:36Z</time>
      </trkpt>
      <trkpt lat="46.01001" lon="6.57902">
        <ele>2027.195</ele>
        <time>2026-03-15T11:58:41Z</time>
      </trkpt>
      <trkpt lat="46.01001" lon="6.57902">
        <ele>2027.195</ele>
        <time>2026-03-15T11:58:46Z</time>
      </trkpt>
      <trkpt lat="46.01001" lon="6.57902">
        <ele>2027.195</ele>
        <time>2026-03-15T11:58:51Z</time>
      </trkpt>
      <trkpt lat="46.01001" lon="6.57902">
        <ele>2027.192</ele>
        <time>2026-03-15T11:58:56Z</time>
      </trkpt>
      <trkpt lat="46.01001" lon="6.57902">
        <ele>2027.19</ele>
        <time>2026-03-15T11:59:01Z</time>
      </trkpt>
      <trkpt lat="46.01001" lon="6.57902">
        <ele>2027.396</ele>
        <time>2026-03-15T11:59:06Z</time>
      </trkpt>
      <trkpt lat="46.01001" lon="6.57902">
        <ele>2027.065</ele>
        <time>2026-03-15T11:59:11Z</time>
      </trkpt>
      <trkpt lat="46.01001" lon="6.57902">
        <ele>2027.193</ele>
        <time>2026-03-15T11:59:16Z</time>
      </trkpt>
      <trkpt lat="46.01001" lon="6.57902">
        <ele>2027.198</ele>
        <time>2026-03-15T11:59:21Z</time>
      </trkpt>
      <trkpt lat="46.01001" lon="6.57902">
        <ele>2027.153</ele>
        <time>2026-03-15T11:59:26Z</time>
      </trkpt>
      <trkpt lat="46.01001" lon="6.57902">
        <ele>2027.131</ele>
        <time>2026-03-15T11:59:31Z</time>
      </trkpt>
      <trkpt lat="46.01001" lon="6.57902">
        <ele>2027.122</ele>
        <time>2026-03-15T11:59:36Z</time>
      </trkpt>
      <trkpt lat="46.01001" lon="6.57902">
        <ele>2027.117</ele>
        <time>2026-03-15T11:59:41Z</time>
      </trkpt>
      <trkpt lat="46.01001" lon="6.57902">
        <ele>2027.113</ele>
        <time>2026-03-15T11:59:46Z</time>
      </trkpt>
      <trkpt lat="46.01001" lon="6.57902">
        <ele>2027.11</ele>
        <time>2026-03-15T11:59:51Z</time>
      </trkpt>
      <trkpt lat="46.01001" lon="6.57902">
        <ele>2027.107</ele>
        <time>2026-03-15T11:59:56Z</time>
      </trkpt>
      <trkpt lat="46.01001" lon="6.57902">
        <ele>2027.1</ele>
        <time>2026-03-15T12:00:01Z</time>
      </trkpt>
      <trkpt lat="46.01001" lon="6.57902">
        <ele>2027.095</ele>
        <time>2026-03-15T12:00:06Z</time>
      </trkpt>
      <trkpt lat="46.01001" lon="6.57902">
        <ele>2027.089</ele>
        <time>2026-03-15T12:00:11Z</time>
      </trkpt>
      <trkpt lat="46.01001" lon="6.57902">
        <ele>2025.73</ele>
        <time>2026-03-15T12:00:16Z</time>
      </trkpt>
      <trkpt lat="46.01001" lon="6.57902">
        <ele>2025.211</ele>
        <time>2026-03-15T12:00:21Z</time>
      </trkpt>
      <trkpt lat="46.01001" lon="6.57902">
        <ele>2025.04</ele>
        <time>2026-03-15T12:00:26Z</time>
      </trkpt>
      <trkpt lat="46.01001" lon="6.57902">
        <ele>2024.99</ele>
        <time>2026-03-15T12:00:31Z</time>
      </trkpt>
      <trkpt lat="46.01001" lon="6.57902">
        <ele>2024.981</ele>
        <time>2026-03-15T12:00:36Z</time>
      </trkpt>
      <trkpt lat="46.01001" lon="6.57902">
        <ele>2024.981</ele>
        <time>2026-03-15T12:00:41Z</time>
      </trkpt>
      <trkpt lat="46.01001" lon="6.57902">
        <ele>2024.983</ele>
        <time>2026-03-15T12:00:46Z</time>
      </trkpt>
      <trkpt lat="46.01001" lon="6.57902">
        <ele>2024.99</ele>
        <time>2026-03-15T12:00:51Z</time>
      </trkpt>
      <trkpt lat="46.01001" lon="6.57902">
        <ele>2025.017</ele>
        <time>2026-03-15T12:00:56Z</time>
      </trkpt>
      <trkpt lat="46.01001" lon="6.57902">
        <ele>2025.045</ele>
        <time>2026-03-15T12:01:01Z</time>
      </trkpt>
      <trkpt lat="46.01001" lon="6.57902">
        <ele>2025.056</ele>
        <time>2026-03-15T12:01:06Z</time>
      </trkpt>
      <trkpt lat="46.01001" lon="6.57902">
        <ele>2025.118</ele>
        <time>2026-03-15T12:01:11Z</time>
      </trkpt>
      <trkpt lat="46.01001" lon="6.57902">
        <ele>2025.124</ele>
        <time>2026-03-15T12:01:16Z</time>
      </trkpt>
      <trkpt lat="46.01001" lon="6.57902">
        <ele>2025.126</ele>
        <time>2026-03-15T12:01:21Z</time>
      </trkpt>
      <trkpt lat="46.01001" lon="6.57902">
        <ele>2025.133</ele>
        <time>2026-03-15T12:01:26Z</time>
      </trkpt>
      <trkpt lat="46.01001" lon="6.57902">
        <ele>2025.142</ele>
        <time>2026-03-15T12:01:31Z</time>
      </trkpt>
      <trkpt lat="46.01001" lon="6.57902">
        <ele>2025.143</ele>
        <time>2026-03-15T12:01:36Z</time>
      </trkpt>
      <trkpt lat="46.01001" lon="6.57902">
        <ele>2025.173</ele>
        <time>2026-03-15T12:01:41Z</time>
      </trkpt>
      <trkpt lat="46.01001" lon="6.57902">
        <ele>2025.182</ele>
        <time>2026-03-15T12:01:46Z</time>
      </trkpt>
      <trkpt lat="46.01001" lon="6.57902">
        <ele>2025.186</ele>
        <time>2026-03-15T12:01:51Z</time>
      </trkpt>
      <trkpt lat="46.01001" lon="6.57902">
        <ele>2025.191</ele>
        <time>2026-03-15T12:01:56Z</time>
      </trkpt>
      <trkpt lat="46.01001" lon="6.57902">
        <ele>2025.317</ele>
        <time>2026-03-15T12:02:01Z</time>
      </trkpt>
      <trkpt lat="46.01001" lon="6.57902">
        <ele>2025.048</ele>
        <time>2026-03-15T12:02:06Z</time>
      </trkpt>
      <trkpt lat="46.01001" lon="6.57902">
        <ele>2025.003</ele>
        <time>2026-03-15T12:02:11Z</time>
      </trkpt>
      <trkpt lat="46.01001" lon="6.57902">
        <ele>2025.004</ele>
        <time>2026-03-15T12:02:16Z</time>
      </trkpt>
      <trkpt lat="46.01001" lon="6.57902">
        <ele>2025.006</ele>
        <time>2026-03-15T12:02:21Z</time>
      </trkpt>
      <trkpt lat="46.01001" lon="6.57902">
        <ele>2025.011</ele>
        <time>2026-03-15T12:02:26Z</time>
      </trkpt>
      <trkpt lat="46.01001" lon="6.57902">
        <ele>2024.48</ele>
        <time>2026-03-15T12:02:31Z</time>
      </trkpt>
      <trkpt lat="46.01001" lon="6.57902">
        <ele>2025.097</ele>
        <time>2026-03-15T12:02:36Z</time>
      </trkpt>
      <trkpt lat="46.01001" lon="6.57902">
        <ele>2025.173</ele>
        <time>2026-03-15T12:02:41Z</time>
      </trkpt>
      <trkpt lat="46.00998" lon="6.57905">
        <ele>2025.403</ele>
        <time>2026-03-15T12:02:46Z</time>
      </trkpt>
      <trkpt lat="46.00998" lon="6.57905">
        <ele>2025.773</ele>
        <time>2026-03-15T12:02:51Z</time>
      </trkpt>
      <trkpt lat="46.00998" lon="6.57907">
        <ele>2024.694</ele>
        <time>2026-03-15T12:02:56Z</time>
      </trkpt>
      <trkpt lat="46.00996" lon="6.57917">
        <ele>2024.302</ele>
        <time>2026-03-15T12:03:01Z</time>
      </trkpt>
      <trkpt lat="46.00992" lon="6.57932">
        <ele>2023.232</ele>
        <time>2026-03-15T12:03:06Z</time>
      </trkpt>
      <trkpt lat="46.0099" lon="6.57941">
        <ele>2022.479</ele>
        <time>2026-03-15T12:03:11Z</time>
      </trkpt>
      <trkpt lat="46.00988" lon="6.57949">
        <ele>2022.041</ele>
        <time>2026-03-15T12:03:16Z</time>
      </trkpt>
      <trkpt lat="46.00986" lon="6.57953">
        <ele>2021.819</ele>
        <time>2026-03-15T12:03:21Z</time>
      </trkpt>
      <trkpt lat="46.00985" lon="6.57958">
        <ele>2021.402</ele>
        <time>2026-03-15T12:03:26Z</time>
      </trkpt>
      <trkpt lat="46.00981" lon="6.57972">
        <ele>2020.147</ele>
        <time>2026-03-15T12:03:31Z</time>
      </trkpt>
      <trkpt lat="46.00975" lon="6.57992">
        <ele>2019.396</ele>
        <time>2026-03-15T12:03:36Z</time>
      </trkpt>
      <trkpt lat="46.00971" lon="6.58003">
        <ele>2018.836</ele>
        <time>2026-03-15T12:03:41Z</time>
      </trkpt>
      <trkpt lat="46.00969" lon="6.58014">
        <ele>2017.984</ele>
        <time>2026-03-15T12:03:46Z</time>
      </trkpt>
      <trkpt lat="46.00965" lon="6.58029">
        <ele>2017.473</ele>
        <time>2026-03-15T12:03:51Z</time>
      </trkpt>
      <trkpt lat="46.00962" lon="6.58042">
        <ele>2017.114</ele>
        <time>2026-03-15T12:03:56Z</time>
      </trkpt>
      <trkpt lat="46.00957" lon="6.58061">
        <ele>2016.59</ele>
        <time>2026-03-15T12:04:01Z</time>
      </trkpt>
      <trkpt lat="46.00953" lon="6.58075">
        <ele>2016.572</ele>
        <time>2026-03-15T12:04:06Z</time>
      </trkpt>
      <trkpt lat="46.0095" lon="6.58086">
        <ele>2016.359</ele>
        <time>2026-03-15T12:04:11Z</time>
      </trkpt>
      <trkpt lat="46.00949" lon="6.58095">
        <ele>2015.833</ele>
        <time>2026-03-15T12:04:16Z</time>
      </trkpt>
      <trkpt lat="46.00947" lon="6.58101">
        <ele>2015.207</ele>
        <time>2026-03-15T12:04:21Z</time>
      </trkpt>
      <trkpt lat="46.00945" lon="6.58109">
        <ele>2014.957</ele>
        <time>2026-03-15T12:04:26Z</time>
      </trkpt>
      <trkpt lat="46.00942" lon="6.58118">
        <ele>2015.568</ele>
        <time>2026-03-15T12:04:31Z</time>
      </trkpt>
      <trkpt lat="46.0094" lon="6.58128">
        <ele>2015.533</ele>
        <time>2026-03-15T12:04:36Z</time>
      </trkpt>
      <trkpt lat="46.00938" lon="6.58137">
        <ele>2015.022</ele>
        <time>2026-03-15T12:04:41Z</time>
      </trkpt>
      <trkpt lat="46.00936" lon="6.5815">
        <ele>2013.744</ele>
        <time>2026-03-15T12:04:46Z</time>
      </trkpt>
      <trkpt lat="46.00934" lon="6.58166">
        <ele>2012.712</ele>
        <time>2026-03-15T12:04:51Z</time>
      </trkpt>
      <trkpt lat="46.00934" lon="6.58173">
        <ele>2011.506</ele>
        <time>2026-03-15T12:04:56Z</time>
      </trkpt>
      <trkpt lat="46.00935" lon="6.58184">
        <ele>2010.719</ele>
        <time>2026-03-15T12:05:01Z</time>
      </trkpt>
      <trkpt lat="46.00937" lon="6.58195">
        <ele>2009.255</ele>
        <time>2026-03-15T12:05:06Z</time>
      </trkpt>
      <trkpt lat="46.00937" lon="6.58195">
        <ele>2009.219</ele>
        <time>2026-03-15T12:05:11Z</time>
      </trkpt>
      <trkpt lat="46.00937" lon="6.58195">
        <ele>2009.296</ele>
        <time>2026-03-15T12:05:16Z</time>
      </trkpt>
      <trkpt lat="46.00937" lon="6.58195">
        <ele>2009.749</ele>
        <time>2026-03-15T12:05:21Z</time>
      </trkpt>
      <trkpt lat="46.00937" lon="6.58195">
        <ele>2009.771</ele>
        <time>2026-03-15T12:05:26Z</time>
      </trkpt>
      <trkpt lat="46.00937" lon="6.58195">
        <ele>2009.772</ele>
        <time>2026-03-15T12:05:31Z</time>
      </trkpt>
      <trkpt lat="46.00937" lon="6.58195">
        <ele>2009.775</ele>
        <time>2026-03-15T12:05:36Z</time>
      </trkpt>
      <trkpt lat="46.00937" lon="6.58195">
        <ele>2009.779</ele>
        <time>2026-03-15T12:05:41Z</time>
      </trkpt>
      <trkpt lat="46.00937" lon="6.58195">
        <ele>2009.779</ele>
        <time>2026-03-15T12:05:46Z</time>
      </trkpt>
      <trkpt lat="46.00937" lon="6.58195">
        <ele>2009.782</ele>
        <time>2026-03-15T12:05:51Z</time>
      </trkpt>
      <trkpt lat="46.00937" lon="6.58195">
        <ele>2009.782</ele>
        <time>2026-03-15T12:05:56Z</time>
      </trkpt>
      <trkpt lat="46.00937" lon="6.58195">
        <ele>2009.782</ele>
        <time>2026-03-15T12:06:01Z</time>
      </trkpt>
      <trkpt lat="46.00937" lon="6.58195">
        <ele>2009.786</ele>
        <time>2026-03-15T12:06:06Z</time>
      </trkpt>
      <trkpt lat="46.00937" lon="6.58195">
        <ele>2009.795</ele>
        <time>2026-03-15T12:06:11Z</time>
      </trkpt>
      <trkpt lat="46.00937" lon="6.58195">
        <ele>2009.797</ele>
        <time>2026-03-15T12:06:16Z</time>
      </trkpt>
      <trkpt lat="46.00937" lon="6.58195">
        <ele>2009.8</ele>
        <time>2026-03-15T12:06:21Z</time>
      </trkpt>
      <trkpt lat="46.00937" lon="6.58195">
        <ele>2009.801</ele>
        <time>2026-03-15T12:06:26Z</time>
      </trkpt>
      <trkpt lat="46.00937" lon="6.58195">
        <ele>2009.808</ele>
        <time>2026-03-15T12:06:31Z</time>
      </trkpt>
      <trkpt lat="46.00937" lon="6.58195">
        <ele>2009.812</ele>
        <time>2026-03-15T12:06:36Z</time>
      </trkpt>
      <trkpt lat="46.00937" lon="6.58195">
        <ele>2009.813</ele>
        <time>2026-03-15T12:06:41Z</time>
      </trkpt>
      <trkpt lat="46.00937" lon="6.58195">
        <ele>2009.813</ele>
        <time>2026-03-15T12:06:46Z</time>
      </trkpt>
      <trkpt lat="46.00937" lon="6.58195">
        <ele>2009.812</ele>
        <time>2026-03-15T12:06:51Z</time>
      </trkpt>
      <trkpt lat="46.00937" lon="6.58195">
        <ele>2009.812</ele>
        <time>2026-03-15T12:06:56Z</time>
      </trkpt>
      <trkpt lat="46.00937" lon="6.58195">
        <ele>2009.812</ele>
        <time>2026-03-15T12:07:01Z</time>
      </trkpt>
      <trkpt lat="46.00937" lon="6.58195">
        <ele>2009.813</ele>
        <time>2026-03-15T12:07:06Z</time>
      </trkpt>
      <trkpt lat="46.00937" lon="6.58195">
        <ele>2009.817</ele>
        <time>2026-03-15T12:07:11Z</time>
      </trkpt>
      <trkpt lat="46.00937" lon="6.58195">
        <ele>2009.825</ele>
        <time>2026-03-15T12:07:16Z</time>
      </trkpt>
      <trkpt lat="46.00937" lon="6.58195">
        <ele>2009.829</ele>
        <time>2026-03-15T12:07:21Z</time>
      </trkpt>
      <trkpt lat="46.00937" lon="6.58195">
        <ele>2009.833</ele>
        <time>2026-03-15T12:07:26Z</time>
      </trkpt>
      <trkpt lat="46.00937" lon="6.58195">
        <ele>2009.833</ele>
        <time>2026-03-15T12:07:31Z</time>
      </trkpt>
      <trkpt lat="46.00937" lon="6.58195">
        <ele>2009.84</ele>
        <time>2026-03-15T12:07:36Z</time>
      </trkpt>
      <trkpt lat="46.00937" lon="6.58195">
        <ele>2009.839</ele>
        <time>2026-03-15T12:07:41Z</time>
      </trkpt>
      <trkpt lat="46.00937" lon="6.58195">
        <ele>2009.84</ele>
        <time>2026-03-15T12:07:46Z</time>
      </trkpt>
      <trkpt lat="46.00937" lon="6.58195">
        <ele>2009.84</ele>
        <time>2026-03-15T12:07:51Z</time>
      </trkpt>
      <trkpt lat="46.00937" lon="6.58195">
        <ele>2009.841</ele>
        <time>2026-03-15T12:07:56Z</time>
      </trkpt>
      <trkpt lat="46.00937" lon="6.58195">
        <ele>2009.844</ele>
        <time>2026-03-15T12:08:01Z</time>
      </trkpt>
      <trkpt lat="46.00937" lon="6.58195">
        <ele>2009.847</ele>
        <time>2026-03-15T12:08:06Z</time>
      </trkpt>
      <trkpt lat="46.00937" lon="6.58195">
        <ele>2009.85</ele>
        <time>2026-03-15T12:08:11Z</time>
      </trkpt>
      <trkpt lat="46.00937" lon="6.58195">
        <ele>2009.983</ele>
        <time>2026-03-15T12:08:16Z</time>
      </trkpt>
      <trkpt lat="46.00937" lon="6.58195">
        <ele>2009.971</ele>
        <time>2026-03-15T12:08:21Z</time>
      </trkpt>
      <trkpt lat="46.00942" lon="6.58199">
        <ele>2010.111</ele>
        <time>2026-03-15T12:08:26Z</time>
      </trkpt>
      <trkpt lat="46.00944" lon="6.582">
        <ele>2009.579</ele>
        <time>2026-03-15T12:08:31Z</time>
      </trkpt>
      <trkpt lat="46.00952" lon="6.58206">
        <ele>2008.373</ele>
        <time>2026-03-15T12:08:36Z</time>
      </trkpt>
      <trkpt lat="46.00959" lon="6.58204">
        <ele>2007.523</ele>
        <time>2026-03-15T12:08:41Z</time>
      </trkpt>
      <trkpt lat="46.00962" lon="6.58203">
        <ele>2007.253</ele>
        <time>2026-03-15T12:08:46Z</time>
      </trkpt>
      <trkpt lat="46.00962" lon="6.58203">
        <ele>2007.161</ele>
        <time>2026-03-15T12:08:51Z</time>
      </trkpt>
      <trkpt lat="46.00962" lon="6.58203">
        <ele>2006.132</ele>
        <time>2026-03-15T12:08:56Z</time>
      </trkpt>
      <trkpt lat="46.00962" lon="6.58203">
        <ele>2003.691</ele>
        <time>2026-03-15T12:09:01Z</time>
      </trkpt>
      <trkpt lat="46.00962" lon="6.58203">
        <ele>2003.408</ele>
        <time>2026-03-15T12:09:06Z</time>
      </trkpt>
      <trkpt lat="46.00969" lon="6.58219">
        <ele>2002.71</ele>
        <time>2026-03-15T12:09:11Z</time>
      </trkpt>
      <trkpt lat="46.00975" lon="6.58227">
        <ele>1999.758</ele>
        <time>2026-03-15T12:09:16Z</time>
      </trkpt>
      <trkpt lat="46.00984" lon="6.58222">
        <ele>1996.855</ele>
        <time>2026-03-15T12:09:21Z</time>
      </trkpt>
      <trkpt lat="46.00984" lon="6.58222">
        <ele>1995.119</ele>
        <time>2026-03-15T12:09:26Z</time>
      </trkpt>
      <trkpt lat="46.00993" lon="6.58215">
        <ele>1992.748</ele>
        <time>2026-03-15T12:09:31Z</time>
      </trkpt>
      <trkpt lat="46.00996" lon="6.58203">
        <ele>1991.703</ele>
        <time>2026-03-15T12:09:36Z</time>
      </trkpt>
      <trkpt lat="46.01001" lon="6.58196">
        <ele>1988.737</ele>
        <time>2026-03-15T12:09:41Z</time>
      </trkpt>
      <trkpt lat="46.01001" lon="6.58196">
        <ele>1986.911</ele>
        <time>2026-03-15T12:09:46Z</time>
      </trkpt>
      <trkpt lat="46.01001" lon="6.58196">
        <ele>1984.499</ele>
        <time>2026-03-15T12:09:51Z</time>
      </trkpt>
      <trkpt lat="46.01012" lon="6.58194">
        <ele>1984.096</ele>
        <time>2026-03-15T12:09:56Z</time>
      </trkpt>
      <trkpt lat="46.01015" lon="6.58178">
        <ele>1981.1</ele>
        <time>2026-03-15T12:10:01Z</time>
      </trkpt>
      <trkpt lat="46.01026" lon="6.58158">
        <ele>1976.213</ele>
        <time>2026-03-15T12:10:06Z</time>
      </trkpt>
      <trkpt lat="46.01038" lon="6.58151">
        <ele>1973.303</ele>
        <time>2026-03-15T12:10:11Z</time>
      </trkpt>
      <trkpt lat="46.01049" lon="6.5814">
        <ele>1970.69</ele>
        <time>2026-03-15T12:10:16Z</time>
      </trkpt>
      <trkpt lat="46.01056" lon="6.58124">
        <ele>1968.537</ele>
        <time>2026-03-15T12:10:21Z</time>
      </trkpt>
      <trkpt lat="46.01062" lon="6.58109">
        <ele>1965.855</ele>
        <time>2026-03-15T12:10:26Z</time>
      </trkpt>
      <trkpt lat="46.01062" lon="6.58109">
        <ele>1965.068</ele>
        <time>2026-03-15T12:10:31Z</time>
      </trkpt>
      <trkpt lat="46.01062" lon="6.58109">
        <ele>1965.285</ele>
        <time>2026-03-15T12:10:36Z</time>
      </trkpt>
      <trkpt lat="46.01062" lon="6.58109">
        <ele>1964.73</ele>
        <time>2026-03-15T12:10:41Z</time>
      </trkpt>
      <trkpt lat="46.01063" lon="6.58109">
        <ele>1962.998</ele>
        <time>2026-03-15T12:10:46Z</time>
      </trkpt>
      <trkpt lat="46.01068" lon="6.58107">
        <ele>1963.06</ele>
        <time>2026-03-15T12:10:51Z</time>
      </trkpt>
      <trkpt lat="46.01074" lon="6.58113">
        <ele>1960.527</ele>
        <time>2026-03-15T12:10:56Z</time>
      </trkpt>
      <trkpt lat="46.01077" lon="6.58109">
        <ele>1959.61</ele>
        <time>2026-03-15T12:11:01Z</time>
      </trkpt>
      <trkpt lat="46.01077" lon="6.58109">
        <ele>1959.477</ele>
        <time>2026-03-15T12:11:06Z</time>
      </trkpt>
      <trkpt lat="46.01077" lon="6.58109">
        <ele>1959.197</ele>
        <time>2026-03-15T12:11:11Z</time>
      </trkpt>
      <trkpt lat="46.01082" lon="6.58119">
        <ele>1957.927</ele>
        <time>2026-03-15T12:11:16Z</time>
      </trkpt>
      <trkpt lat="46.01089" lon="6.58125">
        <ele>1955.856</ele>
        <time>2026-03-15T12:11:21Z</time>
      </trkpt>
      <trkpt lat="46.01092" lon="6.5811">
        <ele>1954.053</ele>
        <time>2026-03-15T12:11:26Z</time>
      </trkpt>
      <trkpt lat="46.01091" lon="6.58109">
        <ele>1952.946</ele>
        <time>2026-03-15T12:11:31Z</time>
      </trkpt>
      <trkpt lat="46.01092" lon="6.58109">
        <ele>1952.248</ele>
        <time>2026-03-15T12:11:36Z</time>
      </trkpt>
      <trkpt lat="46.01097" lon="6.58103">
        <ele>1950.534</ele>
        <time>2026-03-15T12:11:41Z</time>
      </trkpt>
      <trkpt lat="46.011" lon="6.58107">
        <ele>1947.222</ele>
        <time>2026-03-15T12:11:46Z</time>
      </trkpt>
      <trkpt lat="46.01108" lon="6.58113">
        <ele>1943.703</ele>
        <time>2026-03-15T12:11:51Z</time>
      </trkpt>
      <trkpt lat="46.01108" lon="6.58113">
        <ele>1943.067</ele>
        <time>2026-03-15T12:11:56Z</time>
      </trkpt>
      <trkpt lat="46.01108" lon="6.58113">
        <ele>1943.44</ele>
        <time>2026-03-15T12:12:01Z</time>
      </trkpt>
      <trkpt lat="46.01109" lon="6.58101">
        <ele>1943.839</ele>
        <time>2026-03-15T12:12:06Z</time>
      </trkpt>
      <trkpt lat="46.01114" lon="6.5809">
        <ele>1941.751</ele>
        <time>2026-03-15T12:12:11Z</time>
      </trkpt>
      <trkpt lat="46.01131" lon="6.58083">
        <ele>1936.315</ele>
        <time>2026-03-15T12:12:16Z</time>
      </trkpt>
      <trkpt lat="46.01143" lon="6.5809">
        <ele>1935.085</ele>
        <time>2026-03-15T12:12:21Z</time>
      </trkpt>
      <trkpt lat="46.01144" lon="6.5809">
        <ele>1934.567</ele>
        <time>2026-03-15T12:12:26Z</time>
      </trkpt>
      <trkpt lat="46.01145" lon="6.5809">
        <ele>1933.501</ele>
        <time>2026-03-15T12:12:31Z</time>
      </trkpt>
      <trkpt lat="46.01146" lon="6.5809">
        <ele>1933.612</ele>
        <time>2026-03-15T12:12:36Z</time>
      </trkpt>
      <trkpt lat="46.01146" lon="6.58091">
        <ele>1934.053</ele>
        <time>2026-03-15T12:12:41Z</time>
      </trkpt>
      <trkpt lat="46.01146" lon="6.58091">
        <ele>1934.05</ele>
        <time>2026-03-15T12:12:46Z</time>
      </trkpt>
      <trkpt lat="46.01146" lon="6.58091">
        <ele>1934.062</ele>
        <time>2026-03-15T12:12:51Z</time>
      </trkpt>
      <trkpt lat="46.01146" lon="6.58091">
        <ele>1934.145</ele>
        <time>2026-03-15T12:12:56Z</time>
      </trkpt>
      <trkpt lat="46.01146" lon="6.58091">
        <ele>1934.342</ele>
        <time>2026-03-15T12:13:01Z</time>
      </trkpt>
      <trkpt lat="46.0115" lon="6.58084">
        <ele>1933.93</ele>
        <time>2026-03-15T12:13:06Z</time>
      </trkpt>
      <trkpt lat="46.01166" lon="6.5808">
        <ele>1930.338</ele>
        <time>2026-03-15T12:13:11Z</time>
      </trkpt>
      <trkpt lat="46.01181" lon="6.58078">
        <ele>1928.018</ele>
        <time>2026-03-15T12:13:16Z</time>
      </trkpt>
      <trkpt lat="46.01191" lon="6.58077">
        <ele>1926.196</ele>
        <time>2026-03-15T12:13:21Z</time>
      </trkpt>
      <trkpt lat="46.01204" lon="6.58083">
        <ele>1923.78</ele>
        <time>2026-03-15T12:13:26Z</time>
      </trkpt>
      <trkpt lat="46.01219" lon="6.58089">
        <ele>1919.685</ele>
        <time>2026-03-15T12:13:31Z</time>
      </trkpt>
      <trkpt lat="46.01239" lon="6.58091">
        <ele>1915.684</ele>
        <time>2026-03-15T12:13:36Z</time>
      </trkpt>
      <trkpt lat="46.01254" lon="6.58093">
        <ele>1914.825</ele>
        <time>2026-03-15T12:13:41Z</time>
      </trkpt>
      <trkpt lat="46.01262" lon="6.58089">
        <ele>1913.928</ele>
        <time>2026-03-15T12:13:46Z</time>
      </trkpt>
      <trkpt lat="46.01271" lon="6.58083">
        <ele>1913.395</ele>
        <time>2026-03-15T12:13:51Z</time>
      </trkpt>
      <trkpt lat="46.01281" lon="6.5808">
        <ele>1910.967</ele>
        <time>2026-03-15T12:13:56Z</time>
      </trkpt>
      <trkpt lat="46.0129" lon="6.58079">
        <ele>1910.295</ele>
        <time>2026-03-15T12:14:01Z</time>
      </trkpt>
      <trkpt lat="46.01294" lon="6.5808">
        <ele>1909.641</ele>
        <time>2026-03-15T12:14:06Z</time>
      </trkpt>
      <trkpt lat="46.01303" lon="6.58081">
        <ele>1908.313</ele>
        <time>2026-03-15T12:14:11Z</time>
      </trkpt>
      <trkpt lat="46.01315" lon="6.58085">
        <ele>1906.524</ele>
        <time>2026-03-15T12:14:16Z</time>
      </trkpt>
      <trkpt lat="46.01329" lon="6.58091">
        <ele>1904.9</ele>
        <time>2026-03-15T12:14:21Z</time>
      </trkpt>
      <trkpt lat="46.01346" lon="6.58099">
        <ele>1902.563</ele>
        <time>2026-03-15T12:14:26Z</time>
      </trkpt>
      <trkpt lat="46.01362" lon="6.58103">
        <ele>1901.718</ele>
        <time>2026-03-15T12:14:31Z</time>
      </trkpt>
      <trkpt lat="46.01372" lon="6.58103">
        <ele>1901.887</ele>
        <time>2026-03-15T12:14:36Z</time>
      </trkpt>
      <trkpt lat="46.01388" lon="6.58101">
        <ele>1900.59</ele>
        <time>2026-03-15T12:14:41Z</time>
      </trkpt>
      <trkpt lat="46.01396" lon="6.581">
        <ele>1901.161</ele>
        <time>2026-03-15T12:14:46Z</time>
      </trkpt>
      <trkpt lat="46.01399" lon="6.58099">
        <ele>1901.445</ele>
        <time>2026-03-15T12:14:51Z</time>
      </trkpt>
      <trkpt lat="46.01402" lon="6.58099">
        <ele>1901.373</ele>
        <time>2026-03-15T12:14:56Z</time>
      </trkpt>
      <trkpt lat="46.01406" lon="6.58098">
        <ele>1902.087</ele>
        <time>2026-03-15T12:15:01Z</time>
      </trkpt>
      <trkpt lat="46.0141" lon="6.58097">
        <ele>1901.858</ele>
        <time>2026-03-15T12:15:06Z</time>
      </trkpt>
      <trkpt lat="46.01413" lon="6.58096">
        <ele>1901.87</ele>
        <time>2026-03-15T12:15:11Z</time>
      </trkpt>
      <trkpt lat="46.01418" lon="6.58095">
        <ele>1901.666</ele>
        <time>2026-03-15T12:15:16Z</time>
      </trkpt>
      <trkpt lat="46.01422" lon="6.58094">
        <ele>1901.801</ele>
        <time>2026-03-15T12:15:21Z</time>
      </trkpt>
      <trkpt lat="46.01429" lon="6.58094">
        <ele>1901.399</ele>
        <time>2026-03-15T12:15:26Z</time>
      </trkpt>
      <trkpt lat="46.0144" lon="6.58092">
        <ele>1901.05</ele>
        <time>2026-03-15T12:15:31Z</time>
      </trkpt>
      <trkpt lat="46.01453" lon="6.58091">
        <ele>1899.533</ele>
        <time>2026-03-15T12:15:36Z</time>
      </trkpt>
      <trkpt lat="46.0147" lon="6.58093">
        <ele>1896.986</ele>
        <time>2026-03-15T12:15:41Z</time>
      </trkpt>
      <trkpt lat="46.0149" lon="6.58097">
        <ele>1894.019</ele>
        <time>2026-03-15T12:15:46Z</time>
      </trkpt>
      <trkpt lat="46.01507" lon="6.58106">
        <ele>1889.153</ele>
        <time>2026-03-15T12:15:51Z</time>
      </trkpt>
      <trkpt lat="46.01528" lon="6.58114">
        <ele>1885.547</ele>
        <time>2026-03-15T12:15:56Z</time>
      </trkpt>
      <trkpt lat="46.01547" lon="6.58121">
        <ele>1883.354</ele>
        <time>2026-03-15T12:16:01Z</time>
      </trkpt>
      <trkpt lat="46.01561" lon="6.58123">
        <ele>1880.453</ele>
        <time>2026-03-15T12:16:06Z</time>
      </trkpt>
      <trkpt lat="46.01571" lon="6.58124">
        <ele>1878.303</ele>
        <time>2026-03-15T12:16:11Z</time>
      </trkpt>
      <trkpt lat="46.01571" lon="6.58124">
        <ele>1877.936</ele>
        <time>2026-03-15T12:16:16Z</time>
      </trkpt>
      <trkpt lat="46.01571" lon="6.58124">
        <ele>1877.985</ele>
        <time>2026-03-15T12:16:21Z</time>
      </trkpt>
      <trkpt lat="46.01571" lon="6.58124">
        <ele>1878.133</ele>
        <time>2026-03-15T12:16:26Z</time>
      </trkpt>
      <trkpt lat="46.01571" lon="6.58124">
        <ele>1878.153</ele>
        <time>2026-03-15T12:16:31Z</time>
      </trkpt>
      <trkpt lat="46.01571" lon="6.58124">
        <ele>1878.169</ele>
        <time>2026-03-15T12:16:36Z</time>
      </trkpt>
      <trkpt lat="46.01571" lon="6.58124">
        <ele>1878.186</ele>
        <time>2026-03-15T12:16:41Z</time>
      </trkpt>
      <trkpt lat="46.01571" lon="6.58124">
        <ele>1878.206</ele>
        <time>2026-03-15T12:16:46Z</time>
      </trkpt>
      <trkpt lat="46.01571" lon="6.58124">
        <ele>1878.224</ele>
        <time>2026-03-15T12:16:51Z</time>
      </trkpt>
      <trkpt lat="46.01571" lon="6.58124">
        <ele>1878.24</ele>
        <time>2026-03-15T12:16:56Z</time>
      </trkpt>
      <trkpt lat="46.01577" lon="6.58124">
        <ele>1876.67</ele>
        <time>2026-03-15T12:17:01Z</time>
      </trkpt>
      <trkpt lat="46.01597" lon="6.58127">
        <ele>1873.286</ele>
        <time>2026-03-15T12:17:06Z</time>
      </trkpt>
      <trkpt lat="46.01619" lon="6.58132">
        <ele>1870.329</ele>
        <time>2026-03-15T12:17:11Z</time>
      </trkpt>
      <trkpt lat="46.01632" lon="6.58118">
        <ele>1863.241</ele>
        <time>2026-03-15T12:17:16Z</time>
      </trkpt>
      <trkpt lat="46.01639" lon="6.58094">
        <ele>1853.711</ele>
        <time>2026-03-15T12:17:21Z</time>
      </trkpt>
      <trkpt lat="46.01653" lon="6.5809">
        <ele>1849.858</ele>
        <time>2026-03-15T12:17:26Z</time>
      </trkpt>
      <trkpt lat="46.01659" lon="6.5809">
        <ele>1848.89</ele>
        <time>2026-03-15T12:17:31Z</time>
      </trkpt>
      <trkpt lat="46.01662" lon="6.5809">
        <ele>1847.849</ele>
        <time>2026-03-15T12:17:36Z</time>
      </trkpt>
      <trkpt lat="46.01663" lon="6.58092">
        <ele>1846.958</ele>
        <time>2026-03-15T12:17:41Z</time>
      </trkpt>
      <trkpt lat="46.01672" lon="6.58092">
        <ele>1844.816</ele>
        <time>2026-03-15T12:17:46Z</time>
      </trkpt>
      <trkpt lat="46.01687" lon="6.58086">
        <ele>1839.87</ele>
        <time>2026-03-15T12:17:51Z</time>
      </trkpt>
      <trkpt lat="46.01691" lon="6.58063">
        <ele>1832.865</ele>
        <time>2026-03-15T12:17:56Z</time>
      </trkpt>
      <trkpt lat="46.01706" lon="6.58048">
        <ele>1826.094</ele>
        <time>2026-03-15T12:18:01Z</time>
      </trkpt>
      <trkpt lat="46.01717" lon="6.58061">
        <ele>1823.95</ele>
        <time>2026-03-15T12:18:06Z</time>
      </trkpt>
      <trkpt lat="46.01717" lon="6.58061">
        <ele>1824.12</ele>
        <time>2026-03-15T12:18:11Z</time>
      </trkpt>
      <trkpt lat="46.01717" lon="6.58061">
        <ele>1824.193</ele>
        <time>2026-03-15T12:18:16Z</time>
      </trkpt>
      <trkpt lat="46.01727" lon="6.58061">
        <ele>1821.78</ele>
        <time>2026-03-15T12:18:21Z</time>
      </trkpt>
      <trkpt lat="46.01739" lon="6.58045">
        <ele>1812.087</ele>
        <time>2026-03-15T12:18:26Z</time>
      </trkpt>
      <trkpt lat="46.01753" lon="6.5805">
        <ele>1807.204</ele>
        <time>2026-03-15T12:18:31Z</time>
      </trkpt>
      <trkpt lat="46.01761" lon="6.58039">
        <ele>1803.902</ele>
        <time>2026-03-15T12:18:36Z</time>
      </trkpt>
      <trkpt lat="46.01773" lon="6.58045">
        <ele>1800.979</ele>
        <time>2026-03-15T12:18:41Z</time>
      </trkpt>
      <trkpt lat="46.01782" lon="6.58054">
        <ele>1798.491</ele>
        <time>2026-03-15T12:18:46Z</time>
      </trkpt>
      <trkpt lat="46.01783" lon="6.58054">
        <ele>1798.6</ele>
        <time>2026-03-15T12:18:51Z</time>
      </trkpt>
      <trkpt lat="46.01783" lon="6.58054">
        <ele>1798.968</ele>
        <time>2026-03-15T12:18:56Z</time>
      </trkpt>
      <trkpt lat="46.01783" lon="6.58054">
        <ele>1798.898</ele>
        <time>2026-03-15T12:19:01Z</time>
      </trkpt>
      <trkpt lat="46.01783" lon="6.58054">
        <ele>1799.56</ele>
        <time>2026-03-15T12:19:06Z</time>
      </trkpt>
      <trkpt lat="46.01783" lon="6.58054">
        <ele>1799.815</ele>
        <time>2026-03-15T12:19:11Z</time>
      </trkpt>
      <trkpt lat="46.01783" lon="6.58054">
        <ele>1800.25</ele>
        <time>2026-03-15T12:19:16Z</time>
      </trkpt>
      <trkpt lat="46.01783" lon="6.58054">
        <ele>1800.328</ele>
        <time>2026-03-15T12:19:21Z</time>
      </trkpt>
      <trkpt lat="46.01783" lon="6.58054">
        <ele>1800.332</ele>
        <time>2026-03-15T12:19:26Z</time>
      </trkpt>
      <trkpt lat="46.01783" lon="6.58054">
        <ele>1800.396</ele>
        <time>2026-03-15T12:19:31Z</time>
      </trkpt>
      <trkpt lat="46.01783" lon="6.58054">
        <ele>1800.413</ele>
        <time>2026-03-15T12:19:36Z</time>
      </trkpt>
      <trkpt lat="46.01783" lon="6.58054">
        <ele>1801.424</ele>
        <time>2026-03-15T12:19:41Z</time>
      </trkpt>
      <trkpt lat="46.01782" lon="6.58054">
        <ele>1801.819</ele>
        <time>2026-03-15T12:19:46Z</time>
      </trkpt>
      <trkpt lat="46.01799" lon="6.58051">
        <ele>1795.319</ele>
        <time>2026-03-15T12:19:51Z</time>
      </trkpt>
      <trkpt lat="46.01818" lon="6.58038">
        <ele>1785.494</ele>
        <time>2026-03-15T12:19:56Z</time>
      </trkpt>
      <trkpt lat="46.01834" lon="6.5804">
        <ele>1779.914</ele>
        <time>2026-03-15T12:20:01Z</time>
      </trkpt>
      <trkpt lat="46.01843" lon="6.58046">
        <ele>1777.896</ele>
        <time>2026-03-15T12:20:06Z</time>
      </trkpt>
      <trkpt lat="46.01848" lon="6.5805">
        <ele>1776.607</ele>
        <time>2026-03-15T12:20:11Z</time>
      </trkpt>
      <trkpt lat="46.01855" lon="6.58055">
        <ele>1774.252</ele>
        <time>2026-03-15T12:20:16Z</time>
      </trkpt>
      <trkpt lat="46.01867" lon="6.58062">
        <ele>1770.201</ele>
        <time>2026-03-15T12:20:21Z</time>
      </trkpt>
      <trkpt lat="46.01893" lon="6.58059">
        <ele>1764.888</ele>
        <time>2026-03-15T12:20:26Z</time>
      </trkpt>
      <trkpt lat="46.01902" lon="6.58059">
        <ele>1761.998</ele>
        <time>2026-03-15T12:20:31Z</time>
      </trkpt>
      <trkpt lat="46.01902" lon="6.58059">
        <ele>1761.472</ele>
        <time>2026-03-15T12:20:36Z</time>
      </trkpt>
      <trkpt lat="46.01902" lon="6.5806">
        <ele>1761.289</ele>
        <time>2026-03-15T12:20:41Z</time>
      </trkpt>
      <trkpt lat="46.01902" lon="6.5806">
        <ele>1761.329</ele>
        <time>2026-03-15T12:20:46Z</time>
      </trkpt>
      <trkpt lat="46.01902" lon="6.5806">
        <ele>1761.361</ele>
        <time>2026-03-15T12:20:51Z</time>
      </trkpt>
      <trkpt lat="46.01902" lon="6.5806">
        <ele>1761.36</ele>
        <time>2026-03-15T12:20:56Z</time>
      </trkpt>
      <trkpt lat="46.01902" lon="6.5806">
        <ele>1761.372</ele>
        <time>2026-03-15T12:21:01Z</time>
      </trkpt>
      <trkpt lat="46.01902" lon="6.5806">
        <ele>1761.372</ele>
        <time>2026-03-15T12:21:06Z</time>
      </trkpt>
      <trkpt lat="46.01908" lon="6.58059">
        <ele>1760.299</ele>
        <time>2026-03-15T12:21:11Z</time>
      </trkpt>
      <trkpt lat="46.01928" lon="6.58057">
        <ele>1756.348</ele>
        <time>2026-03-15T12:21:16Z</time>
      </trkpt>
      <trkpt lat="46.01948" lon="6.58055">
        <ele>1753.34</ele>
        <time>2026-03-15T12:21:21Z</time>
      </trkpt>
      <trkpt lat="46.01965" lon="6.58041">
        <ele>1745.233</ele>
        <time>2026-03-15T12:21:26Z</time>
      </trkpt>
      <trkpt lat="46.0198" lon="6.58021">
        <ele>1736.661</ele>
        <time>2026-03-15T12:21:31Z</time>
      </trkpt>
      <trkpt lat="46.01992" lon="6.58008">
        <ele>1731.406</ele>
        <time>2026-03-15T12:21:36Z</time>
      </trkpt>
      <trkpt lat="46.01992" lon="6.58008">
        <ele>1731.345</ele>
        <time>2026-03-15T12:21:41Z</time>
      </trkpt>
      <trkpt lat="46.01992" lon="6.58008">
        <ele>1732.298</ele>
        <time>2026-03-15T12:21:46Z</time>
      </trkpt>
      <trkpt lat="46.01992" lon="6.58008">
        <ele>1733.01</ele>
        <time>2026-03-15T12:21:51Z</time>
      </trkpt>
      <trkpt lat="46.01992" lon="6.58008">
        <ele>1733.059</ele>
        <time>2026-03-15T12:21:56Z</time>
      </trkpt>
      <trkpt lat="46.01992" lon="6.58008">
        <ele>1733.062</ele>
        <time>2026-03-15T12:22:01Z</time>
      </trkpt>
      <trkpt lat="46.01992" lon="6.58008">
        <ele>1733.351</ele>
        <time>2026-03-15T12:22:06Z</time>
      </trkpt>
      <trkpt lat="46.01992" lon="6.58008">
        <ele>1733.278</ele>
        <time>2026-03-15T12:22:11Z</time>
      </trkpt>
      <trkpt lat="46.01992" lon="6.58008">
        <ele>1732.869</ele>
        <time>2026-03-15T12:22:16Z</time>
      </trkpt>
      <trkpt lat="46.01992" lon="6.58008">
        <ele>1732.83</ele>
        <time>2026-03-15T12:22:21Z</time>
      </trkpt>
      <trkpt lat="46.01992" lon="6.58008">
        <ele>1732.834</ele>
        <time>2026-03-15T12:22:26Z</time>
      </trkpt>
      <trkpt lat="46.01992" lon="6.58008">
        <ele>1732.839</ele>
        <time>2026-03-15T12:22:31Z</time>
      </trkpt>
      <trkpt lat="46.01992" lon="6.58008">
        <ele>1732.838</ele>
        <time>2026-03-15T12:22:36Z</time>
      </trkpt>
      <trkpt lat="46.01992" lon="6.58008">
        <ele>1732.845</ele>
        <time>2026-03-15T12:22:41Z</time>
      </trkpt>
      <trkpt lat="46.01992" lon="6.58008">
        <ele>1732.862</ele>
        <time>2026-03-15T12:22:46Z</time>
      </trkpt>
      <trkpt lat="46.01992" lon="6.58008">
        <ele>1732.84</ele>
        <time>2026-03-15T12:22:51Z</time>
      </trkpt>
      <trkpt lat="46.01992" lon="6.58008">
        <ele>1732.842</ele>
        <time>2026-03-15T12:22:56Z</time>
      </trkpt>
      <trkpt lat="46.01992" lon="6.58008">
        <ele>1732.836</ele>
        <time>2026-03-15T12:23:01Z</time>
      </trkpt>
      <trkpt lat="46.01992" lon="6.58008">
        <ele>1732.844</ele>
        <time>2026-03-15T12:23:06Z</time>
      </trkpt>
      <trkpt lat="46.01992" lon="6.58008">
        <ele>1732.851</ele>
        <time>2026-03-15T12:23:11Z</time>
      </trkpt>
      <trkpt lat="46.02002" lon="6.58003">
        <ele>1729.938</ele>
        <time>2026-03-15T12:23:16Z</time>
      </trkpt>
      <trkpt lat="46.02002" lon="6.57995">
        <ele>1730.295</ele>
        <time>2026-03-15T12:23:21Z</time>
      </trkpt>
      <trkpt lat="46.02" lon="6.57991">
        <ele>1727.318</ele>
        <time>2026-03-15T12:23:26Z</time>
      </trkpt>
      <trkpt lat="46.02003" lon="6.57975">
        <ele>1721.973</ele>
        <time>2026-03-15T12:23:31Z</time>
      </trkpt>
      <trkpt lat="46.02022" lon="6.5797">
        <ele>1718.17</ele>
        <time>2026-03-15T12:23:36Z</time>
      </trkpt>
      <trkpt lat="46.02033" lon="6.57968">
        <ele>1714.586</ele>
        <time>2026-03-15T12:23:41Z</time>
      </trkpt>
      <trkpt lat="46.02041" lon="6.57972">
        <ele>1713.505</ele>
        <time>2026-03-15T12:23:46Z</time>
      </trkpt>
      <trkpt lat="46.02047" lon="6.57981">
        <ele>1712.799</ele>
        <time>2026-03-15T12:23:51Z</time>
      </trkpt>
      <trkpt lat="46.02047" lon="6.57981">
        <ele>1712.765</ele>
        <time>2026-03-15T12:23:56Z</time>
      </trkpt>
      <trkpt lat="46.02047" lon="6.57981">
        <ele>1713.226</ele>
        <time>2026-03-15T12:24:01Z</time>
      </trkpt>
      <trkpt lat="46.02047" lon="6.57981">
        <ele>1713.411</ele>
        <time>2026-03-15T12:24:06Z</time>
      </trkpt>
      <trkpt lat="46.02047" lon="6.57981">
        <ele>1713.601</ele>
        <time>2026-03-15T12:24:11Z</time>
      </trkpt>
      <trkpt lat="46.02047" lon="6.57981">
        <ele>1713.748</ele>
        <time>2026-03-15T12:24:16Z</time>
      </trkpt>
      <trkpt lat="46.02047" lon="6.57981">
        <ele>1712.8</ele>
        <time>2026-03-15T12:24:21Z</time>
      </trkpt>
      <trkpt lat="46.02047" lon="6.57981">
        <ele>1712.784</ele>
        <time>2026-03-15T12:24:26Z</time>
      </trkpt>
      <trkpt lat="46.02047" lon="6.57981">
        <ele>1713.169</ele>
        <time>2026-03-15T12:24:31Z</time>
      </trkpt>
      <trkpt lat="46.02047" lon="6.57981">
        <ele>1711.843</ele>
        <time>2026-03-15T12:24:36Z</time>
      </trkpt>
      <trkpt lat="46.02047" lon="6.57981">
        <ele>1710.885</ele>
        <time>2026-03-15T12:24:41Z</time>
      </trkpt>
      <trkpt lat="46.02047" lon="6.57981">
        <ele>1710.955</ele>
        <time>2026-03-15T12:24:46Z</time>
      </trkpt>
      <trkpt lat="46.02047" lon="6.57981">
        <ele>1712.331</ele>
        <time>2026-03-15T12:24:51Z</time>
      </trkpt>
      <trkpt lat="46.02047" lon="6.57981">
        <ele>1713.898</ele>
        <time>2026-03-15T12:24:56Z</time>
      </trkpt>
      <trkpt lat="46.02047" lon="6.57981">
        <ele>1713.011</ele>
        <time>2026-03-15T12:25:01Z</time>
      </trkpt>
      <trkpt lat="46.0205" lon="6.57984">
        <ele>1709.187</ele>
        <time>2026-03-15T12:25:06Z</time>
      </trkpt>
      <trkpt lat="46.02058" lon="6.57995">
        <ele>1707.387</ele>
        <time>2026-03-15T12:25:11Z</time>
      </trkpt>
      <trkpt lat="46.02068" lon="6.57999">
        <ele>1703.644</ele>
        <time>2026-03-15T12:25:16Z</time>
      </trkpt>
      <trkpt lat="46.02074" lon="6.58006">
        <ele>1702.165</ele>
        <time>2026-03-15T12:25:21Z</time>
      </trkpt>
      <trkpt lat="46.02074" lon="6.58006">
        <ele>1703.003</ele>
        <time>2026-03-15T12:25:26Z</time>
      </trkpt>
      <trkpt lat="46.02074" lon="6.58006">
        <ele>1702.199</ele>
        <time>2026-03-15T12:25:31Z</time>
      </trkpt>
      <trkpt lat="46.02074" lon="6.58006">
        <ele>1701.968</ele>
        <time>2026-03-15T12:25:36Z</time>
      </trkpt>
      <trkpt lat="46.02074" lon="6.58006">
        <ele>1699.904</ele>
        <time>2026-03-15T12:25:41Z</time>
      </trkpt>
      <trkpt lat="46.02079" lon="6.58006">
        <ele>1697.954</ele>
        <time>2026-03-15T12:25:46Z</time>
      </trkpt>
      <trkpt lat="46.02079" lon="6.58006">
        <ele>1697.901</ele>
        <time>2026-03-15T12:25:51Z</time>
      </trkpt>
      <trkpt lat="46.02079" lon="6.58006">
        <ele>1698.005</ele>
        <time>2026-03-15T12:25:56Z</time>
      </trkpt>
      <trkpt lat="46.02079" lon="6.58006">
        <ele>1698.148</ele>
        <time>2026-03-15T12:26:01Z</time>
      </trkpt>
      <trkpt lat="46.02078" lon="6.58001">
        <ele>1694.931</ele>
        <time>2026-03-15T12:26:06Z</time>
      </trkpt>
      <trkpt lat="46.0208" lon="6.57999">
        <ele>1694.833</ele>
        <time>2026-03-15T12:26:11Z</time>
      </trkpt>
      <trkpt lat="46.0208" lon="6.57998">
        <ele>1694.456</ele>
        <time>2026-03-15T12:26:16Z</time>
      </trkpt>
      <trkpt lat="46.0208" lon="6.57998">
        <ele>1694.612</ele>
        <time>2026-03-15T12:26:21Z</time>
      </trkpt>
      <trkpt lat="46.0208" lon="6.57998">
        <ele>1694.703</ele>
        <time>2026-03-15T12:26:26Z</time>
      </trkpt>
      <trkpt lat="46.0208" lon="6.57996">
        <ele>1693.53</ele>
        <time>2026-03-15T12:26:31Z</time>
      </trkpt>
      <trkpt lat="46.02075" lon="6.57986">
        <ele>1691.016</ele>
        <time>2026-03-15T12:26:36Z</time>
      </trkpt>
      <trkpt lat="46.02075" lon="6.57976">
        <ele>1689.329</ele>
        <time>2026-03-15T12:26:41Z</time>
      </trkpt>
      <trkpt lat="46.02076" lon="6.57974">
        <ele>1689.833</ele>
        <time>2026-03-15T12:26:46Z</time>
      </trkpt>
      <trkpt lat="46.02082" lon="6.57971">
        <ele>1684.948</ele>
        <time>2026-03-15T12:26:51Z</time>
      </trkpt>
      <trkpt lat="46.02088" lon="6.57971">
        <ele>1679.525</ele>
        <time>2026-03-15T12:26:56Z</time>
      </trkpt>
      <trkpt lat="46.02091" lon="6.57954">
        <ele>1676.11</ele>
        <time>2026-03-15T12:27:01Z</time>
      </trkpt>
      <trkpt lat="46.02092" lon="6.57948">
        <ele>1674.84</ele>
        <time>2026-03-15T12:27:06Z</time>
      </trkpt>
      <trkpt lat="46.02092" lon="6.57948">
        <ele>1673.946</ele>
        <time>2026-03-15T12:27:11Z</time>
      </trkpt>
      <trkpt lat="46.02092" lon="6.57947">
        <ele>1673.894</ele>
        <time>2026-03-15T12:27:16Z</time>
      </trkpt>
      <trkpt lat="46.02097" lon="6.57949">
        <ele>1669.024</ele>
        <time>2026-03-15T12:27:21Z</time>
      </trkpt>
      <trkpt lat="46.02097" lon="6.57949">
        <ele>1666.593</ele>
        <time>2026-03-15T12:27:26Z</time>
      </trkpt>
      <trkpt lat="46.02097" lon="6.57949">
        <ele>1664.548</ele>
        <time>2026-03-15T12:27:31Z</time>
      </trkpt>
      <trkpt lat="46.02097" lon="6.57949">
        <ele>1664.588</ele>
        <time>2026-03-15T12:27:36Z</time>
      </trkpt>
      <trkpt lat="46.02097" lon="6.57949">
        <ele>1665.768</ele>
        <time>2026-03-15T12:27:41Z</time>
      </trkpt>
      <trkpt lat="46.02097" lon="6.57949">
        <ele>1661.092</ele>
        <time>2026-03-15T12:27:46Z</time>
      </trkpt>
      <trkpt lat="46.02105" lon="6.57938">
        <ele>1660.695</ele>
        <time>2026-03-15T12:27:51Z</time>
      </trkpt>
      <trkpt lat="46.02107" lon="6.57938">
        <ele>1659.42</ele>
        <time>2026-03-15T12:27:56Z</time>
      </trkpt>
      <trkpt lat="46.0211" lon="6.57943">
        <ele>1657.22</ele>
        <time>2026-03-15T12:28:01Z</time>
      </trkpt>
      <trkpt lat="46.02112" lon="6.57947">
        <ele>1656.818</ele>
        <time>2026-03-15T12:28:06Z</time>
      </trkpt>
      <trkpt lat="46.02112" lon="6.57947">
        <ele>1657.216</ele>
        <time>2026-03-15T12:28:11Z</time>
      </trkpt>
      <trkpt lat="46.02112" lon="6.57947">
        <ele>1655.395</ele>
        <time>2026-03-15T12:28:16Z</time>
      </trkpt>
      <trkpt lat="46.02112" lon="6.57947">
        <ele>1651.985</ele>
        <time>2026-03-15T12:28:21Z</time>
      </trkpt>
      <trkpt lat="46.02122" lon="6.57941">
        <ele>1646.243</ele>
        <time>2026-03-15T12:28:26Z</time>
      </trkpt>
      <trkpt lat="46.02121" lon="6.57918">
        <ele>1641.031</ele>
        <time>2026-03-15T12:28:31Z</time>
      </trkpt>
      <trkpt lat="46.02122" lon="6.57912">
        <ele>1641.404</ele>
        <time>2026-03-15T12:28:36Z</time>
      </trkpt>
      <trkpt lat="46.02122" lon="6.57912">
        <ele>1639.627</ele>
        <time>2026-03-15T12:28:41Z</time>
      </trkpt>
      <trkpt lat="46.02122" lon="6.57912">
        <ele>1638.067</ele>
        <time>2026-03-15T12:28:46Z</time>
      </trkpt>
      <trkpt lat="46.02122" lon="6.57912">
        <ele>1639.663</ele>
        <time>2026-03-15T12:28:51Z</time>
      </trkpt>
      <trkpt lat="46.02122" lon="6.57912">
        <ele>1638.477</ele>
        <time>2026-03-15T12:28:56Z</time>
      </trkpt>
      <trkpt lat="46.02132" lon="6.57911">
        <ele>1635.676</ele>
        <time>2026-03-15T12:29:01Z</time>
      </trkpt>
      <trkpt lat="46.02137" lon="6.57918">
        <ele>1633.797</ele>
        <time>2026-03-15T12:29:06Z</time>
      </trkpt>
      <trkpt lat="46.02145" lon="6.57913">
        <ele>1625.21</ele>
        <time>2026-03-15T12:29:11Z</time>
      </trkpt>
      <trkpt lat="46.02151" lon="6.57904">
        <ele>1615.624</ele>
        <time>2026-03-15T12:29:16Z</time>
      </trkpt>
      <trkpt lat="46.02151" lon="6.57904">
        <ele>1617.342</ele>
        <time>2026-03-15T12:29:21Z</time>
      </trkpt>
      <trkpt lat="46.02151" lon="6.57904">
        <ele>1617.578</ele>
        <time>2026-03-15T12:29:26Z</time>
      </trkpt>
      <trkpt lat="46.02151" lon="6.57904">
        <ele>1617.891</ele>
        <time>2026-03-15T12:29:31Z</time>
      </trkpt>
      <trkpt lat="46.02151" lon="6.57904">
        <ele>1617.904</ele>
        <time>2026-03-15T12:29:36Z</time>
      </trkpt>
      <trkpt lat="46.02151" lon="6.57904">
        <ele>1618.485</ele>
        <time>2026-03-15T12:29:41Z</time>
      </trkpt>
      <trkpt lat="46.02151" lon="6.57904">
        <ele>1618.303</ele>
        <time>2026-03-15T12:29:46Z</time>
      </trkpt>
      <trkpt lat="46.02151" lon="6.57904">
        <ele>1618.08</ele>
        <time>2026-03-15T12:29:51Z</time>
      </trkpt>
      <trkpt lat="46.02151" lon="6.57904">
        <ele>1618.083</ele>
        <time>2026-03-15T12:29:56Z</time>
      </trkpt>
      <trkpt lat="46.02151" lon="6.57904">
        <ele>1618.098</ele>
        <time>2026-03-15T12:30:01Z</time>
      </trkpt>
      <trkpt lat="46.02151" lon="6.57904">
        <ele>1618.098</ele>
        <time>2026-03-15T12:30:06Z</time>
      </trkpt>
      <trkpt lat="46.02151" lon="6.57904">
        <ele>1616.559</ele>
        <time>2026-03-15T12:30:11Z</time>
      </trkpt>
      <trkpt lat="46.02151" lon="6.57904">
        <ele>1616.583</ele>
        <time>2026-03-15T12:30:16Z</time>
      </trkpt>
      <trkpt lat="46.02151" lon="6.57904">
        <ele>1615.624</ele>
        <time>2026-03-15T12:30:21Z</time>
      </trkpt>
      <trkpt lat="46.02151" lon="6.57904">
        <ele>1615.599</ele>
        <time>2026-03-15T12:30:26Z</time>
      </trkpt>
      <trkpt lat="46.02151" lon="6.57904">
        <ele>1615.575</ele>
        <time>2026-03-15T12:30:31Z</time>
      </trkpt>
      <trkpt lat="46.02151" lon="6.57904">
        <ele>1616.123</ele>
        <time>2026-03-15T12:30:36Z</time>
      </trkpt>
      <trkpt lat="46.02151" lon="6.57904">
        <ele>1617.345</ele>
        <time>2026-03-15T12:30:41Z</time>
      </trkpt>
      <trkpt lat="46.02151" lon="6.57904">
        <ele>1617.219</ele>
        <time>2026-03-15T12:30:46Z</time>
      </trkpt>
      <trkpt lat="46.02151" lon="6.57904">
        <ele>1617.162</ele>
        <time>2026-03-15T12:30:51Z</time>
      </trkpt>
      <trkpt lat="46.02151" lon="6.57904">
        <ele>1617.189</ele>
        <time>2026-03-15T12:30:56Z</time>
      </trkpt>
      <trkpt lat="46.02151" lon="6.57904">
        <ele>1617.206</ele>
        <time>2026-03-15T12:31:01Z</time>
      </trkpt>
      <trkpt lat="46.02151" lon="6.57904">
        <ele>1617.232</ele>
        <time>2026-03-15T12:31:06Z</time>
      </trkpt>
      <trkpt lat="46.02151" lon="6.57904">
        <ele>1617.289</ele>
        <time>2026-03-15T12:31:11Z</time>
      </trkpt>
      <trkpt lat="46.02151" lon="6.57904">
        <ele>1617.316</ele>
        <time>2026-03-15T12:31:16Z</time>
      </trkpt>
      <trkpt lat="46.02151" lon="6.57904">
        <ele>1617.326</ele>
        <time>2026-03-15T12:31:21Z</time>
      </trkpt>
      <trkpt lat="46.02151" lon="6.57904">
        <ele>1617.336</ele>
        <time>2026-03-15T12:31:26Z</time>
      </trkpt>
      <trkpt lat="46.02151" lon="6.57904">
        <ele>1617.34</ele>
        <time>2026-03-15T12:31:31Z</time>
      </trkpt>
      <trkpt lat="46.02151" lon="6.57904">
        <ele>1617.341</ele>
        <time>2026-03-15T12:31:36Z</time>
      </trkpt>
      <trkpt lat="46.02151" lon="6.57904">
        <ele>1617.355</ele>
        <time>2026-03-15T12:31:41Z</time>
      </trkpt>
      <trkpt lat="46.02151" lon="6.57904">
        <ele>1617.365</ele>
        <time>2026-03-15T12:31:46Z</time>
      </trkpt>
      <trkpt lat="46.02151" lon="6.57904">
        <ele>1617.37</ele>
        <time>2026-03-15T12:31:51Z</time>
      </trkpt>
      <trkpt lat="46.02151" lon="6.57904">
        <ele>1617.4</ele>
        <time>2026-03-15T12:31:56Z</time>
      </trkpt>
      <trkpt lat="46.02151" lon="6.57904">
        <ele>1617.431</ele>
        <time>2026-03-15T12:32:01Z</time>
      </trkpt>
      <trkpt lat="46.02152" lon="6.57914">
        <ele>1614.941</ele>
        <time>2026-03-15T12:32:06Z</time>
      </trkpt>
      <trkpt lat="46.02156" lon="6.57914">
        <ele>1613.5</ele>
        <time>2026-03-15T12:32:11Z</time>
      </trkpt>
      <trkpt lat="46.0216" lon="6.57919">
        <ele>1609.553</ele>
        <time>2026-03-15T12:32:16Z</time>
      </trkpt>
      <trkpt lat="46.02161" lon="6.57922">
        <ele>1609.184</ele>
        <time>2026-03-15T12:32:21Z</time>
      </trkpt>
      <trkpt lat="46.02161" lon="6.57922">
        <ele>1607.387</ele>
        <time>2026-03-15T12:32:26Z</time>
      </trkpt>
      <trkpt lat="46.02161" lon="6.57922">
        <ele>1606.153</ele>
        <time>2026-03-15T12:32:31Z</time>
      </trkpt>
      <trkpt lat="46.0217" lon="6.57916">
        <ele>1603.16</ele>
        <time>2026-03-15T12:32:36Z</time>
      </trkpt>
      <trkpt lat="46.02173" lon="6.57918">
        <ele>1604.098</ele>
        <time>2026-03-15T12:32:41Z</time>
      </trkpt>
      <trkpt lat="46.02174" lon="6.57913">
        <ele>1602.321</ele>
        <time>2026-03-15T12:32:46Z</time>
      </trkpt>
      <trkpt lat="46.02176" lon="6.57901">
        <ele>1597.723</ele>
        <time>2026-03-15T12:32:51Z</time>
      </trkpt>
      <trkpt lat="46.02176" lon="6.57901">
        <ele>1593.08</ele>
        <time>2026-03-15T12:32:56Z</time>
      </trkpt>
      <trkpt lat="46.02186" lon="6.57897">
        <ele>1591.032</ele>
        <time>2026-03-15T12:33:01Z</time>
      </trkpt>
      <trkpt lat="46.0219" lon="6.57894">
        <ele>1588.747</ele>
        <time>2026-03-15T12:33:06Z</time>
      </trkpt>
      <trkpt lat="46.02198" lon="6.57884">
        <ele>1584.686</ele>
        <time>2026-03-15T12:33:11Z</time>
      </trkpt>
      <trkpt lat="46.02207" lon="6.57892">
        <ele>1581.89</ele>
        <time>2026-03-15T12:33:16Z</time>
      </trkpt>
      <trkpt lat="46.02209" lon="6.579">
        <ele>1580.115</ele>
        <time>2026-03-15T12:33:21Z</time>
      </trkpt>
      <trkpt lat="46.02213" lon="6.57897">
        <ele>1574.814</ele>
        <time>2026-03-15T12:33:26Z</time>
      </trkpt>
      <trkpt lat="46.02223" lon="6.57903">
        <ele>1567.032</ele>
        <time>2026-03-15T12:33:31Z</time>
      </trkpt>
      <trkpt lat="46.02237" lon="6.57922">
        <ele>1565.829</ele>
        <time>2026-03-15T12:33:36Z</time>
      </trkpt>
      <trkpt lat="46.0226" lon="6.5794">
        <ele>1559.554</ele>
        <time>2026-03-15T12:33:41Z</time>
      </trkpt>
      <trkpt lat="46.02289" lon="6.57969">
        <ele>1554.374</ele>
        <time>2026-03-15T12:33:46Z</time>
      </trkpt>
      <trkpt lat="46.02295" lon="6.57972">
        <ele>1553.292</ele>
        <time>2026-03-15T12:33:51Z</time>
      </trkpt>
      <trkpt lat="46.02295" lon="6.57972">
        <ele>1552.936</ele>
        <time>2026-03-15T12:33:56Z</time>
      </trkpt>
      <trkpt lat="46.02295" lon="6.57972">
        <ele>1552.665</ele>
        <time>2026-03-15T12:34:01Z</time>
      </trkpt>
      <trkpt lat="46.02295" lon="6.57972">
        <ele>1552.683</ele>
        <time>2026-03-15T12:34:06Z</time>
      </trkpt>
      <trkpt lat="46.02295" lon="6.57972">
        <ele>1552.774</ele>
        <time>2026-03-15T12:34:11Z</time>
      </trkpt>
      <trkpt lat="46.023" lon="6.57982">
        <ele>1551.077</ele>
        <time>2026-03-15T12:34:16Z</time>
      </trkpt>
      <trkpt lat="46.02318" lon="6.58014">
        <ele>1546.193</ele>
        <time>2026-03-15T12:34:21Z</time>
      </trkpt>
      <trkpt lat="46.02334" lon="6.58011">
        <ele>1536.886</ele>
        <time>2026-03-15T12:34:26Z</time>
      </trkpt>
      <trkpt lat="46.02354" lon="6.58007">
        <ele>1525.217</ele>
        <time>2026-03-15T12:34:31Z</time>
      </trkpt>
      <trkpt lat="46.02375" lon="6.58006">
        <ele>1514.666</ele>
        <time>2026-03-15T12:34:36Z</time>
      </trkpt>
      <trkpt lat="46.02378" lon="6.57979">
        <ele>1509.05</ele>
        <time>2026-03-15T12:34:41Z</time>
      </trkpt>
      <trkpt lat="46.02379" lon="6.57948">
        <ele>1504.495</ele>
        <time>2026-03-15T12:34:46Z</time>
      </trkpt>
      <trkpt lat="46.02377" lon="6.57934">
        <ele>1504.404</ele>
        <time>2026-03-15T12:34:51Z</time>
      </trkpt>
      <trkpt lat="46.02377" lon="6.57934">
        <ele>1504.417</ele>
        <time>2026-03-15T12:34:56Z</time>
      </trkpt>
      <trkpt lat="46.02377" lon="6.57934">
        <ele>1504.435</ele>
        <time>2026-03-15T12:35:01Z</time>
      </trkpt>
      <trkpt lat="46.02378" lon="6.57933">
        <ele>1502.93</ele>
        <time>2026-03-15T12:35:06Z</time>
      </trkpt>
      <trkpt lat="46.02392" lon="6.57931">
        <ele>1494.753</ele>
        <time>2026-03-15T12:35:11Z</time>
      </trkpt>
      <trkpt lat="46.02403" lon="6.5792">
        <ele>1487.769</ele>
        <time>2026-03-15T12:35:16Z</time>
      </trkpt>
      <trkpt lat="46.02412" lon="6.57904">
        <ele>1480.443</ele>
        <time>2026-03-15T12:35:21Z</time>
      </trkpt>
      <trkpt lat="46.02419" lon="6.57897">
        <ele>1472.405</ele>
        <time>2026-03-15T12:35:26Z</time>
      </trkpt>
      <trkpt lat="46.02427" lon="6.57892">
        <ele>1468.968</ele>
        <time>2026-03-15T12:35:31Z</time>
      </trkpt>
      <trkpt lat="46.02427" lon="6.57892">
        <ele>1468.239</ele>
        <time>2026-03-15T12:35:36Z</time>
      </trkpt>
      <trkpt lat="46.02427" lon="6.57892">
        <ele>1467.876</ele>
        <time>2026-03-15T12:35:41Z</time>
      </trkpt>
      <trkpt lat="46.02435" lon="6.57884">
        <ele>1462.675</ele>
        <time>2026-03-15T12:35:46Z</time>
      </trkpt>
      <trkpt lat="46.02446" lon="6.57875">
        <ele>1456.706</ele>
        <time>2026-03-15T12:35:51Z</time>
      </trkpt>
      <trkpt lat="46.02451" lon="6.57855">
        <ele>1449.542</ele>
        <time>2026-03-15T12:35:56Z</time>
      </trkpt>
      <trkpt lat="46.02461" lon="6.57844">
        <ele>1445.086</ele>
        <time>2026-03-15T12:36:01Z</time>
      </trkpt>
      <trkpt lat="46.02474" lon="6.57841">
        <ele>1436.458</ele>
        <time>2026-03-15T12:36:06Z</time>
      </trkpt>
      <trkpt lat="46.02475" lon="6.57839">
        <ele>1435.697</ele>
        <time>2026-03-15T12:36:11Z</time>
      </trkpt>
      <trkpt lat="46.02475" lon="6.57839">
        <ele>1435.913</ele>
        <time>2026-03-15T12:36:16Z</time>
      </trkpt>
      <trkpt lat="46.02475" lon="6.57839">
        <ele>1435.166</ele>
        <time>2026-03-15T12:36:21Z</time>
      </trkpt>
      <trkpt lat="46.02486" lon="6.5784">
        <ele>1431.836</ele>
        <time>2026-03-15T12:36:26Z</time>
      </trkpt>
      <trkpt lat="46.02498" lon="6.57823">
        <ele>1427.062</ele>
        <time>2026-03-15T12:36:31Z</time>
      </trkpt>
      <trkpt lat="46.02513" lon="6.57811">
        <ele>1416.678</ele>
        <time>2026-03-15T12:36:36Z</time>
      </trkpt>
      <trkpt lat="46.02524" lon="6.57791">
        <ele>1408.775</ele>
        <time>2026-03-15T12:36:41Z</time>
      </trkpt>
      <trkpt lat="46.02531" lon="6.57771">
        <ele>1402.622</ele>
        <time>2026-03-15T12:36:46Z</time>
      </trkpt>
      <trkpt lat="46.02532" lon="6.57755">
        <ele>1398.938</ele>
        <time>2026-03-15T12:36:51Z</time>
      </trkpt>
      <trkpt lat="46.02536" lon="6.57755">
        <ele>1397.97</ele>
        <time>2026-03-15T12:36:56Z</time>
      </trkpt>
      <trkpt lat="46.02534" lon="6.57748">
        <ele>1395.73</ele>
        <time>2026-03-15T12:37:01Z</time>
      </trkpt>
      <trkpt lat="46.02535" lon="6.57738">
        <ele>1395.288</ele>
        <time>2026-03-15T12:37:06Z</time>
      </trkpt>
      <trkpt lat="46.02535" lon="6.57734">
        <ele>1395.55</ele>
        <time>2026-03-15T12:37:11Z</time>
      </trkpt>
      <trkpt lat="46.02534" lon="6.57731">
        <ele>1396.16</ele>
        <time>2026-03-15T12:37:16Z</time>
      </trkpt>
      <trkpt lat="46.02533" lon="6.57729">
        <ele>1396.582</ele>
        <time>2026-03-15T12:37:21Z</time>
      </trkpt>
      <trkpt lat="46.02533" lon="6.57728">
        <ele>1396.453</ele>
        <time>2026-03-15T12:37:26Z</time>
      </trkpt>
      <trkpt lat="46.02533" lon="6.57728">
        <ele>1396.185</ele>
        <time>2026-03-15T12:37:31Z</time>
      </trkpt>
      <trkpt lat="46.02533" lon="6.57728">
        <ele>1396.809</ele>
        <time>2026-03-15T12:37:36Z</time>
      </trkpt>
      <trkpt lat="46.02533" lon="6.57728">
        <ele>1396.985</ele>
        <time>2026-03-15T12:37:41Z</time>
      </trkpt>
      <trkpt lat="46.02533" lon="6.57728">
        <ele>1397.039</ele>
        <time>2026-03-15T12:37:46Z</time>
      </trkpt>
      <trkpt lat="46.02533" lon="6.57728">
        <ele>1397.071</ele>
        <time>2026-03-15T12:37:51Z</time>
      </trkpt>
      <trkpt lat="46.02533" lon="6.57728">
        <ele>1397.01</ele>
        <time>2026-03-15T12:37:56Z</time>
      </trkpt>
      <trkpt lat="46.02533" lon="6.57728">
        <ele>1397.033</ele>
        <time>2026-03-15T12:38:01Z</time>
      </trkpt>
      <trkpt lat="46.02533" lon="6.57728">
        <ele>1397.031</ele>
        <time>2026-03-15T12:38:06Z</time>
      </trkpt>
      <trkpt lat="46.02533" lon="6.57728">
        <ele>1397.029</ele>
        <time>2026-03-15T12:38:11Z</time>
      </trkpt>
      <trkpt lat="46.02533" lon="6.57728">
        <ele>1396.999</ele>
        <time>2026-03-15T12:38:16Z</time>
      </trkpt>
      <trkpt lat="46.02533" lon="6.57728">
        <ele>1396.984</ele>
        <time>2026-03-15T12:38:21Z</time>
      </trkpt>
      <trkpt lat="46.02533" lon="6.57728">
        <ele>1396.977</ele>
        <time>2026-03-15T12:38:26Z</time>
      </trkpt>
      <trkpt lat="46.02533" lon="6.57728">
        <ele>1396.973</ele>
        <time>2026-03-15T12:38:31Z</time>
      </trkpt>
      <trkpt lat="46.02533" lon="6.57728">
        <ele>1396.964</ele>
        <time>2026-03-15T12:38:36Z</time>
      </trkpt>
      <trkpt lat="46.02533" lon="6.57728">
        <ele>1396.954</ele>
        <time>2026-03-15T12:38:41Z</time>
      </trkpt>
      <trkpt lat="46.02535" lon="6.57728">
        <ele>1396.945</ele>
        <time>2026-03-15T12:38:46Z</time>
      </trkpt>
      <trkpt lat="46.02535" lon="6.57728">
        <ele>1396.94</ele>
        <time>2026-03-15T12:38:51Z</time>
      </trkpt>
      <trkpt lat="46.02535" lon="6.57728">
        <ele>1396.928</ele>
        <time>2026-03-15T12:38:56Z</time>
      </trkpt>
      <trkpt lat="46.02535" lon="6.57728">
        <ele>1396.918</ele>
        <time>2026-03-15T12:39:01Z</time>
      </trkpt>
      <trkpt lat="46.02536" lon="6.57727">
        <ele>1393.543</ele>
        <time>2026-03-15T12:39:06Z</time>
      </trkpt>
      <trkpt lat="46.02554" lon="6.57721">
        <ele>1385.716</ele>
        <time>2026-03-15T12:39:11Z</time>
      </trkpt>
      <trkpt lat="46.02574" lon="6.57705">
        <ele>1376.295</ele>
        <time>2026-03-15T12:39:16Z</time>
      </trkpt>
      <trkpt lat="46.02593" lon="6.57698">
        <ele>1369.508</ele>
        <time>2026-03-15T12:39:21Z</time>
      </trkpt>
      <trkpt lat="46.02617" lon="6.57683">
        <ele>1360.394</ele>
        <time>2026-03-15T12:39:26Z</time>
      </trkpt>
      <trkpt lat="46.02643" lon="6.57662">
        <ele>1351.178</ele>
        <time>2026-03-15T12:39:31Z</time>
      </trkpt>
      <trkpt lat="46.02667" lon="6.57642">
        <ele>1344.725</ele>
        <time>2026-03-15T12:39:36Z</time>
      </trkpt>
      <trkpt lat="46.0269" lon="6.57614">
        <ele>1339.272</ele>
        <time>2026-03-15T12:39:41Z</time>
      </trkpt>
      <trkpt lat="46.02717" lon="6.57593">
        <ele>1331.45</ele>
        <time>2026-03-15T12:39:46Z</time>
      </trkpt>
      <trkpt lat="46.02745" lon="6.57572">
        <ele>1324.263</ele>
        <time>2026-03-15T12:39:51Z</time>
      </trkpt>
      <trkpt lat="46.02769" lon="6.57558">
        <ele>1320.504</ele>
        <time>2026-03-15T12:39:56Z</time>
      </trkpt>
      <trkpt lat="46.02798" lon="6.57554">
        <ele>1314.557</ele>
        <time>2026-03-15T12:40:01Z</time>
      </trkpt>
      <trkpt lat="46.02829" lon="6.57548">
        <ele>1311.412</ele>
        <time>2026-03-15T12:40:06Z</time>
      </trkpt>
      <trkpt lat="46.02851" lon="6.57554">
        <ele>1308.864</ele>
        <time>2026-03-15T12:40:11Z</time>
      </trkpt>
      <trkpt lat="46.02876" lon="6.57571">
        <ele>1305.078</ele>
        <time>2026-03-15T12:40:16Z</time>
      </trkpt>
      <trkpt lat="46.02906" lon="6.57584">
        <ele>1300.255</ele>
        <time>2026-03-15T12:40:21Z</time>
      </trkpt>
      <trkpt lat="46.02936" lon="6.57588">
        <ele>1295.193</ele>
        <time>2026-03-15T12:40:26Z</time>
      </trkpt>
      <trkpt lat="46.02966" lon="6.57596">
        <ele>1291.383</ele>
        <time>2026-03-15T12:40:31Z</time>
      </trkpt>
      <trkpt lat="46.02995" lon="6.57612">
        <ele>1288.615</ele>
        <time>2026-03-15T12:40:36Z</time>
      </trkpt>
      <trkpt lat="46.0302" lon="6.57615">
        <ele>1287.887</ele>
        <time>2026-03-15T12:40:41Z</time>
      </trkpt>
      <trkpt lat="46.03041" lon="6.57613">
        <ele>1286.145</ele>
        <time>2026-03-15T12:40:46Z</time>
      </trkpt>
      <trkpt lat="46.03055" lon="6.57608">
        <ele>1286.478</ele>
        <time>2026-03-15T12:40:51Z</time>
      </trkpt>
      <trkpt lat="46.0306" lon="6.57606">
        <ele>1286.92</ele>
        <time>2026-03-15T12:40:56Z</time>
      </trkpt>
      <trkpt lat="46.03063" lon="6.57606">
        <ele>1287.134</ele>
        <time>2026-03-15T12:41:01Z</time>
      </trkpt>
      <trkpt lat="46.03067" lon="6.57605">
        <ele>1286.96</ele>
        <time>2026-03-15T12:41:06Z</time>
      </trkpt>
      <trkpt lat="46.03068" lon="6.57606">
        <ele>1287.286</ele>
        <time>2026-03-15T12:41:11Z</time>
      </trkpt>
      <trkpt lat="46.0307" lon="6.57605">
        <ele>1287.385</ele>
        <time>2026-03-15T12:41:16Z</time>
      </trkpt>
      <trkpt lat="46.0307" lon="6.57605">
        <ele>1287.327</ele>
        <time>2026-03-15T12:41:21Z</time>
      </trkpt>
      <trkpt lat="46.0307" lon="6.57605">
        <ele>1287.165</ele>
        <time>2026-03-15T12:41:26Z</time>
      </trkpt>
      <trkpt lat="46.0307" lon="6.57605">
        <ele>1287.183</ele>
        <time>2026-03-15T12:41:31Z</time>
      </trkpt>
      <trkpt lat="46.0307" lon="6.57605">
        <ele>1287.189</ele>
        <time>2026-03-15T12:41:36Z</time>
      </trkpt>
      <trkpt lat="46.0307" lon="6.57605">
        <ele>1287.194</ele>
        <time>2026-03-15T12:41:41Z</time>
      </trkpt>
      <trkpt lat="46.0307" lon="6.57605">
        <ele>1287.202</ele>
        <time>2026-03-15T12:41:46Z</time>
      </trkpt>
      <trkpt lat="46.0307" lon="6.57605">
        <ele>1287.199</ele>
        <time>2026-03-15T12:41:51Z</time>
      </trkpt>
      <trkpt lat="46.0307" lon="6.57605">
        <ele>1287.386</ele>
        <time>2026-03-15T12:41:56Z</time>
      </trkpt>
      <trkpt lat="46.0307" lon="6.57605">
        <ele>1288.1</ele>
        <time>2026-03-15T12:42:01Z</time>
      </trkpt>
      <trkpt lat="46.03071" lon="6.57605">
        <ele>1287.989</ele>
        <time>2026-03-15T12:42:06Z</time>
      </trkpt>
      <trkpt lat="46.03072" lon="6.57604">
        <ele>1287.792</ele>
        <time>2026-03-15T12:42:11Z</time>
      </trkpt>
      <trkpt lat="46.03076" lon="6.57601">
        <ele>1286.895</ele>
        <time>2026-03-15T12:42:16Z</time>
      </trkpt>
      <trkpt lat="46.03078" lon="6.576">
        <ele>1287.575</ele>
        <time>2026-03-15T12:42:21Z</time>
      </trkpt>
      <trkpt lat="46.03081" lon="6.57599">
        <ele>1287.249</ele>
        <time>2026-03-15T12:42:26Z</time>
      </trkpt>
      <trkpt lat="46.03083" lon="6.57597">
        <ele>1287.641</ele>
        <time>2026-03-15T12:42:31Z</time>
        <extensions>
          <visugpx:TrkExtension xmlns:visugpx="https://www.visugpx.com/editgpx/">
            <visugpx:node>1</visugpx:node>
            </visugpx:TrkExtension>
        </extensions>
      </trkpt>
    </trkseg>
  </trk>
</gpx>